<?xml version='1.0' encoding='UTF-8'?><gpx version="1.1" creator="JPX - https://github.com/jenetics/jpx" xmlns="http://www.topografix.com/GPX/1/1"><trk><trkseg><trkpt lat="45.72362" lon="8.4239167"><ele>394.99999999999994</ele><time>2026-04-06T08:14:33.134Z</time></trkpt><trkpt lat="45.7236467" lon="8.42382"><ele>395.0</ele><time>2026-04-06T08:14:36.135Z</time></trkpt><trkpt lat="45.7236217" lon="8.4237083"><ele>395.0</ele><time>2026-04-06T08:14:38.135Z</time></trkpt><trkpt lat="45.723585" lon="8.42361"><ele>395.0</ele><time>2026-04-06T08:14:41.135Z</time></trkpt><trkpt lat="45.7234983" lon="8.423605"><ele>394.99999999999994</ele><time>2026-04-06T08:14:45.135Z</time></trkpt><trkpt lat="45.72341" lon="8.4236533"><ele>395.0</ele><time>2026-04-06T08:14:47.135Z</time></trkpt><trkpt lat="45.7233117" lon="8.4236983"><ele>394.49999999999994</ele><time>2026-04-06T08:14:49.135Z</time></trkpt><trkpt lat="45.7232317" lon="8.4237583"><ele>394.0</ele><time>2026-04-06T08:14:51.134Z</time></trkpt><trkpt lat="45.7232267" lon="8.4238983"><ele>393.5</ele><time>2026-04-06T08:14:53.135Z</time></trkpt><trkpt lat="45.7232483" lon="8.42399"><ele>393.0</ele><time>2026-04-06T08:14:54.135Z</time></trkpt><trkpt lat="45.723285" lon="8.4241117"><ele>392.49999999999994</ele><time>2026-04-06T08:14:55.135Z</time></trkpt><trkpt lat="45.7233183" lon="8.4242117"><ele>392.0</ele><time>2026-04-06T08:14:56.134Z</time></trkpt><trkpt lat="45.7233517" lon="8.4242983"><ele>391.99999999999994</ele><time>2026-04-06T08:14:57.135Z</time></trkpt><trkpt lat="45.7234017" lon="8.4244417"><ele>392.0</ele><time>2026-04-06T08:14:59.135Z</time></trkpt><trkpt lat="45.723445" lon="8.4245717"><ele>392.0</ele><time>2026-04-06T08:15:01.135Z</time></trkpt><trkpt lat="45.72347" lon="8.4246717"><ele>392.0</ele><time>2026-04-06T08:15:03.135Z</time></trkpt><trkpt lat="45.7235233" lon="8.4247267"><ele>391.99999999999994</ele><time>2026-04-06T08:15:05.135Z</time></trkpt><trkpt lat="45.72361" lon="8.4246883"><ele>392.0</ele><time>2026-04-06T08:15:07.134Z</time></trkpt><trkpt lat="45.723675" lon="8.4246433"><ele>392.6</ele><time>2026-04-06T08:15:08.135Z</time></trkpt><trkpt lat="45.7237567" lon="8.4245983"><ele>393.20000000000005</ele><time>2026-04-06T08:15:09.135Z</time></trkpt><trkpt lat="45.723855" lon="8.4245533"><ele>393.8</ele><time>2026-04-06T08:15:10.135Z</time></trkpt><trkpt lat="45.7239483" lon="8.4244933"><ele>394.4</ele><time>2026-04-06T08:15:11.135Z</time></trkpt><trkpt lat="45.7240467" lon="8.424445"><ele>395.0</ele><time>2026-04-06T08:15:12.135Z</time></trkpt><trkpt lat="45.7241467" lon="8.42439"><ele>395.0</ele><time>2026-04-06T08:15:13.134Z</time></trkpt><trkpt lat="45.7242517" lon="8.4243383"><ele>395.0</ele><time>2026-04-06T08:15:14.135Z</time></trkpt><trkpt lat="45.724345" lon="8.42429"><ele>395.0</ele><time>2026-04-06T08:15:15.135Z</time></trkpt><trkpt lat="45.72443" lon="8.4242417"><ele>395.0</ele><time>2026-04-06T08:15:16.135Z</time></trkpt><trkpt lat="45.724515" lon="8.4242017"><ele>395.0</ele><time>2026-04-06T08:15:17.135Z</time></trkpt><trkpt lat="45.7245867" lon="8.42416"><ele>395.2</ele><time>2026-04-06T08:15:18.135Z</time></trkpt><trkpt lat="45.7246667" lon="8.42412"><ele>395.4</ele><time>2026-04-06T08:15:19.135Z</time></trkpt><trkpt lat="45.7247617" lon="8.4240617"><ele>395.6</ele><time>2026-04-06T08:15:20.135Z</time></trkpt><trkpt lat="45.724865" lon="8.4239883"><ele>395.8</ele><time>2026-04-06T08:15:21.134Z</time></trkpt><trkpt lat="45.7249583" lon="8.4238933"><ele>396.0</ele><time>2026-04-06T08:15:22.135Z</time></trkpt><trkpt lat="45.7250617" lon="8.4237983"><ele>396.0</ele><time>2026-04-06T08:15:23.135Z</time></trkpt><trkpt lat="45.7251583" lon="8.4237033"><ele>396.0</ele><time>2026-04-06T08:15:24.135Z</time></trkpt><trkpt lat="45.7252367" lon="8.423605"><ele>396.0</ele><time>2026-04-06T08:15:25.135Z</time></trkpt><trkpt lat="45.7253067" lon="8.4235"><ele>396.0</ele><time>2026-04-06T08:15:26.134Z</time></trkpt><trkpt lat="45.7253683" lon="8.4234083"><ele>396.0</ele><time>2026-04-06T08:15:27.135Z</time></trkpt><trkpt lat="45.72542" lon="8.4233317"><ele>395.0</ele><time>2026-04-06T08:15:28.135Z</time></trkpt><trkpt lat="45.7254883" lon="8.423245"><ele>394.0</ele><time>2026-04-06T08:15:30.135Z</time></trkpt><trkpt lat="45.72557" lon="8.4233183"><ele>393.0</ele><time>2026-04-06T08:15:32.135Z</time></trkpt><trkpt lat="45.7256367" lon="8.4234317"><ele>392.0</ele><time>2026-04-06T08:15:34.135Z</time></trkpt><trkpt lat="45.7257" lon="8.42345"><ele>391.0</ele><time>2026-04-06T08:15:36.135Z</time></trkpt><trkpt lat="45.725795" lon="8.42334"><ele>391.00000000000006</ele><time>2026-04-06T08:15:38.135Z</time></trkpt><trkpt lat="45.7258533" lon="8.4232533"><ele>391.0</ele><time>2026-04-06T08:15:39.135Z</time></trkpt><trkpt lat="45.7259133" lon="8.4231683"><ele>391.0</ele><time>2026-04-06T08:15:40.135Z</time></trkpt><trkpt lat="45.7259717" lon="8.4230783"><ele>391.0</ele><time>2026-04-06T08:15:41.135Z</time></trkpt><trkpt lat="45.72603" lon="8.423015"><ele>391.00000000000006</ele><time>2026-04-06T08:15:42.135Z</time></trkpt><trkpt lat="45.7261267" lon="8.422935"><ele>391.0</ele><time>2026-04-06T08:15:44.135Z</time></trkpt><trkpt lat="45.726145" lon="8.4228033"><ele>391.6</ele><time>2026-04-06T08:15:46.135Z</time></trkpt><trkpt lat="45.7260917" lon="8.4227117"><ele>392.20000000000005</ele><time>2026-04-06T08:15:47.134Z</time></trkpt><trkpt lat="45.72604" lon="8.4226017"><ele>392.79999999999995</ele><time>2026-04-06T08:15:48.135Z</time></trkpt><trkpt lat="45.72597" lon="8.4224767"><ele>393.4</ele><time>2026-04-06T08:15:49.135Z</time></trkpt><trkpt lat="45.7258883" lon="8.42232"><ele>394.0</ele><time>2026-04-06T08:15:50.135Z</time></trkpt><trkpt lat="45.7258083" lon="8.4221583"><ele>397.25</ele><time>2026-04-06T08:15:51.135Z</time></trkpt><trkpt lat="45.7257217" lon="8.422005"><ele>400.5</ele><time>2026-04-06T08:15:52.134Z</time></trkpt><trkpt lat="45.725645" lon="8.4218433"><ele>403.75</ele><time>2026-04-06T08:15:53.135Z</time></trkpt><trkpt lat="45.7255767" lon="8.4216983"><ele>407.0</ele><time>2026-04-06T08:15:54.135Z</time></trkpt><trkpt lat="45.7255133" lon="8.4215717"><ele>407.0</ele><time>2026-04-06T08:15:55.134Z</time></trkpt><trkpt lat="45.7254617" lon="8.4214483"><ele>407.0</ele><time>2026-04-06T08:15:56.135Z</time></trkpt><trkpt lat="45.7254167" lon="8.4213183"><ele>407.0</ele><time>2026-04-06T08:15:57.135Z</time></trkpt><trkpt lat="45.7253933" lon="8.4211783"><ele>407.0</ele><time>2026-04-06T08:15:58.135Z</time></trkpt><trkpt lat="45.7253783" lon="8.4210283"><ele>407.0</ele><time>2026-04-06T08:15:59.135Z</time></trkpt><trkpt lat="45.7253583" lon="8.4208883"><ele>406.99999999999994</ele><time>2026-04-06T08:16:00.135Z</time></trkpt><trkpt lat="45.72533" lon="8.4207533"><ele>407.0</ele><time>2026-04-06T08:16:01.135Z</time></trkpt><trkpt lat="45.7253017" lon="8.42063"><ele>407.0</ele><time>2026-04-06T08:16:02.135Z</time></trkpt><trkpt lat="45.725275" lon="8.4205183"><ele>407.0</ele><time>2026-04-06T08:16:03.135Z</time></trkpt><trkpt lat="45.72524" lon="8.4204217"><ele>406.99999999999994</ele><time>2026-04-06T08:16:04.135Z</time></trkpt><trkpt lat="45.7252083" lon="8.42034"><ele>407.0</ele><time>2026-04-06T08:16:05.135Z</time></trkpt><trkpt lat="45.7251483" lon="8.420275"><ele>407.0</ele><time>2026-04-06T08:16:06.134Z</time></trkpt><trkpt lat="45.7250433" lon="8.42027"><ele>407.0</ele><time>2026-04-06T08:16:07.134Z</time></trkpt><trkpt lat="45.72494" lon="8.42026"><ele>407.0</ele><time>2026-04-06T08:16:08.134Z</time></trkpt><trkpt lat="45.72483" lon="8.4202433"><ele>407.0</ele><time>2026-04-06T08:16:09.135Z</time></trkpt><trkpt lat="45.724725" lon="8.42023"><ele>407.0</ele><time>2026-04-06T08:16:10.135Z</time></trkpt><trkpt lat="45.72462" lon="8.420215"><ele>407.0</ele><time>2026-04-06T08:16:11.135Z</time></trkpt><trkpt lat="45.7245133" lon="8.4201883"><ele>407.0</ele><time>2026-04-06T08:16:12.135Z</time></trkpt><trkpt lat="45.72439" lon="8.4201717"><ele>407.0</ele><time>2026-04-06T08:16:13.134Z</time></trkpt><trkpt lat="45.7242683" lon="8.4201867"><ele>407.0</ele><time>2026-04-06T08:16:14.135Z</time></trkpt><trkpt lat="45.7241517" lon="8.4202433"><ele>402.5</ele><time>2026-04-06T08:16:15.135Z</time></trkpt><trkpt lat="45.72404" lon="8.4203083"><ele>398.0</ele><time>2026-04-06T08:16:16.135Z</time></trkpt><trkpt lat="45.7239133" lon="8.4203617"><ele>393.5</ele><time>2026-04-06T08:16:17.134Z</time></trkpt><trkpt lat="45.7237783" lon="8.4203867"><ele>389.0</ele><time>2026-04-06T08:16:18.134Z</time></trkpt><trkpt lat="45.7236283" lon="8.4204067"><ele>386.0</ele><time>2026-04-06T08:16:19.135Z</time></trkpt><trkpt lat="45.7234833" lon="8.4204283"><ele>383.0</ele><time>2026-04-06T08:16:20.135Z</time></trkpt><trkpt lat="45.7233383" lon="8.4204467"><ele>380.0</ele><time>2026-04-06T08:16:21.135Z</time></trkpt><trkpt lat="45.7231967" lon="8.4204583"><ele>377.0</ele><time>2026-04-06T08:16:22.134Z</time></trkpt><trkpt lat="45.72306" lon="8.4204767"><ele>379.25</ele><time>2026-04-06T08:16:23.135Z</time></trkpt><trkpt lat="45.7229233" lon="8.420495"><ele>381.5</ele><time>2026-04-06T08:16:24.135Z</time></trkpt><trkpt lat="45.722795" lon="8.4205183"><ele>383.75</ele><time>2026-04-06T08:16:25.135Z</time></trkpt><trkpt lat="45.722665" lon="8.4205383"><ele>386.0</ele><time>2026-04-06T08:16:26.135Z</time></trkpt><trkpt lat="45.72254" lon="8.420565"><ele>386.0</ele><time>2026-04-06T08:16:27.135Z</time></trkpt><trkpt lat="45.722415" lon="8.4205983"><ele>386.0</ele><time>2026-04-06T08:16:28.134Z</time></trkpt><trkpt lat="45.7222967" lon="8.42063"><ele>386.0</ele><time>2026-04-06T08:16:29.135Z</time></trkpt><trkpt lat="45.7221733" lon="8.4206467"><ele>386.0</ele><time>2026-04-06T08:16:30.135Z</time></trkpt><trkpt lat="45.7220517" lon="8.4206783"><ele>386.0</ele><time>2026-04-06T08:16:31.135Z</time></trkpt><trkpt lat="45.7219367" lon="8.4206983"><ele>386.0</ele><time>2026-04-06T08:16:32.134Z</time></trkpt><trkpt lat="45.72183" lon="8.4207017"><ele>386.0</ele><time>2026-04-06T08:16:33.135Z</time></trkpt><trkpt lat="45.72172" lon="8.4206533"><ele>386.0</ele><time>2026-04-06T08:16:34.135Z</time></trkpt><trkpt lat="45.7216217" lon="8.4205667"><ele>383.0</ele><time>2026-04-06T08:16:35.135Z</time></trkpt><trkpt lat="45.7215333" lon="8.4204467"><ele>380.0</ele><time>2026-04-06T08:16:36.135Z</time></trkpt><trkpt lat="45.7214633" lon="8.4203267"><ele>377.0</ele><time>2026-04-06T08:16:37.135Z</time></trkpt><trkpt lat="45.721385" lon="8.42021"><ele>374.0</ele><time>2026-04-06T08:16:38.135Z</time></trkpt><trkpt lat="45.72131" lon="8.4200933"><ele>374.0</ele><time>2026-04-06T08:16:39.134Z</time></trkpt><trkpt lat="45.72124" lon="8.4199783"><ele>374.0</ele><time>2026-04-06T08:16:40.135Z</time></trkpt><trkpt lat="45.721165" lon="8.4198667"><ele>374.0</ele><time>2026-04-06T08:16:41.135Z</time></trkpt><trkpt lat="45.7211067" lon="8.41974"><ele>374.0</ele><time>2026-04-06T08:16:42.135Z</time></trkpt><trkpt lat="45.721075" lon="8.4196083"><ele>374.0</ele><time>2026-04-06T08:16:43.135Z</time></trkpt><trkpt lat="45.72106" lon="8.4194467"><ele>374.5</ele><time>2026-04-06T08:16:44.135Z</time></trkpt><trkpt lat="45.7210583" lon="8.419255"><ele>375.0</ele><time>2026-04-06T08:16:45.135Z</time></trkpt><trkpt lat="45.72106" lon="8.4190533"><ele>375.5</ele><time>2026-04-06T08:16:46.135Z</time></trkpt><trkpt lat="45.7210683" lon="8.41885"><ele>376.0</ele><time>2026-04-06T08:16:47.135Z</time></trkpt><trkpt lat="45.7210733" lon="8.4186883"><ele>379.0</ele><time>2026-04-06T08:16:48.135Z</time></trkpt><trkpt lat="45.721085" lon="8.4185367"><ele>382.0</ele><time>2026-04-06T08:16:49.134Z</time></trkpt><trkpt lat="45.7211" lon="8.4184033"><ele>385.0</ele><time>2026-04-06T08:16:50.135Z</time></trkpt><trkpt lat="45.721115" lon="8.4183067"><ele>388.0</ele><time>2026-04-06T08:16:51.135Z</time></trkpt><trkpt lat="45.7211917" lon="8.4181633"><ele>391.0</ele><time>2026-04-06T08:16:53.134Z</time></trkpt><trkpt lat="45.72124" lon="8.4180983"><ele>391.0</ele><time>2026-04-06T08:16:54.134Z</time></trkpt><trkpt lat="45.7213217" lon="8.41805"><ele>391.0</ele><time>2026-04-06T08:16:55.135Z</time></trkpt><trkpt lat="45.7214433" lon="8.4180067"><ele>391.0</ele><time>2026-04-06T08:16:56.135Z</time></trkpt><trkpt lat="45.7216067" lon="8.4180017"><ele>391.0</ele><time>2026-04-06T08:16:57.135Z</time></trkpt><trkpt lat="45.72177" lon="8.4180033"><ele>391.5</ele><time>2026-04-06T08:16:58.135Z</time></trkpt><trkpt lat="45.7219233" lon="8.418005"><ele>392.0</ele><time>2026-04-06T08:16:59.135Z</time></trkpt><trkpt lat="45.7220517" lon="8.4180067"><ele>392.5</ele><time>2026-04-06T08:17:00.135Z</time></trkpt><trkpt lat="45.72216" lon="8.4180083"><ele>393.0</ele><time>2026-04-06T08:17:01.135Z</time></trkpt><trkpt lat="45.72226" lon="8.4180083"><ele>393.0</ele><time>2026-04-06T08:17:02.135Z</time></trkpt><trkpt lat="45.7223483" lon="8.4180183"><ele>393.0</ele><time>2026-04-06T08:17:03.135Z</time></trkpt><trkpt lat="45.72243" lon="8.4180233"><ele>393.0</ele><time>2026-04-06T08:17:04.134Z</time></trkpt><trkpt lat="45.7225033" lon="8.4180083"><ele>393.0</ele><time>2026-04-06T08:17:05.135Z</time></trkpt><trkpt lat="45.7226117" lon="8.41795"><ele>393.0</ele><time>2026-04-06T08:17:07.135Z</time></trkpt><trkpt lat="45.7226733" lon="8.4178"><ele>392.8333333333333</ele><time>2026-04-06T08:17:09.135Z</time></trkpt><trkpt lat="45.7227133" lon="8.4177167"><ele>392.66666666666663</ele><time>2026-04-06T08:17:10.134Z</time></trkpt><trkpt lat="45.722755" lon="8.4176183"><ele>392.5</ele><time>2026-04-06T08:17:11.135Z</time></trkpt><trkpt lat="45.7228" lon="8.4175033"><ele>392.3333333333333</ele><time>2026-04-06T08:17:12.135Z</time></trkpt><trkpt lat="45.7228417" lon="8.4173833"><ele>392.16666666666663</ele><time>2026-04-06T08:17:13.135Z</time></trkpt><trkpt lat="45.7228883" lon="8.4172633"><ele>392.0</ele><time>2026-04-06T08:17:14.134Z</time></trkpt><trkpt lat="45.722935" lon="8.4171283"><ele>395.6</ele><time>2026-04-06T08:17:15.134Z</time></trkpt><trkpt lat="45.7229733" lon="8.4169817"><ele>399.20000000000005</ele><time>2026-04-06T08:17:16.134Z</time></trkpt><trkpt lat="45.723015" lon="8.4168233"><ele>402.8</ele><time>2026-04-06T08:17:17.135Z</time></trkpt><trkpt lat="45.7230733" lon="8.416685"><ele>406.4</ele><time>2026-04-06T08:17:18.135Z</time></trkpt><trkpt lat="45.72314" lon="8.4165683"><ele>410.0</ele><time>2026-04-06T08:17:19.134Z</time></trkpt><trkpt lat="45.723215" lon="8.41646"><ele>410.0</ele><time>2026-04-06T08:17:20.135Z</time></trkpt><trkpt lat="45.723285" lon="8.4163367"><ele>410.0</ele><time>2026-04-06T08:17:21.135Z</time></trkpt><trkpt lat="45.723355" lon="8.4161867"><ele>410.0</ele><time>2026-04-06T08:17:22.135Z</time></trkpt><trkpt lat="45.7234233" lon="8.4160317"><ele>410.0</ele><time>2026-04-06T08:17:23.135Z</time></trkpt><trkpt lat="45.7234917" lon="8.41589"><ele>408.5</ele><time>2026-04-06T08:17:24.135Z</time></trkpt><trkpt lat="45.7235633" lon="8.4157567"><ele>407.0</ele><time>2026-04-06T08:17:25.135Z</time></trkpt><trkpt lat="45.7236567" lon="8.415635"><ele>405.5</ele><time>2026-04-06T08:17:26.134Z</time></trkpt><trkpt lat="45.72377" lon="8.415505"><ele>404.0</ele><time>2026-04-06T08:17:27.135Z</time></trkpt><trkpt lat="45.7239" lon="8.4153417"><ele>414.0</ele><time>2026-04-06T08:17:28.135Z</time></trkpt><trkpt lat="45.7240283" lon="8.4151567"><ele>424.0</ele><time>2026-04-06T08:17:29.135Z</time></trkpt><trkpt lat="45.7241467" lon="8.4149717"><ele>434.0</ele><time>2026-04-06T08:17:30.135Z</time></trkpt><trkpt lat="45.724245" lon="8.41479"><ele>429.0</ele><time>2026-04-06T08:17:31.135Z</time></trkpt><trkpt lat="45.72434" lon="8.4146283"><ele>424.0</ele><time>2026-04-06T08:17:32.134Z</time></trkpt><trkpt lat="45.7244033" lon="8.414435"><ele>419.0</ele><time>2026-04-06T08:17:33.135Z</time></trkpt><trkpt lat="45.72445" lon="8.4142167"><ele>419.0</ele><time>2026-04-06T08:17:34.134Z</time></trkpt><trkpt lat="45.7245133" lon="8.4139833"><ele>419.0</ele><time>2026-04-06T08:17:35.135Z</time></trkpt><trkpt lat="45.7245767" lon="8.4137733"><ele>419.0</ele><time>2026-04-06T08:17:36.135Z</time></trkpt><trkpt lat="45.724635" lon="8.4136"><ele>421.6</ele><time>2026-04-06T08:17:37.135Z</time></trkpt><trkpt lat="45.7246733" lon="8.413475"><ele>424.2</ele><time>2026-04-06T08:17:38.134Z</time></trkpt><trkpt lat="45.7246783" lon="8.413365"><ele>426.80000000000007</ele><time>2026-04-06T08:17:39.135Z</time></trkpt><trkpt lat="45.72465" lon="8.4132483"><ele>429.40000000000003</ele><time>2026-04-06T08:17:40.135Z</time></trkpt><trkpt lat="45.72461" lon="8.4131367"><ele>432.0</ele><time>2026-04-06T08:17:41.135Z</time></trkpt><trkpt lat="45.7245383" lon="8.4130167"><ele>430.25</ele><time>2026-04-06T08:17:42.135Z</time></trkpt><trkpt lat="45.7244483" lon="8.4129033"><ele>428.5</ele><time>2026-04-06T08:17:43.135Z</time></trkpt><trkpt lat="45.72432" lon="8.4128033"><ele>426.75</ele><time>2026-04-06T08:17:44.135Z</time></trkpt><trkpt lat="45.7241867" lon="8.41271"><ele>425.0</ele><time>2026-04-06T08:17:45.135Z</time></trkpt><trkpt lat="45.7240617" lon="8.4126067"><ele>430.5</ele><time>2026-04-06T08:17:46.135Z</time></trkpt><trkpt lat="45.72395" lon="8.4125"><ele>436.0</ele><time>2026-04-06T08:17:47.135Z</time></trkpt><trkpt lat="45.7238533" lon="8.4123983"><ele>441.5</ele><time>2026-04-06T08:17:48.135Z</time></trkpt><trkpt lat="45.7237667" lon="8.4123033"><ele>447.0</ele><time>2026-04-06T08:17:49.135Z</time></trkpt><trkpt lat="45.723695" lon="8.4122033"><ele>446.40000000000003</ele><time>2026-04-06T08:17:50.135Z</time></trkpt><trkpt lat="45.723635" lon="8.4120917"><ele>445.80000000000007</ele><time>2026-04-06T08:17:51.134Z</time></trkpt><trkpt lat="45.7235833" lon="8.4119833"><ele>445.2</ele><time>2026-04-06T08:17:52.134Z</time></trkpt><trkpt lat="45.72355" lon="8.4118667"><ele>444.6</ele><time>2026-04-06T08:17:53.134Z</time></trkpt><trkpt lat="45.7235383" lon="8.4117383"><ele>444.0</ele><time>2026-04-06T08:17:54.134Z</time></trkpt><trkpt lat="45.7235533" lon="8.4115883"><ele>444.0</ele><time>2026-04-06T08:17:55.134Z</time></trkpt><trkpt lat="45.7235817" lon="8.4114267"><ele>444.0</ele><time>2026-04-06T08:17:56.133Z</time></trkpt><trkpt lat="45.72361" lon="8.411285"><ele>444.0</ele><time>2026-04-06T08:17:57.134Z</time></trkpt><trkpt lat="45.7236167" lon="8.4111517"><ele>444.0</ele><time>2026-04-06T08:17:58.134Z</time></trkpt><trkpt lat="45.7236033" lon="8.4110183"><ele>444.0</ele><time>2026-04-06T08:17:59.133Z</time></trkpt><trkpt lat="45.7235583" lon="8.410895"><ele>446.0</ele><time>2026-04-06T08:18:00.134Z</time></trkpt><trkpt lat="45.7235" lon="8.4107617"><ele>448.0</ele><time>2026-04-06T08:18:01.134Z</time></trkpt><trkpt lat="45.7234183" lon="8.4106317"><ele>450.0</ele><time>2026-04-06T08:18:02.133Z</time></trkpt><trkpt lat="45.723355" lon="8.410515"><ele>452.0</ele><time>2026-04-06T08:18:03.134Z</time></trkpt><trkpt lat="45.7233183" lon="8.4104033"><ele>454.0</ele><time>2026-04-06T08:18:04.134Z</time></trkpt><trkpt lat="45.723295" lon="8.4103"><ele>454.25</ele><time>2026-04-06T08:18:05.134Z</time></trkpt><trkpt lat="45.7232833" lon="8.4101683"><ele>454.5</ele><time>2026-04-06T08:18:06.133Z</time></trkpt><trkpt lat="45.7232917" lon="8.410005"><ele>454.75</ele><time>2026-04-06T08:18:07.134Z</time></trkpt><trkpt lat="45.7233333" lon="8.40982"><ele>455.0</ele><time>2026-04-06T08:18:08.134Z</time></trkpt><trkpt lat="45.72337" lon="8.409645"><ele>456.0</ele><time>2026-04-06T08:18:09.134Z</time></trkpt><trkpt lat="45.7234117" lon="8.40949"><ele>457.0</ele><time>2026-04-06T08:18:10.134Z</time></trkpt><trkpt lat="45.7234283" lon="8.4093433"><ele>458.0</ele><time>2026-04-06T08:18:11.134Z</time></trkpt><trkpt lat="45.7234267" lon="8.40921"><ele>459.0</ele><time>2026-04-06T08:18:12.134Z</time></trkpt><trkpt lat="45.7233983" lon="8.4090733"><ele>460.0</ele><time>2026-04-06T08:18:13.134Z</time></trkpt><trkpt lat="45.72336" lon="8.4089283"><ele>460.75</ele><time>2026-04-06T08:18:14.134Z</time></trkpt><trkpt lat="45.7233433" lon="8.4087817"><ele>461.5</ele><time>2026-04-06T08:18:15.134Z</time></trkpt><trkpt lat="45.72335" lon="8.4086383"><ele>462.25</ele><time>2026-04-06T08:18:16.134Z</time></trkpt><trkpt lat="45.7233683" lon="8.4084717"><ele>463.0</ele><time>2026-04-06T08:18:17.134Z</time></trkpt><trkpt lat="45.7234017" lon="8.408295"><ele>463.0</ele><time>2026-04-06T08:18:18.134Z</time></trkpt><trkpt lat="45.7234117" lon="8.4081283"><ele>462.99999999999994</ele><time>2026-04-06T08:18:19.134Z</time></trkpt><trkpt lat="45.723405" lon="8.4079633"><ele>462.99999999999994</ele><time>2026-04-06T08:18:20.134Z</time></trkpt><trkpt lat="45.7233933" lon="8.407815"><ele>463.0</ele><time>2026-04-06T08:18:21.133Z</time></trkpt><trkpt lat="45.7233733" lon="8.40768"><ele>463.0</ele><time>2026-04-06T08:18:22.134Z</time></trkpt><trkpt lat="45.7233483" lon="8.40755"><ele>463.57142857142856</ele><time>2026-04-06T08:18:23.134Z</time></trkpt><trkpt lat="45.7233333" lon="8.4074383"><ele>464.1428571428571</ele><time>2026-04-06T08:18:24.133Z</time></trkpt><trkpt lat="45.723345" lon="8.40733"><ele>464.71428571428567</ele><time>2026-04-06T08:18:25.134Z</time></trkpt><trkpt lat="45.723365" lon="8.4072367"><ele>465.2857142857142</ele><time>2026-04-06T08:18:26.134Z</time></trkpt><trkpt lat="45.72339" lon="8.4071483"><ele>465.85714285714283</ele><time>2026-04-06T08:18:27.134Z</time></trkpt><trkpt lat="45.7234017" lon="8.40705"><ele>466.42857142857133</ele><time>2026-04-06T08:18:28.133Z</time></trkpt><trkpt lat="45.7234" lon="8.4069533"><ele>466.99999999999994</ele><time>2026-04-06T08:18:29.134Z</time></trkpt><trkpt lat="45.72338" lon="8.406855"><ele>466.8333333333333</ele><time>2026-04-06T08:18:30.134Z</time></trkpt><trkpt lat="45.72337" lon="8.4067417"><ele>466.66666666666663</ele><time>2026-04-06T08:18:31.134Z</time></trkpt><trkpt lat="45.7233883" lon="8.40662"><ele>466.5</ele><time>2026-04-06T08:18:32.134Z</time></trkpt><trkpt lat="45.7234183" lon="8.4065083"><ele>466.33333333333337</ele><time>2026-04-06T08:18:33.134Z</time></trkpt><trkpt lat="45.723465" lon="8.406405"><ele>466.1666666666667</ele><time>2026-04-06T08:18:34.134Z</time></trkpt><trkpt lat="45.7234817" lon="8.4062817"><ele>466.0</ele><time>2026-04-06T08:18:35.134Z</time></trkpt><trkpt lat="45.7234917" lon="8.406155"><ele>466.0</ele><time>2026-04-06T08:18:36.134Z</time></trkpt><trkpt lat="45.7234783" lon="8.4060267"><ele>466.0</ele><time>2026-04-06T08:18:37.134Z</time></trkpt><trkpt lat="45.72344" lon="8.405895"><ele>466.0</ele><time>2026-04-06T08:18:38.133Z</time></trkpt><trkpt lat="45.7233733" lon="8.4057567"><ele>466.0</ele><time>2026-04-06T08:18:39.134Z</time></trkpt><trkpt lat="45.7233133" lon="8.40562"><ele>466.0</ele><time>2026-04-06T08:18:40.134Z</time></trkpt><trkpt lat="45.7232417" lon="8.405465"><ele>465.6</ele><time>2026-04-06T08:18:41.134Z</time></trkpt><trkpt lat="45.723165" lon="8.4053217"><ele>465.20000000000005</ele><time>2026-04-06T08:18:42.133Z</time></trkpt><trkpt lat="45.7230933" lon="8.4052083"><ele>464.79999999999995</ele><time>2026-04-06T08:18:43.133Z</time></trkpt><trkpt lat="45.72303" lon="8.4051317"><ele>464.4</ele><time>2026-04-06T08:18:44.134Z</time></trkpt><trkpt lat="45.7229483" lon="8.40507"><ele>464.0</ele><time>2026-04-06T08:18:45.134Z</time></trkpt><trkpt lat="45.7228617" lon="8.4050033"><ele>464.0</ele><time>2026-04-06T08:18:46.134Z</time></trkpt><trkpt lat="45.72277" lon="8.4049333"><ele>464.0</ele><time>2026-04-06T08:18:47.134Z</time></trkpt><trkpt lat="45.7226767" lon="8.404825"><ele>464.0</ele><time>2026-04-06T08:18:48.133Z</time></trkpt><trkpt lat="45.7225833" lon="8.404695"><ele>464.0</ele><time>2026-04-06T08:18:49.133Z</time></trkpt><trkpt lat="45.72247" lon="8.404575"><ele>467.4</ele><time>2026-04-06T08:18:50.134Z</time></trkpt><trkpt lat="45.72236" lon="8.4045017"><ele>470.79999999999995</ele><time>2026-04-06T08:18:51.134Z</time></trkpt><trkpt lat="45.7222783" lon="8.4044433"><ele>474.20000000000005</ele><time>2026-04-06T08:18:52.134Z</time></trkpt><trkpt lat="45.722205" lon="8.404385"><ele>477.6</ele><time>2026-04-06T08:18:53.134Z</time></trkpt><trkpt lat="45.7221417" lon="8.4043083"><ele>481.0</ele><time>2026-04-06T08:18:54.134Z</time></trkpt><trkpt lat="45.7221" lon="8.40421"><ele>481.0</ele><time>2026-04-06T08:18:55.134Z</time></trkpt><trkpt lat="45.72207" lon="8.40409"><ele>481.0</ele><time>2026-04-06T08:18:56.134Z</time></trkpt><trkpt lat="45.7220467" lon="8.40394"><ele>481.0</ele><time>2026-04-06T08:18:57.134Z</time></trkpt><trkpt lat="45.72203" lon="8.4037533"><ele>481.0</ele><time>2026-04-06T08:18:58.134Z</time></trkpt><trkpt lat="45.7220167" lon="8.4035583"><ele>481.25</ele><time>2026-04-06T08:18:59.133Z</time></trkpt><trkpt lat="45.7220233" lon="8.4033533"><ele>481.5</ele><time>2026-04-06T08:19:00.134Z</time></trkpt><trkpt lat="45.7220217" lon="8.403165"><ele>481.75</ele><time>2026-04-06T08:19:01.133Z</time></trkpt><trkpt lat="45.722035" lon="8.40298"><ele>482.0</ele><time>2026-04-06T08:19:02.133Z</time></trkpt><trkpt lat="45.7220433" lon="8.4027767"><ele>480.75</ele><time>2026-04-06T08:19:03.134Z</time></trkpt><trkpt lat="45.7220417" lon="8.4025717"><ele>479.5</ele><time>2026-04-06T08:19:04.134Z</time></trkpt><trkpt lat="45.7220383" lon="8.4023733"><ele>478.25</ele><time>2026-04-06T08:19:05.134Z</time></trkpt><trkpt lat="45.722035" lon="8.4021917"><ele>477.0</ele><time>2026-04-06T08:19:06.134Z</time></trkpt><trkpt lat="45.72203" lon="8.40201"><ele>476.75</ele><time>2026-04-06T08:19:07.134Z</time></trkpt><trkpt lat="45.7220433" lon="8.4018367"><ele>476.5</ele><time>2026-04-06T08:19:08.134Z</time></trkpt><trkpt lat="45.7220383" lon="8.4016617"><ele>476.25</ele><time>2026-04-06T08:19:09.134Z</time></trkpt><trkpt lat="45.722055" lon="8.4014933"><ele>476.0</ele><time>2026-04-06T08:19:10.133Z</time></trkpt><trkpt lat="45.722065" lon="8.40135"><ele>475.16666666666663</ele><time>2026-04-06T08:19:11.134Z</time></trkpt><trkpt lat="45.7220733" lon="8.4012017"><ele>474.3333333333333</ele><time>2026-04-06T08:19:12.133Z</time></trkpt><trkpt lat="45.7220867" lon="8.4010767"><ele>473.5</ele><time>2026-04-06T08:19:13.133Z</time></trkpt><trkpt lat="45.7221267" lon="8.400965"><ele>472.66666666666663</ele><time>2026-04-06T08:19:14.134Z</time></trkpt><trkpt lat="45.7221367" lon="8.4008433"><ele>471.8333333333333</ele><time>2026-04-06T08:19:15.134Z</time></trkpt><trkpt lat="45.7221367" lon="8.400725"><ele>471.0</ele><time>2026-04-06T08:19:16.134Z</time></trkpt><trkpt lat="45.7221217" lon="8.4006"><ele>470.4</ele><time>2026-04-06T08:19:17.134Z</time></trkpt><trkpt lat="45.7221033" lon="8.4004717"><ele>469.8</ele><time>2026-04-06T08:19:18.134Z</time></trkpt><trkpt lat="45.7220717" lon="8.4003433"><ele>469.19999999999993</ele><time>2026-04-06T08:19:19.134Z</time></trkpt><trkpt lat="45.7220283" lon="8.4002017"><ele>468.59999999999997</ele><time>2026-04-06T08:19:20.134Z</time></trkpt><trkpt lat="45.7219617" lon="8.4000583"><ele>468.0</ele><time>2026-04-06T08:19:21.134Z</time></trkpt><trkpt lat="45.7218733" lon="8.399905"><ele>468.0</ele><time>2026-04-06T08:19:22.134Z</time></trkpt><trkpt lat="45.721775" lon="8.3997567"><ele>467.99999999999994</ele><time>2026-04-06T08:19:23.133Z</time></trkpt><trkpt lat="45.7216983" lon="8.3996217"><ele>467.99999999999994</ele><time>2026-04-06T08:19:24.134Z</time></trkpt><trkpt lat="45.7216367" lon="8.399525"><ele>468.0</ele><time>2026-04-06T08:19:25.134Z</time></trkpt><trkpt lat="45.7215967" lon="8.3994533"><ele>468.0</ele><time>2026-04-06T08:19:26.134Z</time></trkpt><trkpt lat="45.7215683" lon="8.3993317"><ele>470.5</ele><time>2026-04-06T08:19:28.134Z</time></trkpt><trkpt lat="45.7216317" lon="8.3991817"><ele>473.0</ele><time>2026-04-06T08:19:30.134Z</time></trkpt><trkpt lat="45.7217417" lon="8.3991"><ele>475.5</ele><time>2026-04-06T08:19:31.134Z</time></trkpt><trkpt lat="45.7218533" lon="8.3990117"><ele>478.0</ele><time>2026-04-06T08:19:32.133Z</time></trkpt><trkpt lat="45.721965" lon="8.3989233"><ele>478.00000000000006</ele><time>2026-04-06T08:19:33.133Z</time></trkpt><trkpt lat="45.72207" lon="8.3988567"><ele>478.0</ele><time>2026-04-06T08:19:34.134Z</time></trkpt><trkpt lat="45.7221483" lon="8.3987867"><ele>478.0</ele><time>2026-04-06T08:19:35.134Z</time></trkpt><trkpt lat="45.7222033" lon="8.3987317"><ele>478.0</ele><time>2026-04-06T08:19:36.134Z</time></trkpt><trkpt lat="45.7222417" lon="8.3986567"><ele>478.00000000000006</ele><time>2026-04-06T08:19:37.134Z</time></trkpt><trkpt lat="45.722265" lon="8.3985517"><ele>478.0</ele><time>2026-04-06T08:19:38.134Z</time></trkpt><trkpt lat="45.7222567" lon="8.3984267"><ele>480.2</ele><time>2026-04-06T08:19:39.134Z</time></trkpt><trkpt lat="45.7222417" lon="8.3982867"><ele>482.4</ele><time>2026-04-06T08:19:40.134Z</time></trkpt><trkpt lat="45.72225" lon="8.3981383"><ele>484.59999999999997</ele><time>2026-04-06T08:19:41.134Z</time></trkpt><trkpt lat="45.7222717" lon="8.3979783"><ele>486.79999999999995</ele><time>2026-04-06T08:19:42.134Z</time></trkpt><trkpt lat="45.722315" lon="8.39782"><ele>489.0</ele><time>2026-04-06T08:19:43.134Z</time></trkpt><trkpt lat="45.722365" lon="8.3976717"><ele>491.4</ele><time>2026-04-06T08:19:44.133Z</time></trkpt><trkpt lat="45.7224367" lon="8.39757"><ele>493.79999999999995</ele><time>2026-04-06T08:19:45.134Z</time></trkpt><trkpt lat="45.7225067" lon="8.3974983"><ele>496.20000000000005</ele><time>2026-04-06T08:19:46.134Z</time></trkpt><trkpt lat="45.7225867" lon="8.3974517"><ele>498.6</ele><time>2026-04-06T08:19:47.134Z</time></trkpt><trkpt lat="45.72268" lon="8.39747"><ele>501.0</ele><time>2026-04-06T08:19:48.134Z</time></trkpt><trkpt lat="45.7227817" lon="8.397495"><ele>501.0</ele><time>2026-04-06T08:19:49.134Z</time></trkpt><trkpt lat="45.7228783" lon="8.3975"><ele>501.0</ele><time>2026-04-06T08:19:50.134Z</time></trkpt><trkpt lat="45.722985" lon="8.3974417"><ele>501.0</ele><time>2026-04-06T08:19:51.134Z</time></trkpt><trkpt lat="45.7230867" lon="8.3973583"><ele>501.0</ele><time>2026-04-06T08:19:52.134Z</time></trkpt><trkpt lat="45.7232017" lon="8.3973"><ele>501.0</ele><time>2026-04-06T08:19:53.134Z</time></trkpt><trkpt lat="45.7233233" lon="8.397285"><ele>501.0</ele><time>2026-04-06T08:19:54.134Z</time></trkpt><trkpt lat="45.7234533" lon="8.39726"><ele>501.0</ele><time>2026-04-06T08:19:55.134Z</time></trkpt><trkpt lat="45.7235833" lon="8.3972267"><ele>501.0</ele><time>2026-04-06T08:19:56.134Z</time></trkpt><trkpt lat="45.72372" lon="8.3971783"><ele>501.4</ele><time>2026-04-06T08:19:57.134Z</time></trkpt><trkpt lat="45.7238417" lon="8.39716"><ele>501.8</ele><time>2026-04-06T08:19:58.134Z</time></trkpt><trkpt lat="45.7239517" lon="8.3971517"><ele>502.19999999999993</ele><time>2026-04-06T08:19:59.134Z</time></trkpt><trkpt lat="45.724045" lon="8.3971767"><ele>502.59999999999997</ele><time>2026-04-06T08:20:00.133Z</time></trkpt><trkpt lat="45.7241317" lon="8.3972017"><ele>503.0</ele><time>2026-04-06T08:20:01.134Z</time></trkpt><trkpt lat="45.7242017" lon="8.3972817"><ele>503.66666666666663</ele><time>2026-04-06T08:20:02.133Z</time></trkpt><trkpt lat="45.7242767" lon="8.3973483"><ele>504.3333333333333</ele><time>2026-04-06T08:20:03.133Z</time></trkpt><trkpt lat="45.7243633" lon="8.3973967"><ele>505.0</ele><time>2026-04-06T08:20:04.134Z</time></trkpt><trkpt lat="45.7244417" lon="8.3974067"><ele>505.66666666666663</ele><time>2026-04-06T08:20:05.133Z</time></trkpt><trkpt lat="45.7245117" lon="8.39736"><ele>506.3333333333333</ele><time>2026-04-06T08:20:06.134Z</time></trkpt><trkpt lat="45.72457" lon="8.397295"><ele>507.0</ele><time>2026-04-06T08:20:07.134Z</time></trkpt><trkpt lat="45.7245967" lon="8.3971917"><ele>509.40000000000003</ele><time>2026-04-06T08:20:08.134Z</time></trkpt><trkpt lat="45.7246283" lon="8.3970567"><ele>511.80000000000007</ele><time>2026-04-06T08:20:09.134Z</time></trkpt><trkpt lat="45.724625" lon="8.39689"><ele>514.2</ele><time>2026-04-06T08:20:10.134Z</time></trkpt><trkpt lat="45.7246017" lon="8.3967283"><ele>516.6</ele><time>2026-04-06T08:20:11.134Z</time></trkpt><trkpt lat="45.7245867" lon="8.3965867"><ele>519.0</ele><time>2026-04-06T08:20:12.134Z</time></trkpt><trkpt lat="45.7245933" lon="8.3964833"><ele>519.0</ele><time>2026-04-06T08:20:13.134Z</time></trkpt><trkpt lat="45.7246117" lon="8.3963967"><ele>519.0</ele><time>2026-04-06T08:20:14.133Z</time></trkpt><trkpt lat="45.72469" lon="8.3963433"><ele>519.0</ele><time>2026-04-06T08:20:15.134Z</time></trkpt><trkpt lat="45.724785" lon="8.39628"><ele>519.0</ele><time>2026-04-06T08:20:16.134Z</time></trkpt><trkpt lat="45.72488" lon="8.3962167"><ele>519.0</ele><time>2026-04-06T08:20:17.134Z</time></trkpt><trkpt lat="45.72497" lon="8.3961567"><ele>519.0</ele><time>2026-04-06T08:20:18.134Z</time></trkpt><trkpt lat="45.72506" lon="8.3961167"><ele>519.0</ele><time>2026-04-06T08:20:19.134Z</time></trkpt><trkpt lat="45.725135" lon="8.3960833"><ele>519.0</ele><time>2026-04-06T08:20:20.134Z</time></trkpt><trkpt lat="45.7252067" lon="8.3960517"><ele>519.0</ele><time>2026-04-06T08:20:21.133Z</time></trkpt><trkpt lat="45.7252667" lon="8.3960133"><ele>519.0</ele><time>2026-04-06T08:20:22.134Z</time></trkpt><trkpt lat="45.7253717" lon="8.3959583"><ele>519.0</ele><time>2026-04-06T08:20:24.134Z</time></trkpt><trkpt lat="45.7254383" lon="8.395925"><ele>519.0</ele><time>2026-04-06T08:20:27.134Z</time></trkpt><trkpt lat="45.7255017" lon="8.3959383"><ele>519.0</ele><time>2026-04-06T08:20:34.134Z</time></trkpt><trkpt lat="45.7256017" lon="8.39592"><ele>519.0</ele><time>2026-04-06T08:20:36.134Z</time></trkpt><trkpt lat="45.725705" lon="8.39584"><ele>519.0</ele><time>2026-04-06T08:20:38.134Z</time></trkpt><trkpt lat="45.725745" lon="8.395715"><ele>519.0</ele><time>2026-04-06T08:20:40.134Z</time></trkpt><trkpt lat="45.7257083" lon="8.3956117"><ele>520.8</ele><time>2026-04-06T08:20:43.133Z</time></trkpt><trkpt lat="45.72565" lon="8.3954583"><ele>522.5999999999999</ele><time>2026-04-06T08:21:59.133Z</time></trkpt><trkpt lat="45.7256183" lon="8.3953033"><ele>524.4</ele><time>2026-04-06T08:22:01.134Z</time></trkpt><trkpt lat="45.7255917" lon="8.395215"><ele>526.1999999999999</ele><time>2026-04-06T08:22:02.134Z</time></trkpt><trkpt lat="45.7255467" lon="8.3951217"><ele>528.0</ele><time>2026-04-06T08:22:03.134Z</time></trkpt><trkpt lat="45.7254983" lon="8.39504"><ele>528.0</ele><time>2026-04-06T08:22:04.133Z</time></trkpt><trkpt lat="45.725425" lon="8.394935"><ele>528.0</ele><time>2026-04-06T08:22:06.134Z</time></trkpt><trkpt lat="45.725395" lon="8.3948533"><ele>528.0</ele><time>2026-04-06T08:22:08.134Z</time></trkpt><trkpt lat="45.725455" lon="8.394805"><ele>528.0</ele><time>2026-04-06T08:23:37.133Z</time></trkpt><trkpt lat="45.72553" lon="8.39475"><ele>528.0</ele><time>2026-04-06T08:23:39.133Z</time></trkpt><trkpt lat="45.7255983" lon="8.3947517"><ele>528.0</ele><time>2026-04-06T08:23:40.133Z</time></trkpt><trkpt lat="45.7256717" lon="8.394765"><ele>528.0</ele><time>2026-04-06T08:23:41.133Z</time></trkpt><trkpt lat="45.7257467" lon="8.394765"><ele>528.0</ele><time>2026-04-06T08:23:42.133Z</time></trkpt><trkpt lat="45.7258167" lon="8.3947583"><ele>528.0</ele><time>2026-04-06T08:23:43.133Z</time></trkpt><trkpt lat="45.7258867" lon="8.3947683"><ele>528.0</ele><time>2026-04-06T08:23:44.132Z</time></trkpt><trkpt lat="45.72598" lon="8.3948233"><ele>528.0</ele><time>2026-04-06T08:23:45.133Z</time></trkpt><trkpt lat="45.72607" lon="8.3948883"><ele>528.0</ele><time>2026-04-06T08:23:46.132Z</time></trkpt><trkpt lat="45.7261517" lon="8.39496"><ele>530.0</ele><time>2026-04-06T08:23:47.133Z</time></trkpt><trkpt lat="45.7262033" lon="8.39504"><ele>532.0</ele><time>2026-04-06T08:23:48.133Z</time></trkpt><trkpt lat="45.726245" lon="8.395135"><ele>534.0</ele><time>2026-04-06T08:23:49.133Z</time></trkpt><trkpt lat="45.72628" lon="8.3952433"><ele>536.0</ele><time>2026-04-06T08:23:50.133Z</time></trkpt><trkpt lat="45.7263183" lon="8.395335"><ele>538.0</ele><time>2026-04-06T08:23:51.133Z</time></trkpt><trkpt lat="45.7263717" lon="8.3953983"><ele>540.0</ele><time>2026-04-06T08:23:52.133Z</time></trkpt><trkpt lat="45.7264383" lon="8.3954417"><ele>540.0</ele><time>2026-04-06T08:23:53.133Z</time></trkpt><trkpt lat="45.7265167" lon="8.3954467"><ele>540.0</ele><time>2026-04-06T08:23:54.133Z</time></trkpt><trkpt lat="45.7265933" lon="8.3954083"><ele>540.0</ele><time>2026-04-06T08:23:55.133Z</time></trkpt><trkpt lat="45.7266717" lon="8.3953533"><ele>540.0</ele><time>2026-04-06T08:23:56.133Z</time></trkpt><trkpt lat="45.7267433" lon="8.3952767"><ele>540.0</ele><time>2026-04-06T08:23:57.133Z</time></trkpt><trkpt lat="45.726815" lon="8.3952067"><ele>540.0</ele><time>2026-04-06T08:23:58.133Z</time></trkpt><trkpt lat="45.7268833" lon="8.3951317"><ele>543.8333333333334</ele><time>2026-04-06T08:23:59.133Z</time></trkpt><trkpt lat="45.726945" lon="8.3950633"><ele>547.6666666666666</ele><time>2026-04-06T08:24:00.133Z</time></trkpt><trkpt lat="45.72701" lon="8.3950017"><ele>551.5</ele><time>2026-04-06T08:24:01.132Z</time></trkpt><trkpt lat="45.7270717" lon="8.394925"><ele>555.3333333333333</ele><time>2026-04-06T08:24:02.133Z</time></trkpt><trkpt lat="45.7271317" lon="8.394855"><ele>559.1666666666666</ele><time>2026-04-06T08:24:03.133Z</time></trkpt><trkpt lat="45.7271783" lon="8.394775"><ele>563.0</ele><time>2026-04-06T08:24:04.133Z</time></trkpt><trkpt lat="45.7272267" lon="8.3946883"><ele>562.3333333333333</ele><time>2026-04-06T08:24:05.133Z</time></trkpt><trkpt lat="45.7272633" lon="8.3945983"><ele>561.6666666666666</ele><time>2026-04-06T08:24:06.133Z</time></trkpt><trkpt lat="45.7273033" lon="8.3945067"><ele>561.0</ele><time>2026-04-06T08:24:07.133Z</time></trkpt><trkpt lat="45.7273383" lon="8.394415"><ele>560.3333333333334</ele><time>2026-04-06T08:24:08.133Z</time></trkpt><trkpt lat="45.727385" lon="8.394345"><ele>559.6666666666667</ele><time>2026-04-06T08:24:09.133Z</time></trkpt><trkpt lat="45.72748" lon="8.3942767"><ele>559.0</ele><time>2026-04-06T08:24:11.132Z</time></trkpt><trkpt lat="45.7275533" lon="8.3942517"><ele>559.0</ele><time>2026-04-06T08:24:12.133Z</time></trkpt><trkpt lat="45.7276233" lon="8.3942317"><ele>559.0</ele><time>2026-04-06T08:24:13.133Z</time></trkpt><trkpt lat="45.7276867" lon="8.3941933"><ele>559.0</ele><time>2026-04-06T08:24:14.133Z</time></trkpt><trkpt lat="45.7277467" lon="8.3941333"><ele>559.0</ele><time>2026-04-06T08:24:15.132Z</time></trkpt><trkpt lat="45.7278" lon="8.3940517"><ele>559.0</ele><time>2026-04-06T08:24:16.133Z</time></trkpt><trkpt lat="45.7278367" lon="8.393955"><ele>559.0</ele><time>2026-04-06T08:24:17.133Z</time></trkpt><trkpt lat="45.727875" lon="8.3938483"><ele>561.6666666666667</ele><time>2026-04-06T08:24:18.132Z</time></trkpt><trkpt lat="45.7279183" lon="8.39376"><ele>564.3333333333334</ele><time>2026-04-06T08:24:19.133Z</time></trkpt><trkpt lat="45.7279733" lon="8.3936883"><ele>567.0</ele><time>2026-04-06T08:24:20.133Z</time></trkpt><trkpt lat="45.7280317" lon="8.393635"><ele>569.6666666666666</ele><time>2026-04-06T08:24:21.133Z</time></trkpt><trkpt lat="45.72812" lon="8.3935567"><ele>572.3333333333333</ele><time>2026-04-06T08:24:23.133Z</time></trkpt><trkpt lat="45.728155" lon="8.3934533"><ele>575.0</ele><time>2026-04-06T08:24:26.133Z</time></trkpt><trkpt lat="45.7281283" lon="8.393325"><ele>575.0</ele><time>2026-04-06T08:24:51.133Z</time></trkpt><trkpt lat="45.7280967" lon="8.393175"><ele>575.0</ele><time>2026-04-06T08:24:53.133Z</time></trkpt><trkpt lat="45.7280817" lon="8.3930817"><ele>575.0</ele><time>2026-04-06T08:24:54.133Z</time></trkpt><trkpt lat="45.72806" lon="8.3929833"><ele>575.0</ele><time>2026-04-06T08:24:55.133Z</time></trkpt><trkpt lat="45.728045" lon="8.3928817"><ele>575.0</ele><time>2026-04-06T08:24:56.133Z</time></trkpt><trkpt lat="45.7280367" lon="8.39278"><ele>575.0</ele><time>2026-04-06T08:24:57.133Z</time></trkpt><trkpt lat="45.7280283" lon="8.3926267"><ele>575.0</ele><time>2026-04-06T08:24:59.133Z</time></trkpt><trkpt lat="45.7280083" lon="8.3924783"><ele>575.0</ele><time>2026-04-06T08:25:01.133Z</time></trkpt><trkpt lat="45.72796" lon="8.3923183"><ele>575.0</ele><time>2026-04-06T08:25:03.132Z</time></trkpt><trkpt lat="45.7279333" lon="8.3922167"><ele>575.0</ele><time>2026-04-06T08:25:04.133Z</time></trkpt><trkpt lat="45.7279" lon="8.3920983"><ele>575.0</ele><time>2026-04-06T08:25:05.132Z</time></trkpt><trkpt lat="45.7278717" lon="8.3919783"><ele>576.1666666666666</ele><time>2026-04-06T08:25:06.133Z</time></trkpt><trkpt lat="45.7278367" lon="8.391875"><ele>577.3333333333333</ele><time>2026-04-06T08:25:07.132Z</time></trkpt><trkpt lat="45.7277933" lon="8.39178"><ele>578.5</ele><time>2026-04-06T08:25:08.132Z</time></trkpt><trkpt lat="45.7277533" lon="8.3917"><ele>579.6666666666666</ele><time>2026-04-06T08:25:09.133Z</time></trkpt><trkpt lat="45.7277283" lon="8.3916167"><ele>580.8333333333334</ele><time>2026-04-06T08:25:10.133Z</time></trkpt><trkpt lat="45.72773" lon="8.3914417"><ele>582.0</ele><time>2026-04-06T08:25:12.133Z</time></trkpt><trkpt lat="45.7277817" lon="8.3913033"><ele>582.4</ele><time>2026-04-06T08:25:14.133Z</time></trkpt><trkpt lat="45.727805" lon="8.3911633"><ele>582.8000000000001</ele><time>2026-04-06T08:25:16.133Z</time></trkpt><trkpt lat="45.727815" lon="8.3909883"><ele>583.2</ele><time>2026-04-06T08:25:18.133Z</time></trkpt><trkpt lat="45.7277933" lon="8.3908"><ele>583.6</ele><time>2026-04-06T08:25:20.133Z</time></trkpt><trkpt lat="45.7277967" lon="8.3906883"><ele>584.0</ele><time>2026-04-06T08:25:21.133Z</time></trkpt><trkpt lat="45.727805" lon="8.390585"><ele>583.1666666666666</ele><time>2026-04-06T08:25:22.132Z</time></trkpt><trkpt lat="45.7277983" lon="8.3904883"><ele>582.3333333333333</ele><time>2026-04-06T08:25:23.133Z</time></trkpt><trkpt lat="45.7277833" lon="8.390385"><ele>581.5</ele><time>2026-04-06T08:25:24.133Z</time></trkpt><trkpt lat="45.7277667" lon="8.3902833"><ele>580.6666666666666</ele><time>2026-04-06T08:25:25.133Z</time></trkpt><trkpt lat="45.7277533" lon="8.3901667"><ele>579.8333333333334</ele><time>2026-04-06T08:25:26.133Z</time></trkpt><trkpt lat="45.7277467" lon="8.3900383"><ele>579.0</ele><time>2026-04-06T08:25:27.133Z</time></trkpt><trkpt lat="45.7277517" lon="8.3898867"><ele>579.0</ele><time>2026-04-06T08:25:28.133Z</time></trkpt><trkpt lat="45.72777" lon="8.3897517"><ele>579.0</ele><time>2026-04-06T08:25:29.132Z</time></trkpt><trkpt lat="45.727795" lon="8.3896317"><ele>579.0</ele><time>2026-04-06T08:25:30.133Z</time></trkpt><trkpt lat="45.7278333" lon="8.3895367"><ele>579.0</ele><time>2026-04-06T08:25:31.133Z</time></trkpt><trkpt lat="45.7278717" lon="8.3894567"><ele>579.0</ele><time>2026-04-06T08:25:32.133Z</time></trkpt><trkpt lat="45.7279283" lon="8.3893867"><ele>579.0</ele><time>2026-04-06T08:25:33.133Z</time></trkpt><trkpt lat="45.7279717" lon="8.38932"><ele>580.8</ele><time>2026-04-06T08:25:34.132Z</time></trkpt><trkpt lat="45.7280117" lon="8.3892383"><ele>582.5999999999999</ele><time>2026-04-06T08:25:35.132Z</time></trkpt><trkpt lat="45.7280333" lon="8.3891417"><ele>584.4</ele><time>2026-04-06T08:25:36.132Z</time></trkpt><trkpt lat="45.728025" lon="8.3889833"><ele>586.1999999999999</ele><time>2026-04-06T08:25:38.133Z</time></trkpt><trkpt lat="45.728015" lon="8.388805"><ele>588.0</ele><time>2026-04-06T08:25:40.133Z</time></trkpt><trkpt lat="45.7280467" lon="8.3886967"><ele>589.0</ele><time>2026-04-06T08:25:41.133Z</time></trkpt><trkpt lat="45.7280833" lon="8.388605"><ele>590.0</ele><time>2026-04-06T08:25:42.133Z</time></trkpt><trkpt lat="45.7281467" lon="8.38853"><ele>591.0</ele><time>2026-04-06T08:25:43.133Z</time></trkpt><trkpt lat="45.7281983" lon="8.38845"><ele>592.0</ele><time>2026-04-06T08:25:44.133Z</time></trkpt><trkpt lat="45.728265" lon="8.3883717"><ele>593.0</ele><time>2026-04-06T08:25:45.133Z</time></trkpt><trkpt lat="45.7283333" lon="8.3883233"><ele>594.0</ele><time>2026-04-06T08:25:46.133Z</time></trkpt><trkpt lat="45.7284117" lon="8.3882867"><ele>594.0</ele><time>2026-04-06T08:25:47.133Z</time></trkpt><trkpt lat="45.7285" lon="8.38826"><ele>594.0</ele><time>2026-04-06T08:25:48.133Z</time></trkpt><trkpt lat="45.7286017" lon="8.3882367"><ele>594.0</ele><time>2026-04-06T08:25:49.133Z</time></trkpt><trkpt lat="45.7287067" lon="8.3882067"><ele>594.0</ele><time>2026-04-06T08:25:50.133Z</time></trkpt><trkpt lat="45.7288067" lon="8.3881817"><ele>594.0</ele><time>2026-04-06T08:25:51.133Z</time></trkpt><trkpt lat="45.7289033" lon="8.3881483"><ele>593.6</ele><time>2026-04-06T08:25:52.133Z</time></trkpt><trkpt lat="45.7289983" lon="8.388125"><ele>593.2</ele><time>2026-04-06T08:25:53.133Z</time></trkpt><trkpt lat="45.7290867" lon="8.3880967"><ele>592.8000000000001</ele><time>2026-04-06T08:25:54.133Z</time></trkpt><trkpt lat="45.7291583" lon="8.388075"><ele>592.4</ele><time>2026-04-06T08:25:55.133Z</time></trkpt><trkpt lat="45.7292717" lon="8.3880467"><ele>592.0</ele><time>2026-04-06T08:25:57.133Z</time></trkpt><trkpt lat="45.7293767" lon="8.388045"><ele>592.0</ele><time>2026-04-06T08:25:59.133Z</time></trkpt><trkpt lat="45.7294983" lon="8.3879983"><ele>592.0</ele><time>2026-04-06T08:26:01.133Z</time></trkpt><trkpt lat="45.72957" lon="8.3879667"><ele>592.0</ele><time>2026-04-06T08:26:02.133Z</time></trkpt><trkpt lat="45.7296433" lon="8.38792"><ele>592.0</ele><time>2026-04-06T08:26:03.133Z</time></trkpt><trkpt lat="45.729715" lon="8.3878633"><ele>592.0</ele><time>2026-04-06T08:26:04.132Z</time></trkpt><trkpt lat="45.7297833" lon="8.38781"><ele>592.0</ele><time>2026-04-06T08:26:05.133Z</time></trkpt><trkpt lat="45.7298683" lon="8.3877683"><ele>592.0</ele><time>2026-04-06T08:26:06.132Z</time></trkpt><trkpt lat="45.7299433" lon="8.3877433"><ele>592.0</ele><time>2026-04-06T08:26:07.133Z</time></trkpt><trkpt lat="45.7300133" lon="8.3877017"><ele>592.0</ele><time>2026-04-06T08:26:08.133Z</time></trkpt><trkpt lat="45.7300767" lon="8.387645"><ele>592.0</ele><time>2026-04-06T08:26:09.132Z</time></trkpt><trkpt lat="45.7301683" lon="8.38755"><ele>592.0</ele><time>2026-04-06T08:26:11.133Z</time></trkpt><trkpt lat="45.7302967" lon="8.3875333"><ele>592.8000000000001</ele><time>2026-04-06T08:26:13.133Z</time></trkpt><trkpt lat="45.73037" lon="8.3875567"><ele>593.6</ele><time>2026-04-06T08:26:14.133Z</time></trkpt><trkpt lat="45.730455" lon="8.3875883"><ele>594.4000000000001</ele><time>2026-04-06T08:26:15.132Z</time></trkpt><trkpt lat="45.7305483" lon="8.387635"><ele>595.2</ele><time>2026-04-06T08:26:16.133Z</time></trkpt><trkpt lat="45.730645" lon="8.38771"><ele>596.0</ele><time>2026-04-06T08:26:17.133Z</time></trkpt><trkpt lat="45.7307383" lon="8.3877867"><ele>596.0</ele><time>2026-04-06T08:26:18.133Z</time></trkpt><trkpt lat="45.7308267" lon="8.3878617"><ele>596.0</ele><time>2026-04-06T08:26:19.133Z</time></trkpt><trkpt lat="45.730905" lon="8.387915"><ele>596.0</ele><time>2026-04-06T08:26:20.133Z</time></trkpt><trkpt lat="45.7309917" lon="8.387975"><ele>596.0</ele><time>2026-04-06T08:26:21.132Z</time></trkpt><trkpt lat="45.7310617" lon="8.3880267"><ele>596.0</ele><time>2026-04-06T08:26:22.133Z</time></trkpt><trkpt lat="45.73113" lon="8.388075"><ele>596.0</ele><time>2026-04-06T08:26:23.133Z</time></trkpt><trkpt lat="45.7312" lon="8.388115"><ele>595.6666666666666</ele><time>2026-04-06T08:26:24.133Z</time></trkpt><trkpt lat="45.7312733" lon="8.3881267"><ele>595.3333333333333</ele><time>2026-04-06T08:26:25.132Z</time></trkpt><trkpt lat="45.7313583" lon="8.3881083"><ele>595.0</ele><time>2026-04-06T08:26:26.132Z</time></trkpt><trkpt lat="45.7314483" lon="8.38808"><ele>594.6666666666666</ele><time>2026-04-06T08:26:27.133Z</time></trkpt><trkpt lat="45.7315367" lon="8.3880533"><ele>594.3333333333334</ele><time>2026-04-06T08:26:28.133Z</time></trkpt><trkpt lat="45.73162" lon="8.3880417"><ele>594.0</ele><time>2026-04-06T08:26:29.133Z</time></trkpt><trkpt lat="45.7316983" lon="8.3880217"><ele>594.3333333333334</ele><time>2026-04-06T08:26:30.133Z</time></trkpt><trkpt lat="45.7317633" lon="8.3879883"><ele>594.6666666666666</ele><time>2026-04-06T08:26:31.133Z</time></trkpt><trkpt lat="45.73183" lon="8.3879617"><ele>595.0</ele><time>2026-04-06T08:26:32.133Z</time></trkpt><trkpt lat="45.731915" lon="8.38801"><ele>595.3333333333333</ele><time>2026-04-06T08:26:34.133Z</time></trkpt><trkpt lat="45.7319683" lon="8.388065"><ele>595.6666666666666</ele><time>2026-04-06T08:26:35.133Z</time></trkpt><trkpt lat="45.732035" lon="8.3881217"><ele>596.0</ele><time>2026-04-06T08:26:36.133Z</time></trkpt><trkpt lat="45.7321167" lon="8.3881733"><ele>596.0</ele><time>2026-04-06T08:26:37.133Z</time></trkpt><trkpt lat="45.7322" lon="8.388215"><ele>596.0</ele><time>2026-04-06T08:26:38.133Z</time></trkpt><trkpt lat="45.732295" lon="8.3882483"><ele>596.0</ele><time>2026-04-06T08:26:39.133Z</time></trkpt><trkpt lat="45.7323867" lon="8.3882767"><ele>596.0</ele><time>2026-04-06T08:26:40.133Z</time></trkpt><trkpt lat="45.73248" lon="8.3882967"><ele>596.0</ele><time>2026-04-06T08:26:41.132Z</time></trkpt><trkpt lat="45.7325617" lon="8.388335"><ele>596.0</ele><time>2026-04-06T08:26:42.133Z</time></trkpt><trkpt lat="45.7326567" lon="8.3883817"><ele>596.0</ele><time>2026-04-06T08:26:43.133Z</time></trkpt><trkpt lat="45.7327367" lon="8.3884167"><ele>596.0</ele><time>2026-04-06T08:26:44.133Z</time></trkpt><trkpt lat="45.7328267" lon="8.38842"><ele>596.0</ele><time>2026-04-06T08:26:45.132Z</time></trkpt><trkpt lat="45.732915" lon="8.3884167"><ele>596.0</ele><time>2026-04-06T08:26:46.132Z</time></trkpt><trkpt lat="45.7329983" lon="8.3884183"><ele>596.0</ele><time>2026-04-06T08:26:47.132Z</time></trkpt><trkpt lat="45.733075" lon="8.3884167"><ele>595.6</ele><time>2026-04-06T08:26:48.133Z</time></trkpt><trkpt lat="45.733145" lon="8.38838"><ele>595.2</ele><time>2026-04-06T08:26:49.133Z</time></trkpt><trkpt lat="45.73321" lon="8.3883367"><ele>594.8</ele><time>2026-04-06T08:26:50.133Z</time></trkpt><trkpt lat="45.7333083" lon="8.3882417"><ele>594.4</ele><time>2026-04-06T08:26:52.133Z</time></trkpt><trkpt lat="45.7333917" lon="8.3881433"><ele>594.0</ele><time>2026-04-06T08:26:54.133Z</time></trkpt><trkpt lat="45.7334783" lon="8.3880517"><ele>593.6666666666666</ele><time>2026-04-06T08:26:56.133Z</time></trkpt><trkpt lat="45.7335317" lon="8.387995"><ele>593.3333333333334</ele><time>2026-04-06T08:26:57.133Z</time></trkpt><trkpt lat="45.733585" lon="8.387925"><ele>593.0</ele><time>2026-04-06T08:26:58.133Z</time></trkpt><trkpt lat="45.7336283" lon="8.3878517"><ele>592.6666666666667</ele><time>2026-04-06T08:26:59.132Z</time></trkpt><trkpt lat="45.7336383" lon="8.3877233"><ele>592.3333333333334</ele><time>2026-04-06T08:27:01.133Z</time></trkpt><trkpt lat="45.733585" lon="8.3876133"><ele>592.0</ele><time>2026-04-06T08:27:03.133Z</time></trkpt><trkpt lat="45.7335117" lon="8.387475"><ele>592.0</ele><time>2026-04-06T08:27:05.133Z</time></trkpt><trkpt lat="45.7334783" lon="8.387375"><ele>592.0</ele><time>2026-04-06T08:27:06.133Z</time></trkpt><trkpt lat="45.7334467" lon="8.38727"><ele>592.0</ele><time>2026-04-06T08:27:07.133Z</time></trkpt><trkpt lat="45.7334317" lon="8.3871533"><ele>592.0</ele><time>2026-04-06T08:27:08.133Z</time></trkpt><trkpt lat="45.73342" lon="8.3870367"><ele>592.0</ele><time>2026-04-06T08:27:09.133Z</time></trkpt><trkpt lat="45.73343" lon="8.3869433"><ele>592.0</ele><time>2026-04-06T08:27:10.133Z</time></trkpt><trkpt lat="45.7334583" lon="8.38684"><ele>591.0</ele><time>2026-04-06T08:27:11.133Z</time></trkpt><trkpt lat="45.7334917" lon="8.3867467"><ele>590.0</ele><time>2026-04-06T08:27:12.131Z</time></trkpt><trkpt lat="45.7335317" lon="8.38666"><ele>589.0</ele><time>2026-04-06T08:27:13.131Z</time></trkpt><trkpt lat="45.733575" lon="8.386585"><ele>588.0</ele><time>2026-04-06T08:27:14.131Z</time></trkpt><trkpt lat="45.7336583" lon="8.3864733"><ele>587.0</ele><time>2026-04-06T08:27:16.131Z</time></trkpt><trkpt lat="45.7337417" lon="8.386355"><ele>586.0</ele><time>2026-04-06T08:27:18.132Z</time></trkpt><trkpt lat="45.7338117" lon="8.386235"><ele>588.4</ele><time>2026-04-06T08:27:20.132Z</time></trkpt><trkpt lat="45.7338717" lon="8.38615"><ele>590.8</ele><time>2026-04-06T08:27:22.131Z</time></trkpt><trkpt lat="45.7339417" lon="8.3860783"><ele>593.1999999999999</ele><time>2026-04-06T08:27:24.132Z</time></trkpt><trkpt lat="45.7340267" lon="8.3860017"><ele>595.6</ele><time>2026-04-06T08:27:26.132Z</time></trkpt><trkpt lat="45.734095" lon="8.385855"><ele>598.0</ele><time>2026-04-06T08:27:28.132Z</time></trkpt><trkpt lat="45.7341267" lon="8.3857733"><ele>598.0</ele><time>2026-04-06T08:27:29.132Z</time></trkpt><trkpt lat="45.734165" lon="8.38566"><ele>598.0</ele><time>2026-04-06T08:27:31.132Z</time></trkpt><trkpt lat="45.7340917" lon="8.3856417"><ele>598.0</ele><time>2026-04-06T08:27:33.132Z</time></trkpt><trkpt lat="45.733965" lon="8.3856083"><ele>598.0</ele><time>2026-04-06T08:27:35.132Z</time></trkpt><trkpt lat="45.733905" lon="8.385575"><ele>598.0</ele><time>2026-04-06T08:27:36.132Z</time></trkpt><trkpt lat="45.73384" lon="8.3854967"><ele>598.0</ele><time>2026-04-06T08:27:37.132Z</time></trkpt><trkpt lat="45.7337833" lon="8.38541"><ele>598.1666666666667</ele><time>2026-04-06T08:27:38.132Z</time></trkpt><trkpt lat="45.73373" lon="8.3853167"><ele>598.3333333333334</ele><time>2026-04-06T08:27:39.132Z</time></trkpt><trkpt lat="45.7336933" lon="8.3852183"><ele>598.5</ele><time>2026-04-06T08:27:40.132Z</time></trkpt><trkpt lat="45.73367" lon="8.38512"><ele>598.6666666666666</ele><time>2026-04-06T08:27:41.132Z</time></trkpt><trkpt lat="45.733655" lon="8.3850317"><ele>598.8333333333333</ele><time>2026-04-06T08:27:42.132Z</time></trkpt><trkpt lat="45.7337067" lon="8.384945"><ele>599.0</ele><time>2026-04-06T08:27:44.132Z</time></trkpt><trkpt lat="45.7338117" lon="8.3848633"><ele>599.0</ele><time>2026-04-06T08:27:46.132Z</time></trkpt><trkpt lat="45.733865" lon="8.3847933"><ele>599.0</ele><time>2026-04-06T08:27:47.132Z</time></trkpt><trkpt lat="45.7338967" lon="8.3847067"><ele>599.0</ele><time>2026-04-06T08:27:48.131Z</time></trkpt><trkpt lat="45.7339267" lon="8.384625"><ele>599.0</ele><time>2026-04-06T08:27:49.132Z</time></trkpt><trkpt lat="45.7340183" lon="8.38449"><ele>599.0</ele><time>2026-04-06T08:27:51.132Z</time></trkpt><trkpt lat="45.73409" lon="8.3844167"><ele>599.0</ele><time>2026-04-06T08:27:52.132Z</time></trkpt><trkpt lat="45.7341667" lon="8.3843367"><ele>598.3333333333333</ele><time>2026-04-06T08:27:53.132Z</time></trkpt><trkpt lat="45.7342467" lon="8.3842783"><ele>597.6666666666666</ele><time>2026-04-06T08:27:54.132Z</time></trkpt><trkpt lat="45.7343067" lon="8.3842133"><ele>597.0</ele><time>2026-04-06T08:27:55.132Z</time></trkpt><trkpt lat="45.734365" lon="8.38416"><ele>596.3333333333334</ele><time>2026-04-06T08:27:56.131Z</time></trkpt><trkpt lat="45.73439" lon="8.3840767"><ele>595.6666666666667</ele><time>2026-04-06T08:27:57.132Z</time></trkpt><trkpt lat="45.7344267" lon="8.384"><ele>595.0</ele><time>2026-04-06T08:27:58.132Z</time></trkpt><trkpt lat="45.7345117" lon="8.38391"><ele>595.0</ele><time>2026-04-06T08:28:00.131Z</time></trkpt><trkpt lat="45.7346" lon="8.3839433"><ele>595.0</ele><time>2026-04-06T08:28:02.132Z</time></trkpt><trkpt lat="45.7346583" lon="8.3840033"><ele>595.0</ele><time>2026-04-06T08:28:03.132Z</time></trkpt><trkpt lat="45.73472" lon="8.3840683"><ele>595.0</ele><time>2026-04-06T08:28:04.132Z</time></trkpt><trkpt lat="45.7347883" lon="8.3841583"><ele>595.0</ele><time>2026-04-06T08:28:05.132Z</time></trkpt><trkpt lat="45.7348517" lon="8.384255"><ele>595.0</ele><time>2026-04-06T08:28:06.132Z</time></trkpt><trkpt lat="45.7349033" lon="8.3843333"><ele>595.0</ele><time>2026-04-06T08:28:07.132Z</time></trkpt><trkpt lat="45.7349783" lon="8.3843683"><ele>595.0</ele><time>2026-04-06T08:28:09.132Z</time></trkpt><trkpt lat="45.7350567" lon="8.384325"><ele>595.0</ele><time>2026-04-06T08:28:11.132Z</time></trkpt><trkpt lat="45.73515" lon="8.3842783"><ele>595.0</ele><time>2026-04-06T08:28:13.132Z</time></trkpt><trkpt lat="45.73527" lon="8.3843083"><ele>595.0</ele><time>2026-04-06T08:28:15.132Z</time></trkpt><trkpt lat="45.7353333" lon="8.3843267"><ele>595.0</ele><time>2026-04-06T08:28:16.132Z</time></trkpt><trkpt lat="45.735445" lon="8.3843033"><ele>593.3333333333334</ele><time>2026-04-06T08:28:18.132Z</time></trkpt><trkpt lat="45.7355267" lon="8.384175"><ele>591.6666666666667</ele><time>2026-04-06T08:28:20.132Z</time></trkpt><trkpt lat="45.7355583" lon="8.384085"><ele>590.0</ele><time>2026-04-06T08:28:21.132Z</time></trkpt><trkpt lat="45.7355917" lon="8.383975"><ele>588.3333333333334</ele><time>2026-04-06T08:28:22.132Z</time></trkpt><trkpt lat="45.7356233" lon="8.3838783"><ele>586.6666666666666</ele><time>2026-04-06T08:28:23.132Z</time></trkpt><trkpt lat="45.7356717" lon="8.38379"><ele>585.0</ele><time>2026-04-06T08:28:24.132Z</time></trkpt><trkpt lat="45.73573" lon="8.38372"><ele>585.0</ele><time>2026-04-06T08:28:25.132Z</time></trkpt><trkpt lat="45.7357983" lon="8.3836317"><ele>585.0</ele><time>2026-04-06T08:28:26.131Z</time></trkpt><trkpt lat="45.7358717" lon="8.3835383"><ele>585.0</ele><time>2026-04-06T08:28:27.132Z</time></trkpt><trkpt lat="45.7359333" lon="8.3834683"><ele>585.0</ele><time>2026-04-06T08:28:28.132Z</time></trkpt><trkpt lat="45.736005" lon="8.3833483"><ele>585.0</ele><time>2026-04-06T08:28:30.132Z</time></trkpt><trkpt lat="45.73608" lon="8.3832333"><ele>586.8333333333334</ele><time>2026-04-06T08:28:32.131Z</time></trkpt><trkpt lat="45.73614" lon="8.3831283"><ele>588.6666666666666</ele><time>2026-04-06T08:28:34.132Z</time></trkpt><trkpt lat="45.7361783" lon="8.383035"><ele>590.5</ele><time>2026-04-06T08:28:36.132Z</time></trkpt><trkpt lat="45.7362567" lon="8.3829617"><ele>592.3333333333333</ele><time>2026-04-06T08:28:38.132Z</time></trkpt><trkpt lat="45.73632" lon="8.3829417"><ele>594.1666666666666</ele><time>2026-04-06T08:28:40.132Z</time></trkpt><trkpt lat="45.7363767" lon="8.383025"><ele>596.0</ele><time>2026-04-06T08:28:49.132Z</time></trkpt><trkpt lat="45.7364417" lon="8.383135"><ele>596.5</ele><time>2026-04-06T08:28:51.132Z</time></trkpt><trkpt lat="45.7365133" lon="8.3832667"><ele>597.0</ele><time>2026-04-06T08:28:53.132Z</time></trkpt><trkpt lat="45.73667" lon="8.3833183"><ele>597.5</ele><time>2026-04-06T08:34:17.13Z</time></trkpt><trkpt lat="45.7366967" lon="8.3831817"><ele>598.0</ele><time>2026-04-06T08:34:19.131Z</time></trkpt><trkpt lat="45.7367233" lon="8.3830683"><ele>597.3333333333334</ele><time>2026-04-06T08:34:20.131Z</time></trkpt><trkpt lat="45.7367583" lon="8.3829533"><ele>596.6666666666666</ele><time>2026-04-06T08:34:21.131Z</time></trkpt><trkpt lat="45.7368683" lon="8.3827033"><ele>596.0</ele><time>2026-04-06T08:34:23.13Z</time></trkpt><trkpt lat="45.7369583" lon="8.38251"><ele>597.3333333333333</ele><time>2026-04-06T08:34:25.131Z</time></trkpt><trkpt lat="45.737005" lon="8.382425"><ele>598.6666666666666</ele><time>2026-04-06T08:34:26.131Z</time></trkpt><trkpt lat="45.737115" lon="8.38232"><ele>600.0</ele><time>2026-04-06T08:34:28.131Z</time></trkpt><trkpt lat="45.7371683" lon="8.3822467"><ele>601.3333333333334</ele><time>2026-04-06T08:34:29.131Z</time></trkpt><trkpt lat="45.737215" lon="8.38217"><ele>602.6666666666667</ele><time>2026-04-06T08:34:30.131Z</time></trkpt><trkpt lat="45.7372533" lon="8.3820883"><ele>604.0</ele><time>2026-04-06T08:34:31.131Z</time></trkpt><trkpt lat="45.7373033" lon="8.3819967"><ele>605.5</ele><time>2026-04-06T08:34:32.131Z</time></trkpt><trkpt lat="45.7373433" lon="8.3819083"><ele>607.0</ele><time>2026-04-06T08:34:33.131Z</time></trkpt><trkpt lat="45.7373883" lon="8.381835"><ele>608.5</ele><time>2026-04-06T08:34:34.131Z</time></trkpt><trkpt lat="45.73748" lon="8.3817983"><ele>610.0</ele><time>2026-04-06T08:34:38.13Z</time></trkpt><trkpt lat="45.7375633" lon="8.38182"><ele>611.5</ele><time>2026-04-06T08:34:39.131Z</time></trkpt><trkpt lat="45.73766" lon="8.3818517"><ele>613.0</ele><time>2026-04-06T08:34:40.131Z</time></trkpt><trkpt lat="45.7378183" lon="8.3819283"><ele>617.5</ele><time>2026-04-06T08:34:42.131Z</time></trkpt><trkpt lat="45.738025" lon="8.3820467"><ele>622.0</ele><time>2026-04-06T08:34:45.131Z</time></trkpt><trkpt lat="45.73809" lon="8.3820567"><ele>626.5</ele><time>2026-04-06T08:34:46.131Z</time></trkpt><trkpt lat="45.7382383" lon="8.3820333"><ele>631.0</ele><time>2026-04-06T08:34:48.131Z</time></trkpt><trkpt lat="45.738315" lon="8.3820117"><ele>631.0</ele><time>2026-04-06T08:34:49.131Z</time></trkpt><trkpt lat="45.7384617" lon="8.3819733"><ele>631.0</ele><time>2026-04-06T08:34:51.131Z</time></trkpt><trkpt lat="45.738565" lon="8.3819033"><ele>631.0</ele><time>2026-04-06T08:34:53.131Z</time></trkpt><trkpt lat="45.7386133" lon="8.3818317"><ele>631.0</ele><time>2026-04-06T08:34:54.131Z</time></trkpt><trkpt lat="45.7386533" lon="8.38176"><ele>631.0</ele><time>2026-04-06T08:34:55.13Z</time></trkpt><trkpt lat="45.7387017" lon="8.3816933"><ele>632.6</ele><time>2026-04-06T08:34:56.13Z</time></trkpt><trkpt lat="45.7388067" lon="8.3816333"><ele>634.2</ele><time>2026-04-06T08:34:58.131Z</time></trkpt><trkpt lat="45.7389033" lon="8.3816683"><ele>635.8</ele><time>2026-04-06T08:34:59.131Z</time></trkpt><trkpt lat="45.7389967" lon="8.3817233"><ele>637.4</ele><time>2026-04-06T08:35:00.131Z</time></trkpt><trkpt lat="45.73909" lon="8.3817783"><ele>639.0</ele><time>2026-04-06T08:35:01.131Z</time></trkpt><trkpt lat="45.7391767" lon="8.3818483"><ele>639.0</ele><time>2026-04-06T08:35:02.13Z</time></trkpt><trkpt lat="45.7392517" lon="8.3818867"><ele>639.0</ele><time>2026-04-06T08:35:03.131Z</time></trkpt><trkpt lat="45.7393217" lon="8.381915"><ele>639.0</ele><time>2026-04-06T08:35:04.131Z</time></trkpt><trkpt lat="45.7393867" lon="8.3818967"><ele>639.0</ele><time>2026-04-06T08:35:05.131Z</time></trkpt><trkpt lat="45.73946" lon="8.3818733"><ele>639.0</ele><time>2026-04-06T08:35:06.13Z</time></trkpt><trkpt lat="45.73954" lon="8.3818483"><ele>639.0</ele><time>2026-04-06T08:35:07.131Z</time></trkpt><trkpt lat="45.739625" lon="8.3818267"><ele>639.4</ele><time>2026-04-06T08:35:08.131Z</time></trkpt><trkpt lat="45.7397067" lon="8.3818233"><ele>639.8</ele><time>2026-04-06T08:35:09.131Z</time></trkpt><trkpt lat="45.739775" lon="8.3818417"><ele>640.1999999999999</ele><time>2026-04-06T08:35:10.131Z</time></trkpt><trkpt lat="45.7398483" lon="8.3819267"><ele>640.5999999999999</ele><time>2026-04-06T08:35:11.131Z</time></trkpt><trkpt lat="45.7399267" lon="8.38201"><ele>641.0</ele><time>2026-04-06T08:35:12.131Z</time></trkpt><trkpt lat="45.7400083" lon="8.3821083"><ele>638.5999999999999</ele><time>2026-04-06T08:35:13.13Z</time></trkpt><trkpt lat="45.74009" lon="8.3822267"><ele>636.1999999999999</ele><time>2026-04-06T08:35:14.13Z</time></trkpt><trkpt lat="45.7401783" lon="8.3823317"><ele>633.8</ele><time>2026-04-06T08:35:15.131Z</time></trkpt><trkpt lat="45.7402567" lon="8.382415"><ele>631.4</ele><time>2026-04-06T08:35:16.131Z</time></trkpt><trkpt lat="45.740325" lon="8.3824767"><ele>629.0</ele><time>2026-04-06T08:35:17.131Z</time></trkpt><trkpt lat="45.7403833" lon="8.382525"><ele>628.4</ele><time>2026-04-06T08:35:18.131Z</time></trkpt><trkpt lat="45.7404533" lon="8.382555"><ele>627.8</ele><time>2026-04-06T08:35:20.131Z</time></trkpt><trkpt lat="45.740385" lon="8.38245"><ele>627.2</ele><time>2026-04-06T08:35:38.131Z</time></trkpt><trkpt lat="45.7402533" lon="8.38226"><ele>626.6</ele><time>2026-04-06T08:35:41.13Z</time></trkpt><trkpt lat="45.7402133" lon="8.3821767"><ele>626.0</ele><time>2026-04-06T08:35:42.13Z</time></trkpt><trkpt lat="45.7401233" lon="8.38191"><ele>628.5</ele><time>2026-04-06T08:35:44.131Z</time></trkpt><trkpt lat="45.740085" lon="8.3818167"><ele>631.0</ele><time>2026-04-06T08:35:45.131Z</time></trkpt><trkpt lat="45.7400483" lon="8.3817417"><ele>633.5</ele><time>2026-04-06T08:35:46.131Z</time></trkpt><trkpt lat="45.7399933" lon="8.3815933"><ele>636.0</ele><time>2026-04-06T08:35:48.131Z</time></trkpt><trkpt lat="45.7399783" lon="8.3814983"><ele>638.5</ele><time>2026-04-06T08:35:49.131Z</time></trkpt><trkpt lat="45.7399583" lon="8.3813883"><ele>641.0</ele><time>2026-04-06T08:35:50.131Z</time></trkpt><trkpt lat="45.7399567" lon="8.3812717"><ele>642.5999999999999</ele><time>2026-04-06T08:35:51.131Z</time></trkpt><trkpt lat="45.73994" lon="8.38117"><ele>644.2</ele><time>2026-04-06T08:35:52.129Z</time></trkpt><trkpt lat="45.7398717" lon="8.3809917"><ele>645.8</ele><time>2026-04-06T08:35:54.13Z</time></trkpt><trkpt lat="45.73984" lon="8.3808867"><ele>647.4000000000001</ele><time>2026-04-06T08:35:55.13Z</time></trkpt><trkpt lat="45.7398167" lon="8.3807733"><ele>649.0</ele><time>2026-04-06T08:35:56.13Z</time></trkpt><trkpt lat="45.7398033" lon="8.38066"><ele>649.0</ele><time>2026-04-06T08:35:57.13Z</time></trkpt><trkpt lat="45.7397783" lon="8.3805517"><ele>649.0</ele><time>2026-04-06T08:35:58.13Z</time></trkpt><trkpt lat="45.73971" lon="8.38034"><ele>649.0</ele><time>2026-04-06T08:36:00.129Z</time></trkpt><trkpt lat="45.7396667" lon="8.3802283"><ele>649.0</ele><time>2026-04-06T08:36:01.13Z</time></trkpt><trkpt lat="45.7396317" lon="8.38012"><ele>649.0</ele><time>2026-04-06T08:36:02.13Z</time></trkpt><trkpt lat="45.739605" lon="8.3800067"><ele>648.4000000000001</ele><time>2026-04-06T08:36:03.129Z</time></trkpt><trkpt lat="45.73969" lon="8.37985"><ele>647.8</ele><time>2026-04-06T08:36:05.13Z</time></trkpt><trkpt lat="45.739715" lon="8.3797583"><ele>647.2</ele><time>2026-04-06T08:36:06.13Z</time></trkpt><trkpt lat="45.7397233" lon="8.3796283"><ele>646.5999999999999</ele><time>2026-04-06T08:36:08.13Z</time></trkpt><trkpt lat="45.7396683" lon="8.3795333"><ele>646.0</ele><time>2026-04-06T08:36:10.13Z</time></trkpt><trkpt lat="45.7395533" lon="8.3794633"><ele>645.5</ele><time>2026-04-06T08:36:12.13Z</time></trkpt><trkpt lat="45.739475" lon="8.37943"><ele>645.0</ele><time>2026-04-06T08:36:13.13Z</time></trkpt><trkpt lat="45.7393917" lon="8.3794"><ele>644.5</ele><time>2026-04-06T08:36:14.13Z</time></trkpt><trkpt lat="45.7393133" lon="8.3793617"><ele>644.0</ele><time>2026-04-06T08:36:15.13Z</time></trkpt><trkpt lat="45.7392417" lon="8.3793117"><ele>643.5</ele><time>2026-04-06T08:36:16.13Z</time></trkpt><trkpt lat="45.7391717" lon="8.3792617"><ele>643.0</ele><time>2026-04-06T08:36:17.13Z</time></trkpt><trkpt lat="45.7391067" lon="8.379205"><ele>645.6666666666667</ele><time>2026-04-06T08:36:18.13Z</time></trkpt><trkpt lat="45.7390283" lon="8.379155"><ele>648.3333333333334</ele><time>2026-04-06T08:36:19.129Z</time></trkpt><trkpt lat="45.7389617" lon="8.3791117"><ele>651.0</ele><time>2026-04-06T08:36:20.13Z</time></trkpt><trkpt lat="45.7388567" lon="8.37902"><ele>653.6666666666666</ele><time>2026-04-06T08:36:22.129Z</time></trkpt><trkpt lat="45.7387983" lon="8.37895"><ele>656.3333333333333</ele><time>2026-04-06T08:36:23.129Z</time></trkpt><trkpt lat="45.7387467" lon="8.378885"><ele>659.0</ele><time>2026-04-06T08:36:24.13Z</time></trkpt><trkpt lat="45.738685" lon="8.3787433"><ele>659.3333333333333</ele><time>2026-04-06T08:36:26.129Z</time></trkpt><trkpt lat="45.7386467" lon="8.378655"><ele>659.6666666666666</ele><time>2026-04-06T08:36:27.13Z</time></trkpt><trkpt lat="45.73861" lon="8.378575"><ele>660.0</ele><time>2026-04-06T08:36:28.13Z</time></trkpt><trkpt lat="45.73859" lon="8.37848"><ele>660.3333333333334</ele><time>2026-04-06T08:36:29.13Z</time></trkpt><trkpt lat="45.7385667" lon="8.37833"><ele>660.6666666666667</ele><time>2026-04-06T08:36:31.13Z</time></trkpt><trkpt lat="45.7385783" lon="8.37819"><ele>661.0</ele><time>2026-04-06T08:36:41.13Z</time></trkpt><trkpt lat="45.7386617" lon="8.3779717"><ele>659.4</ele><time>2026-04-06T08:36:44.13Z</time></trkpt><trkpt lat="45.7386717" lon="8.3778017"><ele>657.8</ele><time>2026-04-06T08:36:46.129Z</time></trkpt><trkpt lat="45.7386083" lon="8.37763"><ele>656.1999999999999</ele><time>2026-04-06T08:36:48.129Z</time></trkpt><trkpt lat="45.73855" lon="8.3775733"><ele>654.5999999999999</ele><time>2026-04-06T08:36:49.129Z</time></trkpt><trkpt lat="45.738455" lon="8.3775017"><ele>653.0</ele><time>2026-04-06T08:36:50.129Z</time></trkpt><trkpt lat="45.73838" lon="8.377425"><ele>651.5</ele><time>2026-04-06T08:36:51.13Z</time></trkpt><trkpt lat="45.7383067" lon="8.3773317"><ele>650.0</ele><time>2026-04-06T08:36:52.129Z</time></trkpt><trkpt lat="45.738245" lon="8.3772333"><ele>648.5</ele><time>2026-04-06T08:36:53.13Z</time></trkpt><trkpt lat="45.7381567" lon="8.377025"><ele>647.0</ele><time>2026-04-06T08:36:55.13Z</time></trkpt><trkpt lat="45.7381267" lon="8.3769"><ele>647.0</ele><time>2026-04-06T08:36:56.13Z</time></trkpt><trkpt lat="45.7381117" lon="8.3767617"><ele>647.0</ele><time>2026-04-06T08:36:57.13Z</time></trkpt><trkpt lat="45.7380967" lon="8.3766167"><ele>647.0</ele><time>2026-04-06T08:36:58.13Z</time></trkpt><trkpt lat="45.7380717" lon="8.376465"><ele>647.0</ele><time>2026-04-06T08:36:59.13Z</time></trkpt><trkpt lat="45.7380383" lon="8.3763083"><ele>647.0</ele><time>2026-04-06T08:37:00.13Z</time></trkpt><trkpt lat="45.7380067" lon="8.3761667"><ele>646.5</ele><time>2026-04-06T08:37:01.129Z</time></trkpt><trkpt lat="45.7379683" lon="8.376045"><ele>646.0</ele><time>2026-04-06T08:37:02.13Z</time></trkpt><trkpt lat="45.73791" lon="8.375935"><ele>645.5</ele><time>2026-04-06T08:37:03.129Z</time></trkpt><trkpt lat="45.737845" lon="8.3758483"><ele>645.0</ele><time>2026-04-06T08:37:04.13Z</time></trkpt><trkpt lat="45.737785" lon="8.3757633"><ele>644.5</ele><time>2026-04-06T08:37:05.13Z</time></trkpt><trkpt lat="45.737735" lon="8.3756983"><ele>644.0</ele><time>2026-04-06T08:37:06.13Z</time></trkpt><trkpt lat="45.7376833" lon="8.3756217"><ele>644.0</ele><time>2026-04-06T08:37:07.13Z</time></trkpt><trkpt lat="45.7376367" lon="8.3755417"><ele>644.0</ele><time>2026-04-06T08:37:08.13Z</time></trkpt><trkpt lat="45.7375983" lon="8.3754483"><ele>644.0</ele><time>2026-04-06T08:37:09.13Z</time></trkpt><trkpt lat="45.737575" lon="8.37535"><ele>644.0</ele><time>2026-04-06T08:37:10.13Z</time></trkpt><trkpt lat="45.7375683" lon="8.3752483"><ele>644.0</ele><time>2026-04-06T08:37:11.13Z</time></trkpt><trkpt lat="45.73757" lon="8.37514"><ele>644.0</ele><time>2026-04-06T08:37:12.13Z</time></trkpt><trkpt lat="45.7375767" lon="8.3750267"><ele>644.0</ele><time>2026-04-06T08:37:13.13Z</time></trkpt><trkpt lat="45.7375633" lon="8.374915"><ele>645.3333333333333</ele><time>2026-04-06T08:37:14.13Z</time></trkpt><trkpt lat="45.7375467" lon="8.37481"><ele>646.6666666666666</ele><time>2026-04-06T08:37:15.13Z</time></trkpt><trkpt lat="45.73752" lon="8.3747"><ele>648.0</ele><time>2026-04-06T08:37:16.13Z</time></trkpt><trkpt lat="45.7374933" lon="8.3746"><ele>649.3333333333334</ele><time>2026-04-06T08:37:17.129Z</time></trkpt><trkpt lat="45.7374633" lon="8.374495"><ele>650.6666666666667</ele><time>2026-04-06T08:37:18.13Z</time></trkpt><trkpt lat="45.7374267" lon="8.3743933"><ele>652.0</ele><time>2026-04-06T08:37:19.13Z</time></trkpt><trkpt lat="45.7374167" lon="8.37428"><ele>653.2</ele><time>2026-04-06T08:37:20.13Z</time></trkpt><trkpt lat="45.7373967" lon="8.3741383"><ele>654.4000000000001</ele><time>2026-04-06T08:37:21.13Z</time></trkpt><trkpt lat="45.7373883" lon="8.3739917"><ele>655.5999999999999</ele><time>2026-04-06T08:37:22.13Z</time></trkpt><trkpt lat="45.737375" lon="8.37385"><ele>656.8</ele><time>2026-04-06T08:37:23.13Z</time></trkpt><trkpt lat="45.737365" lon="8.373715"><ele>658.0</ele><time>2026-04-06T08:37:24.13Z</time></trkpt><trkpt lat="45.7373783" lon="8.373595"><ele>660.0</ele><time>2026-04-06T08:37:25.13Z</time></trkpt><trkpt lat="45.7373867" lon="8.3734917"><ele>662.0</ele><time>2026-04-06T08:37:26.129Z</time></trkpt><trkpt lat="45.7374067" lon="8.3733783"><ele>664.0</ele><time>2026-04-06T08:37:27.13Z</time></trkpt><trkpt lat="45.7374317" lon="8.373255"><ele>666.0</ele><time>2026-04-06T08:37:28.13Z</time></trkpt><trkpt lat="45.7374617" lon="8.373135"><ele>668.0</ele><time>2026-04-06T08:37:29.13Z</time></trkpt><trkpt lat="45.73748" lon="8.3730233"><ele>670.0</ele><time>2026-04-06T08:37:30.13Z</time></trkpt><trkpt lat="45.7374933" lon="8.372915"><ele>669.8</ele><time>2026-04-06T08:37:31.13Z</time></trkpt><trkpt lat="45.7375117" lon="8.3728233"><ele>669.6</ele><time>2026-04-06T08:37:32.129Z</time></trkpt><trkpt lat="45.73757" lon="8.3726983"><ele>669.4000000000001</ele><time>2026-04-06T08:37:34.13Z</time></trkpt><trkpt lat="45.73764" lon="8.3726083"><ele>669.2</ele><time>2026-04-06T08:37:36.13Z</time></trkpt><trkpt lat="45.7377617" lon="8.3724333"><ele>669.0</ele><time>2026-04-06T08:37:39.13Z</time></trkpt><trkpt lat="45.737805" lon="8.3722783"><ele>669.0</ele><time>2026-04-06T08:37:41.13Z</time></trkpt><trkpt lat="45.73784" lon="8.3721933"><ele>669.0</ele><time>2026-04-06T08:37:42.13Z</time></trkpt><trkpt lat="45.7378667" lon="8.3720933"><ele>669.0</ele><time>2026-04-06T08:37:43.13Z</time></trkpt><trkpt lat="45.7379217" lon="8.3719367"><ele>669.0</ele><time>2026-04-06T08:37:45.129Z</time></trkpt><trkpt lat="45.737965" lon="8.3718417"><ele>669.0</ele><time>2026-04-06T08:37:47.13Z</time></trkpt><trkpt lat="45.738" lon="8.371705"><ele>669.0</ele><time>2026-04-06T08:37:49.13Z</time></trkpt><trkpt lat="45.738015" lon="8.3715183"><ele>670.6</ele><time>2026-04-06T08:37:51.13Z</time></trkpt><trkpt lat="45.7380267" lon="8.371425"><ele>672.2</ele><time>2026-04-06T08:37:52.13Z</time></trkpt><trkpt lat="45.7380183" lon="8.3712533"><ele>673.8000000000001</ele><time>2026-04-06T08:37:54.13Z</time></trkpt><trkpt lat="45.738025" lon="8.37107"><ele>675.4000000000001</ele><time>2026-04-06T08:37:56.13Z</time></trkpt><trkpt lat="45.738" lon="8.3709783"><ele>677.0</ele><time>2026-04-06T08:37:57.129Z</time></trkpt><trkpt lat="45.737975" lon="8.3708683"><ele>677.0</ele><time>2026-04-06T08:37:58.13Z</time></trkpt><trkpt lat="45.7379533" lon="8.3707617"><ele>677.0</ele><time>2026-04-06T08:37:59.13Z</time></trkpt><trkpt lat="45.7379367" lon="8.3706233"><ele>677.0</ele><time>2026-04-06T08:38:00.13Z</time></trkpt><trkpt lat="45.7379333" lon="8.3705017"><ele>677.0</ele><time>2026-04-06T08:38:01.13Z</time></trkpt><trkpt lat="45.737925" lon="8.370395"><ele>677.0</ele><time>2026-04-06T08:38:02.13Z</time></trkpt><trkpt lat="45.7379317" lon="8.3702933"><ele>677.0</ele><time>2026-04-06T08:38:03.13Z</time></trkpt><trkpt lat="45.7379333" lon="8.3702017"><ele>677.5</ele><time>2026-04-06T08:38:04.129Z</time></trkpt><trkpt lat="45.7379267" lon="8.3701"><ele>678.0</ele><time>2026-04-06T08:38:05.13Z</time></trkpt><trkpt lat="45.7379183" lon="8.3700083"><ele>678.5</ele><time>2026-04-06T08:38:06.13Z</time></trkpt><trkpt lat="45.7379283" lon="8.36988"><ele>679.0</ele><time>2026-04-06T08:38:08.13Z</time></trkpt><trkpt lat="45.7379567" lon="8.3697667"><ele>679.5</ele><time>2026-04-06T08:38:10.13Z</time></trkpt><trkpt lat="45.7380017" lon="8.3695967"><ele>680.0</ele><time>2026-04-06T08:38:12.13Z</time></trkpt><trkpt lat="45.7380217" lon="8.36951"><ele>681.5714285714286</ele><time>2026-04-06T08:38:13.13Z</time></trkpt><trkpt lat="45.738055" lon="8.36941"><ele>683.1428571428571</ele><time>2026-04-06T08:38:14.13Z</time></trkpt><trkpt lat="45.7380783" lon="8.3693017"><ele>684.7142857142857</ele><time>2026-04-06T08:38:15.129Z</time></trkpt><trkpt lat="45.7381033" lon="8.3692083"><ele>686.2857142857142</ele><time>2026-04-06T08:38:16.13Z</time></trkpt><trkpt lat="45.73812" lon="8.3691167"><ele>687.8571428571429</ele><time>2026-04-06T08:38:17.129Z</time></trkpt><trkpt lat="45.7381367" lon="8.3690233"><ele>689.4285714285713</ele><time>2026-04-06T08:38:18.13Z</time></trkpt><trkpt lat="45.7381483" lon="8.3689217"><ele>691.0</ele><time>2026-04-06T08:38:19.129Z</time></trkpt><trkpt lat="45.7381533" lon="8.36882"><ele>691.5</ele><time>2026-04-06T08:38:20.13Z</time></trkpt><trkpt lat="45.7381467" lon="8.36866"><ele>692.0</ele><time>2026-04-06T08:38:22.13Z</time></trkpt><trkpt lat="45.7381283" lon="8.3685233"><ele>692.5</ele><time>2026-04-06T08:38:24.13Z</time></trkpt><trkpt lat="45.7381383" lon="8.3683183"><ele>693.0</ele><time>2026-04-06T08:38:26.13Z</time></trkpt><trkpt lat="45.7381233" lon="8.3681467"><ele>693.0</ele><time>2026-04-06T08:38:28.129Z</time></trkpt><trkpt lat="45.738125" lon="8.3680383"><ele>693.0</ele><time>2026-04-06T08:38:29.13Z</time></trkpt><trkpt lat="45.7381183" lon="8.3679433"><ele>693.0</ele><time>2026-04-06T08:38:30.129Z</time></trkpt><trkpt lat="45.7381083" lon="8.3678433"><ele>693.0</ele><time>2026-04-06T08:38:31.13Z</time></trkpt><trkpt lat="45.7380967" lon="8.3677383"><ele>693.0</ele><time>2026-04-06T08:38:32.129Z</time></trkpt><trkpt lat="45.7380933" lon="8.3676283"><ele>693.0</ele><time>2026-04-06T08:38:33.13Z</time></trkpt><trkpt lat="45.7380917" lon="8.3675067"><ele>693.0</ele><time>2026-04-06T08:38:34.13Z</time></trkpt><trkpt lat="45.7380883" lon="8.3673983"><ele>691.8</ele><time>2026-04-06T08:38:35.13Z</time></trkpt><trkpt lat="45.7380867" lon="8.3672833"><ele>690.5999999999999</ele><time>2026-04-06T08:38:36.13Z</time></trkpt><trkpt lat="45.7380817" lon="8.3671783"><ele>689.4000000000001</ele><time>2026-04-06T08:38:37.13Z</time></trkpt><trkpt lat="45.7380533" lon="8.366995"><ele>688.2</ele><time>2026-04-06T08:38:39.13Z</time></trkpt><trkpt lat="45.7380183" lon="8.3669"><ele>687.0</ele><time>2026-04-06T08:38:40.129Z</time></trkpt><trkpt lat="45.7379733" lon="8.36673"><ele>686.8</ele><time>2026-04-06T08:38:42.13Z</time></trkpt><trkpt lat="45.73793" lon="8.36657"><ele>686.6</ele><time>2026-04-06T08:38:44.13Z</time></trkpt><trkpt lat="45.7378983" lon="8.3664217"><ele>686.4</ele><time>2026-04-06T08:38:46.13Z</time></trkpt><trkpt lat="45.7378583" lon="8.3662917"><ele>686.1999999999999</ele><time>2026-04-06T08:38:48.13Z</time></trkpt><trkpt lat="45.7378317" lon="8.366155"><ele>686.0</ele><time>2026-04-06T08:38:50.13Z</time></trkpt><trkpt lat="45.73782" lon="8.365975"><ele>685.8</ele><time>2026-04-06T08:38:52.13Z</time></trkpt><trkpt lat="45.7378183" lon="8.365875"><ele>685.5999999999999</ele><time>2026-04-06T08:38:53.13Z</time></trkpt><trkpt lat="45.737815" lon="8.36578"><ele>685.4</ele><time>2026-04-06T08:38:54.13Z</time></trkpt><trkpt lat="45.73785" lon="8.36552"><ele>685.2</ele><time>2026-04-06T08:38:57.13Z</time></trkpt><trkpt lat="45.737855" lon="8.36543"><ele>685.0</ele><time>2026-04-06T08:38:58.13Z</time></trkpt><trkpt lat="45.73786" lon="8.3653233"><ele>685.0</ele><time>2026-04-06T08:38:59.13Z</time></trkpt><trkpt lat="45.7378633" lon="8.3652283"><ele>685.0</ele><time>2026-04-06T08:39:00.129Z</time></trkpt><trkpt lat="45.7378717" lon="8.36512"><ele>685.0</ele><time>2026-04-06T08:39:01.13Z</time></trkpt><trkpt lat="45.7378717" lon="8.36501"><ele>685.0</ele><time>2026-04-06T08:39:02.13Z</time></trkpt><trkpt lat="45.7378867" lon="8.3648567"><ele>685.0</ele><time>2026-04-06T08:39:03.13Z</time></trkpt><trkpt lat="45.7379033" lon="8.3647083"><ele>685.0</ele><time>2026-04-06T08:39:04.13Z</time></trkpt><trkpt lat="45.73792" lon="8.3645733"><ele>686.1666666666667</ele><time>2026-04-06T08:39:05.13Z</time></trkpt><trkpt lat="45.7379317" lon="8.3644683"><ele>687.3333333333334</ele><time>2026-04-06T08:39:06.13Z</time></trkpt><trkpt lat="45.73792" lon="8.36436"><ele>688.5</ele><time>2026-04-06T08:39:07.13Z</time></trkpt><trkpt lat="45.7379" lon="8.36426"><ele>689.6666666666666</ele><time>2026-04-06T08:39:08.13Z</time></trkpt><trkpt lat="45.7378867" lon="8.3641633"><ele>690.8333333333333</ele><time>2026-04-06T08:39:09.13Z</time></trkpt><trkpt lat="45.7378867" lon="8.3640617"><ele>692.0</ele><time>2026-04-06T08:39:10.13Z</time></trkpt><trkpt lat="45.7379617" lon="8.363815"><ele>694.4000000000001</ele><time>2026-04-06T08:39:12.13Z</time></trkpt><trkpt lat="45.73802" lon="8.3635933"><ele>696.8000000000001</ele><time>2026-04-06T08:39:14.13Z</time></trkpt><trkpt lat="45.738035" lon="8.3635017"><ele>699.2</ele><time>2026-04-06T08:39:15.129Z</time></trkpt><trkpt lat="45.7380367" lon="8.36339"><ele>701.6</ele><time>2026-04-06T08:39:16.13Z</time></trkpt><trkpt lat="45.7380333" lon="8.36329"><ele>704.0</ele><time>2026-04-06T08:39:17.13Z</time></trkpt><trkpt lat="45.7380283" lon="8.3631883"><ele>704.0</ele><time>2026-04-06T08:39:18.13Z</time></trkpt><trkpt lat="45.7380133" lon="8.3630833"><ele>704.0</ele><time>2026-04-06T08:39:19.13Z</time></trkpt><trkpt lat="45.73799" lon="8.3629733"><ele>704.0</ele><time>2026-04-06T08:39:20.13Z</time></trkpt><trkpt lat="45.7379617" lon="8.3628517"><ele>704.0</ele><time>2026-04-06T08:39:21.13Z</time></trkpt><trkpt lat="45.7379017" lon="8.3624767"><ele>703.5714285714286</ele><time>2026-04-06T08:39:24.13Z</time></trkpt><trkpt lat="45.7378783" lon="8.3623517"><ele>703.1428571428571</ele><time>2026-04-06T08:39:25.13Z</time></trkpt><trkpt lat="45.7378733" lon="8.36224"><ele>702.7142857142858</ele><time>2026-04-06T08:39:26.13Z</time></trkpt><trkpt lat="45.7378717" lon="8.36214"><ele>702.2857142857142</ele><time>2026-04-06T08:39:27.13Z</time></trkpt><trkpt lat="45.7378683" lon="8.362045"><ele>701.8571428571428</ele><time>2026-04-06T08:39:28.129Z</time></trkpt><trkpt lat="45.737865" lon="8.3619467"><ele>701.4285714285714</ele><time>2026-04-06T08:39:29.13Z</time></trkpt><trkpt lat="45.7378667" lon="8.3618517"><ele>701.0</ele><time>2026-04-06T08:39:30.13Z</time></trkpt><trkpt lat="45.7378617" lon="8.3617483"><ele>700.6666666666666</ele><time>2026-04-06T08:39:31.13Z</time></trkpt><trkpt lat="45.73783" lon="8.3616467"><ele>700.3333333333333</ele><time>2026-04-06T08:39:32.13Z</time></trkpt><trkpt lat="45.7377933" lon="8.361545"><ele>700.0</ele><time>2026-04-06T08:39:33.129Z</time></trkpt><trkpt lat="45.737765" lon="8.36143"><ele>699.6666666666666</ele><time>2026-04-06T08:39:34.13Z</time></trkpt><trkpt lat="45.7377333" lon="8.3613133"><ele>699.3333333333334</ele><time>2026-04-06T08:39:35.13Z</time></trkpt><trkpt lat="45.7377083" lon="8.361195"><ele>699.0</ele><time>2026-04-06T08:39:36.13Z</time></trkpt><trkpt lat="45.7376817" lon="8.3610783"><ele>699.0</ele><time>2026-04-06T08:39:37.13Z</time></trkpt><trkpt lat="45.7376483" lon="8.360955"><ele>699.0</ele><time>2026-04-06T08:39:38.13Z</time></trkpt><trkpt lat="45.737605" lon="8.360825"><ele>699.0</ele><time>2026-04-06T08:39:39.13Z</time></trkpt><trkpt lat="45.737565" lon="8.360695"><ele>699.0</ele><time>2026-04-06T08:39:40.129Z</time></trkpt><trkpt lat="45.737515" lon="8.3605833"><ele>699.0</ele><time>2026-04-06T08:39:41.13Z</time></trkpt><trkpt lat="45.7374617" lon="8.3604717"><ele>697.8333333333334</ele><time>2026-04-06T08:39:42.13Z</time></trkpt><trkpt lat="45.7374133" lon="8.3603633"><ele>696.6666666666666</ele><time>2026-04-06T08:39:43.129Z</time></trkpt><trkpt lat="45.737355" lon="8.3602533"><ele>695.5</ele><time>2026-04-06T08:39:44.129Z</time></trkpt><trkpt lat="45.7373233" lon="8.3601567"><ele>694.3333333333333</ele><time>2026-04-06T08:39:45.128Z</time></trkpt><trkpt lat="45.7372867" lon="8.3600683"><ele>693.1666666666666</ele><time>2026-04-06T08:39:46.129Z</time></trkpt><trkpt lat="45.737235" lon="8.35993"><ele>692.0</ele><time>2026-04-06T08:39:48.128Z</time></trkpt><trkpt lat="45.7371733" lon="8.3598233"><ele>692.0</ele><time>2026-04-06T08:39:50.128Z</time></trkpt><trkpt lat="45.7371167" lon="8.3597467"><ele>692.0</ele><time>2026-04-06T08:39:52.129Z</time></trkpt><trkpt lat="45.7370633" lon="8.35969"><ele>692.0</ele><time>2026-04-06T08:39:55.129Z</time></trkpt><trkpt lat="45.737" lon="8.3596667"><ele>692.0</ele><time>2026-04-06T08:40:23.129Z</time></trkpt><trkpt lat="45.7368467" lon="8.3596483"><ele>692.0</ele><time>2026-04-06T08:40:26.129Z</time></trkpt><trkpt lat="45.7366533" lon="8.3595767"><ele>693.2</ele><time>2026-04-06T08:40:28.128Z</time></trkpt><trkpt lat="45.7365533" lon="8.3595433"><ele>694.4000000000001</ele><time>2026-04-06T08:40:29.129Z</time></trkpt><trkpt lat="45.7364583" lon="8.3595067"><ele>695.5999999999999</ele><time>2026-04-06T08:40:30.128Z</time></trkpt><trkpt lat="45.7363783" lon="8.3594367"><ele>696.8</ele><time>2026-04-06T08:40:31.128Z</time></trkpt><trkpt lat="45.7363017" lon="8.3593667"><ele>698.0</ele><time>2026-04-06T08:40:32.129Z</time></trkpt><trkpt lat="45.73623" lon="8.3592867"><ele>698.0</ele><time>2026-04-06T08:40:33.129Z</time></trkpt><trkpt lat="45.7361467" lon="8.3592067"><ele>698.0</ele><time>2026-04-06T08:40:34.129Z</time></trkpt><trkpt lat="45.7360617" lon="8.3591467"><ele>698.0</ele><time>2026-04-06T08:40:35.128Z</time></trkpt><trkpt lat="45.7359683" lon="8.359115"><ele>698.0</ele><time>2026-04-06T08:40:36.129Z</time></trkpt><trkpt lat="45.73588" lon="8.3590833"><ele>698.0</ele><time>2026-04-06T08:40:37.129Z</time></trkpt><trkpt lat="45.7357883" lon="8.3590383"><ele>698.5999999999999</ele><time>2026-04-06T08:40:38.129Z</time></trkpt><trkpt lat="45.735695" lon="8.358995"><ele>699.1999999999999</ele><time>2026-04-06T08:40:39.129Z</time></trkpt><trkpt lat="45.7355983" lon="8.3589517"><ele>699.8</ele><time>2026-04-06T08:40:40.129Z</time></trkpt><trkpt lat="45.73551" lon="8.3589133"><ele>700.4</ele><time>2026-04-06T08:40:41.129Z</time></trkpt><trkpt lat="45.7354283" lon="8.3588833"><ele>701.0</ele><time>2026-04-06T08:40:42.129Z</time></trkpt><trkpt lat="45.7353583" lon="8.3588467"><ele>701.0</ele><time>2026-04-06T08:40:43.129Z</time></trkpt><trkpt lat="45.7353017" lon="8.3588"><ele>701.0</ele><time>2026-04-06T08:40:44.129Z</time></trkpt><trkpt lat="45.7352467" lon="8.3587433"><ele>701.0</ele><time>2026-04-06T08:40:45.129Z</time></trkpt><trkpt lat="45.73519" lon="8.3586633"><ele>701.0</ele><time>2026-04-06T08:40:46.129Z</time></trkpt><trkpt lat="45.7351233" lon="8.3585633"><ele>701.0</ele><time>2026-04-06T08:40:47.129Z</time></trkpt><trkpt lat="45.7350617" lon="8.358415"><ele>701.0</ele><time>2026-04-06T08:40:48.129Z</time></trkpt><trkpt lat="45.7349983" lon="8.35826"><ele>700.0</ele><time>2026-04-06T08:40:49.128Z</time></trkpt><trkpt lat="45.7349267" lon="8.3581233"><ele>699.0</ele><time>2026-04-06T08:40:50.128Z</time></trkpt><trkpt lat="45.7348467" lon="8.3580183"><ele>698.0</ele><time>2026-04-06T08:40:51.129Z</time></trkpt><trkpt lat="45.7347467" lon="8.3579033"><ele>697.0</ele><time>2026-04-06T08:40:52.129Z</time></trkpt><trkpt lat="45.7346567" lon="8.3578183"><ele>697.0</ele><time>2026-04-06T08:40:53.129Z</time></trkpt><trkpt lat="45.7345567" lon="8.3577367"><ele>697.0</ele><time>2026-04-06T08:40:54.128Z</time></trkpt><trkpt lat="45.7344683" lon="8.3576933"><ele>697.0</ele><time>2026-04-06T08:40:55.128Z</time></trkpt><trkpt lat="45.7343883" lon="8.3576767"><ele>697.0</ele><time>2026-04-06T08:40:56.129Z</time></trkpt><trkpt lat="45.73428" lon="8.3576617"><ele>697.0</ele><time>2026-04-06T08:40:58.129Z</time></trkpt><trkpt lat="45.7341717" lon="8.3576467"><ele>702.0</ele><time>2026-04-06T08:41:00.129Z</time></trkpt><trkpt lat="45.7340433" lon="8.3576683"><ele>707.0</ele><time>2026-04-06T08:41:02.129Z</time></trkpt><trkpt lat="45.7339633" lon="8.3576833"><ele>712.0</ele><time>2026-04-06T08:41:03.129Z</time></trkpt><trkpt lat="45.7337983" lon="8.3576683"><ele>717.0</ele><time>2026-04-06T08:41:05.129Z</time></trkpt><trkpt lat="45.73371" lon="8.35766"><ele>717.0</ele><time>2026-04-06T08:41:06.129Z</time></trkpt><trkpt lat="45.733615" lon="8.35766"><ele>717.0</ele><time>2026-04-06T08:41:07.129Z</time></trkpt><trkpt lat="45.73352" lon="8.3576633"><ele>717.0</ele><time>2026-04-06T08:41:08.128Z</time></trkpt><trkpt lat="45.7334233" lon="8.3576667"><ele>717.0</ele><time>2026-04-06T08:41:09.128Z</time></trkpt><trkpt lat="45.7333383" lon="8.3576767"><ele>717.0</ele><time>2026-04-06T08:41:10.129Z</time></trkpt><trkpt lat="45.7332617" lon="8.3576667"><ele>717.0</ele><time>2026-04-06T08:41:11.129Z</time></trkpt><trkpt lat="45.7331817" lon="8.3576483"><ele>719.1666666666666</ele><time>2026-04-06T08:41:12.129Z</time></trkpt><trkpt lat="45.73311" lon="8.3576333"><ele>721.3333333333334</ele><time>2026-04-06T08:41:13.129Z</time></trkpt><trkpt lat="45.7330383" lon="8.357625"><ele>723.5</ele><time>2026-04-06T08:41:14.129Z</time></trkpt><trkpt lat="45.7329233" lon="8.35768"><ele>725.6666666666667</ele><time>2026-04-06T08:41:16.129Z</time></trkpt><trkpt lat="45.7328617" lon="8.3577383"><ele>727.8333333333334</ele><time>2026-04-06T08:41:17.129Z</time></trkpt><trkpt lat="45.7327917" lon="8.3577833"><ele>730.0</ele><time>2026-04-06T08:41:18.129Z</time></trkpt><trkpt lat="45.732725" lon="8.3578467"><ele>734.0</ele><time>2026-04-06T08:41:19.128Z</time></trkpt><trkpt lat="45.732665" lon="8.3579"><ele>738.0</ele><time>2026-04-06T08:41:20.129Z</time></trkpt><trkpt lat="45.732605" lon="8.3579533"><ele>742.0</ele><time>2026-04-06T08:41:21.129Z</time></trkpt><trkpt lat="45.7325417" lon="8.3579867"><ele>746.0</ele><time>2026-04-06T08:41:22.129Z</time></trkpt><trkpt lat="45.7324183" lon="8.3579733"><ele>750.0</ele><time>2026-04-06T08:41:24.129Z</time></trkpt><trkpt lat="45.7323083" lon="8.3579117"><ele>750.0</ele><time>2026-04-06T08:41:26.129Z</time></trkpt><trkpt lat="45.7321817" lon="8.3578783"><ele>750.0</ele><time>2026-04-06T08:41:28.129Z</time></trkpt><trkpt lat="45.7321083" lon="8.3579017"><ele>750.0</ele><time>2026-04-06T08:41:29.129Z</time></trkpt><trkpt lat="45.7320383" lon="8.3579233"><ele>750.0</ele><time>2026-04-06T08:41:30.129Z</time></trkpt><trkpt lat="45.7319167" lon="8.35793"><ele>750.0</ele><time>2026-04-06T08:41:32.129Z</time></trkpt><trkpt lat="45.7318533" lon="8.3578983"><ele>749.2</ele><time>2026-04-06T08:41:33.129Z</time></trkpt><trkpt lat="45.7317867" lon="8.3578617"><ele>748.4</ele><time>2026-04-06T08:41:34.129Z</time></trkpt><trkpt lat="45.73173" lon="8.3577967"><ele>747.5999999999999</ele><time>2026-04-06T08:41:35.129Z</time></trkpt><trkpt lat="45.7316633" lon="8.3577017"><ele>746.8</ele><time>2026-04-06T08:41:36.129Z</time></trkpt><trkpt lat="45.731585" lon="8.3575983"><ele>746.0</ele><time>2026-04-06T08:41:37.129Z</time></trkpt><trkpt lat="45.7315167" lon="8.3574783"><ele>746.0</ele><time>2026-04-06T08:41:38.129Z</time></trkpt><trkpt lat="45.731445" lon="8.3573683"><ele>746.0</ele><time>2026-04-06T08:41:39.129Z</time></trkpt><trkpt lat="45.73136" lon="8.357275"><ele>746.0</ele><time>2026-04-06T08:41:40.129Z</time></trkpt><trkpt lat="45.7312767" lon="8.3571833"><ele>746.0</ele><time>2026-04-06T08:41:41.128Z</time></trkpt><trkpt lat="45.731195" lon="8.3570967"><ele>746.0</ele><time>2026-04-06T08:41:42.128Z</time></trkpt><trkpt lat="45.7311283" lon="8.3570083"><ele>747.0</ele><time>2026-04-06T08:41:43.129Z</time></trkpt><trkpt lat="45.731075" lon="8.3569417"><ele>748.0</ele><time>2026-04-06T08:41:44.129Z</time></trkpt><trkpt lat="45.7310233" lon="8.3568833"><ele>749.0</ele><time>2026-04-06T08:41:45.129Z</time></trkpt><trkpt lat="45.7309083" lon="8.3568667"><ele>750.0</ele><time>2026-04-06T08:41:47.129Z</time></trkpt><trkpt lat="45.7308367" lon="8.356895"><ele>751.0</ele><time>2026-04-06T08:41:48.129Z</time></trkpt><trkpt lat="45.7307717" lon="8.35691"><ele>752.0</ele><time>2026-04-06T08:41:49.129Z</time></trkpt><trkpt lat="45.7307067" lon="8.3569033"><ele>752.0</ele><time>2026-04-06T08:41:50.129Z</time></trkpt><trkpt lat="45.73059" lon="8.3568117"><ele>752.0</ele><time>2026-04-06T08:41:52.129Z</time></trkpt><trkpt lat="45.7305383" lon="8.35673"><ele>752.0</ele><time>2026-04-06T08:41:53.129Z</time></trkpt><trkpt lat="45.730485" lon="8.356635"><ele>752.0</ele><time>2026-04-06T08:41:54.129Z</time></trkpt><trkpt lat="45.7304383" lon="8.3565217"><ele>752.0</ele><time>2026-04-06T08:41:55.129Z</time></trkpt><trkpt lat="45.7303883" lon="8.3564183"><ele>752.5</ele><time>2026-04-06T08:41:56.129Z</time></trkpt><trkpt lat="45.7303467" lon="8.3563317"><ele>753.0</ele><time>2026-04-06T08:41:57.129Z</time></trkpt><trkpt lat="45.7302983" lon="8.3562667"><ele>753.5</ele><time>2026-04-06T08:41:58.129Z</time></trkpt><trkpt lat="45.7302583" lon="8.3561833"><ele>754.0</ele><time>2026-04-06T08:41:59.129Z</time></trkpt><trkpt lat="45.7302067" lon="8.3561117"><ele>754.5</ele><time>2026-04-06T08:42:00.128Z</time></trkpt><trkpt lat="45.7300933" lon="8.3559567"><ele>755.0</ele><time>2026-04-06T08:42:02.129Z</time></trkpt><trkpt lat="45.72995" lon="8.35576"><ele>755.0</ele><time>2026-04-06T08:42:04.129Z</time></trkpt><trkpt lat="45.7298833" lon="8.3556833"><ele>755.0</ele><time>2026-04-06T08:42:05.129Z</time></trkpt><trkpt lat="45.72983" lon="8.355605"><ele>755.0</ele><time>2026-04-06T08:42:06.129Z</time></trkpt><trkpt lat="45.7298083" lon="8.355455"><ele>755.0</ele><time>2026-04-06T08:42:08.129Z</time></trkpt><trkpt lat="45.7298083" lon="8.3553633"><ele>755.0</ele><time>2026-04-06T08:42:09.129Z</time></trkpt><trkpt lat="45.7297867" lon="8.3552767"><ele>755.0</ele><time>2026-04-06T08:42:10.129Z</time></trkpt><trkpt lat="45.7297533" lon="8.3551933"><ele>753.5</ele><time>2026-04-06T08:42:11.129Z</time></trkpt><trkpt lat="45.7297183" lon="8.35511"><ele>752.0</ele><time>2026-04-06T08:42:12.129Z</time></trkpt><trkpt lat="45.72966" lon="8.3550283"><ele>750.5</ele><time>2026-04-06T08:42:13.129Z</time></trkpt><trkpt lat="45.7296083" lon="8.3549567"><ele>749.0</ele><time>2026-04-06T08:42:14.128Z</time></trkpt><trkpt lat="45.7295417" lon="8.3548833"><ele>747.5</ele><time>2026-04-06T08:42:15.129Z</time></trkpt><trkpt lat="45.7294667" lon="8.3548133"><ele>746.0</ele><time>2026-04-06T08:42:16.129Z</time></trkpt><trkpt lat="45.7293917" lon="8.3547283"><ele>746.4</ele><time>2026-04-06T08:42:17.129Z</time></trkpt><trkpt lat="45.7293133" lon="8.3546433"><ele>746.8</ele><time>2026-04-06T08:42:18.129Z</time></trkpt><trkpt lat="45.7292333" lon="8.3545667"><ele>747.1999999999999</ele><time>2026-04-06T08:42:19.128Z</time></trkpt><trkpt lat="45.7291433" lon="8.3544917"><ele>747.5999999999999</ele><time>2026-04-06T08:42:21.128Z</time></trkpt><trkpt lat="45.7290433" lon="8.3544333"><ele>748.0</ele><time>2026-04-06T08:42:23.129Z</time></trkpt><trkpt lat="45.7289683" lon="8.3544417"><ele>748.0</ele><time>2026-04-06T08:42:24.128Z</time></trkpt><trkpt lat="45.7288867" lon="8.3544583"><ele>748.0</ele><time>2026-04-06T08:42:25.129Z</time></trkpt><trkpt lat="45.728815" lon="8.3544833"><ele>748.0</ele><time>2026-04-06T08:42:26.129Z</time></trkpt><trkpt lat="45.7287533" lon="8.35452"><ele>748.0</ele><time>2026-04-06T08:42:27.129Z</time></trkpt><trkpt lat="45.72869" lon="8.3545833"><ele>748.0</ele><time>2026-04-06T08:42:28.128Z</time></trkpt><trkpt lat="45.7286467" lon="8.3546833"><ele>748.0</ele><time>2026-04-06T08:42:29.129Z</time></trkpt><trkpt lat="45.7285967" lon="8.3547683"><ele>751.1666666666667</ele><time>2026-04-06T08:42:30.129Z</time></trkpt><trkpt lat="45.728545" lon="8.354875"><ele>754.3333333333334</ele><time>2026-04-06T08:42:31.129Z</time></trkpt><trkpt lat="45.7284933" lon="8.3549617"><ele>757.5</ele><time>2026-04-06T08:42:32.129Z</time></trkpt><trkpt lat="45.72843" lon="8.355035"><ele>760.6666666666666</ele><time>2026-04-06T08:42:33.129Z</time></trkpt><trkpt lat="45.7283683" lon="8.3550933"><ele>763.8333333333333</ele><time>2026-04-06T08:42:34.129Z</time></trkpt><trkpt lat="45.7283083" lon="8.35513"><ele>767.0</ele><time>2026-04-06T08:42:35.129Z</time></trkpt><trkpt lat="45.728235" lon="8.3551283"><ele>767.0</ele><time>2026-04-06T08:42:36.129Z</time></trkpt><trkpt lat="45.7281517" lon="8.3550867"><ele>767.0</ele><time>2026-04-06T08:42:37.129Z</time></trkpt><trkpt lat="45.7280717" lon="8.35502"><ele>767.0</ele><time>2026-04-06T08:42:38.129Z</time></trkpt><trkpt lat="45.7279933" lon="8.3549167"><ele>767.0</ele><time>2026-04-06T08:42:39.129Z</time></trkpt><trkpt lat="45.7279317" lon="8.3548567"><ele>767.0</ele><time>2026-04-06T08:42:40.129Z</time></trkpt><trkpt lat="45.7278683" lon="8.3548117"><ele>767.0</ele><time>2026-04-06T08:42:41.129Z</time></trkpt><trkpt lat="45.727785" lon="8.3547833"><ele>767.25</ele><time>2026-04-06T08:42:43.129Z</time></trkpt><trkpt lat="45.7277217" lon="8.3547233"><ele>767.5</ele><time>2026-04-06T08:42:47.128Z</time></trkpt><trkpt lat="45.7276317" lon="8.3548083"><ele>767.75</ele><time>2026-04-06T08:43:13.129Z</time></trkpt><trkpt lat="45.7275517" lon="8.3548667"><ele>768.0</ele><time>2026-04-06T08:43:14.129Z</time></trkpt><trkpt lat="45.7273333" lon="8.3549383"><ele>768.0</ele><time>2026-04-06T08:43:16.129Z</time></trkpt><trkpt lat="45.7271467" lon="8.3549317"><ele>768.0</ele><time>2026-04-06T08:43:18.129Z</time></trkpt><trkpt lat="45.72696" lon="8.354965"><ele>768.0</ele><time>2026-04-06T08:43:20.129Z</time></trkpt><trkpt lat="45.7268983" lon="8.3549933"><ele>768.0</ele><time>2026-04-06T08:43:21.129Z</time></trkpt><trkpt lat="45.7267817" lon="8.355075"><ele>765.8</ele><time>2026-04-06T08:43:23.129Z</time></trkpt><trkpt lat="45.72671" lon="8.35514"><ele>763.5999999999999</ele><time>2026-04-06T08:43:24.129Z</time></trkpt><trkpt lat="45.7266183" lon="8.3551967"><ele>761.4000000000001</ele><time>2026-04-06T08:43:25.128Z</time></trkpt><trkpt lat="45.72652" lon="8.3552367"><ele>759.2</ele><time>2026-04-06T08:43:26.129Z</time></trkpt><trkpt lat="45.7264317" lon="8.35528"><ele>757.0</ele><time>2026-04-06T08:43:27.129Z</time></trkpt><trkpt lat="45.7263483" lon="8.35535"><ele>757.0</ele><time>2026-04-06T08:43:28.129Z</time></trkpt><trkpt lat="45.7262717" lon="8.3554"><ele>757.0</ele><time>2026-04-06T08:43:29.129Z</time></trkpt><trkpt lat="45.726195" lon="8.3554467"><ele>757.0</ele><time>2026-04-06T08:43:30.129Z</time></trkpt><trkpt lat="45.72612" lon="8.3554817"><ele>757.0</ele><time>2026-04-06T08:43:31.129Z</time></trkpt><trkpt lat="45.7260483" lon="8.3555167"><ele>757.0</ele><time>2026-04-06T08:43:32.129Z</time></trkpt><trkpt lat="45.72598" lon="8.3555483"><ele>757.0</ele><time>2026-04-06T08:43:33.129Z</time></trkpt><trkpt lat="45.72591" lon="8.355565"><ele>756.3333333333334</ele><time>2026-04-06T08:43:34.129Z</time></trkpt><trkpt lat="45.7258383" lon="8.3555633"><ele>755.6666666666667</ele><time>2026-04-06T08:43:35.129Z</time></trkpt><trkpt lat="45.72577" lon="8.355545"><ele>755.0</ele><time>2026-04-06T08:43:36.128Z</time></trkpt><trkpt lat="45.72566" lon="8.3555067"><ele>754.3333333333334</ele><time>2026-04-06T08:43:38.128Z</time></trkpt><trkpt lat="45.7255517" lon="8.3554783"><ele>753.6666666666666</ele><time>2026-04-06T08:43:40.128Z</time></trkpt><trkpt lat="45.72549" lon="8.3554317"><ele>753.0</ele><time>2026-04-06T08:43:41.128Z</time></trkpt><trkpt lat="45.7254217" lon="8.35536"><ele>753.0</ele><time>2026-04-06T08:43:42.128Z</time></trkpt><trkpt lat="45.7253583" lon="8.355295"><ele>753.0</ele><time>2026-04-06T08:43:43.127Z</time></trkpt><trkpt lat="45.7252967" lon="8.3552333"><ele>753.0</ele><time>2026-04-06T08:43:44.127Z</time></trkpt><trkpt lat="45.7252367" lon="8.3551633"><ele>753.0</ele><time>2026-04-06T08:43:45.128Z</time></trkpt><trkpt lat="45.7251717" lon="8.3551033"><ele>753.0</ele><time>2026-04-06T08:43:46.128Z</time></trkpt><trkpt lat="45.725005" lon="8.35496"><ele>758.5</ele><time>2026-04-06T08:43:49.128Z</time></trkpt><trkpt lat="45.72487" lon="8.3548983"><ele>764.0</ele><time>2026-04-06T08:43:51.128Z</time></trkpt><trkpt lat="45.7247233" lon="8.3548"><ele>769.5</ele><time>2026-04-06T08:43:53.127Z</time></trkpt><trkpt lat="45.7246517" lon="8.3547383"><ele>775.0</ele><time>2026-04-06T08:43:54.128Z</time></trkpt><trkpt lat="45.72458" lon="8.3547083"><ele>775.0</ele><time>2026-04-06T08:43:55.128Z</time></trkpt><trkpt lat="45.7244617" lon="8.35471"><ele>775.0</ele><time>2026-04-06T08:43:56.128Z</time></trkpt><trkpt lat="45.7243817" lon="8.354655"><ele>775.0</ele><time>2026-04-06T08:43:57.128Z</time></trkpt><trkpt lat="45.72431" lon="8.35461"><ele>775.0</ele><time>2026-04-06T08:43:58.127Z</time></trkpt><trkpt lat="45.7242433" lon="8.3545633"><ele>775.0</ele><time>2026-04-06T08:43:59.127Z</time></trkpt><trkpt lat="45.724205" lon="8.3544467"><ele>773.25</ele><time>2026-04-06T08:44:00.128Z</time></trkpt><trkpt lat="45.7241683" lon="8.3543167"><ele>771.5</ele><time>2026-04-06T08:44:01.128Z</time></trkpt><trkpt lat="45.724065" lon="8.354075"><ele>769.75</ele><time>2026-04-06T08:44:03.128Z</time></trkpt><trkpt lat="45.7239967" lon="8.3539733"><ele>768.0</ele><time>2026-04-06T08:44:04.128Z</time></trkpt><trkpt lat="45.7239283" lon="8.3538583"><ele>768.0</ele><time>2026-04-06T08:44:05.128Z</time></trkpt><trkpt lat="45.7238583" lon="8.3537833"><ele>768.0</ele><time>2026-04-06T08:44:06.128Z</time></trkpt><trkpt lat="45.723785" lon="8.35373"><ele>768.0</ele><time>2026-04-06T08:44:07.128Z</time></trkpt><trkpt lat="45.7237267" lon="8.353685"><ele>768.0</ele><time>2026-04-06T08:44:08.127Z</time></trkpt><trkpt lat="45.723625" lon="8.35362"><ele>768.0</ele><time>2026-04-06T08:44:10.128Z</time></trkpt><trkpt lat="45.72353" lon="8.3536683"><ele>768.0</ele><time>2026-04-06T08:44:12.128Z</time></trkpt><trkpt lat="45.7234167" lon="8.353715"><ele>773.75</ele><time>2026-04-06T08:44:14.128Z</time></trkpt><trkpt lat="45.7232867" lon="8.3536617"><ele>779.5</ele><time>2026-04-06T08:44:16.128Z</time></trkpt><trkpt lat="45.7231117" lon="8.3535783"><ele>785.25</ele><time>2026-04-06T08:44:18.128Z</time></trkpt><trkpt lat="45.7230283" lon="8.3535667"><ele>791.0</ele><time>2026-04-06T08:44:19.128Z</time></trkpt><trkpt lat="45.72293" lon="8.353605"><ele>791.0000000000001</ele><time>2026-04-06T08:44:20.128Z</time></trkpt><trkpt lat="45.7228417" lon="8.3536483"><ele>791.0</ele><time>2026-04-06T08:44:21.128Z</time></trkpt><trkpt lat="45.72277" lon="8.3536883"><ele>791.0</ele><time>2026-04-06T08:44:22.128Z</time></trkpt><trkpt lat="45.7226983" lon="8.3537283"><ele>791.0</ele><time>2026-04-06T08:44:23.127Z</time></trkpt><trkpt lat="45.72263" lon="8.3537767"><ele>791.0000000000001</ele><time>2026-04-06T08:44:24.128Z</time></trkpt><trkpt lat="45.722565" lon="8.3538417"><ele>791.0</ele><time>2026-04-06T08:44:25.128Z</time></trkpt><trkpt lat="45.7225033" lon="8.3539367"><ele>794.8333333333334</ele><time>2026-04-06T08:44:26.127Z</time></trkpt><trkpt lat="45.7224483" lon="8.3540433"><ele>798.6666666666667</ele><time>2026-04-06T08:44:27.127Z</time></trkpt><trkpt lat="45.7224217" lon="8.3541567"><ele>802.5</ele><time>2026-04-06T08:44:28.128Z</time></trkpt><trkpt lat="45.72238" lon="8.3542317"><ele>806.3333333333333</ele><time>2026-04-06T08:44:29.128Z</time></trkpt><trkpt lat="45.7223167" lon="8.3542917"><ele>810.1666666666666</ele><time>2026-04-06T08:44:30.127Z</time></trkpt><trkpt lat="45.722235" lon="8.3543467"><ele>814.0</ele><time>2026-04-06T08:44:31.128Z</time></trkpt><trkpt lat="45.7221517" lon="8.3544083"><ele>813.9999999999999</ele><time>2026-04-06T08:44:32.127Z</time></trkpt><trkpt lat="45.72207" lon="8.354475"><ele>814.0</ele><time>2026-04-06T08:44:33.128Z</time></trkpt><trkpt lat="45.7219933" lon="8.3545083"><ele>814.0</ele><time>2026-04-06T08:44:34.128Z</time></trkpt><trkpt lat="45.721925" lon="8.3545367"><ele>814.0</ele><time>2026-04-06T08:44:35.127Z</time></trkpt><trkpt lat="45.7218283" lon="8.3545533"><ele>813.9999999999999</ele><time>2026-04-06T08:44:36.128Z</time></trkpt><trkpt lat="45.721725" lon="8.354555"><ele>814.0</ele><time>2026-04-06T08:44:37.127Z</time></trkpt><trkpt lat="45.7216217" lon="8.35454"><ele>813.0</ele><time>2026-04-06T08:44:38.128Z</time></trkpt><trkpt lat="45.7215317" lon="8.3545333"><ele>812.0</ele><time>2026-04-06T08:44:39.127Z</time></trkpt><trkpt lat="45.7214517" lon="8.3545483"><ele>811.0</ele><time>2026-04-06T08:44:40.127Z</time></trkpt><trkpt lat="45.7213917" lon="8.354645"><ele>810.0</ele><time>2026-04-06T08:44:41.128Z</time></trkpt><trkpt lat="45.721325" lon="8.3547717"><ele>809.0</ele><time>2026-04-06T08:44:42.127Z</time></trkpt><trkpt lat="45.7212767" lon="8.3549117"><ele>809.0</ele><time>2026-04-06T08:44:43.128Z</time></trkpt><trkpt lat="45.72124" lon="8.355035"><ele>809.0</ele><time>2026-04-06T08:44:44.128Z</time></trkpt><trkpt lat="45.7212283" lon="8.3551567"><ele>809.0</ele><time>2026-04-06T08:44:45.128Z</time></trkpt><trkpt lat="45.7212267" lon="8.35529"><ele>809.0</ele><time>2026-04-06T08:44:46.128Z</time></trkpt><trkpt lat="45.7212267" lon="8.3553983"><ele>809.0</ele><time>2026-04-06T08:44:47.127Z</time></trkpt><trkpt lat="45.7212133" lon="8.355595"><ele>810.6</ele><time>2026-04-06T08:44:49.128Z</time></trkpt><trkpt lat="45.72113" lon="8.3557267"><ele>812.2</ele><time>2026-04-06T08:44:51.128Z</time></trkpt><trkpt lat="45.72105" lon="8.35579"><ele>813.8000000000001</ele><time>2026-04-06T08:44:52.128Z</time></trkpt><trkpt lat="45.7209517" lon="8.3558717"><ele>815.4000000000001</ele><time>2026-04-06T08:44:53.128Z</time></trkpt><trkpt lat="45.7208733" lon="8.3559667"><ele>817.0</ele><time>2026-04-06T08:44:54.128Z</time></trkpt><trkpt lat="45.72078" lon="8.3560667"><ele>816.9999999999999</ele><time>2026-04-06T08:44:55.128Z</time></trkpt><trkpt lat="45.7207033" lon="8.356165"><ele>817.0</ele><time>2026-04-06T08:44:56.128Z</time></trkpt><trkpt lat="45.7206367" lon="8.356255"><ele>817.0</ele><time>2026-04-06T08:44:57.128Z</time></trkpt><trkpt lat="45.720575" lon="8.3563283"><ele>817.0</ele><time>2026-04-06T08:44:58.128Z</time></trkpt><trkpt lat="45.7205033" lon="8.3563833"><ele>816.9999999999999</ele><time>2026-04-06T08:44:59.128Z</time></trkpt><trkpt lat="45.7204233" lon="8.3564267"><ele>817.0</ele><time>2026-04-06T08:45:00.128Z</time></trkpt><trkpt lat="45.7203317" lon="8.3564767"><ele>816.2</ele><time>2026-04-06T08:45:01.127Z</time></trkpt><trkpt lat="45.7202333" lon="8.3565067"><ele>815.4000000000001</ele><time>2026-04-06T08:45:02.128Z</time></trkpt><trkpt lat="45.7201533" lon="8.3565383"><ele>814.5999999999999</ele><time>2026-04-06T08:45:03.128Z</time></trkpt><trkpt lat="45.72007" lon="8.3565633"><ele>813.8</ele><time>2026-04-06T08:45:04.127Z</time></trkpt><trkpt lat="45.71999" lon="8.3565517"><ele>813.0</ele><time>2026-04-06T08:45:05.128Z</time></trkpt><trkpt lat="45.719885" lon="8.3565283"><ele>813.0</ele><time>2026-04-06T08:45:07.128Z</time></trkpt><trkpt lat="45.71982" lon="8.356505"><ele>813.0</ele><time>2026-04-06T08:45:10.128Z</time></trkpt><trkpt lat="45.719745" lon="8.35649"><ele>813.0</ele><time>2026-04-06T08:45:41.128Z</time></trkpt><trkpt lat="45.719655" lon="8.3565667"><ele>813.0</ele><time>2026-04-06T08:45:43.128Z</time></trkpt><trkpt lat="45.7195883" lon="8.3566067"><ele>813.0</ele><time>2026-04-06T08:45:44.128Z</time></trkpt><trkpt lat="45.7192983" lon="8.3567033"><ele>813.0</ele><time>2026-04-06T08:45:47.128Z</time></trkpt><trkpt lat="45.719195" lon="8.356755"><ele>813.0</ele><time>2026-04-06T08:45:48.128Z</time></trkpt><trkpt lat="45.7190817" lon="8.3568233"><ele>813.0</ele><time>2026-04-06T08:45:49.128Z</time></trkpt><trkpt lat="45.71898" lon="8.356895"><ele>813.0</ele><time>2026-04-06T08:45:50.128Z</time></trkpt><trkpt lat="45.7188683" lon="8.3569717"><ele>813.0</ele><time>2026-04-06T08:45:51.128Z</time></trkpt><trkpt lat="45.7187533" lon="8.3570617"><ele>813.0</ele><time>2026-04-06T08:45:52.128Z</time></trkpt><trkpt lat="45.718635" lon="8.3571533"><ele>813.0</ele><time>2026-04-06T08:45:53.128Z</time></trkpt><trkpt lat="45.7185283" lon="8.3572217"><ele>813.0</ele><time>2026-04-06T08:45:54.127Z</time></trkpt><trkpt lat="45.718445" lon="8.3572683"><ele>813.8333333333334</ele><time>2026-04-06T08:45:55.128Z</time></trkpt><trkpt lat="45.7183667" lon="8.357305"><ele>814.6666666666667</ele><time>2026-04-06T08:45:56.128Z</time></trkpt><trkpt lat="45.7182883" lon="8.357345"><ele>815.5</ele><time>2026-04-06T08:45:57.128Z</time></trkpt><trkpt lat="45.7182083" lon="8.3573783"><ele>816.3333333333334</ele><time>2026-04-06T08:45:58.128Z</time></trkpt><trkpt lat="45.7181267" lon="8.3573817"><ele>817.1666666666667</ele><time>2026-04-06T08:45:59.128Z</time></trkpt><trkpt lat="45.7180617" lon="8.35738"><ele>818.0</ele><time>2026-04-06T08:46:00.128Z</time></trkpt><trkpt lat="45.71795" lon="8.3573583"><ele>818.0000000000001</ele><time>2026-04-06T08:46:02.128Z</time></trkpt><trkpt lat="45.71793" lon="8.357475"><ele>818.0</ele><time>2026-04-06T08:46:04.128Z</time></trkpt><trkpt lat="45.7179517" lon="8.3575767"><ele>818.0</ele><time>2026-04-06T08:46:06.128Z</time></trkpt><trkpt lat="45.7180067" lon="8.357645"><ele>818.0</ele><time>2026-04-06T08:46:08.127Z</time></trkpt><trkpt lat="45.7180317" lon="8.3577383"><ele>818.0000000000001</ele><time>2026-04-06T08:46:11.128Z</time></trkpt><trkpt lat="45.7179217" lon="8.35768"><ele>818.0</ele><time>2026-04-06T08:46:14.128Z</time></trkpt><trkpt lat="45.7178617" lon="8.3576283"><ele>818.0</ele><time>2026-04-06T08:46:15.128Z</time></trkpt><trkpt lat="45.7178033" lon="8.3575817"><ele>818.0</ele><time>2026-04-06T08:46:16.128Z</time></trkpt><trkpt lat="45.71773" lon="8.3575483"><ele>818.0</ele><time>2026-04-06T08:46:17.128Z</time></trkpt><trkpt lat="45.7176567" lon="8.357525"><ele>818.0</ele><time>2026-04-06T08:46:18.127Z</time></trkpt><trkpt lat="45.717585" lon="8.357495"><ele>818.0</ele><time>2026-04-06T08:46:19.128Z</time></trkpt><trkpt lat="45.7175167" lon="8.3574717"><ele>818.0</ele><time>2026-04-06T08:46:20.128Z</time></trkpt><trkpt lat="45.71744" lon="8.35746"><ele>818.0</ele><time>2026-04-06T08:46:21.128Z</time></trkpt><trkpt lat="45.7173767" lon="8.3574433"><ele>815.8571428571428</ele><time>2026-04-06T08:46:22.127Z</time></trkpt><trkpt lat="45.7173117" lon="8.357415"><ele>813.7142857142858</ele><time>2026-04-06T08:46:23.128Z</time></trkpt><trkpt lat="45.7172483" lon="8.35741"><ele>811.5714285714286</ele><time>2026-04-06T08:46:24.127Z</time></trkpt><trkpt lat="45.7171767" lon="8.3574067"><ele>809.4285714285713</ele><time>2026-04-06T08:46:25.127Z</time></trkpt><trkpt lat="45.717105" lon="8.3574067"><ele>807.2857142857142</ele><time>2026-04-06T08:46:26.128Z</time></trkpt><trkpt lat="45.71703" lon="8.3574133"><ele>805.1428571428571</ele><time>2026-04-06T08:46:27.127Z</time></trkpt><trkpt lat="45.716955" lon="8.3574133"><ele>803.0</ele><time>2026-04-06T08:46:28.128Z</time></trkpt><trkpt lat="45.7168883" lon="8.3574"><ele>801.1666666666667</ele><time>2026-04-06T08:46:29.128Z</time></trkpt><trkpt lat="45.7167883" lon="8.3573783"><ele>799.3333333333334</ele><time>2026-04-06T08:46:31.128Z</time></trkpt><trkpt lat="45.7167267" lon="8.3573067"><ele>797.5</ele><time>2026-04-06T08:46:33.128Z</time></trkpt><trkpt lat="45.7166817" lon="8.3572033"><ele>795.6666666666667</ele><time>2026-04-06T08:46:35.128Z</time></trkpt><trkpt lat="45.716645" lon="8.35709"><ele>793.8333333333334</ele><time>2026-04-06T08:46:37.128Z</time></trkpt><trkpt lat="45.71661" lon="8.357015"><ele>792.0</ele><time>2026-04-06T08:46:38.128Z</time></trkpt><trkpt lat="45.7165267" lon="8.3569183"><ele>792.0</ele><time>2026-04-06T08:46:40.128Z</time></trkpt><trkpt lat="45.71646" lon="8.3568733"><ele>792.0</ele><time>2026-04-06T08:46:41.128Z</time></trkpt><trkpt lat="45.7163867" lon="8.3568367"><ele>792.0</ele><time>2026-04-06T08:46:42.128Z</time></trkpt><trkpt lat="45.71632" lon="8.3567983"><ele>792.0</ele><time>2026-04-06T08:46:43.128Z</time></trkpt><trkpt lat="45.7162583" lon="8.356745"><ele>792.0</ele><time>2026-04-06T08:46:44.128Z</time></trkpt><trkpt lat="45.7161717" lon="8.35663"><ele>792.0</ele><time>2026-04-06T08:46:46.128Z</time></trkpt><trkpt lat="45.7161217" lon="8.356485"><ele>792.0</ele><time>2026-04-06T08:46:48.128Z</time></trkpt><trkpt lat="45.7161083" lon="8.3563917"><ele>792.0</ele><time>2026-04-06T08:46:49.128Z</time></trkpt><trkpt lat="45.7161117" lon="8.3562967"><ele>792.0</ele><time>2026-04-06T08:46:50.127Z</time></trkpt><trkpt lat="45.7161233" lon="8.35617"><ele>792.0</ele><time>2026-04-06T08:46:52.128Z</time></trkpt><trkpt lat="45.7161483" lon="8.356065"><ele>792.0</ele><time>2026-04-06T08:46:55.128Z</time></trkpt><trkpt lat="45.716195" lon="8.3559683"><ele>792.0</ele><time>2026-04-06T08:46:58.127Z</time></trkpt><trkpt lat="45.716235" lon="8.3558983"><ele>792.0</ele><time>2026-04-06T08:47:00.128Z</time></trkpt><trkpt lat="45.716345" lon="8.3558583"><ele>787.4000000000001</ele><time>2026-04-06T08:47:02.128Z</time></trkpt><trkpt lat="45.7164017" lon="8.3558167"><ele>782.8000000000001</ele><time>2026-04-06T08:47:03.128Z</time></trkpt><trkpt lat="45.716505" lon="8.355785"><ele>778.2</ele><time>2026-04-06T08:47:05.128Z</time></trkpt><trkpt lat="45.7166067" lon="8.3558083"><ele>773.6</ele><time>2026-04-06T08:47:07.128Z</time></trkpt><trkpt lat="45.7167033" lon="8.35586"><ele>769.0</ele><time>2026-04-06T08:47:14.128Z</time></trkpt><trkpt lat="45.7166317" lon="8.355755"><ele>769.0</ele><time>2026-04-06T08:47:29.128Z</time></trkpt><trkpt lat="45.7165633" lon="8.3557217"><ele>769.0</ele><time>2026-04-06T08:47:30.128Z</time></trkpt><trkpt lat="45.71646" lon="8.3556767"><ele>769.0</ele><time>2026-04-06T08:47:32.128Z</time></trkpt><trkpt lat="45.7163017" lon="8.355675"><ele>769.0</ele><time>2026-04-06T08:47:35.128Z</time></trkpt><trkpt lat="45.7161983" lon="8.3556683"><ele>769.0</ele><time>2026-04-06T08:47:37.127Z</time></trkpt><trkpt lat="45.7161317" lon="8.3556517"><ele>767.6</ele><time>2026-04-06T08:47:38.127Z</time></trkpt><trkpt lat="45.716045" lon="8.3556167"><ele>766.2</ele><time>2026-04-06T08:47:40.127Z</time></trkpt><trkpt lat="45.7159333" lon="8.355645"><ele>764.8000000000001</ele><time>2026-04-06T08:47:42.127Z</time></trkpt><trkpt lat="45.71583" lon="8.35575"><ele>763.4000000000001</ele><time>2026-04-06T08:47:44.126Z</time></trkpt><trkpt lat="45.7157667" lon="8.355825"><ele>762.0</ele><time>2026-04-06T08:47:45.127Z</time></trkpt><trkpt lat="45.7156883" lon="8.3559033"><ele>762.0</ele><time>2026-04-06T08:47:46.127Z</time></trkpt><trkpt lat="45.71562" lon="8.3559767"><ele>762.0</ele><time>2026-04-06T08:47:47.127Z</time></trkpt><trkpt lat="45.71555" lon="8.3560233"><ele>762.0</ele><time>2026-04-06T08:47:48.127Z</time></trkpt><trkpt lat="45.71548" lon="8.356055"><ele>762.0</ele><time>2026-04-06T08:47:49.127Z</time></trkpt><trkpt lat="45.7153967" lon="8.3560483"><ele>762.0</ele><time>2026-04-06T08:47:50.127Z</time></trkpt><trkpt lat="45.71528" lon="8.356025"><ele>762.0</ele><time>2026-04-06T08:47:52.126Z</time></trkpt><trkpt lat="45.715195" lon="8.3561017"><ele>758.5</ele><time>2026-04-06T08:47:54.127Z</time></trkpt><trkpt lat="45.7151833" lon="8.3562567"><ele>755.0</ele><time>2026-04-06T08:47:56.127Z</time></trkpt><trkpt lat="45.7151967" lon="8.3563467"><ele>751.5</ele><time>2026-04-06T08:47:57.127Z</time></trkpt><trkpt lat="45.715115" lon="8.356695"><ele>748.0</ele><time>2026-04-06T08:48:02.127Z</time></trkpt><trkpt lat="45.715025" lon="8.3567217"><ele>748.0</ele><time>2026-04-06T08:48:04.126Z</time></trkpt><trkpt lat="45.7149333" lon="8.3565167"><ele>748.0</ele><time>2026-04-06T08:48:06.126Z</time></trkpt><trkpt lat="45.7148867" lon="8.3564233"><ele>748.0</ele><time>2026-04-06T08:48:07.127Z</time></trkpt><trkpt lat="45.714815" lon="8.3562983"><ele>748.0</ele><time>2026-04-06T08:48:08.127Z</time></trkpt><trkpt lat="45.7147233" lon="8.35617"><ele>748.0</ele><time>2026-04-06T08:48:09.127Z</time></trkpt><trkpt lat="45.71465" lon="8.356055"><ele>748.0</ele><time>2026-04-06T08:48:10.127Z</time></trkpt><trkpt lat="45.7145883" lon="8.3559533"><ele>748.0</ele><time>2026-04-06T08:48:11.127Z</time></trkpt><trkpt lat="45.7145083" lon="8.3559133"><ele>748.0</ele><time>2026-04-06T08:48:12.127Z</time></trkpt><trkpt lat="45.7143633" lon="8.3558583"><ele>748.0</ele><time>2026-04-06T08:48:14.127Z</time></trkpt><trkpt lat="45.7142967" lon="8.3558233"><ele>747.0</ele><time>2026-04-06T08:48:15.127Z</time></trkpt><trkpt lat="45.7142083" lon="8.3558117"><ele>746.0</ele><time>2026-04-06T08:48:16.127Z</time></trkpt><trkpt lat="45.7141233" lon="8.3557983"><ele>745.0</ele><time>2026-04-06T08:48:17.126Z</time></trkpt><trkpt lat="45.7140317" lon="8.35578"><ele>744.0</ele><time>2026-04-06T08:48:18.127Z</time></trkpt><trkpt lat="45.7139417" lon="8.355775"><ele>743.0</ele><time>2026-04-06T08:48:19.127Z</time></trkpt><trkpt lat="45.7138483" lon="8.3557517"><ele>743.0</ele><time>2026-04-06T08:48:20.127Z</time></trkpt><trkpt lat="45.7137533" lon="8.355735"><ele>743.0</ele><time>2026-04-06T08:48:21.127Z</time></trkpt><trkpt lat="45.7136633" lon="8.3557183"><ele>743.0</ele><time>2026-04-06T08:48:22.127Z</time></trkpt><trkpt lat="45.7135883" lon="8.3557183"><ele>743.0</ele><time>2026-04-06T08:48:23.127Z</time></trkpt><trkpt lat="45.7135067" lon="8.355715"><ele>743.0</ele><time>2026-04-06T08:48:24.127Z</time></trkpt><trkpt lat="45.7133967" lon="8.3557083"><ele>742.5999999999999</ele><time>2026-04-06T08:48:26.126Z</time></trkpt><trkpt lat="45.7133067" lon="8.3556917"><ele>742.1999999999999</ele><time>2026-04-06T08:48:28.127Z</time></trkpt><trkpt lat="45.7132417" lon="8.35574"><ele>741.8</ele><time>2026-04-06T08:48:46.127Z</time></trkpt><trkpt lat="45.7131867" lon="8.3558517"><ele>741.4</ele><time>2026-04-06T08:48:54.127Z</time></trkpt><trkpt lat="45.7131067" lon="8.3559467"><ele>741.0</ele><time>2026-04-06T08:48:55.127Z</time></trkpt><trkpt lat="45.7128767" lon="8.35606"><ele>741.0</ele><time>2026-04-06T08:48:58.127Z</time></trkpt><trkpt lat="45.7127967" lon="8.3561"><ele>741.0</ele><time>2026-04-06T08:48:59.127Z</time></trkpt><trkpt lat="45.712725" lon="8.35617"><ele>741.0</ele><time>2026-04-06T08:49:00.127Z</time></trkpt><trkpt lat="45.7125317" lon="8.3564183"><ele>741.0</ele><time>2026-04-06T08:49:03.127Z</time></trkpt><trkpt lat="45.7124517" lon="8.3564733"><ele>741.5999999999999</ele><time>2026-04-06T08:49:04.127Z</time></trkpt><trkpt lat="45.7123633" lon="8.3564933"><ele>742.2</ele><time>2026-04-06T08:49:05.127Z</time></trkpt><trkpt lat="45.712295" lon="8.356495"><ele>742.8</ele><time>2026-04-06T08:49:06.127Z</time></trkpt><trkpt lat="45.7121783" lon="8.3565017"><ele>743.4000000000001</ele><time>2026-04-06T08:49:08.127Z</time></trkpt><trkpt lat="45.7120733" lon="8.35658"><ele>744.0</ele><time>2026-04-06T08:49:10.127Z</time></trkpt><trkpt lat="45.712085" lon="8.3567267"><ele>744.0</ele><time>2026-04-06T08:49:12.127Z</time></trkpt><trkpt lat="45.712125" lon="8.3568133"><ele>744.0</ele><time>2026-04-06T08:49:13.127Z</time></trkpt><trkpt lat="45.7121817" lon="8.3568983"><ele>744.0</ele><time>2026-04-06T08:49:14.126Z</time></trkpt><trkpt lat="45.7122483" lon="8.356995"><ele>744.0</ele><time>2026-04-06T08:49:15.127Z</time></trkpt><trkpt lat="45.7122833" lon="8.3571"><ele>744.0</ele><time>2026-04-06T08:49:16.126Z</time></trkpt><trkpt lat="45.7123133" lon="8.3572067"><ele>744.0</ele><time>2026-04-06T08:49:17.127Z</time></trkpt><trkpt lat="45.712335" lon="8.3573317"><ele>743.0</ele><time>2026-04-06T08:49:18.127Z</time></trkpt><trkpt lat="45.7123517" lon="8.3574583"><ele>742.0</ele><time>2026-04-06T08:49:19.127Z</time></trkpt><trkpt lat="45.7123283" lon="8.3575917"><ele>741.0</ele><time>2026-04-06T08:49:20.127Z</time></trkpt><trkpt lat="45.7122983" lon="8.357685"><ele>740.0</ele><time>2026-04-06T08:49:21.127Z</time></trkpt><trkpt lat="45.7121817" lon="8.3577733"><ele>739.0</ele><time>2026-04-06T08:49:23.127Z</time></trkpt><trkpt lat="45.7121183" lon="8.3578083"><ele>739.0</ele><time>2026-04-06T08:49:24.127Z</time></trkpt><trkpt lat="45.7120433" lon="8.357845"><ele>739.0</ele><time>2026-04-06T08:49:25.127Z</time></trkpt><trkpt lat="45.7119783" lon="8.357895"><ele>739.0</ele><time>2026-04-06T08:49:26.126Z</time></trkpt><trkpt lat="45.711925" lon="8.3579533"><ele>739.0</ele><time>2026-04-06T08:49:27.127Z</time></trkpt><trkpt lat="45.71188" lon="8.3580483"><ele>739.0</ele><time>2026-04-06T08:49:28.127Z</time></trkpt><trkpt lat="45.7118417" lon="8.3581667"><ele>739.0</ele><time>2026-04-06T08:49:29.127Z</time></trkpt><trkpt lat="45.7118017" lon="8.3582983"><ele>742.6</ele><time>2026-04-06T08:49:30.127Z</time></trkpt><trkpt lat="45.71177" lon="8.3584233"><ele>746.2</ele><time>2026-04-06T08:49:31.127Z</time></trkpt><trkpt lat="45.7117333" lon="8.3585483"><ele>749.8000000000001</ele><time>2026-04-06T08:49:32.127Z</time></trkpt><trkpt lat="45.7116933" lon="8.3586467"><ele>753.4000000000001</ele><time>2026-04-06T08:49:33.127Z</time></trkpt><trkpt lat="45.7115917" lon="8.3586983"><ele>757.0</ele><time>2026-04-06T08:49:35.127Z</time></trkpt><trkpt lat="45.7115183" lon="8.3586783"><ele>757.0</ele><time>2026-04-06T08:49:36.127Z</time></trkpt><trkpt lat="45.7114283" lon="8.3586417"><ele>757.0</ele><time>2026-04-06T08:49:37.127Z</time></trkpt><trkpt lat="45.711335" lon="8.3586183"><ele>757.0</ele><time>2026-04-06T08:49:38.127Z</time></trkpt><trkpt lat="45.7112483" lon="8.358575"><ele>757.0</ele><time>2026-04-06T08:49:39.127Z</time></trkpt><trkpt lat="45.711175" lon="8.35852"><ele>757.0</ele><time>2026-04-06T08:49:40.127Z</time></trkpt><trkpt lat="45.7111267" lon="8.3584517"><ele>757.0</ele><time>2026-04-06T08:49:41.127Z</time></trkpt><trkpt lat="45.711085" lon="8.358375"><ele>758.6666666666667</ele><time>2026-04-06T08:49:42.127Z</time></trkpt><trkpt lat="45.7110183" lon="8.3583183"><ele>760.3333333333334</ele><time>2026-04-06T08:49:43.127Z</time></trkpt><trkpt lat="45.7109583" lon="8.3582883"><ele>762.0</ele><time>2026-04-06T08:49:44.127Z</time></trkpt><trkpt lat="45.7108883" lon="8.3582783"><ele>763.6666666666666</ele><time>2026-04-06T08:49:45.127Z</time></trkpt><trkpt lat="45.7108233" lon="8.3582767"><ele>765.3333333333333</ele><time>2026-04-06T08:49:46.127Z</time></trkpt><trkpt lat="45.7107383" lon="8.3584383"><ele>767.0</ele><time>2026-04-06T08:49:48.127Z</time></trkpt><trkpt lat="45.710675" lon="8.3585383"><ele>767.0</ele><time>2026-04-06T08:49:49.127Z</time></trkpt><trkpt lat="45.710605" lon="8.3586267"><ele>767.0</ele><time>2026-04-06T08:49:50.127Z</time></trkpt><trkpt lat="45.71053" lon="8.358705"><ele>767.0</ele><time>2026-04-06T08:49:51.127Z</time></trkpt><trkpt lat="45.7104517" lon="8.3587917"><ele>767.0</ele><time>2026-04-06T08:49:52.127Z</time></trkpt><trkpt lat="45.7103883" lon="8.3588433"><ele>767.0</ele><time>2026-04-06T08:49:53.127Z</time></trkpt><trkpt lat="45.71028" lon="8.3588583"><ele>770.2</ele><time>2026-04-06T08:49:55.127Z</time></trkpt><trkpt lat="45.710165" lon="8.3587917"><ele>773.4000000000001</ele><time>2026-04-06T08:49:57.127Z</time></trkpt><trkpt lat="45.7101" lon="8.3587433"><ele>776.5999999999999</ele><time>2026-04-06T08:49:58.127Z</time></trkpt><trkpt lat="45.709995" lon="8.3586817"><ele>779.8</ele><time>2026-04-06T08:50:00.127Z</time></trkpt><trkpt lat="45.7098967" lon="8.358725"><ele>783.0</ele><time>2026-04-06T08:50:02.127Z</time></trkpt><trkpt lat="45.7098483" lon="8.3588283"><ele>776.0</ele><time>2026-04-06T08:50:03.127Z</time></trkpt><trkpt lat="45.7098017" lon="8.3589267"><ele>769.0</ele><time>2026-04-06T08:50:04.127Z</time></trkpt><trkpt lat="45.70975" lon="8.35901"><ele>762.0</ele><time>2026-04-06T08:50:05.127Z</time></trkpt><trkpt lat="45.7097" lon="8.3590667"><ele>755.0</ele><time>2026-04-06T08:50:06.127Z</time></trkpt><trkpt lat="45.709525" lon="8.3590583"><ele>748.0</ele><time>2026-04-06T08:50:09.127Z</time></trkpt><trkpt lat="45.7094383" lon="8.359015"><ele>749.7142857142857</ele><time>2026-04-06T08:50:10.126Z</time></trkpt><trkpt lat="45.709365" lon="8.35897"><ele>751.4285714285714</ele><time>2026-04-06T08:50:11.127Z</time></trkpt><trkpt lat="45.7093017" lon="8.3589417"><ele>753.1428571428571</ele><time>2026-04-06T08:50:12.127Z</time></trkpt><trkpt lat="45.7092317" lon="8.3589417"><ele>754.8571428571429</ele><time>2026-04-06T08:50:13.127Z</time></trkpt><trkpt lat="45.70917" lon="8.358975"><ele>756.5714285714287</ele><time>2026-04-06T08:50:14.127Z</time></trkpt><trkpt lat="45.7091233" lon="8.359055"><ele>758.2857142857143</ele><time>2026-04-06T08:50:15.127Z</time></trkpt><trkpt lat="45.7090883" lon="8.35915"><ele>760.0</ele><time>2026-04-06T08:50:16.127Z</time></trkpt><trkpt lat="45.7090333" lon="8.35933"><ele>760.0</ele><time>2026-04-06T08:50:18.127Z</time></trkpt><trkpt lat="45.708945" lon="8.3595967"><ele>760.0</ele><time>2026-04-06T08:50:20.127Z</time></trkpt><trkpt lat="45.7088817" lon="8.3597317"><ele>760.0</ele><time>2026-04-06T08:50:21.126Z</time></trkpt><trkpt lat="45.7087967" lon="8.3598467"><ele>760.0</ele><time>2026-04-06T08:50:22.127Z</time></trkpt><trkpt lat="45.7086983" lon="8.3599433"><ele>760.0</ele><time>2026-04-06T08:50:23.127Z</time></trkpt><trkpt lat="45.7086033" lon="8.3600133"><ele>760.0</ele><time>2026-04-06T08:50:24.127Z</time></trkpt><trkpt lat="45.7085233" lon="8.3600683"><ele>760.0</ele><time>2026-04-06T08:50:25.127Z</time></trkpt><trkpt lat="45.7084483" lon="8.3601133"><ele>760.0</ele><time>2026-04-06T08:50:26.127Z</time></trkpt><trkpt lat="45.708375" lon="8.3601517"><ele>760.0</ele><time>2026-04-06T08:50:27.127Z</time></trkpt><trkpt lat="45.708315" lon="8.36018"><ele>760.0</ele><time>2026-04-06T08:50:28.127Z</time></trkpt><trkpt lat="45.7082533" lon="8.3602117"><ele>760.0</ele><time>2026-04-06T08:50:29.127Z</time></trkpt><trkpt lat="45.708205" lon="8.3602983"><ele>760.0</ele><time>2026-04-06T08:50:31.127Z</time></trkpt><trkpt lat="45.7082583" lon="8.3604183"><ele>760.0</ele><time>2026-04-06T08:50:33.127Z</time></trkpt><trkpt lat="45.7083" lon="8.3604883"><ele>760.0</ele><time>2026-04-06T08:50:34.126Z</time></trkpt><trkpt lat="45.70839" lon="8.3607"><ele>760.0</ele><time>2026-04-06T08:50:36.127Z</time></trkpt><trkpt lat="45.7084483" lon="8.3608667"><ele>759.2</ele><time>2026-04-06T08:50:38.127Z</time></trkpt><trkpt lat="45.7084283" lon="8.3610583"><ele>758.4</ele><time>2026-04-06T08:50:40.127Z</time></trkpt><trkpt lat="45.7084067" lon="8.3611733"><ele>757.5999999999999</ele><time>2026-04-06T08:50:41.127Z</time></trkpt><trkpt lat="45.7083683" lon="8.3612683"><ele>756.8</ele><time>2026-04-06T08:50:42.127Z</time></trkpt><trkpt lat="45.7082867" lon="8.36139"><ele>756.0</ele><time>2026-04-06T08:50:44.127Z</time></trkpt><trkpt lat="45.708245" lon="8.36149"><ele>757.6666666666666</ele><time>2026-04-06T08:50:46.127Z</time></trkpt><trkpt lat="45.7082817" lon="8.3615717"><ele>759.3333333333334</ele><time>2026-04-06T08:50:48.127Z</time></trkpt><trkpt lat="45.708365" lon="8.3615967"><ele>761.0</ele><time>2026-04-06T08:50:49.127Z</time></trkpt><trkpt lat="45.70844" lon="8.361635"><ele>762.6666666666667</ele><time>2026-04-06T08:50:50.126Z</time></trkpt><trkpt lat="45.7085183" lon="8.3616767"><ele>764.3333333333334</ele><time>2026-04-06T08:50:51.127Z</time></trkpt><trkpt lat="45.708575" lon="8.3617817"><ele>766.0</ele><time>2026-04-06T08:50:52.127Z</time></trkpt><trkpt lat="45.7086183" lon="8.3618833"><ele>768.0</ele><time>2026-04-06T08:50:53.126Z</time></trkpt><trkpt lat="45.70865" lon="8.3619867"><ele>770.0</ele><time>2026-04-06T08:50:54.126Z</time></trkpt><trkpt lat="45.7086717" lon="8.36208"><ele>772.0</ele><time>2026-04-06T08:50:55.127Z</time></trkpt><trkpt lat="45.70867" lon="8.3621783"><ele>774.0</ele><time>2026-04-06T08:50:56.126Z</time></trkpt><trkpt lat="45.708625" lon="8.3622667"><ele>776.0</ele><time>2026-04-06T08:50:57.127Z</time></trkpt><trkpt lat="45.7085683" lon="8.3623417"><ele>778.0</ele><time>2026-04-06T08:50:58.127Z</time></trkpt><trkpt lat="45.7085133" lon="8.3624217"><ele>780.0</ele><time>2026-04-06T08:50:59.127Z</time></trkpt><trkpt lat="45.708455" lon="8.3625633"><ele>780.0</ele><time>2026-04-06T08:51:01.126Z</time></trkpt><trkpt lat="45.7085017" lon="8.36265"><ele>780.0</ele><time>2026-04-06T08:51:02.127Z</time></trkpt><trkpt lat="45.708555" lon="8.362745"><ele>780.0</ele><time>2026-04-06T08:51:03.127Z</time></trkpt><trkpt lat="45.7085967" lon="8.3628483"><ele>780.0</ele><time>2026-04-06T08:51:04.127Z</time></trkpt><trkpt lat="45.7086433" lon="8.3629633"><ele>780.0</ele><time>2026-04-06T08:51:05.127Z</time></trkpt><trkpt lat="45.708725" lon="8.3630667"><ele>780.0</ele><time>2026-04-06T08:51:06.127Z</time></trkpt><trkpt lat="45.70879" lon="8.3631617"><ele>779.1666666666666</ele><time>2026-04-06T08:51:07.127Z</time></trkpt><trkpt lat="45.7088283" lon="8.3632783"><ele>778.3333333333333</ele><time>2026-04-06T08:51:09.126Z</time></trkpt><trkpt lat="45.7087733" lon="8.3633867"><ele>777.5</ele><time>2026-04-06T08:51:11.127Z</time></trkpt><trkpt lat="45.7087283" lon="8.3634533"><ele>776.6666666666666</ele><time>2026-04-06T08:51:12.127Z</time></trkpt><trkpt lat="45.70862" lon="8.3635517"><ele>775.8333333333333</ele><time>2026-04-06T08:51:14.127Z</time></trkpt><trkpt lat="45.7085533" lon="8.36357"><ele>775.0</ele><time>2026-04-06T08:51:15.127Z</time></trkpt><trkpt lat="45.7084717" lon="8.36357"><ele>774.9999999999999</ele><time>2026-04-06T08:51:16.127Z</time></trkpt><trkpt lat="45.7083883" lon="8.363575"><ele>775.0</ele><time>2026-04-06T08:51:17.127Z</time></trkpt><trkpt lat="45.7083133" lon="8.3635867"><ele>775.0</ele><time>2026-04-06T08:51:18.127Z</time></trkpt><trkpt lat="45.70823" lon="8.3636117"><ele>775.0</ele><time>2026-04-06T08:51:19.127Z</time></trkpt><trkpt lat="45.70812" lon="8.36367"><ele>774.9999999999999</ele><time>2026-04-06T08:51:21.127Z</time></trkpt><trkpt lat="45.70806" lon="8.3637167"><ele>775.0</ele><time>2026-04-06T08:51:22.127Z</time></trkpt><trkpt lat="45.7080083" lon="8.3637767"><ele>774.9999999999999</ele><time>2026-04-06T08:51:23.127Z</time></trkpt><trkpt lat="45.7079433" lon="8.363835"><ele>775.0</ele><time>2026-04-06T08:51:24.127Z</time></trkpt><trkpt lat="45.7078833" lon="8.3639067"><ele>775.0</ele><time>2026-04-06T08:51:25.127Z</time></trkpt><trkpt lat="45.707825" lon="8.363975"><ele>775.0</ele><time>2026-04-06T08:51:26.127Z</time></trkpt><trkpt lat="45.7078017" lon="8.3640717"><ele>775.0</ele><time>2026-04-06T08:51:27.127Z</time></trkpt><trkpt lat="45.7077917" lon="8.36418"><ele>774.9999999999999</ele><time>2026-04-06T08:51:28.127Z</time></trkpt><trkpt lat="45.7077967" lon="8.36428"><ele>775.0</ele><time>2026-04-06T08:51:29.127Z</time></trkpt><trkpt lat="45.7078033" lon="8.3643733"><ele>774.8333333333333</ele><time>2026-04-06T08:51:30.127Z</time></trkpt><trkpt lat="45.7078083" lon="8.36447"><ele>774.6666666666666</ele><time>2026-04-06T08:51:31.127Z</time></trkpt><trkpt lat="45.7077717" lon="8.3646383"><ele>774.5</ele><time>2026-04-06T08:51:33.126Z</time></trkpt><trkpt lat="45.70774" lon="8.36473"><ele>774.3333333333333</ele><time>2026-04-06T08:51:34.127Z</time></trkpt><trkpt lat="45.707675" lon="8.3648267"><ele>774.1666666666666</ele><time>2026-04-06T08:51:36.127Z</time></trkpt><trkpt lat="45.7076233" lon="8.3648933"><ele>774.0</ele><time>2026-04-06T08:51:38.127Z</time></trkpt><trkpt lat="45.7075733" lon="8.3649717"><ele>774.0</ele><time>2026-04-06T08:51:41.126Z</time></trkpt><trkpt lat="45.7075117" lon="8.36502"><ele>774.0</ele><time>2026-04-06T08:51:58.126Z</time></trkpt><trkpt lat="45.7074117" lon="8.365215"><ele>774.0</ele><time>2026-04-06T08:59:00.125Z</time></trkpt><trkpt lat="45.7074" lon="8.365325"><ele>774.0</ele><time>2026-04-06T08:59:02.125Z</time></trkpt><trkpt lat="45.7074083" lon="8.3654883"><ele>774.0</ele><time>2026-04-06T08:59:04.125Z</time></trkpt><trkpt lat="45.707435" lon="8.365595"><ele>774.3333333333334</ele><time>2026-04-06T08:59:05.124Z</time></trkpt><trkpt lat="45.707465" lon="8.3656983"><ele>774.6666666666667</ele><time>2026-04-06T08:59:06.125Z</time></trkpt><trkpt lat="45.707495" lon="8.3657967"><ele>775.0</ele><time>2026-04-06T08:59:07.125Z</time></trkpt><trkpt lat="45.7075317" lon="8.3658933"><ele>775.3333333333334</ele><time>2026-04-06T08:59:08.124Z</time></trkpt><trkpt lat="45.7075617" lon="8.365995"><ele>775.6666666666667</ele><time>2026-04-06T08:59:09.125Z</time></trkpt><trkpt lat="45.7075817" lon="8.3660967"><ele>776.0</ele><time>2026-04-06T08:59:10.125Z</time></trkpt><trkpt lat="45.7075933" lon="8.3661983"><ele>776.0</ele><time>2026-04-06T08:59:11.125Z</time></trkpt><trkpt lat="45.70761" lon="8.3662867"><ele>776.0</ele><time>2026-04-06T08:59:12.125Z</time></trkpt><trkpt lat="45.7076233" lon="8.36646"><ele>776.0</ele><time>2026-04-06T08:59:14.125Z</time></trkpt><trkpt lat="45.70767" lon="8.36663"><ele>776.0</ele><time>2026-04-06T08:59:16.125Z</time></trkpt><trkpt lat="45.7077117" lon="8.366725"><ele>776.0</ele><time>2026-04-06T08:59:17.125Z</time></trkpt><trkpt lat="45.707765" lon="8.3668167"><ele>773.8</ele><time>2026-04-06T08:59:18.125Z</time></trkpt><trkpt lat="45.7078183" lon="8.3669033"><ele>771.5999999999999</ele><time>2026-04-06T08:59:19.125Z</time></trkpt><trkpt lat="45.7078767" lon="8.36698"><ele>769.4</ele><time>2026-04-06T08:59:20.125Z</time></trkpt><trkpt lat="45.7079967" lon="8.3671317"><ele>767.2</ele><time>2026-04-06T08:59:22.125Z</time></trkpt><trkpt lat="45.7080817" lon="8.36719"><ele>765.0</ele><time>2026-04-06T08:59:23.125Z</time></trkpt><trkpt lat="45.70824" lon="8.3673367"><ele>768.3333333333334</ele><time>2026-04-06T08:59:25.125Z</time></trkpt><trkpt lat="45.70832" lon="8.3673867"><ele>771.6666666666667</ele><time>2026-04-06T08:59:26.124Z</time></trkpt><trkpt lat="45.7084083" lon="8.3674483"><ele>775.0</ele><time>2026-04-06T08:59:27.125Z</time></trkpt><trkpt lat="45.7084783" lon="8.3674983"><ele>778.3333333333334</ele><time>2026-04-06T08:59:28.125Z</time></trkpt><trkpt lat="45.7085533" lon="8.36753"><ele>781.6666666666667</ele><time>2026-04-06T08:59:29.125Z</time></trkpt><trkpt lat="45.7086283" lon="8.3675583"><ele>785.0</ele><time>2026-04-06T08:59:30.125Z</time></trkpt><trkpt lat="45.7087033" lon="8.3675717"><ele>785.0000000000001</ele><time>2026-04-06T08:59:31.125Z</time></trkpt><trkpt lat="45.7087817" lon="8.36757"><ele>785.0</ele><time>2026-04-06T08:59:32.125Z</time></trkpt><trkpt lat="45.7088567" lon="8.3675517"><ele>785.0</ele><time>2026-04-06T08:59:33.125Z</time></trkpt><trkpt lat="45.70893" lon="8.36751"><ele>785.0</ele><time>2026-04-06T08:59:34.125Z</time></trkpt><trkpt lat="45.709" lon="8.3675017"><ele>785.0000000000001</ele><time>2026-04-06T08:59:35.125Z</time></trkpt><trkpt lat="45.7091083" lon="8.3675717"><ele>785.0</ele><time>2026-04-06T08:59:37.125Z</time></trkpt><trkpt lat="45.7091817" lon="8.3677"><ele>785.0000000000001</ele><time>2026-04-06T08:59:39.125Z</time></trkpt><trkpt lat="45.7092467" lon="8.36784"><ele>785.0</ele><time>2026-04-06T08:59:41.125Z</time></trkpt><trkpt lat="45.7092633" lon="8.36795"><ele>785.0</ele><time>2026-04-06T08:59:42.125Z</time></trkpt><trkpt lat="45.70927" lon="8.3680733"><ele>785.0</ele><time>2026-04-06T08:59:43.124Z</time></trkpt><trkpt lat="45.70927" lon="8.3681767"><ele>785.0000000000001</ele><time>2026-04-06T08:59:44.123Z</time></trkpt><trkpt lat="45.7092567" lon="8.368265"><ele>785.0</ele><time>2026-04-06T08:59:45.123Z</time></trkpt><trkpt lat="45.7092333" lon="8.3683633"><ele>785.5000000000001</ele><time>2026-04-06T08:59:46.123Z</time></trkpt><trkpt lat="45.709215" lon="8.3684617"><ele>786.0</ele><time>2026-04-06T08:59:47.124Z</time></trkpt><trkpt lat="45.709215" lon="8.3685683"><ele>786.5</ele><time>2026-04-06T08:59:48.124Z</time></trkpt><trkpt lat="45.7092267" lon="8.3686767"><ele>787.0</ele><time>2026-04-06T08:59:49.123Z</time></trkpt><trkpt lat="45.7092683" lon="8.368785"><ele>787.5000000000001</ele><time>2026-04-06T08:59:50.124Z</time></trkpt><trkpt lat="45.70932" lon="8.3688867"><ele>788.0</ele><time>2026-04-06T08:59:51.124Z</time></trkpt><trkpt lat="45.7093983" lon="8.369005"><ele>788.0000000000001</ele><time>2026-04-06T08:59:53.124Z</time></trkpt><trkpt lat="45.70942" lon="8.369135"><ele>788.0</ele><time>2026-04-06T08:59:55.124Z</time></trkpt><trkpt lat="45.7094083" lon="8.3692717"><ele>788.0</ele><time>2026-04-06T08:59:57.124Z</time></trkpt><trkpt lat="45.7093717" lon="8.3693467"><ele>788.0</ele><time>2026-04-06T08:59:59.123Z</time></trkpt><trkpt lat="45.7093433" lon="8.3694367"><ele>788.0000000000001</ele><time>2026-04-06T09:00:02.124Z</time></trkpt><trkpt lat="45.709325" lon="8.3695667"><ele>788.0</ele><time>2026-04-06T09:00:04.124Z</time></trkpt><trkpt lat="45.709335" lon="8.36976"><ele>785.0</ele><time>2026-04-06T09:00:06.123Z</time></trkpt><trkpt lat="45.709345" lon="8.3698767"><ele>782.0</ele><time>2026-04-06T09:00:07.124Z</time></trkpt><trkpt lat="45.709385" lon="8.3700033"><ele>779.0</ele><time>2026-04-06T09:00:08.124Z</time></trkpt><trkpt lat="45.7094167" lon="8.3701317"><ele>776.0</ele><time>2026-04-06T09:00:09.124Z</time></trkpt><trkpt lat="45.70944" lon="8.37026"><ele>773.0</ele><time>2026-04-06T09:00:10.124Z</time></trkpt><trkpt lat="45.7094667" lon="8.37038"><ele>770.6666666666667</ele><time>2026-04-06T09:00:11.124Z</time></trkpt><trkpt lat="45.7094967" lon="8.3705033"><ele>768.3333333333334</ele><time>2026-04-06T09:00:12.124Z</time></trkpt><trkpt lat="45.709555" lon="8.3706267"><ele>766.0</ele><time>2026-04-06T09:00:13.124Z</time></trkpt><trkpt lat="45.7096117" lon="8.3707367"><ele>763.6666666666667</ele><time>2026-04-06T09:00:14.123Z</time></trkpt><trkpt lat="45.7096517" lon="8.3708333"><ele>761.3333333333334</ele><time>2026-04-06T09:00:15.124Z</time></trkpt><trkpt lat="45.7096883" lon="8.3709183"><ele>759.0</ele><time>2026-04-06T09:00:16.124Z</time></trkpt><trkpt lat="45.7097067" lon="8.37102"><ele>759.0</ele><time>2026-04-06T09:00:17.124Z</time></trkpt><trkpt lat="45.7097267" lon="8.371135"><ele>759.0</ele><time>2026-04-06T09:00:18.124Z</time></trkpt><trkpt lat="45.7097483" lon="8.3712617"><ele>759.0</ele><time>2026-04-06T09:00:19.124Z</time></trkpt><trkpt lat="45.7097567" lon="8.37139"><ele>759.0</ele><time>2026-04-06T09:00:20.124Z</time></trkpt><trkpt lat="45.7097617" lon="8.371525"><ele>759.0</ele><time>2026-04-06T09:00:21.124Z</time></trkpt><trkpt lat="45.7097617" lon="8.3716467"><ele>759.0</ele><time>2026-04-06T09:00:22.123Z</time></trkpt><trkpt lat="45.7097517" lon="8.3717733"><ele>756.6</ele><time>2026-04-06T09:00:23.124Z</time></trkpt><trkpt lat="45.70973" lon="8.3719017"><ele>754.2</ele><time>2026-04-06T09:00:24.124Z</time></trkpt><trkpt lat="45.7097083" lon="8.37202"><ele>751.8000000000001</ele><time>2026-04-06T09:00:25.124Z</time></trkpt><trkpt lat="45.70967" lon="8.3721233"><ele>749.4000000000001</ele><time>2026-04-06T09:00:26.124Z</time></trkpt><trkpt lat="45.70963" lon="8.372225"><ele>747.0</ele><time>2026-04-06T09:00:27.124Z</time></trkpt><trkpt lat="45.7096033" lon="8.372475"><ele>745.5</ele><time>2026-04-06T09:00:29.124Z</time></trkpt><trkpt lat="45.7096133" lon="8.372615"><ele>744.0</ele><time>2026-04-06T09:00:30.124Z</time></trkpt><trkpt lat="45.7096183" lon="8.372745"><ele>742.5</ele><time>2026-04-06T09:00:31.124Z</time></trkpt><trkpt lat="45.7096333" lon="8.372865"><ele>741.0</ele><time>2026-04-06T09:00:32.124Z</time></trkpt><trkpt lat="45.7096383" lon="8.3729783"><ele>739.5</ele><time>2026-04-06T09:00:33.124Z</time></trkpt><trkpt lat="45.709645" lon="8.3731083"><ele>738.0</ele><time>2026-04-06T09:00:34.124Z</time></trkpt><trkpt lat="45.7096383" lon="8.3732433"><ele>737.5999999999999</ele><time>2026-04-06T09:00:35.124Z</time></trkpt><trkpt lat="45.709625" lon="8.37338"><ele>737.1999999999999</ele><time>2026-04-06T09:00:36.123Z</time></trkpt><trkpt lat="45.709625" lon="8.3735217"><ele>736.8</ele><time>2026-04-06T09:00:37.124Z</time></trkpt><trkpt lat="45.709635" lon="8.373655"><ele>736.4</ele><time>2026-04-06T09:00:38.124Z</time></trkpt><trkpt lat="45.709655" lon="8.373775"><ele>736.0</ele><time>2026-04-06T09:00:39.124Z</time></trkpt><trkpt lat="45.7096733" lon="8.3739"><ele>737.4</ele><time>2026-04-06T09:00:40.124Z</time></trkpt><trkpt lat="45.7097017" lon="8.3740167"><ele>738.8</ele><time>2026-04-06T09:00:41.124Z</time></trkpt><trkpt lat="45.7097567" lon="8.3741233"><ele>740.1999999999999</ele><time>2026-04-06T09:00:42.124Z</time></trkpt><trkpt lat="45.7098183" lon="8.37424"><ele>741.5999999999999</ele><time>2026-04-06T09:00:43.123Z</time></trkpt><trkpt lat="45.7099" lon="8.3743483"><ele>743.0</ele><time>2026-04-06T09:00:44.124Z</time></trkpt><trkpt lat="45.7099933" lon="8.3744367"><ele>743.0</ele><time>2026-04-06T09:00:45.124Z</time></trkpt><trkpt lat="45.7100883" lon="8.3745267"><ele>743.0</ele><time>2026-04-06T09:00:46.123Z</time></trkpt><trkpt lat="45.7101717" lon="8.3746067"><ele>743.0</ele><time>2026-04-06T09:00:47.124Z</time></trkpt><trkpt lat="45.71025" lon="8.374665"><ele>743.0</ele><time>2026-04-06T09:00:48.124Z</time></trkpt><trkpt lat="45.7103183" lon="8.374725"><ele>743.0</ele><time>2026-04-06T09:00:49.124Z</time></trkpt><trkpt lat="45.7103833" lon="8.3747783"><ele>737.4</ele><time>2026-04-06T09:00:50.124Z</time></trkpt><trkpt lat="45.7104483" lon="8.3749083"><ele>731.8</ele><time>2026-04-06T09:00:52.123Z</time></trkpt><trkpt lat="45.7104683" lon="8.37507"><ele>726.2</ele><time>2026-04-06T09:00:54.124Z</time></trkpt><trkpt lat="45.7104417" lon="8.37524"><ele>720.6</ele><time>2026-04-06T09:00:56.124Z</time></trkpt><trkpt lat="45.710415" lon="8.3753417"><ele>715.0</ele><time>2026-04-06T09:00:57.124Z</time></trkpt><trkpt lat="45.710375" lon="8.3754283"><ele>715.0</ele><time>2026-04-06T09:00:58.124Z</time></trkpt><trkpt lat="45.7103367" lon="8.3755167"><ele>715.0</ele><time>2026-04-06T09:00:59.123Z</time></trkpt><trkpt lat="45.710315" lon="8.3756117"><ele>715.0</ele><time>2026-04-06T09:01:00.123Z</time></trkpt><trkpt lat="45.7103033" lon="8.3757083"><ele>715.0</ele><time>2026-04-06T09:01:01.123Z</time></trkpt><trkpt lat="45.71029" lon="8.3758"><ele>715.0</ele><time>2026-04-06T09:01:02.124Z</time></trkpt><trkpt lat="45.7102883" lon="8.3759733"><ele>715.0</ele><time>2026-04-06T09:01:04.124Z</time></trkpt><trkpt lat="45.7102833" lon="8.3760717"><ele>713.5714285714286</ele><time>2026-04-06T09:01:05.124Z</time></trkpt><trkpt lat="45.7102767" lon="8.3761667"><ele>712.1428571428571</ele><time>2026-04-06T09:01:06.124Z</time></trkpt><trkpt lat="45.7102717" lon="8.3762567"><ele>710.7142857142857</ele><time>2026-04-06T09:01:07.124Z</time></trkpt><trkpt lat="45.7102633" lon="8.376355"><ele>709.2857142857142</ele><time>2026-04-06T09:01:08.124Z</time></trkpt><trkpt lat="45.71026" lon="8.3764517"><ele>707.8571428571429</ele><time>2026-04-06T09:01:09.124Z</time></trkpt><trkpt lat="45.7102367" lon="8.3765983"><ele>706.4285714285713</ele><time>2026-04-06T09:01:11.124Z</time></trkpt><trkpt lat="45.7102217" lon="8.3766983"><ele>705.0</ele><time>2026-04-06T09:01:13.124Z</time></trkpt><trkpt lat="45.7102083" lon="8.37679"><ele>705.0</ele><time>2026-04-06T09:01:15.124Z</time></trkpt><trkpt lat="45.71015" lon="8.3768767"><ele>705.0</ele><time>2026-04-06T09:01:18.124Z</time></trkpt><trkpt lat="45.7100367" lon="8.3768583"><ele>705.0</ele><time>2026-04-06T09:01:22.124Z</time></trkpt><trkpt lat="45.7099667" lon="8.3767917"><ele>705.0</ele><time>2026-04-06T09:01:24.124Z</time></trkpt><trkpt lat="45.709885" lon="8.3768883"><ele>705.0</ele><time>2026-04-06T09:01:28.124Z</time></trkpt><trkpt lat="45.7098767" lon="8.37704"><ele>705.0</ele><time>2026-04-06T09:01:30.124Z</time></trkpt><trkpt lat="45.7099167" lon="8.377135"><ele>705.0</ele><time>2026-04-06T09:01:31.124Z</time></trkpt><trkpt lat="45.7099567" lon="8.37722"><ele>705.0</ele><time>2026-04-06T09:01:32.124Z</time></trkpt><trkpt lat="45.7101017" lon="8.3774333"><ele>705.0</ele><time>2026-04-06T09:01:35.124Z</time></trkpt><trkpt lat="45.71012" lon="8.3775517"><ele>705.0</ele><time>2026-04-06T09:01:36.124Z</time></trkpt><trkpt lat="45.710135" lon="8.3776833"><ele>701.2</ele><time>2026-04-06T09:01:37.124Z</time></trkpt><trkpt lat="45.7101533" lon="8.3778033"><ele>697.4</ele><time>2026-04-06T09:01:38.124Z</time></trkpt><trkpt lat="45.7101717" lon="8.3779317"><ele>693.5999999999999</ele><time>2026-04-06T09:01:39.124Z</time></trkpt><trkpt lat="45.71018" lon="8.37806"><ele>689.8</ele><time>2026-04-06T09:01:40.124Z</time></trkpt><trkpt lat="45.710185" lon="8.3782017"><ele>686.0</ele><time>2026-04-06T09:01:41.124Z</time></trkpt><trkpt lat="45.7102067" lon="8.37834"><ele>684.4</ele><time>2026-04-06T09:01:42.123Z</time></trkpt><trkpt lat="45.71023" lon="8.3784717"><ele>682.8</ele><time>2026-04-06T09:01:43.124Z</time></trkpt><trkpt lat="45.710265" lon="8.3786067"><ele>681.1999999999999</ele><time>2026-04-06T09:01:44.124Z</time></trkpt><trkpt lat="45.71029" lon="8.3787333"><ele>679.5999999999999</ele><time>2026-04-06T09:01:45.124Z</time></trkpt><trkpt lat="45.7103217" lon="8.3788617"><ele>678.0</ele><time>2026-04-06T09:01:46.124Z</time></trkpt><trkpt lat="45.7103467" lon="8.37898"><ele>678.0</ele><time>2026-04-06T09:01:47.124Z</time></trkpt><trkpt lat="45.7103817" lon="8.3790917"><ele>678.0</ele><time>2026-04-06T09:01:48.123Z</time></trkpt><trkpt lat="45.71041" lon="8.3792217"><ele>678.0</ele><time>2026-04-06T09:01:49.123Z</time></trkpt><trkpt lat="45.7104283" lon="8.3793633"><ele>678.0</ele><time>2026-04-06T09:01:50.123Z</time></trkpt><trkpt lat="45.7104483" lon="8.3794983"><ele>678.0</ele><time>2026-04-06T09:01:51.124Z</time></trkpt><trkpt lat="45.7104833" lon="8.3796183"><ele>680.5999999999999</ele><time>2026-04-06T09:01:52.124Z</time></trkpt><trkpt lat="45.71054" lon="8.3797433"><ele>683.1999999999999</ele><time>2026-04-06T09:01:53.124Z</time></trkpt><trkpt lat="45.7106117" lon="8.37985"><ele>685.8</ele><time>2026-04-06T09:01:54.124Z</time></trkpt><trkpt lat="45.7106733" lon="8.3799567"><ele>688.4</ele><time>2026-04-06T09:01:55.123Z</time></trkpt><trkpt lat="45.7107233" lon="8.38007"><ele>691.0</ele><time>2026-04-06T09:01:56.124Z</time></trkpt><trkpt lat="45.710775" lon="8.38018"><ele>691.0</ele><time>2026-04-06T09:01:57.124Z</time></trkpt><trkpt lat="45.7108367" lon="8.3803133"><ele>691.0</ele><time>2026-04-06T09:01:58.124Z</time></trkpt><trkpt lat="45.7109083" lon="8.3804483"><ele>691.0</ele><time>2026-04-06T09:01:59.124Z</time></trkpt><trkpt lat="45.710995" lon="8.380555"><ele>691.0</ele><time>2026-04-06T09:02:00.124Z</time></trkpt><trkpt lat="45.711065" lon="8.3806417"><ele>691.0</ele><time>2026-04-06T09:02:01.124Z</time></trkpt><trkpt lat="45.7111217" lon="8.3807283"><ele>691.0</ele><time>2026-04-06T09:02:02.124Z</time></trkpt><trkpt lat="45.7111867" lon="8.3808283"><ele>691.0</ele><time>2026-04-06T09:02:03.124Z</time></trkpt><trkpt lat="45.7112617" lon="8.3809083"><ele>691.0</ele><time>2026-04-06T09:02:04.124Z</time></trkpt><trkpt lat="45.7113733" lon="8.3809833"><ele>691.0</ele><time>2026-04-06T09:02:05.124Z</time></trkpt><trkpt lat="45.7114983" lon="8.3810483"><ele>691.0</ele><time>2026-04-06T09:02:06.123Z</time></trkpt><trkpt lat="45.71163" lon="8.3811117"><ele>691.0</ele><time>2026-04-06T09:02:07.124Z</time></trkpt><trkpt lat="45.7117567" lon="8.381185"><ele>691.0</ele><time>2026-04-06T09:02:08.124Z</time></trkpt><trkpt lat="45.71186" lon="8.3812583"><ele>691.0</ele><time>2026-04-06T09:02:09.124Z</time></trkpt><trkpt lat="45.7119433" lon="8.3813367"><ele>691.0</ele><time>2026-04-06T09:02:10.124Z</time></trkpt><trkpt lat="45.712025" lon="8.38141"><ele>691.0</ele><time>2026-04-06T09:02:11.123Z</time></trkpt><trkpt lat="45.7121017" lon="8.38145"><ele>691.0</ele><time>2026-04-06T09:02:12.124Z</time></trkpt><trkpt lat="45.7121933" lon="8.381455"><ele>691.0</ele><time>2026-04-06T09:02:13.124Z</time></trkpt><trkpt lat="45.712285" lon="8.381425"><ele>691.0</ele><time>2026-04-06T09:02:14.124Z</time></trkpt><trkpt lat="45.7123667" lon="8.381355"><ele>691.0</ele><time>2026-04-06T09:02:15.124Z</time></trkpt><trkpt lat="45.7124333" lon="8.38128"><ele>691.0</ele><time>2026-04-06T09:02:16.123Z</time></trkpt><trkpt lat="45.71249" lon="8.38123"><ele>691.0</ele><time>2026-04-06T09:02:17.124Z</time></trkpt><trkpt lat="45.71257" lon="8.38123"><ele>691.0</ele><time>2026-04-06T09:02:19.124Z</time></trkpt><trkpt lat="45.71256" lon="8.3814083"><ele>691.0</ele><time>2026-04-06T09:02:21.124Z</time></trkpt><trkpt lat="45.712545" lon="8.381505"><ele>691.0</ele><time>2026-04-06T09:02:22.124Z</time></trkpt><trkpt lat="45.712515" lon="8.3816317"><ele>691.0</ele><time>2026-04-06T09:02:23.123Z</time></trkpt><trkpt lat="45.7124883" lon="8.3817583"><ele>691.0</ele><time>2026-04-06T09:02:24.124Z</time></trkpt><trkpt lat="45.71248" lon="8.3818667"><ele>691.0</ele><time>2026-04-06T09:02:25.124Z</time></trkpt><trkpt lat="45.7125267" lon="8.3820333"><ele>691.0</ele><time>2026-04-06T09:02:27.124Z</time></trkpt><trkpt lat="45.7125867" lon="8.3821067"><ele>691.0</ele><time>2026-04-06T09:02:28.123Z</time></trkpt><trkpt lat="45.71267" lon="8.38215"><ele>691.0</ele><time>2026-04-06T09:02:29.124Z</time></trkpt><trkpt lat="45.7127583" lon="8.3821733"><ele>691.0</ele><time>2026-04-06T09:02:30.124Z</time></trkpt><trkpt lat="45.7128533" lon="8.3822017"><ele>688.0</ele><time>2026-04-06T09:02:31.124Z</time></trkpt><trkpt lat="45.7129517" lon="8.3822067"><ele>685.0</ele><time>2026-04-06T09:02:33.124Z</time></trkpt><trkpt lat="45.7130333" lon="8.3821967"><ele>682.0</ele><time>2026-04-06T09:02:37.124Z</time></trkpt><trkpt lat="45.7130917" lon="8.3822433"><ele>679.0</ele><time>2026-04-06T09:02:40.124Z</time></trkpt><trkpt lat="45.713085" lon="8.38235"><ele>676.0</ele><time>2026-04-06T09:02:43.124Z</time></trkpt><trkpt lat="45.7130883" lon="8.3824433"><ele>673.0</ele><time>2026-04-06T09:02:45.124Z</time></trkpt><trkpt lat="45.71307" lon="8.382575"><ele>673.0</ele><time>2026-04-06T09:02:47.124Z</time></trkpt><trkpt lat="45.7130367" lon="8.3827267"><ele>673.0</ele><time>2026-04-06T09:02:49.124Z</time></trkpt><trkpt lat="45.7130033" lon="8.3828683"><ele>673.0</ele><time>2026-04-06T09:02:51.124Z</time></trkpt><trkpt lat="45.712975" lon="8.38301"><ele>673.0</ele><time>2026-04-06T09:02:53.124Z</time></trkpt><trkpt lat="45.7129633" lon="8.383145"><ele>673.0</ele><time>2026-04-06T09:02:55.123Z</time></trkpt><trkpt lat="45.7129733" lon="8.3833067"><ele>670.4</ele><time>2026-04-06T09:02:57.124Z</time></trkpt><trkpt lat="45.7129933" lon="8.3834817"><ele>667.8</ele><time>2026-04-06T09:02:59.124Z</time></trkpt><trkpt lat="45.713005" lon="8.3835717"><ele>665.2</ele><time>2026-04-06T09:03:00.124Z</time></trkpt><trkpt lat="45.7130267" lon="8.3837383"><ele>662.6</ele><time>2026-04-06T09:03:02.124Z</time></trkpt><trkpt lat="45.7130367" lon="8.383875"><ele>660.0</ele><time>2026-04-06T09:03:04.124Z</time></trkpt><trkpt lat="45.713015" lon="8.383995"><ele>657.8</ele><time>2026-04-06T09:03:06.124Z</time></trkpt><trkpt lat="45.7130017" lon="8.38412"><ele>655.6</ele><time>2026-04-06T09:03:08.123Z</time></trkpt><trkpt lat="45.7129833" lon="8.3842783"><ele>653.4000000000001</ele><time>2026-04-06T09:03:10.124Z</time></trkpt><trkpt lat="45.7129683" lon="8.3844517"><ele>651.2</ele><time>2026-04-06T09:03:12.124Z</time></trkpt><trkpt lat="45.7130017" lon="8.38458"><ele>649.0</ele><time>2026-04-06T09:03:14.123Z</time></trkpt><trkpt lat="45.7130417" lon="8.3846717"><ele>646.0</ele><time>2026-04-06T09:03:16.124Z</time></trkpt><trkpt lat="45.7130467" lon="8.38478"><ele>643.0</ele><time>2026-04-06T09:03:19.124Z</time></trkpt><trkpt lat="45.7129783" lon="8.384835"><ele>640.0</ele><time>2026-04-06T09:03:22.124Z</time></trkpt><trkpt lat="45.712925" lon="8.3848933"><ele>637.0</ele><time>2026-04-06T09:03:24.124Z</time></trkpt><trkpt lat="45.7128983" lon="8.38498"><ele>634.0</ele><time>2026-04-06T09:03:26.123Z</time></trkpt><trkpt lat="45.7128833" lon="8.3851"><ele>631.0</ele><time>2026-04-06T09:03:28.124Z</time></trkpt><trkpt lat="45.7128333" lon="8.3852317"><ele>631.0</ele><time>2026-04-06T09:03:30.124Z</time></trkpt><trkpt lat="45.7128" lon="8.3854133"><ele>631.0</ele><time>2026-04-06T09:03:32.123Z</time></trkpt><trkpt lat="45.7127817" lon="8.3855283"><ele>631.0</ele><time>2026-04-06T09:03:33.123Z</time></trkpt><trkpt lat="45.7127567" lon="8.3856433"><ele>631.0</ele><time>2026-04-06T09:03:34.123Z</time></trkpt><trkpt lat="45.7127367" lon="8.3857467"><ele>631.0</ele><time>2026-04-06T09:03:35.123Z</time></trkpt><trkpt lat="45.7127133" lon="8.3858417"><ele>631.0</ele><time>2026-04-06T09:03:36.122Z</time></trkpt><trkpt lat="45.7126667" lon="8.3860033"><ele>627.1666666666667</ele><time>2026-04-06T09:03:38.123Z</time></trkpt><trkpt lat="45.71264" lon="8.3861567"><ele>623.3333333333334</ele><time>2026-04-06T09:03:40.122Z</time></trkpt><trkpt lat="45.71265" lon="8.3862583"><ele>619.5</ele><time>2026-04-06T09:03:42.122Z</time></trkpt><trkpt lat="45.7126833" lon="8.3863717"><ele>615.6666666666666</ele><time>2026-04-06T09:03:55.123Z</time></trkpt><trkpt lat="45.71273" lon="8.3864817"><ele>611.8333333333333</ele><time>2026-04-06T09:03:58.123Z</time></trkpt><trkpt lat="45.7127317" lon="8.3865883"><ele>608.0</ele><time>2026-04-06T09:04:01.123Z</time></trkpt><trkpt lat="45.712805" lon="8.3866633"><ele>604.4</ele><time>2026-04-06T09:04:04.122Z</time></trkpt><trkpt lat="45.7129133" lon="8.3867067"><ele>600.8</ele><time>2026-04-06T09:04:06.123Z</time></trkpt><trkpt lat="45.7130117" lon="8.38679"><ele>597.2</ele><time>2026-04-06T09:04:08.123Z</time></trkpt><trkpt lat="45.71308" lon="8.3868733"><ele>593.6</ele><time>2026-04-06T09:04:10.123Z</time></trkpt><trkpt lat="45.7131183" lon="8.3869683"><ele>590.0</ele><time>2026-04-06T09:04:12.123Z</time></trkpt><trkpt lat="45.71313" lon="8.3870867"><ele>590.0</ele><time>2026-04-06T09:04:14.123Z</time></trkpt><trkpt lat="45.713105" lon="8.3871767"><ele>590.0</ele><time>2026-04-06T09:04:15.123Z</time></trkpt><trkpt lat="45.71307" lon="8.3872667"><ele>590.0</ele><time>2026-04-06T09:04:16.123Z</time></trkpt><trkpt lat="45.7130283" lon="8.387355"><ele>590.0</ele><time>2026-04-06T09:04:17.122Z</time></trkpt><trkpt lat="45.71298" lon="8.3874483"><ele>590.0</ele><time>2026-04-06T09:04:18.123Z</time></trkpt><trkpt lat="45.7129267" lon="8.3875383"><ele>590.0</ele><time>2026-04-06T09:04:19.123Z</time></trkpt><trkpt lat="45.71289" lon="8.3876483"><ele>588.8333333333333</ele><time>2026-04-06T09:04:20.123Z</time></trkpt><trkpt lat="45.7128633" lon="8.3877633"><ele>587.6666666666666</ele><time>2026-04-06T09:04:21.123Z</time></trkpt><trkpt lat="45.7128383" lon="8.3878683"><ele>586.5</ele><time>2026-04-06T09:04:22.123Z</time></trkpt><trkpt lat="45.7128233" lon="8.3880267"><ele>585.3333333333334</ele><time>2026-04-06T09:04:24.123Z</time></trkpt><trkpt lat="45.7127667" lon="8.38815"><ele>584.1666666666667</ele><time>2026-04-06T09:04:26.122Z</time></trkpt><trkpt lat="45.7127417" lon="8.3882367"><ele>583.0</ele><time>2026-04-06T09:04:27.123Z</time></trkpt><trkpt lat="45.712725" lon="8.388335"><ele>581.0</ele><time>2026-04-06T09:04:28.123Z</time></trkpt><trkpt lat="45.712705" lon="8.3885017"><ele>579.0</ele><time>2026-04-06T09:04:30.122Z</time></trkpt><trkpt lat="45.7126467" lon="8.3885633"><ele>577.0</ele><time>2026-04-06T09:04:32.123Z</time></trkpt><trkpt lat="45.7125333" lon="8.3888217"><ele>575.0</ele><time>2026-04-06T09:04:36.123Z</time></trkpt><trkpt lat="45.7125183" lon="8.3889133"><ele>575.0</ele><time>2026-04-06T09:04:37.122Z</time></trkpt><trkpt lat="45.7124867" lon="8.3890033"><ele>575.0</ele><time>2026-04-06T09:04:38.123Z</time></trkpt><trkpt lat="45.7124483" lon="8.3891033"><ele>575.0</ele><time>2026-04-06T09:04:39.123Z</time></trkpt><trkpt lat="45.71241" lon="8.389195"><ele>575.0</ele><time>2026-04-06T09:04:40.123Z</time></trkpt><trkpt lat="45.7123717" lon="8.3892883"><ele>575.0</ele><time>2026-04-06T09:04:41.123Z</time></trkpt><trkpt lat="45.71234" lon="8.3893817"><ele>575.0</ele><time>2026-04-06T09:04:42.123Z</time></trkpt><trkpt lat="45.7123083" lon="8.3894867"><ele>575.0</ele><time>2026-04-06T09:04:43.123Z</time></trkpt><trkpt lat="45.7122833" lon="8.38959"><ele>575.0</ele><time>2026-04-06T09:04:44.123Z</time></trkpt><trkpt lat="45.7122733" lon="8.3896967"><ele>575.0</ele><time>2026-04-06T09:04:45.122Z</time></trkpt><trkpt lat="45.7122667" lon="8.3897983"><ele>575.0</ele><time>2026-04-06T09:04:46.123Z</time></trkpt><trkpt lat="45.7122817" lon="8.3898917"><ele>575.0</ele><time>2026-04-06T09:04:47.123Z</time></trkpt><trkpt lat="45.7122483" lon="8.3900367"><ele>575.0</ele><time>2026-04-06T09:04:49.123Z</time></trkpt><trkpt lat="45.7122017" lon="8.3901767"><ele>575.0</ele><time>2026-04-06T09:04:51.123Z</time></trkpt><trkpt lat="45.7121967" lon="8.3903517"><ele>575.0</ele><time>2026-04-06T09:04:53.123Z</time></trkpt><trkpt lat="45.7122117" lon="8.39044"><ele>575.0</ele><time>2026-04-06T09:04:54.123Z</time></trkpt><trkpt lat="45.7122233" lon="8.3905417"><ele>575.0</ele><time>2026-04-06T09:04:55.123Z</time></trkpt><trkpt lat="45.7122333" lon="8.390655"><ele>575.0</ele><time>2026-04-06T09:04:56.123Z</time></trkpt><trkpt lat="45.7122417" lon="8.3907617"><ele>575.0</ele><time>2026-04-06T09:04:57.123Z</time></trkpt><trkpt lat="45.712225" lon="8.3908533"><ele>574.0</ele><time>2026-04-06T09:04:58.123Z</time></trkpt><trkpt lat="45.712195" lon="8.3909367"><ele>573.0</ele><time>2026-04-06T09:04:59.123Z</time></trkpt><trkpt lat="45.7121483" lon="8.3910183"><ele>572.0</ele><time>2026-04-06T09:05:00.123Z</time></trkpt><trkpt lat="45.71208" lon="8.3911033"><ele>571.0</ele><time>2026-04-06T09:05:01.123Z</time></trkpt><trkpt lat="45.7120117" lon="8.3911783"><ele>570.0</ele><time>2026-04-06T09:05:02.123Z</time></trkpt><trkpt lat="45.7119367" lon="8.3912533"><ele>569.0</ele><time>2026-04-06T09:05:03.123Z</time></trkpt><trkpt lat="45.7117983" lon="8.3913483"><ele>562.6</ele><time>2026-04-06T09:05:05.122Z</time></trkpt><trkpt lat="45.7117" lon="8.39139"><ele>556.2</ele><time>2026-04-06T09:05:07.123Z</time></trkpt><trkpt lat="45.7116783" lon="8.3915583"><ele>549.8000000000001</ele><time>2026-04-06T09:05:10.123Z</time></trkpt><trkpt lat="45.7117067" lon="8.3917183"><ele>543.4</ele><time>2026-04-06T09:05:12.123Z</time></trkpt><trkpt lat="45.7117667" lon="8.391845"><ele>537.0</ele><time>2026-04-06T09:05:14.123Z</time></trkpt><trkpt lat="45.7118083" lon="8.3919617"><ele>537.0</ele><time>2026-04-06T09:05:16.123Z</time></trkpt><trkpt lat="45.7117817" lon="8.3920917"><ele>537.0</ele><time>2026-04-06T09:05:18.123Z</time></trkpt><trkpt lat="45.7117467" lon="8.3922"><ele>537.0</ele><time>2026-04-06T09:05:20.123Z</time></trkpt><trkpt lat="45.7117333" lon="8.3923283"><ele>537.0</ele><time>2026-04-06T09:05:22.122Z</time></trkpt><trkpt lat="45.7117233" lon="8.39248"><ele>537.0</ele><time>2026-04-06T09:05:24.123Z</time></trkpt><trkpt lat="45.71171" lon="8.3925767"><ele>537.0</ele><time>2026-04-06T09:05:25.123Z</time></trkpt><trkpt lat="45.7116833" lon="8.392665"><ele>536.5</ele><time>2026-04-06T09:05:26.123Z</time></trkpt><trkpt lat="45.711635" lon="8.3927517"><ele>536.0</ele><time>2026-04-06T09:05:27.122Z</time></trkpt><trkpt lat="45.7115817" lon="8.3928267"><ele>535.5</ele><time>2026-04-06T09:05:28.123Z</time></trkpt><trkpt lat="45.7115167" lon="8.3928933"><ele>535.0</ele><time>2026-04-06T09:05:29.123Z</time></trkpt><trkpt lat="45.711455" lon="8.392955"><ele>534.5</ele><time>2026-04-06T09:05:30.122Z</time></trkpt><trkpt lat="45.71139" lon="8.3930283"><ele>534.0</ele><time>2026-04-06T09:05:31.123Z</time></trkpt><trkpt lat="45.71134" lon="8.3931017"><ele>532.6666666666666</ele><time>2026-04-06T09:05:32.123Z</time></trkpt><trkpt lat="45.71129" lon="8.39319"><ele>531.3333333333334</ele><time>2026-04-06T09:05:33.123Z</time></trkpt><trkpt lat="45.7112533" lon="8.3932983"><ele>530.0</ele><time>2026-04-06T09:05:34.123Z</time></trkpt><trkpt lat="45.7112167" lon="8.3934117"><ele>528.6666666666667</ele><time>2026-04-06T09:05:35.123Z</time></trkpt><trkpt lat="45.71118" lon="8.3935267"><ele>527.3333333333334</ele><time>2026-04-06T09:05:36.123Z</time></trkpt><trkpt lat="45.7111383" lon="8.3936417"><ele>526.0</ele><time>2026-04-06T09:05:37.122Z</time></trkpt><trkpt lat="45.7110967" lon="8.3937533"><ele>526.5</ele><time>2026-04-06T09:05:38.122Z</time></trkpt><trkpt lat="45.71107" lon="8.39386"><ele>527.0</ele><time>2026-04-06T09:05:39.123Z</time></trkpt><trkpt lat="45.7110367" lon="8.3939717"><ele>527.5</ele><time>2026-04-06T09:05:40.122Z</time></trkpt><trkpt lat="45.7110033" lon="8.3940683"><ele>528.0</ele><time>2026-04-06T09:05:41.122Z</time></trkpt><trkpt lat="45.71096" lon="8.3941433"><ele>528.5</ele><time>2026-04-06T09:05:42.123Z</time></trkpt><trkpt lat="45.7108667" lon="8.39422"><ele>529.0</ele><time>2026-04-06T09:05:44.123Z</time></trkpt><trkpt lat="45.7107333" lon="8.3941633"><ele>529.0</ele><time>2026-04-06T09:05:46.122Z</time></trkpt><trkpt lat="45.710665" lon="8.394105"><ele>529.0</ele><time>2026-04-06T09:05:47.123Z</time></trkpt><trkpt lat="45.7105983" lon="8.394065"><ele>529.0</ele><time>2026-04-06T09:05:48.122Z</time></trkpt><trkpt lat="45.71047" lon="8.3940617"><ele>529.0</ele><time>2026-04-06T09:05:50.123Z</time></trkpt><trkpt lat="45.7104767" lon="8.39422"><ele>529.0</ele><time>2026-04-06T09:05:53.122Z</time></trkpt><trkpt lat="45.7105017" lon="8.3943033"><ele>529.0</ele><time>2026-04-06T09:05:54.123Z</time></trkpt><trkpt lat="45.7105917" lon="8.3944783"><ele>529.0</ele><time>2026-04-06T09:05:56.123Z</time></trkpt><trkpt lat="45.71063" lon="8.39456"><ele>529.0</ele><time>2026-04-06T09:05:57.123Z</time></trkpt><trkpt lat="45.7106733" lon="8.39463"><ele>529.0</ele><time>2026-04-06T09:05:58.123Z</time></trkpt><trkpt lat="45.7107117" lon="8.394715"><ele>529.0</ele><time>2026-04-06T09:05:59.123Z</time></trkpt><trkpt lat="45.7107067" lon="8.39484"><ele>529.0</ele><time>2026-04-06T09:06:01.122Z</time></trkpt><trkpt lat="45.7106633" lon="8.3949067"><ele>529.5</ele><time>2026-04-06T09:06:02.123Z</time></trkpt><trkpt lat="45.71059" lon="8.3949917"><ele>530.0</ele><time>2026-04-06T09:06:03.123Z</time></trkpt><trkpt lat="45.7105017" lon="8.39506"><ele>530.5</ele><time>2026-04-06T09:06:04.122Z</time></trkpt><trkpt lat="45.71042" lon="8.3951283"><ele>531.0</ele><time>2026-04-06T09:06:05.123Z</time></trkpt><trkpt lat="45.71026" lon="8.3952683"><ele>528.5</ele><time>2026-04-06T09:06:07.123Z</time></trkpt><trkpt lat="45.7101667" lon="8.3953033"><ele>526.0</ele><time>2026-04-06T09:06:08.123Z</time></trkpt><trkpt lat="45.7100733" lon="8.3953333"><ele>523.5</ele><time>2026-04-06T09:06:09.123Z</time></trkpt><trkpt lat="45.7099933" lon="8.3953583"><ele>521.0</ele><time>2026-04-06T09:06:10.123Z</time></trkpt><trkpt lat="45.709925" lon="8.3953867"><ele>518.5</ele><time>2026-04-06T09:06:11.123Z</time></trkpt><trkpt lat="45.7099133" lon="8.3954983"><ele>516.0</ele><time>2026-04-06T09:06:14.123Z</time></trkpt><trkpt lat="45.709915" lon="8.3956017"><ele>516.0</ele><time>2026-04-06T09:06:25.123Z</time></trkpt><trkpt lat="45.70996" lon="8.3956933"><ele>516.0</ele><time>2026-04-06T09:06:26.122Z</time></trkpt><trkpt lat="45.7100467" lon="8.3958567"><ele>516.0</ele><time>2026-04-06T09:06:28.123Z</time></trkpt><trkpt lat="45.710125" lon="8.3959267"><ele>516.0</ele><time>2026-04-06T09:06:29.123Z</time></trkpt><trkpt lat="45.7102833" lon="8.3959817"><ele>516.4</ele><time>2026-04-06T09:06:31.123Z</time></trkpt><trkpt lat="45.710355" lon="8.3959483"><ele>516.8</ele><time>2026-04-06T09:06:32.123Z</time></trkpt><trkpt lat="45.7104283" lon="8.3958983"><ele>517.1999999999999</ele><time>2026-04-06T09:06:33.123Z</time></trkpt><trkpt lat="45.7104967" lon="8.395865"><ele>517.6</ele><time>2026-04-06T09:06:34.123Z</time></trkpt><trkpt lat="45.7106517" lon="8.395865"><ele>518.0</ele><time>2026-04-06T09:06:36.123Z</time></trkpt><trkpt lat="45.71073" lon="8.395915"><ele>518.0</ele><time>2026-04-06T09:06:37.123Z</time></trkpt><trkpt lat="45.710805" lon="8.395935"><ele>518.0</ele><time>2026-04-06T09:06:38.122Z</time></trkpt><trkpt lat="45.7109633" lon="8.39592"><ele>518.0</ele><time>2026-04-06T09:06:40.123Z</time></trkpt><trkpt lat="45.7110283" lon="8.3959183"><ele>518.0</ele><time>2026-04-06T09:06:41.123Z</time></trkpt><trkpt lat="45.711095" lon="8.3959433"><ele>518.0</ele><time>2026-04-06T09:06:42.123Z</time></trkpt><trkpt lat="45.7111717" lon="8.39599"><ele>518.5</ele><time>2026-04-06T09:06:43.123Z</time></trkpt><trkpt lat="45.711235" lon="8.396045"><ele>519.0</ele><time>2026-04-06T09:06:44.123Z</time></trkpt><trkpt lat="45.7113267" lon="8.39609"><ele>519.5</ele><time>2026-04-06T09:06:45.122Z</time></trkpt><trkpt lat="45.711405" lon="8.3961233"><ele>520.0</ele><time>2026-04-06T09:06:46.122Z</time></trkpt><trkpt lat="45.7114867" lon="8.3961483"><ele>520.5</ele><time>2026-04-06T09:06:47.122Z</time></trkpt><trkpt lat="45.7115517" lon="8.3962"><ele>521.0</ele><time>2026-04-06T09:06:48.122Z</time></trkpt><trkpt lat="45.711605" lon="8.39626"><ele>519.2857142857142</ele><time>2026-04-06T09:06:49.122Z</time></trkpt><trkpt lat="45.71164" lon="8.396355"><ele>517.5714285714286</ele><time>2026-04-06T09:06:50.123Z</time></trkpt><trkpt lat="45.7116767" lon="8.3964383"><ele>515.8571428571429</ele><time>2026-04-06T09:06:51.123Z</time></trkpt><trkpt lat="45.71172" lon="8.39654"><ele>514.1428571428571</ele><time>2026-04-06T09:06:52.122Z</time></trkpt><trkpt lat="45.71176" lon="8.39664"><ele>512.4285714285714</ele><time>2026-04-06T09:06:53.123Z</time></trkpt><trkpt lat="45.7118117" lon="8.3967067"><ele>510.71428571428567</ele><time>2026-04-06T09:06:54.123Z</time></trkpt><trkpt lat="45.7118733" lon="8.3967417"><ele>508.99999999999994</ele><time>2026-04-06T09:06:55.122Z</time></trkpt><trkpt lat="45.7119417" lon="8.396775"><ele>509.0</ele><time>2026-04-06T09:06:56.123Z</time></trkpt><trkpt lat="45.712015" lon="8.3967867"><ele>509.0</ele><time>2026-04-06T09:06:57.123Z</time></trkpt><trkpt lat="45.7120867" lon="8.3967867"><ele>509.0</ele><time>2026-04-06T09:06:58.123Z</time></trkpt><trkpt lat="45.712155" lon="8.39681"><ele>509.0</ele><time>2026-04-06T09:06:59.123Z</time></trkpt><trkpt lat="45.7122567" lon="8.3968967"><ele>509.0</ele><time>2026-04-06T09:07:01.123Z</time></trkpt><trkpt lat="45.71229" lon="8.397085"><ele>507.0</ele><time>2026-04-06T09:07:03.123Z</time></trkpt><trkpt lat="45.7122783" lon="8.39723"><ele>505.0</ele><time>2026-04-06T09:07:04.123Z</time></trkpt><trkpt lat="45.71226" lon="8.3973833"><ele>503.0</ele><time>2026-04-06T09:07:05.123Z</time></trkpt><trkpt lat="45.7122617" lon="8.3975083"><ele>501.0</ele><time>2026-04-06T09:07:06.123Z</time></trkpt><trkpt lat="45.7122717" lon="8.3976083"><ele>499.0</ele><time>2026-04-06T09:07:07.123Z</time></trkpt><trkpt lat="45.7123267" lon="8.3977283"><ele>499.0</ele><time>2026-04-06T09:07:09.123Z</time></trkpt><trkpt lat="45.7124483" lon="8.397705"><ele>499.0</ele><time>2026-04-06T09:07:11.123Z</time></trkpt><trkpt lat="45.7125233" lon="8.397665"><ele>499.0</ele><time>2026-04-06T09:07:12.123Z</time></trkpt><trkpt lat="45.7126067" lon="8.3976133"><ele>499.0</ele><time>2026-04-06T09:07:13.123Z</time></trkpt><trkpt lat="45.7126883" lon="8.3975783"><ele>499.0</ele><time>2026-04-06T09:07:14.123Z</time></trkpt><trkpt lat="45.7127733" lon="8.3975717"><ele>498.83333333333337</ele><time>2026-04-06T09:07:15.123Z</time></trkpt><trkpt lat="45.712865" lon="8.3975783"><ele>498.6666666666667</ele><time>2026-04-06T09:07:16.122Z</time></trkpt><trkpt lat="45.7129517" lon="8.397605"><ele>498.5</ele><time>2026-04-06T09:07:17.123Z</time></trkpt><trkpt lat="45.71303" lon="8.3976467"><ele>498.33333333333337</ele><time>2026-04-06T09:07:18.123Z</time></trkpt><trkpt lat="45.7130883" lon="8.397705"><ele>498.1666666666667</ele><time>2026-04-06T09:07:19.122Z</time></trkpt><trkpt lat="45.7131333" lon="8.3977967"><ele>498.0</ele><time>2026-04-06T09:07:20.122Z</time></trkpt><trkpt lat="45.7131567" lon="8.3979067"><ele>499.1666666666667</ele><time>2026-04-06T09:07:21.122Z</time></trkpt><trkpt lat="45.7131667" lon="8.3980117"><ele>500.33333333333337</ele><time>2026-04-06T09:07:22.122Z</time></trkpt><trkpt lat="45.7131767" lon="8.3981333"><ele>501.5</ele><time>2026-04-06T09:07:23.122Z</time></trkpt><trkpt lat="45.7131583" lon="8.3982533"><ele>502.6666666666667</ele><time>2026-04-06T09:07:24.122Z</time></trkpt><trkpt lat="45.713145" lon="8.3983683"><ele>503.83333333333337</ele><time>2026-04-06T09:07:25.122Z</time></trkpt><trkpt lat="45.713135" lon="8.398485"><ele>505.0</ele><time>2026-04-06T09:07:26.122Z</time></trkpt><trkpt lat="45.71313" lon="8.3986067"><ele>505.00000000000006</ele><time>2026-04-06T09:07:27.122Z</time></trkpt><trkpt lat="45.7131233" lon="8.3987383"><ele>505.0</ele><time>2026-04-06T09:07:28.122Z</time></trkpt><trkpt lat="45.713115" lon="8.3988717"><ele>505.0</ele><time>2026-04-06T09:07:29.121Z</time></trkpt><trkpt lat="45.7131033" lon="8.3989983"><ele>505.0</ele><time>2026-04-06T09:07:30.121Z</time></trkpt><trkpt lat="45.7130817" lon="8.3991133"><ele>505.00000000000006</ele><time>2026-04-06T09:07:31.122Z</time></trkpt><trkpt lat="45.7130433" lon="8.3992083"><ele>505.0</ele><time>2026-04-06T09:07:32.122Z</time></trkpt><trkpt lat="45.7129633" lon="8.3992667"><ele>505.6</ele><time>2026-04-06T09:07:33.122Z</time></trkpt><trkpt lat="45.7128817" lon="8.3993233"><ele>506.2</ele><time>2026-04-06T09:07:34.122Z</time></trkpt><trkpt lat="45.712795" lon="8.3993533"><ele>506.79999999999995</ele><time>2026-04-06T09:07:35.122Z</time></trkpt><trkpt lat="45.7127" lon="8.399365"><ele>507.4</ele><time>2026-04-06T09:07:36.122Z</time></trkpt><trkpt lat="45.7126083" lon="8.399365"><ele>508.0</ele><time>2026-04-06T09:07:37.121Z</time></trkpt><trkpt lat="45.7125133" lon="8.3993933"><ele>504.79999999999995</ele><time>2026-04-06T09:07:38.122Z</time></trkpt><trkpt lat="45.7124283" lon="8.3994367"><ele>501.59999999999997</ele><time>2026-04-06T09:07:39.122Z</time></trkpt><trkpt lat="45.712345" lon="8.3995233"><ele>498.40000000000003</ele><time>2026-04-06T09:07:41.121Z</time></trkpt><trkpt lat="45.712285" lon="8.399575"><ele>495.20000000000005</ele><time>2026-04-06T09:07:44.122Z</time></trkpt><trkpt lat="45.7121967" lon="8.399595"><ele>492.0</ele><time>2026-04-06T09:07:47.122Z</time></trkpt><trkpt lat="45.712075" lon="8.3995567"><ele>492.00000000000006</ele><time>2026-04-06T09:07:49.122Z</time></trkpt><trkpt lat="45.712" lon="8.3995317"><ele>492.0</ele><time>2026-04-06T09:07:50.122Z</time></trkpt><trkpt lat="45.71193" lon="8.3995167"><ele>492.00000000000006</ele><time>2026-04-06T09:07:51.121Z</time></trkpt><trkpt lat="45.7118617" lon="8.3995283"><ele>492.00000000000006</ele><time>2026-04-06T09:07:52.122Z</time></trkpt><trkpt lat="45.71181" lon="8.3995867"><ele>492.0</ele><time>2026-04-06T09:07:53.122Z</time></trkpt><trkpt lat="45.7117717" lon="8.399665"><ele>492.00000000000006</ele><time>2026-04-06T09:07:54.122Z</time></trkpt><trkpt lat="45.71177" lon="8.3997717"><ele>492.00000000000006</ele><time>2026-04-06T09:07:55.122Z</time></trkpt><trkpt lat="45.71178" lon="8.3998783"><ele>492.1666666666667</ele><time>2026-04-06T09:07:56.121Z</time></trkpt><trkpt lat="45.7117867" lon="8.3999833"><ele>492.33333333333337</ele><time>2026-04-06T09:07:57.121Z</time></trkpt><trkpt lat="45.71179" lon="8.4000983"><ele>492.5</ele><time>2026-04-06T09:07:58.122Z</time></trkpt><trkpt lat="45.7117967" lon="8.4002183"><ele>492.6666666666667</ele><time>2026-04-06T09:07:59.121Z</time></trkpt><trkpt lat="45.7117967" lon="8.4003217"><ele>492.83333333333337</ele><time>2026-04-06T09:08:00.121Z</time></trkpt><trkpt lat="45.7117967" lon="8.4004267"><ele>493.0</ele><time>2026-04-06T09:08:01.122Z</time></trkpt><trkpt lat="45.7118417" lon="8.400585"><ele>492.50000000000006</ele><time>2026-04-06T09:08:03.122Z</time></trkpt><trkpt lat="45.7118883" lon="8.4006617"><ele>492.0</ele><time>2026-04-06T09:08:04.122Z</time></trkpt><trkpt lat="45.7119717" lon="8.4007283"><ele>491.5</ele><time>2026-04-06T09:08:05.122Z</time></trkpt><trkpt lat="45.7120567" lon="8.4007967"><ele>491.0</ele><time>2026-04-06T09:08:06.121Z</time></trkpt><trkpt lat="45.71213" lon="8.40087"><ele>490.50000000000006</ele><time>2026-04-06T09:08:07.122Z</time></trkpt><trkpt lat="45.712195" lon="8.40097"><ele>490.0</ele><time>2026-04-06T09:08:08.122Z</time></trkpt><trkpt lat="45.7122517" lon="8.40107"><ele>489.83333333333337</ele><time>2026-04-06T09:08:09.122Z</time></trkpt><trkpt lat="45.7122933" lon="8.4011767"><ele>489.6666666666667</ele><time>2026-04-06T09:08:10.122Z</time></trkpt><trkpt lat="45.7123167" lon="8.4012817"><ele>489.5</ele><time>2026-04-06T09:08:11.121Z</time></trkpt><trkpt lat="45.7123267" lon="8.4014"><ele>489.33333333333337</ele><time>2026-04-06T09:08:12.122Z</time></trkpt><trkpt lat="45.7123133" lon="8.4015183"><ele>489.1666666666667</ele><time>2026-04-06T09:08:13.122Z</time></trkpt><trkpt lat="45.7122783" lon="8.40164"><ele>489.0</ele><time>2026-04-06T09:08:14.122Z</time></trkpt><trkpt lat="45.71223" lon="8.4017467"><ele>489.0</ele><time>2026-04-06T09:08:15.121Z</time></trkpt><trkpt lat="45.7121783" lon="8.4018433"><ele>489.0</ele><time>2026-04-06T09:08:16.122Z</time></trkpt><trkpt lat="45.7121333" lon="8.4019483"><ele>489.0</ele><time>2026-04-06T09:08:17.122Z</time></trkpt><trkpt lat="45.7120833" lon="8.4020417"><ele>489.0</ele><time>2026-04-06T09:08:18.122Z</time></trkpt><trkpt lat="45.712045" lon="8.402145"><ele>489.0</ele><time>2026-04-06T09:08:19.122Z</time></trkpt><trkpt lat="45.712025" lon="8.4022667"><ele>489.0</ele><time>2026-04-06T09:08:20.122Z</time></trkpt><trkpt lat="45.7120267" lon="8.4024017"><ele>488.79999999999995</ele><time>2026-04-06T09:08:21.122Z</time></trkpt><trkpt lat="45.71205" lon="8.4025483"><ele>488.59999999999997</ele><time>2026-04-06T09:08:22.122Z</time></trkpt><trkpt lat="45.71207" lon="8.402695"><ele>488.4</ele><time>2026-04-06T09:08:23.122Z</time></trkpt><trkpt lat="45.712085" lon="8.4028467"><ele>488.2</ele><time>2026-04-06T09:08:24.122Z</time></trkpt><trkpt lat="45.7120967" lon="8.402995"><ele>488.0</ele><time>2026-04-06T09:08:25.121Z</time></trkpt><trkpt lat="45.7121083" lon="8.4031417"><ele>487.99999999999994</ele><time>2026-04-06T09:08:26.122Z</time></trkpt><trkpt lat="45.7121233" lon="8.4032833"><ele>488.0</ele><time>2026-04-06T09:08:27.122Z</time></trkpt><trkpt lat="45.7121217" lon="8.4034233"><ele>488.0</ele><time>2026-04-06T09:08:28.122Z</time></trkpt><trkpt lat="45.712125" lon="8.4035417"><ele>488.0</ele><time>2026-04-06T09:08:29.122Z</time></trkpt><trkpt lat="45.7121383" lon="8.4036567"><ele>487.99999999999994</ele><time>2026-04-06T09:08:30.122Z</time></trkpt><trkpt lat="45.7121417" lon="8.403765"><ele>488.0</ele><time>2026-04-06T09:08:31.121Z</time></trkpt><trkpt lat="45.7121317" lon="8.4038767"><ele>488.59999999999997</ele><time>2026-04-06T09:08:32.122Z</time></trkpt><trkpt lat="45.7121033" lon="8.4039883"><ele>489.19999999999993</ele><time>2026-04-06T09:08:33.122Z</time></trkpt><trkpt lat="45.7120533" lon="8.4041"><ele>489.8</ele><time>2026-04-06T09:08:34.122Z</time></trkpt><trkpt lat="45.7119883" lon="8.4042017"><ele>490.4</ele><time>2026-04-06T09:08:35.122Z</time></trkpt><trkpt lat="45.7118967" lon="8.4043067"><ele>491.0</ele><time>2026-04-06T09:08:36.122Z</time></trkpt><trkpt lat="45.7118217" lon="8.4044033"><ele>491.0</ele><time>2026-04-06T09:08:37.121Z</time></trkpt><trkpt lat="45.7117383" lon="8.4044867"><ele>491.0</ele><time>2026-04-06T09:08:38.122Z</time></trkpt><trkpt lat="45.71166" lon="8.4045333"><ele>491.0</ele><time>2026-04-06T09:08:39.122Z</time></trkpt><trkpt lat="45.7115767" lon="8.40454"><ele>491.0</ele><time>2026-04-06T09:08:40.122Z</time></trkpt><trkpt lat="45.71149" lon="8.4045283"><ele>491.0</ele><time>2026-04-06T09:08:41.122Z</time></trkpt><trkpt lat="45.711395" lon="8.4044517"><ele>491.0</ele><time>2026-04-06T09:08:42.122Z</time></trkpt><trkpt lat="45.711305" lon="8.4043667"><ele>491.0</ele><time>2026-04-06T09:08:43.122Z</time></trkpt><trkpt lat="45.7112333" lon="8.4042883"><ele>491.0</ele><time>2026-04-06T09:08:44.122Z</time></trkpt><trkpt lat="45.711155" lon="8.40422"><ele>491.0</ele><time>2026-04-06T09:08:45.121Z</time></trkpt><trkpt lat="45.7110783" lon="8.4041617"><ele>491.0</ele><time>2026-04-06T09:08:46.122Z</time></trkpt><trkpt lat="45.7110017" lon="8.40415"><ele>490.0</ele><time>2026-04-06T09:08:47.122Z</time></trkpt><trkpt lat="45.7109333" lon="8.4042"><ele>489.0</ele><time>2026-04-06T09:08:48.121Z</time></trkpt><trkpt lat="45.710865" lon="8.4042983"><ele>488.0</ele><time>2026-04-06T09:08:49.122Z</time></trkpt><trkpt lat="45.7108067" lon="8.4044283"><ele>487.0</ele><time>2026-04-06T09:08:50.122Z</time></trkpt><trkpt lat="45.7107517" lon="8.40455"><ele>486.0</ele><time>2026-04-06T09:08:51.122Z</time></trkpt><trkpt lat="45.7106817" lon="8.4046367"><ele>487.8</ele><time>2026-04-06T09:08:52.121Z</time></trkpt><trkpt lat="45.7106" lon="8.4047033"><ele>489.6</ele><time>2026-04-06T09:08:53.122Z</time></trkpt><trkpt lat="45.710525" lon="8.4047667"><ele>491.4</ele><time>2026-04-06T09:08:54.122Z</time></trkpt><trkpt lat="45.710445" lon="8.404825"><ele>493.2</ele><time>2026-04-06T09:08:55.122Z</time></trkpt><trkpt lat="45.7103683" lon="8.4048917"><ele>495.0</ele><time>2026-04-06T09:08:56.122Z</time></trkpt><trkpt lat="45.7102883" lon="8.4049833"><ele>492.4</ele><time>2026-04-06T09:08:57.122Z</time></trkpt><trkpt lat="45.71019" lon="8.4050717"><ele>489.8</ele><time>2026-04-06T09:08:58.122Z</time></trkpt><trkpt lat="45.7101" lon="8.4051583"><ele>487.20000000000005</ele><time>2026-04-06T09:08:59.122Z</time></trkpt><trkpt lat="45.709995" lon="8.4052333"><ele>484.6</ele><time>2026-04-06T09:09:00.121Z</time></trkpt><trkpt lat="45.7098933" lon="8.4052833"><ele>482.0</ele><time>2026-04-06T09:09:01.122Z</time></trkpt><trkpt lat="45.7097917" lon="8.405315"><ele>482.0</ele><time>2026-04-06T09:09:02.122Z</time></trkpt><trkpt lat="45.7096933" lon="8.40534"><ele>482.00000000000006</ele><time>2026-04-06T09:09:03.122Z</time></trkpt><trkpt lat="45.709595" lon="8.4053633"><ele>482.00000000000006</ele><time>2026-04-06T09:09:04.122Z</time></trkpt><trkpt lat="45.709505" lon="8.4053867"><ele>482.0</ele><time>2026-04-06T09:09:05.122Z</time></trkpt><trkpt lat="45.7094233" lon="8.405435"><ele>482.0</ele><time>2026-04-06T09:09:06.122Z</time></trkpt><trkpt lat="45.709345" lon="8.4055067"><ele>481.6</ele><time>2026-04-06T09:09:07.122Z</time></trkpt><trkpt lat="45.709275" lon="8.405605"><ele>481.20000000000005</ele><time>2026-04-06T09:09:08.122Z</time></trkpt><trkpt lat="45.7092117" lon="8.4056867"><ele>480.8</ele><time>2026-04-06T09:09:09.122Z</time></trkpt><trkpt lat="45.7091433" lon="8.4057467"><ele>480.4</ele><time>2026-04-06T09:09:10.122Z</time></trkpt><trkpt lat="45.7089683" lon="8.4057717"><ele>480.0</ele><time>2026-04-06T09:09:12.122Z</time></trkpt><trkpt lat="45.7088867" lon="8.4057667"><ele>480.0</ele><time>2026-04-06T09:09:13.122Z</time></trkpt><trkpt lat="45.7088" lon="8.40575"><ele>480.0</ele><time>2026-04-06T09:09:14.122Z</time></trkpt><trkpt lat="45.7087133" lon="8.4057317"><ele>480.0</ele><time>2026-04-06T09:09:15.122Z</time></trkpt><trkpt lat="45.70864" lon="8.40574"><ele>480.0</ele><time>2026-04-06T09:09:16.122Z</time></trkpt><trkpt lat="45.7085683" lon="8.4057417"><ele>480.0</ele><time>2026-04-06T09:09:17.122Z</time></trkpt><trkpt lat="45.7085" lon="8.4058117"><ele>480.0</ele><time>2026-04-06T09:09:19.122Z</time></trkpt><trkpt lat="45.7084817" lon="8.4059417"><ele>476.5</ele><time>2026-04-06T09:09:21.122Z</time></trkpt><trkpt lat="45.7085033" lon="8.4062133"><ele>473.0</ele><time>2026-04-06T09:09:24.122Z</time></trkpt><trkpt lat="45.7085233" lon="8.40631"><ele>469.5</ele><time>2026-04-06T09:09:25.122Z</time></trkpt><trkpt lat="45.70853" lon="8.4064117"><ele>466.0</ele><time>2026-04-06T09:09:26.122Z</time></trkpt><trkpt lat="45.7084883" lon="8.4065783"><ele>466.00000000000006</ele><time>2026-04-06T09:09:28.122Z</time></trkpt><trkpt lat="45.7084367" lon="8.4066633"><ele>466.0</ele><time>2026-04-06T09:09:29.122Z</time></trkpt><trkpt lat="45.7083867" lon="8.40675"><ele>466.0</ele><time>2026-04-06T09:09:30.122Z</time></trkpt><trkpt lat="45.70835" lon="8.40687"><ele>466.0</ele><time>2026-04-06T09:09:31.122Z</time></trkpt><trkpt lat="45.7083183" lon="8.4069983"><ele>466.00000000000006</ele><time>2026-04-06T09:09:32.122Z</time></trkpt><trkpt lat="45.7082867" lon="8.4071167"><ele>466.0</ele><time>2026-04-06T09:09:33.122Z</time></trkpt><trkpt lat="45.708245" lon="8.40722"><ele>465.6666666666667</ele><time>2026-04-06T09:09:34.122Z</time></trkpt><trkpt lat="45.7081883" lon="8.4073117"><ele>465.33333333333337</ele><time>2026-04-06T09:09:35.121Z</time></trkpt><trkpt lat="45.7081283" lon="8.4073883"><ele>465.0</ele><time>2026-04-06T09:09:36.122Z</time></trkpt><trkpt lat="45.7080667" lon="8.40746"><ele>464.66666666666663</ele><time>2026-04-06T09:09:37.122Z</time></trkpt><trkpt lat="45.7080133" lon="8.4075217"><ele>464.3333333333333</ele><time>2026-04-06T09:09:38.122Z</time></trkpt><trkpt lat="45.7079667" lon="8.4076733"><ele>464.0</ele><time>2026-04-06T09:09:40.122Z</time></trkpt><trkpt lat="45.708" lon="8.4078567"><ele>463.99999999999994</ele><time>2026-04-06T09:09:42.122Z</time></trkpt><trkpt lat="45.7080167" lon="8.4079583"><ele>464.0</ele><time>2026-04-06T09:09:43.122Z</time></trkpt><trkpt lat="45.7080217" lon="8.4080617"><ele>464.0</ele><time>2026-04-06T09:09:44.122Z</time></trkpt><trkpt lat="45.7079983" lon="8.408165"><ele>464.0</ele><time>2026-04-06T09:09:45.122Z</time></trkpt><trkpt lat="45.7079567" lon="8.4082517"><ele>463.99999999999994</ele><time>2026-04-06T09:09:46.121Z</time></trkpt><trkpt lat="45.7079017" lon="8.4083283"><ele>464.0</ele><time>2026-04-06T09:09:47.122Z</time></trkpt><trkpt lat="45.70785" lon="8.4084133"><ele>463.16666666666663</ele><time>2026-04-06T09:09:48.122Z</time></trkpt><trkpt lat="45.70782" lon="8.4085017"><ele>462.3333333333333</ele><time>2026-04-06T09:09:49.121Z</time></trkpt><trkpt lat="45.7078217" lon="8.4087017"><ele>461.5</ele><time>2026-04-06T09:09:51.122Z</time></trkpt><trkpt lat="45.7078467" lon="8.4088017"><ele>460.66666666666663</ele><time>2026-04-06T09:09:52.122Z</time></trkpt><trkpt lat="45.7078867" lon="8.408885"><ele>459.8333333333333</ele><time>2026-04-06T09:09:53.122Z</time></trkpt><trkpt lat="45.7079367" lon="8.4089467"><ele>459.0</ele><time>2026-04-06T09:09:54.122Z</time></trkpt><trkpt lat="45.708" lon="8.40899"><ele>457.6</ele><time>2026-04-06T09:09:55.122Z</time></trkpt><trkpt lat="45.70811" lon="8.409015"><ele>456.2</ele><time>2026-04-06T09:09:57.122Z</time></trkpt><trkpt lat="45.70817" lon="8.409055"><ele>454.80000000000007</ele><time>2026-04-06T09:09:59.122Z</time></trkpt><trkpt lat="45.7081183" lon="8.40914"><ele>453.40000000000003</ele><time>2026-04-06T09:10:02.122Z</time></trkpt><trkpt lat="45.7079917" lon="8.4092117"><ele>452.0</ele><time>2026-04-06T09:10:04.122Z</time></trkpt><trkpt lat="45.7079333" lon="8.4092583"><ele>452.0</ele><time>2026-04-06T09:10:05.122Z</time></trkpt><trkpt lat="45.70782" lon="8.4093467"><ele>452.00000000000006</ele><time>2026-04-06T09:10:07.122Z</time></trkpt><trkpt lat="45.70776" lon="8.409375"><ele>452.00000000000006</ele><time>2026-04-06T09:10:08.122Z</time></trkpt><trkpt lat="45.7076283" lon="8.409375"><ele>452.0</ele><time>2026-04-06T09:10:10.122Z</time></trkpt><trkpt lat="45.7075617" lon="8.4093883"><ele>452.0</ele><time>2026-04-06T09:10:11.122Z</time></trkpt><trkpt lat="45.7074867" lon="8.4094283"><ele>449.49999999999994</ele><time>2026-04-06T09:10:12.122Z</time></trkpt><trkpt lat="45.7074117" lon="8.40949"><ele>447.0</ele><time>2026-04-06T09:10:13.121Z</time></trkpt><trkpt lat="45.70734" lon="8.409555"><ele>444.5</ele><time>2026-04-06T09:10:14.122Z</time></trkpt><trkpt lat="45.7072783" lon="8.409605"><ele>442.0</ele><time>2026-04-06T09:10:15.122Z</time></trkpt><trkpt lat="45.7072033" lon="8.4096783"><ele>439.49999999999994</ele><time>2026-04-06T09:10:17.122Z</time></trkpt><trkpt lat="45.7071883" lon="8.409775"><ele>437.0</ele><time>2026-04-06T09:10:20.121Z</time></trkpt><trkpt lat="45.7072517" lon="8.40986"><ele>435.6</ele><time>2026-04-06T09:10:30.122Z</time></trkpt><trkpt lat="45.7073383" lon="8.40994"><ele>434.20000000000005</ele><time>2026-04-06T09:10:32.122Z</time></trkpt><trkpt lat="45.7074467" lon="8.4099583"><ele>432.8</ele><time>2026-04-06T09:10:34.122Z</time></trkpt><trkpt lat="45.707555" lon="8.4099383"><ele>431.4</ele><time>2026-04-06T09:10:36.122Z</time></trkpt><trkpt lat="45.707665" lon="8.4099667"><ele>430.0</ele><time>2026-04-06T09:10:39.121Z</time></trkpt><trkpt lat="45.7076317" lon="8.410055"><ele>430.0</ele><time>2026-04-06T09:10:41.122Z</time></trkpt><trkpt lat="45.7075417" lon="8.4100783"><ele>430.0</ele><time>2026-04-06T09:10:43.121Z</time></trkpt><trkpt lat="45.7074267" lon="8.4100683"><ele>430.0</ele><time>2026-04-06T09:10:45.122Z</time></trkpt><trkpt lat="45.7073233" lon="8.4102033"><ele>430.0</ele><time>2026-04-06T09:10:48.121Z</time></trkpt><trkpt lat="45.7073267" lon="8.4103367"><ele>430.0</ele><time>2026-04-06T09:10:50.122Z</time></trkpt><trkpt lat="45.70739" lon="8.4103933"><ele>430.0</ele><time>2026-04-06T09:10:52.122Z</time></trkpt><trkpt lat="45.7074933" lon="8.41036"><ele>430.0</ele><time>2026-04-06T09:10:54.122Z</time></trkpt><trkpt lat="45.7075733" lon="8.410295"><ele>430.0</ele><time>2026-04-06T09:10:56.122Z</time></trkpt><trkpt lat="45.7076383" lon="8.4103517"><ele>430.0</ele><time>2026-04-06T09:10:59.122Z</time></trkpt><trkpt lat="45.7075333" lon="8.41047"><ele>430.0</ele><time>2026-04-06T09:11:02.121Z</time></trkpt><trkpt lat="45.7074683" lon="8.4105233"><ele>426.4</ele><time>2026-04-06T09:11:03.122Z</time></trkpt><trkpt lat="45.7073983" lon="8.410575"><ele>422.8</ele><time>2026-04-06T09:11:04.122Z</time></trkpt><trkpt lat="45.70725" lon="8.4106733"><ele>419.20000000000005</ele><time>2026-04-06T09:11:06.121Z</time></trkpt><trkpt lat="45.7071683" lon="8.4107283"><ele>415.6</ele><time>2026-04-06T09:11:07.122Z</time></trkpt><trkpt lat="45.7070867" lon="8.4107833"><ele>412.0</ele><time>2026-04-06T09:11:08.122Z</time></trkpt><trkpt lat="45.707015" lon="8.4108367"><ele>413.00000000000006</ele><time>2026-04-06T09:11:09.121Z</time></trkpt><trkpt lat="45.7068567" lon="8.41091"><ele>414.0</ele><time>2026-04-06T09:11:11.121Z</time></trkpt><trkpt lat="45.7067833" lon="8.4109433"><ele>415.0</ele><time>2026-04-06T09:11:12.121Z</time></trkpt><trkpt lat="45.7067083" lon="8.410965"><ele>416.0</ele><time>2026-04-06T09:11:13.121Z</time></trkpt><trkpt lat="45.7066467" lon="8.410945"><ele>417.00000000000006</ele><time>2026-04-06T09:11:14.121Z</time></trkpt><trkpt lat="45.7065883" lon="8.4109017"><ele>418.0</ele><time>2026-04-06T09:11:15.121Z</time></trkpt><trkpt lat="45.7065267" lon="8.4108583"><ele>418.00000000000006</ele><time>2026-04-06T09:11:16.121Z</time></trkpt><trkpt lat="45.7064267" lon="8.4108517"><ele>418.0</ele><time>2026-04-06T09:11:18.121Z</time></trkpt><trkpt lat="45.7064117" lon="8.4110183"><ele>418.0</ele><time>2026-04-06T09:11:20.12Z</time></trkpt><trkpt lat="45.7064083" lon="8.4111283"><ele>418.0</ele><time>2026-04-06T09:11:21.121Z</time></trkpt><trkpt lat="45.706395" lon="8.4112283"><ele>418.00000000000006</ele><time>2026-04-06T09:11:22.121Z</time></trkpt><trkpt lat="45.7063617" lon="8.411335"><ele>418.0</ele><time>2026-04-06T09:11:24.12Z</time></trkpt><trkpt lat="45.706395" lon="8.4114217"><ele>418.0</ele><time>2026-04-06T09:11:26.121Z</time></trkpt><trkpt lat="45.70647" lon="8.4114017"><ele>418.0</ele><time>2026-04-06T09:11:28.12Z</time></trkpt><trkpt lat="45.7065233" lon="8.4112617"><ele>418.0</ele><time>2026-04-06T09:11:30.121Z</time></trkpt><trkpt lat="45.706565" lon="8.411115"><ele>418.0</ele><time>2026-04-06T09:11:32.121Z</time></trkpt><trkpt lat="45.7066383" lon="8.4111117"><ele>418.0</ele><time>2026-04-06T09:11:34.121Z</time></trkpt><trkpt lat="45.70669" lon="8.41122"><ele>414.2</ele><time>2026-04-06T09:11:36.121Z</time></trkpt><trkpt lat="45.70666" lon="8.4113767"><ele>410.4</ele><time>2026-04-06T09:11:38.121Z</time></trkpt><trkpt lat="45.706575" lon="8.4115617"><ele>406.59999999999997</ele><time>2026-04-06T09:11:40.121Z</time></trkpt><trkpt lat="45.7065133" lon="8.41164"><ele>402.79999999999995</ele><time>2026-04-06T09:11:41.121Z</time></trkpt><trkpt lat="45.706445" lon="8.41173"><ele>399.0</ele><time>2026-04-06T09:11:42.121Z</time></trkpt><trkpt lat="45.7063783" lon="8.4118267"><ele>399.0</ele><time>2026-04-06T09:11:43.12Z</time></trkpt><trkpt lat="45.7063167" lon="8.411935"><ele>399.0</ele><time>2026-04-06T09:11:44.121Z</time></trkpt><trkpt lat="45.706245" lon="8.4120533"><ele>399.0</ele><time>2026-04-06T09:11:45.12Z</time></trkpt><trkpt lat="45.7061833" lon="8.4121733"><ele>399.0</ele><time>2026-04-06T09:11:46.121Z</time></trkpt><trkpt lat="45.706125" lon="8.41229"><ele>399.0</ele><time>2026-04-06T09:11:47.121Z</time></trkpt><trkpt lat="45.7060767" lon="8.412405"><ele>397.2</ele><time>2026-04-06T09:11:48.12Z</time></trkpt><trkpt lat="45.7060283" lon="8.4125217"><ele>395.4</ele><time>2026-04-06T09:11:49.121Z</time></trkpt><trkpt lat="45.7059783" lon="8.4126333"><ele>393.6</ele><time>2026-04-06T09:11:50.121Z</time></trkpt><trkpt lat="45.7059133" lon="8.412735"><ele>391.8</ele><time>2026-04-06T09:11:51.121Z</time></trkpt><trkpt lat="45.7058383" lon="8.4128333"><ele>390.0</ele><time>2026-04-06T09:11:52.121Z</time></trkpt><trkpt lat="45.7057667" lon="8.412935"><ele>387.8</ele><time>2026-04-06T09:11:53.121Z</time></trkpt><trkpt lat="45.705685" lon="8.4130283"><ele>385.6</ele><time>2026-04-06T09:11:54.12Z</time></trkpt><trkpt lat="45.7056067" lon="8.41311"><ele>383.4</ele><time>2026-04-06T09:11:55.121Z</time></trkpt><trkpt lat="45.7055217" lon="8.4131633"><ele>381.2</ele><time>2026-04-06T09:11:56.121Z</time></trkpt><trkpt lat="45.7054333" lon="8.41319"><ele>379.0</ele><time>2026-04-06T09:11:57.121Z</time></trkpt><trkpt lat="45.7053383" lon="8.4132067"><ele>379.0</ele><time>2026-04-06T09:11:58.121Z</time></trkpt><trkpt lat="45.705255" lon="8.4132"><ele>379.0</ele><time>2026-04-06T09:11:59.121Z</time></trkpt><trkpt lat="45.705175" lon="8.41318"><ele>379.0</ele><time>2026-04-06T09:12:00.121Z</time></trkpt><trkpt lat="45.7051033" lon="8.4131533"><ele>379.0</ele><time>2026-04-06T09:12:01.121Z</time></trkpt><trkpt lat="45.7050183" lon="8.413125"><ele>379.0</ele><time>2026-04-06T09:12:02.12Z</time></trkpt><trkpt lat="45.70492" lon="8.4131317"><ele>379.0</ele><time>2026-04-06T09:12:03.12Z</time></trkpt><trkpt lat="45.70483" lon="8.4131617"><ele>377.79999999999995</ele><time>2026-04-06T09:12:04.121Z</time></trkpt><trkpt lat="45.7047533" lon="8.4132217"><ele>376.59999999999997</ele><time>2026-04-06T09:12:05.12Z</time></trkpt><trkpt lat="45.70468" lon="8.4132833"><ele>375.4</ele><time>2026-04-06T09:12:06.12Z</time></trkpt><trkpt lat="45.7045983" lon="8.4133517"><ele>374.2</ele><time>2026-04-06T09:12:07.121Z</time></trkpt><trkpt lat="45.7045133" lon="8.4134367"><ele>373.0</ele><time>2026-04-06T09:12:08.121Z</time></trkpt><trkpt lat="45.7044333" lon="8.413505"><ele>371.66666666666663</ele><time>2026-04-06T09:12:09.121Z</time></trkpt><trkpt lat="45.7043667" lon="8.4135583"><ele>370.3333333333333</ele><time>2026-04-06T09:12:10.12Z</time></trkpt><trkpt lat="45.7043033" lon="8.4136017"><ele>369.0</ele><time>2026-04-06T09:12:11.121Z</time></trkpt><trkpt lat="45.7042417" lon="8.4136717"><ele>367.6666666666667</ele><time>2026-04-06T09:12:12.121Z</time></trkpt><trkpt lat="45.70418" lon="8.4137667"><ele>366.33333333333337</ele><time>2026-04-06T09:12:13.121Z</time></trkpt><trkpt lat="45.7041267" lon="8.4138583"><ele>365.0</ele><time>2026-04-06T09:12:14.121Z</time></trkpt><trkpt lat="45.7040667" lon="8.41393"><ele>364.14285714285717</ele><time>2026-04-06T09:12:15.12Z</time></trkpt><trkpt lat="45.704" lon="8.4139717"><ele>363.2857142857143</ele><time>2026-04-06T09:12:16.12Z</time></trkpt><trkpt lat="45.70393" lon="8.4140083"><ele>362.42857142857144</ele><time>2026-04-06T09:12:17.12Z</time></trkpt><trkpt lat="45.7038617" lon="8.4140483"><ele>361.57142857142856</ele><time>2026-04-06T09:12:18.121Z</time></trkpt><trkpt lat="45.7037933" lon="8.4140867"><ele>360.7142857142857</ele><time>2026-04-06T09:12:19.121Z</time></trkpt><trkpt lat="45.7037267" lon="8.4141217"><ele>359.8571428571429</ele><time>2026-04-06T09:12:20.121Z</time></trkpt><trkpt lat="45.703665" lon="8.41416"><ele>359.0</ele><time>2026-04-06T09:12:21.12Z</time></trkpt><trkpt lat="45.7035667" lon="8.414225"><ele>357.79999999999995</ele><time>2026-04-06T09:12:23.121Z</time></trkpt><trkpt lat="45.7035" lon="8.4142683"><ele>356.59999999999997</ele><time>2026-04-06T09:12:25.121Z</time></trkpt><trkpt lat="45.7034417" lon="8.4143117"><ele>355.4</ele><time>2026-04-06T09:12:27.12Z</time></trkpt><trkpt lat="45.7033483" lon="8.4143067"><ele>354.2</ele><time>2026-04-06T09:12:29.12Z</time></trkpt><trkpt lat="45.70319" lon="8.41425"><ele>353.0</ele><time>2026-04-06T09:12:32.121Z</time></trkpt><trkpt lat="45.703125" lon="8.41425"><ele>353.0</ele><time>2026-04-06T09:12:34.12Z</time></trkpt><trkpt lat="45.7030317" lon="8.41425"><ele>353.0</ele><time>2026-04-06T09:12:37.121Z</time></trkpt><trkpt lat="45.7029367" lon="8.4143"><ele>353.0</ele><time>2026-04-06T09:12:40.121Z</time></trkpt><trkpt lat="45.7029017" lon="8.4143833"><ele>353.0</ele><time>2026-04-06T09:12:44.121Z</time></trkpt><trkpt lat="45.7028983" lon="8.4145817"><ele>353.0</ele><time>2026-04-06T09:14:28.121Z</time></trkpt><trkpt lat="45.7028367" lon="8.4147717"><ele>352.0</ele><time>2026-04-06T09:14:30.121Z</time></trkpt><trkpt lat="45.7027583" lon="8.415015"><ele>351.0</ele><time>2026-04-06T09:14:32.12Z</time></trkpt><trkpt lat="45.7027167" lon="8.4151467"><ele>350.0</ele><time>2026-04-06T09:14:33.121Z</time></trkpt><trkpt lat="45.702675" lon="8.41528"><ele>349.0</ele><time>2026-04-06T09:14:34.121Z</time></trkpt><trkpt lat="45.702605" lon="8.4155517"><ele>347.75</ele><time>2026-04-06T09:14:36.121Z</time></trkpt><trkpt lat="45.7025317" lon="8.4157917"><ele>346.5</ele><time>2026-04-06T09:14:38.121Z</time></trkpt><trkpt lat="45.7024983" lon="8.4159167"><ele>345.25</ele><time>2026-04-06T09:14:39.12Z</time></trkpt><trkpt lat="45.7024733" lon="8.4160467"><ele>344.0</ele><time>2026-04-06T09:14:40.121Z</time></trkpt><trkpt lat="45.7024417" lon="8.4161733"><ele>344.0</ele><time>2026-04-06T09:14:41.121Z</time></trkpt><trkpt lat="45.702405" lon="8.4162967"><ele>344.0</ele><time>2026-04-06T09:14:42.121Z</time></trkpt><trkpt lat="45.7023733" lon="8.41641"><ele>344.0</ele><time>2026-04-06T09:14:43.121Z</time></trkpt><trkpt lat="45.7023383" lon="8.4165333"><ele>344.0</ele><time>2026-04-06T09:14:44.121Z</time></trkpt><trkpt lat="45.7023" lon="8.416635"><ele>344.0</ele><time>2026-04-06T09:14:45.121Z</time></trkpt><trkpt lat="45.70225" lon="8.4167333"><ele>344.0</ele><time>2026-04-06T09:14:46.121Z</time></trkpt><trkpt lat="45.7021833" lon="8.4168067"><ele>343.6</ele><time>2026-04-06T09:14:47.121Z</time></trkpt><trkpt lat="45.7021083" lon="8.4168333"><ele>343.2</ele><time>2026-04-06T09:14:48.121Z</time></trkpt><trkpt lat="45.7020183" lon="8.416835"><ele>342.8</ele><time>2026-04-06T09:14:49.12Z</time></trkpt><trkpt lat="45.70192" lon="8.41681"><ele>342.40000000000003</ele><time>2026-04-06T09:14:50.121Z</time></trkpt><trkpt lat="45.701825" lon="8.4167917"><ele>342.0</ele><time>2026-04-06T09:14:51.121Z</time></trkpt><trkpt lat="45.7017167" lon="8.4167733"><ele>343.6666666666667</ele><time>2026-04-06T09:14:52.121Z</time></trkpt><trkpt lat="45.7015067" lon="8.41673"><ele>345.33333333333337</ele><time>2026-04-06T09:14:54.121Z</time></trkpt><trkpt lat="45.7012917" lon="8.4167033"><ele>347.0</ele><time>2026-04-06T09:14:56.12Z</time></trkpt><trkpt lat="45.701175" lon="8.4167017"><ele>347.5</ele><time>2026-04-06T09:14:57.121Z</time></trkpt><trkpt lat="45.7010517" lon="8.416695"><ele>348.0</ele><time>2026-04-06T09:14:58.121Z</time></trkpt><trkpt lat="45.7009317" lon="8.4166917"><ele>348.5</ele><time>2026-04-06T09:14:59.12Z</time></trkpt><trkpt lat="45.700815" lon="8.4166933"><ele>349.0</ele><time>2026-04-06T09:15:00.121Z</time></trkpt><trkpt lat="45.7007033" lon="8.4166967"><ele>349.0</ele><time>2026-04-06T09:15:01.121Z</time></trkpt><trkpt lat="45.70059" lon="8.4166883"><ele>349.0</ele><time>2026-04-06T09:15:02.12Z</time></trkpt><trkpt lat="45.7004767" lon="8.4166767"><ele>349.0</ele><time>2026-04-06T09:15:03.12Z</time></trkpt><trkpt lat="45.7003617" lon="8.41667"><ele>349.0</ele><time>2026-04-06T09:15:04.12Z</time></trkpt><trkpt lat="45.7002367" lon="8.4166633"><ele>349.0</ele><time>2026-04-06T09:15:05.12Z</time></trkpt><trkpt lat="45.700115" lon="8.4166567"><ele>349.0</ele><time>2026-04-06T09:15:06.12Z</time></trkpt><trkpt lat="45.6999917" lon="8.4166783"><ele>349.0</ele><time>2026-04-06T09:15:07.12Z</time></trkpt><trkpt lat="45.6998717" lon="8.41668"><ele>349.0</ele><time>2026-04-06T09:15:08.12Z</time></trkpt><trkpt lat="45.6997617" lon="8.4166833"><ele>349.0</ele><time>2026-04-06T09:15:09.119Z</time></trkpt><trkpt lat="45.69965" lon="8.4166933"><ele>349.0</ele><time>2026-04-06T09:15:10.12Z</time></trkpt><trkpt lat="45.6995517" lon="8.41673"><ele>349.0</ele><time>2026-04-06T09:15:11.12Z</time></trkpt><trkpt lat="45.6994533" lon="8.4168"><ele>349.0</ele><time>2026-04-06T09:15:12.12Z</time></trkpt><trkpt lat="45.6993633" lon="8.41689"><ele>349.0</ele><time>2026-04-06T09:15:13.12Z</time></trkpt><trkpt lat="45.6992817" lon="8.416985"><ele>349.25</ele><time>2026-04-06T09:15:14.12Z</time></trkpt><trkpt lat="45.6991883" lon="8.4170883"><ele>349.5</ele><time>2026-04-06T09:15:15.12Z</time></trkpt><trkpt lat="45.6990717" lon="8.4171767"><ele>349.75</ele><time>2026-04-06T09:15:16.12Z</time></trkpt><trkpt lat="45.6989533" lon="8.4172633"><ele>350.0</ele><time>2026-04-06T09:15:17.12Z</time></trkpt><trkpt lat="45.69885" lon="8.41737"><ele>348.6</ele><time>2026-04-06T09:15:18.12Z</time></trkpt><trkpt lat="45.698745" lon="8.4174467"><ele>347.2</ele><time>2026-04-06T09:15:19.12Z</time></trkpt><trkpt lat="45.698665" lon="8.4175117"><ele>345.79999999999995</ele><time>2026-04-06T09:15:20.12Z</time></trkpt><trkpt lat="45.6985733" lon="8.4175717"><ele>344.4</ele><time>2026-04-06T09:15:21.12Z</time></trkpt><trkpt lat="45.6984983" lon="8.4176517"><ele>343.0</ele><time>2026-04-06T09:15:22.12Z</time></trkpt><trkpt lat="45.698435" lon="8.4177717"><ele>343.0</ele><time>2026-04-06T09:15:23.119Z</time></trkpt><trkpt lat="45.6983967" lon="8.41793"><ele>343.0</ele><time>2026-04-06T09:15:24.12Z</time></trkpt><trkpt lat="45.698355" lon="8.4180917"><ele>343.0</ele><time>2026-04-06T09:15:25.12Z</time></trkpt><trkpt lat="45.6982967" lon="8.4182317"><ele>343.0</ele><time>2026-04-06T09:15:26.12Z</time></trkpt><trkpt lat="45.698225" lon="8.4183517"><ele>342.5</ele><time>2026-04-06T09:15:27.119Z</time></trkpt><trkpt lat="45.6981417" lon="8.4184833"><ele>342.0</ele><time>2026-04-06T09:15:28.12Z</time></trkpt><trkpt lat="45.6980617" lon="8.4186217"><ele>341.5</ele><time>2026-04-06T09:15:29.12Z</time></trkpt><trkpt lat="45.6979733" lon="8.4187617"><ele>341.0</ele><time>2026-04-06T09:15:30.12Z</time></trkpt><trkpt lat="45.6978867" lon="8.418905"><ele>341.0</ele><time>2026-04-06T09:15:31.12Z</time></trkpt><trkpt lat="45.6978033" lon="8.4190517"><ele>341.0</ele><time>2026-04-06T09:15:32.12Z</time></trkpt><trkpt lat="45.6977283" lon="8.4191883"><ele>341.0</ele><time>2026-04-06T09:15:33.12Z</time></trkpt><trkpt lat="45.6976617" lon="8.4193183"><ele>341.0</ele><time>2026-04-06T09:15:34.12Z</time></trkpt><trkpt lat="45.6976017" lon="8.4194417"><ele>341.0</ele><time>2026-04-06T09:15:35.12Z</time></trkpt><trkpt lat="45.69754" lon="8.4195217"><ele>341.0</ele><time>2026-04-06T09:15:36.12Z</time></trkpt><trkpt lat="45.6974683" lon="8.41957"><ele>341.0</ele><time>2026-04-06T09:15:37.12Z</time></trkpt><trkpt lat="45.6973967" lon="8.4196083"><ele>341.0</ele><time>2026-04-06T09:15:38.12Z</time></trkpt><trkpt lat="45.6973" lon="8.4196367"><ele>341.0</ele><time>2026-04-06T09:15:39.12Z</time></trkpt><trkpt lat="45.6971783" lon="8.4196467"><ele>341.0</ele><time>2026-04-06T09:15:40.119Z</time></trkpt><trkpt lat="45.6970567" lon="8.4196367"><ele>341.0</ele><time>2026-04-06T09:15:41.12Z</time></trkpt><trkpt lat="45.6969217" lon="8.4196267"><ele>341.0</ele><time>2026-04-06T09:15:42.12Z</time></trkpt><trkpt lat="45.6967817" lon="8.4196067"><ele>341.0</ele><time>2026-04-06T09:15:43.12Z</time></trkpt><trkpt lat="45.6966517" lon="8.41959"><ele>344.6666666666667</ele><time>2026-04-06T09:15:44.12Z</time></trkpt><trkpt lat="45.6965133" lon="8.4195733"><ele>348.3333333333333</ele><time>2026-04-06T09:15:45.12Z</time></trkpt><trkpt lat="45.696355" lon="8.4195583"><ele>352.0</ele><time>2026-04-06T09:15:46.12Z</time></trkpt><trkpt lat="45.6962033" lon="8.4195333"><ele>356.3333333333333</ele><time>2026-04-06T09:15:47.12Z</time></trkpt><trkpt lat="45.696055" lon="8.419485"><ele>360.6666666666667</ele><time>2026-04-06T09:15:48.12Z</time></trkpt><trkpt lat="45.695895" lon="8.41944"><ele>365.0</ele><time>2026-04-06T09:15:49.12Z</time></trkpt><trkpt lat="45.6957317" lon="8.419385"><ele>365.0</ele><time>2026-04-06T09:15:50.12Z</time></trkpt><trkpt lat="45.6955717" lon="8.419355"><ele>365.0</ele><time>2026-04-06T09:15:51.12Z</time></trkpt><trkpt lat="45.6954333" lon="8.4193283"><ele>365.0</ele><time>2026-04-06T09:15:52.12Z</time></trkpt><trkpt lat="45.6952133" lon="8.4193817"><ele>366.5</ele><time>2026-04-06T09:15:54.12Z</time></trkpt><trkpt lat="45.6950183" lon="8.4194333"><ele>368.0</ele><time>2026-04-06T09:15:56.12Z</time></trkpt><trkpt lat="45.694925" lon="8.4194317"><ele>369.5</ele><time>2026-04-06T09:15:57.12Z</time></trkpt><trkpt lat="45.69483" lon="8.4193683"><ele>371.0</ele><time>2026-04-06T09:15:58.119Z</time></trkpt><trkpt lat="45.6947183" lon="8.4192733"><ele>371.0</ele><time>2026-04-06T09:15:59.12Z</time></trkpt><trkpt lat="45.6946067" lon="8.4191433"><ele>371.0</ele><time>2026-04-06T09:16:00.119Z</time></trkpt><trkpt lat="45.694505" lon="8.4190283"><ele>371.0</ele><time>2026-04-06T09:16:01.12Z</time></trkpt><trkpt lat="45.6943983" lon="8.4189133"><ele>371.0</ele><time>2026-04-06T09:16:02.12Z</time></trkpt><trkpt lat="45.694195" lon="8.418785"><ele>374.0</ele><time>2026-04-06T09:16:04.12Z</time></trkpt><trkpt lat="45.6940183" lon="8.418735"><ele>377.0</ele><time>2026-04-06T09:16:06.12Z</time></trkpt><trkpt lat="45.6939383" lon="8.4187367"><ele>380.0</ele><time>2026-04-06T09:16:07.119Z</time></trkpt><trkpt lat="45.6938183" lon="8.4187333"><ele>383.0</ele><time>2026-04-06T09:16:09.12Z</time></trkpt><trkpt lat="45.6936867" lon="8.418705"><ele>383.0</ele><time>2026-04-06T09:16:11.12Z</time></trkpt><trkpt lat="45.693595" lon="8.4186633"><ele>383.0</ele><time>2026-04-06T09:16:12.12Z</time></trkpt><trkpt lat="45.6934883" lon="8.4186267"><ele>383.0</ele><time>2026-04-06T09:16:13.12Z</time></trkpt><trkpt lat="45.6933767" lon="8.4185933"><ele>383.0</ele><time>2026-04-06T09:16:14.12Z</time></trkpt><trkpt lat="45.6932733" lon="8.4185717"><ele>383.0</ele><time>2026-04-06T09:16:15.119Z</time></trkpt><trkpt lat="45.6931783" lon="8.4185683"><ele>383.33333333333337</ele><time>2026-04-06T09:16:16.12Z</time></trkpt><trkpt lat="45.69309" lon="8.4185617"><ele>383.6666666666667</ele><time>2026-04-06T09:16:17.12Z</time></trkpt><trkpt lat="45.6930183" lon="8.41855"><ele>384.0</ele><time>2026-04-06T09:16:18.12Z</time></trkpt><trkpt lat="45.69295" lon="8.41855"><ele>384.33333333333337</ele><time>2026-04-06T09:16:19.12Z</time></trkpt><trkpt lat="45.69288" lon="8.4185533"><ele>384.6666666666667</ele><time>2026-04-06T09:16:20.12Z</time></trkpt><trkpt lat="45.692775" lon="8.4185533"><ele>385.0</ele><time>2026-04-06T09:16:22.12Z</time></trkpt><trkpt lat="45.6928733" lon="8.4185033"><ele>385.00000000000006</ele><time>2026-04-06T09:16:28.12Z</time></trkpt><trkpt lat="45.69296" lon="8.4185017"><ele>385.0</ele><time>2026-04-06T09:16:29.12Z</time></trkpt><trkpt lat="45.69303" lon="8.4184867"><ele>385.0</ele><time>2026-04-06T09:16:30.12Z</time></trkpt><trkpt lat="45.6930917" lon="8.4184317"><ele>385.0</ele><time>2026-04-06T09:16:31.12Z</time></trkpt><trkpt lat="45.69315" lon="8.4183117"><ele>385.00000000000006</ele><time>2026-04-06T09:16:33.119Z</time></trkpt><trkpt lat="45.693185" lon="8.418215"><ele>385.0</ele><time>2026-04-06T09:16:36.12Z</time></trkpt><trkpt lat="45.6931483" lon="8.4181183"><ele>385.0</ele><time>2026-04-06T09:16:53.119Z</time></trkpt><trkpt lat="45.6931117" lon="8.4180183"><ele>385.0</ele><time>2026-04-06T09:16:55.12Z</time></trkpt><trkpt lat="45.6929333" lon="8.417735"><ele>385.0</ele><time>2026-04-06T09:16:59.12Z</time></trkpt><trkpt lat="45.6928733" lon="8.417635"><ele>385.0</ele><time>2026-04-06T09:17:00.119Z</time></trkpt><trkpt lat="45.6925917" lon="8.4170317"><ele>381.33333333333337</ele><time>2026-04-06T09:17:05.12Z</time></trkpt><trkpt lat="45.6925483" lon="8.4168833"><ele>377.6666666666667</ele><time>2026-04-06T09:17:06.119Z</time></trkpt><trkpt lat="45.6924467" lon="8.4165867"><ele>374.0</ele><time>2026-04-06T09:17:08.12Z</time></trkpt><trkpt lat="45.6924" lon="8.416435"><ele>374.25</ele><time>2026-04-06T09:17:09.119Z</time></trkpt><trkpt lat="45.6923517" lon="8.4162883"><ele>374.5</ele><time>2026-04-06T09:17:10.12Z</time></trkpt><trkpt lat="45.692305" lon="8.4161383"><ele>374.75</ele><time>2026-04-06T09:17:11.12Z</time></trkpt><trkpt lat="45.6922683" lon="8.4159817"><ele>375.0</ele><time>2026-04-06T09:17:12.12Z</time></trkpt><trkpt lat="45.69224" lon="8.415825"><ele>375.0</ele><time>2026-04-06T09:17:13.12Z</time></trkpt><trkpt lat="45.6922217" lon="8.4156667"><ele>375.0</ele><time>2026-04-06T09:17:14.12Z</time></trkpt><trkpt lat="45.692205" lon="8.4155033"><ele>375.0</ele><time>2026-04-06T09:17:15.119Z</time></trkpt><trkpt lat="45.692195" lon="8.4153633"><ele>375.0</ele><time>2026-04-06T09:17:16.12Z</time></trkpt><trkpt lat="45.6921783" lon="8.415255"><ele>375.0</ele><time>2026-04-06T09:17:17.12Z</time></trkpt><trkpt lat="45.69215" lon="8.4151667"><ele>376.0</ele><time>2026-04-06T09:17:18.12Z</time></trkpt><trkpt lat="45.6920567" lon="8.4151267"><ele>377.0</ele><time>2026-04-06T09:17:20.12Z</time></trkpt><trkpt lat="45.6919967" lon="8.4151567"><ele>378.0</ele><time>2026-04-06T09:17:21.12Z</time></trkpt><trkpt lat="45.6919017" lon="8.415125"><ele>379.0</ele><time>2026-04-06T09:17:24.12Z</time></trkpt><trkpt lat="45.6918783" lon="8.4150383"><ele>380.0</ele><time>2026-04-06T09:17:25.12Z</time></trkpt><trkpt lat="45.6918433" lon="8.41494"><ele>381.0</ele><time>2026-04-06T09:17:26.12Z</time></trkpt><trkpt lat="45.691805" lon="8.4148367"><ele>381.0</ele><time>2026-04-06T09:17:27.12Z</time></trkpt><trkpt lat="45.6917717" lon="8.4147217"><ele>381.0</ele><time>2026-04-06T09:17:28.12Z</time></trkpt><trkpt lat="45.6917317" lon="8.4145967"><ele>381.0</ele><time>2026-04-06T09:17:29.12Z</time></trkpt><trkpt lat="45.6916867" lon="8.414465"><ele>381.0</ele><time>2026-04-06T09:17:30.12Z</time></trkpt><trkpt lat="45.6916517" lon="8.414335"><ele>381.0</ele><time>2026-04-06T09:17:31.12Z</time></trkpt><trkpt lat="45.6916167" lon="8.4141833"><ele>381.20000000000005</ele><time>2026-04-06T09:17:32.12Z</time></trkpt><trkpt lat="45.6915717" lon="8.4140317"><ele>381.40000000000003</ele><time>2026-04-06T09:17:33.119Z</time></trkpt><trkpt lat="45.6915233" lon="8.4139"><ele>381.6</ele><time>2026-04-06T09:17:34.12Z</time></trkpt><trkpt lat="45.69148" lon="8.41379"><ele>381.8</ele><time>2026-04-06T09:17:35.12Z</time></trkpt><trkpt lat="45.6914417" lon="8.413705"><ele>382.0</ele><time>2026-04-06T09:17:36.12Z</time></trkpt><trkpt lat="45.691395" lon="8.4135617"><ele>381.0</ele><time>2026-04-06T09:17:38.12Z</time></trkpt><trkpt lat="45.6913683" lon="8.4134567"><ele>380.0</ele><time>2026-04-06T09:17:40.12Z</time></trkpt><trkpt lat="45.6914233" lon="8.4133767"><ele>379.0</ele><time>2026-04-06T09:17:42.12Z</time></trkpt><trkpt lat="45.69154" lon="8.41329"><ele>378.0</ele><time>2026-04-06T09:17:44.12Z</time></trkpt><trkpt lat="45.6916217" lon="8.413245"><ele>377.0</ele><time>2026-04-06T09:17:45.12Z</time></trkpt><trkpt lat="45.691695" lon="8.4132117"><ele>377.0</ele><time>2026-04-06T09:17:46.12Z</time></trkpt><trkpt lat="45.691765" lon="8.4131767"><ele>377.0</ele><time>2026-04-06T09:17:47.12Z</time></trkpt><trkpt lat="45.6918033" lon="8.4130533"><ele>377.0</ele><time>2026-04-06T09:17:49.119Z</time></trkpt><trkpt lat="45.6917533" lon="8.4128817"><ele>377.0</ele><time>2026-04-06T09:17:51.12Z</time></trkpt><trkpt lat="45.6916933" lon="8.4127517"><ele>377.0</ele><time>2026-04-06T09:17:52.12Z</time></trkpt><trkpt lat="45.6916333" lon="8.4126217"><ele>377.0</ele><time>2026-04-06T09:17:53.12Z</time></trkpt><trkpt lat="45.691575" lon="8.412515"><ele>377.0</ele><time>2026-04-06T09:17:54.12Z</time></trkpt><trkpt lat="45.691505" lon="8.4124367"><ele>377.0</ele><time>2026-04-06T09:17:55.119Z</time></trkpt><trkpt lat="45.69143" lon="8.4123983"><ele>377.0</ele><time>2026-04-06T09:17:56.119Z</time></trkpt><trkpt lat="45.6913467" lon="8.4124017"><ele>377.0</ele><time>2026-04-06T09:17:57.12Z</time></trkpt><trkpt lat="45.6912467" lon="8.4124333"><ele>377.0</ele><time>2026-04-06T09:17:58.12Z</time></trkpt><trkpt lat="45.6911267" lon="8.412485"><ele>376.75</ele><time>2026-04-06T09:17:59.12Z</time></trkpt><trkpt lat="45.6909967" lon="8.4125483"><ele>376.5</ele><time>2026-04-06T09:18:00.12Z</time></trkpt><trkpt lat="45.690885" lon="8.412595"><ele>376.25</ele><time>2026-04-06T09:18:01.12Z</time></trkpt><trkpt lat="45.69078" lon="8.4126583"><ele>376.0</ele><time>2026-04-06T09:18:02.12Z</time></trkpt><trkpt lat="45.690615" lon="8.4127667"><ele>376.0</ele><time>2026-04-06T09:18:04.12Z</time></trkpt><trkpt lat="45.6905467" lon="8.41279"><ele>376.0</ele><time>2026-04-06T09:18:05.12Z</time></trkpt><trkpt lat="45.6904817" lon="8.4127767"><ele>376.0</ele><time>2026-04-06T09:18:06.12Z</time></trkpt><trkpt lat="45.690435" lon="8.412605"><ele>376.0</ele><time>2026-04-06T09:18:08.119Z</time></trkpt><trkpt lat="45.6904133" lon="8.4125067"><ele>376.0</ele><time>2026-04-06T09:18:09.12Z</time></trkpt><trkpt lat="45.6903833" lon="8.4123767"><ele>376.0</ele><time>2026-04-06T09:18:10.12Z</time></trkpt><trkpt lat="45.6903467" lon="8.4122233"><ele>377.0</ele><time>2026-04-06T09:18:11.12Z</time></trkpt><trkpt lat="45.6902983" lon="8.4120717"><ele>378.0</ele><time>2026-04-06T09:18:12.12Z</time></trkpt><trkpt lat="45.69026" lon="8.4119017"><ele>379.0</ele><time>2026-04-06T09:18:13.119Z</time></trkpt><trkpt lat="45.690235" lon="8.411725"><ele>380.0</ele><time>2026-04-06T09:18:14.12Z</time></trkpt><trkpt lat="45.6902367" lon="8.411575"><ele>380.0</ele><time>2026-04-06T09:18:15.12Z</time></trkpt><trkpt lat="45.690255" lon="8.411445"><ele>380.0</ele><time>2026-04-06T09:18:16.12Z</time></trkpt><trkpt lat="45.690275" lon="8.4113417"><ele>380.0</ele><time>2026-04-06T09:18:17.12Z</time></trkpt><trkpt lat="45.6902983" lon="8.411215"><ele>380.0</ele><time>2026-04-06T09:18:19.12Z</time></trkpt><trkpt lat="45.690305" lon="8.41111"><ele>380.0</ele><time>2026-04-06T09:18:22.119Z</time></trkpt><trkpt lat="45.6902817" lon="8.411025"><ele>380.0</ele><time>2026-04-06T09:18:24.12Z</time></trkpt><trkpt lat="45.690235" lon="8.4109417"><ele>380.1666666666667</ele><time>2026-04-06T09:18:26.12Z</time></trkpt><trkpt lat="45.6901917" lon="8.4108017"><ele>380.33333333333337</ele><time>2026-04-06T09:18:28.12Z</time></trkpt><trkpt lat="45.6901583" lon="8.410635"><ele>380.5</ele><time>2026-04-06T09:18:30.12Z</time></trkpt><trkpt lat="45.69014" lon="8.4105433"><ele>380.6666666666667</ele><time>2026-04-06T09:18:31.12Z</time></trkpt><trkpt lat="45.69012" lon="8.4104533"><ele>380.8333333333333</ele><time>2026-04-06T09:18:32.12Z</time></trkpt><trkpt lat="45.6901167" lon="8.410355"><ele>381.0</ele><time>2026-04-06T09:18:33.12Z</time></trkpt><trkpt lat="45.6901017" lon="8.4101883"><ele>381.5</ele><time>2026-04-06T09:18:35.12Z</time></trkpt><trkpt lat="45.69005" lon="8.4100467"><ele>382.0</ele><time>2026-04-06T09:18:37.12Z</time></trkpt><trkpt lat="45.6900033" lon="8.4099833"><ele>382.5</ele><time>2026-04-06T09:18:38.12Z</time></trkpt><trkpt lat="45.68994" lon="8.409935"><ele>383.0</ele><time>2026-04-06T09:18:39.12Z</time></trkpt><trkpt lat="45.6898633" lon="8.4098917"><ele>383.5</ele><time>2026-04-06T09:18:40.12Z</time></trkpt><trkpt lat="45.68978" lon="8.4098533"><ele>384.0</ele><time>2026-04-06T09:18:41.12Z</time></trkpt><trkpt lat="45.689705" lon="8.4098067"><ele>384.0</ele><time>2026-04-06T09:18:42.12Z</time></trkpt><trkpt lat="45.6896283" lon="8.409745"><ele>384.0</ele><time>2026-04-06T09:18:43.12Z</time></trkpt><trkpt lat="45.6895533" lon="8.409675"><ele>384.0</ele><time>2026-04-06T09:18:44.12Z</time></trkpt><trkpt lat="45.6895" lon="8.409595"><ele>384.0</ele><time>2026-04-06T09:18:45.12Z</time></trkpt><trkpt lat="45.6894617" lon="8.4095133"><ele>384.0</ele><time>2026-04-06T09:18:46.12Z</time></trkpt><trkpt lat="45.689415" lon="8.409435"><ele>384.0</ele><time>2026-04-06T09:18:47.12Z</time></trkpt><trkpt lat="45.689345" lon="8.4093167"><ele>384.79999999999995</ele><time>2026-04-06T09:18:49.12Z</time></trkpt><trkpt lat="45.6893033" lon="8.40915"><ele>385.59999999999997</ele><time>2026-04-06T09:18:51.12Z</time></trkpt><trkpt lat="45.68927" lon="8.4090383"><ele>386.4</ele><time>2026-04-06T09:18:52.12Z</time></trkpt><trkpt lat="45.6892383" lon="8.4089117"><ele>387.2</ele><time>2026-04-06T09:18:53.12Z</time></trkpt><trkpt lat="45.68921" lon="8.4087833"><ele>388.0</ele><time>2026-04-06T09:18:54.12Z</time></trkpt><trkpt lat="45.6891867" lon="8.4086617"><ele>388.83333333333337</ele><time>2026-04-06T09:18:55.12Z</time></trkpt><trkpt lat="45.68918" lon="8.4085317"><ele>389.6666666666667</ele><time>2026-04-06T09:18:56.12Z</time></trkpt><trkpt lat="45.6891683" lon="8.408405"><ele>390.5</ele><time>2026-04-06T09:18:57.12Z</time></trkpt><trkpt lat="45.6891767" lon="8.4082867"><ele>391.33333333333337</ele><time>2026-04-06T09:18:58.12Z</time></trkpt><trkpt lat="45.68919" lon="8.408175"><ele>392.1666666666667</ele><time>2026-04-06T09:18:59.119Z</time></trkpt><trkpt lat="45.6892067" lon="8.4080517"><ele>393.0</ele><time>2026-04-06T09:19:00.119Z</time></trkpt><trkpt lat="45.689215" lon="8.4079333"><ele>393.2</ele><time>2026-04-06T09:19:01.118Z</time></trkpt><trkpt lat="45.68921" lon="8.4077867"><ele>393.4</ele><time>2026-04-06T09:19:02.119Z</time></trkpt><trkpt lat="45.6892067" lon="8.4076433"><ele>393.59999999999997</ele><time>2026-04-06T09:19:03.119Z</time></trkpt><trkpt lat="45.6891933" lon="8.40751"><ele>393.79999999999995</ele><time>2026-04-06T09:19:04.119Z</time></trkpt><trkpt lat="45.68918" lon="8.407385"><ele>394.0</ele><time>2026-04-06T09:19:05.119Z</time></trkpt><trkpt lat="45.6891683" lon="8.4072733"><ele>394.00000000000006</ele><time>2026-04-06T09:19:06.119Z</time></trkpt><trkpt lat="45.6891417" lon="8.4071667"><ele>394.0</ele><time>2026-04-06T09:19:07.119Z</time></trkpt><trkpt lat="45.6891" lon="8.407055"><ele>394.0</ele><time>2026-04-06T09:19:08.119Z</time></trkpt><trkpt lat="45.6890517" lon="8.4069517"><ele>394.0</ele><time>2026-04-06T09:19:09.119Z</time></trkpt><trkpt lat="45.6890033" lon="8.40687"><ele>394.00000000000006</ele><time>2026-04-06T09:19:10.119Z</time></trkpt><trkpt lat="45.6889633" lon="8.4068"><ele>394.0</ele><time>2026-04-06T09:19:11.118Z</time></trkpt><trkpt lat="45.6889367" lon="8.406685"><ele>393.1666666666667</ele><time>2026-04-06T09:19:13.119Z</time></trkpt><trkpt lat="45.6889317" lon="8.4065817"><ele>392.33333333333337</ele><time>2026-04-06T09:19:15.118Z</time></trkpt><trkpt lat="45.6889833" lon="8.40649"><ele>391.5</ele><time>2026-04-06T09:19:17.119Z</time></trkpt><trkpt lat="45.6890333" lon="8.4064033"><ele>390.66666666666663</ele><time>2026-04-06T09:19:19.119Z</time></trkpt><trkpt lat="45.6890767" lon="8.40625"><ele>389.8333333333333</ele><time>2026-04-06T09:19:21.119Z</time></trkpt><trkpt lat="45.689085" lon="8.40615"><ele>389.0</ele><time>2026-04-06T09:19:22.119Z</time></trkpt><trkpt lat="45.689065" lon="8.406035"><ele>388.0</ele><time>2026-04-06T09:19:23.119Z</time></trkpt><trkpt lat="45.6890333" lon="8.4059467"><ele>387.0</ele><time>2026-04-06T09:19:24.119Z</time></trkpt><trkpt lat="45.6888783" lon="8.4056783"><ele>386.0</ele><time>2026-04-06T09:19:28.119Z</time></trkpt><trkpt lat="45.68882" lon="8.4056"><ele>385.0</ele><time>2026-04-06T09:19:30.118Z</time></trkpt><trkpt lat="45.6887717" lon="8.4055267"><ele>385.33333333333337</ele><time>2026-04-06T09:19:32.118Z</time></trkpt><trkpt lat="45.688715" lon="8.4054233"><ele>385.6666666666667</ele><time>2026-04-06T09:19:35.119Z</time></trkpt><trkpt lat="45.6886733" lon="8.4053467"><ele>386.0</ele><time>2026-04-06T09:19:38.119Z</time></trkpt><trkpt lat="45.6885883" lon="8.40528"><ele>386.33333333333337</ele><time>2026-04-06T09:19:52.119Z</time></trkpt><trkpt lat="45.688535" lon="8.4052317"><ele>386.6666666666667</ele><time>2026-04-06T09:20:11.119Z</time></trkpt><trkpt lat="45.68847" lon="8.4052683"><ele>387.0</ele><time>2026-04-06T09:23:50.117Z</time></trkpt><trkpt lat="45.6884017" lon="8.40538"><ele>386.40000000000003</ele><time>2026-04-06T09:23:55.117Z</time></trkpt><trkpt lat="45.6883633" lon="8.4055233"><ele>385.8</ele><time>2026-04-06T09:25:04.118Z</time></trkpt><trkpt lat="45.688345" lon="8.40561"><ele>385.2</ele><time>2026-04-06T09:25:06.118Z</time></trkpt><trkpt lat="45.688285" lon="8.4057183"><ele>384.6</ele><time>2026-04-06T09:25:08.117Z</time></trkpt><trkpt lat="45.6881783" lon="8.405805"><ele>384.0</ele><time>2026-04-06T09:25:10.117Z</time></trkpt><trkpt lat="45.6878967" lon="8.4059667"><ele>384.0</ele><time>2026-04-06T09:25:14.117Z</time></trkpt><trkpt lat="45.6877317" lon="8.4060017"><ele>384.0</ele><time>2026-04-06T09:25:16.118Z</time></trkpt><trkpt lat="45.687655" lon="8.406035"><ele>384.0</ele><time>2026-04-06T09:25:17.118Z</time></trkpt><trkpt lat="45.6875683" lon="8.40598"><ele>384.0</ele><time>2026-04-06T09:25:19.118Z</time></trkpt><trkpt lat="45.6876117" lon="8.4058783"><ele>384.0</ele><time>2026-04-06T09:25:20.118Z</time></trkpt><trkpt lat="45.6876567" lon="8.4057017"><ele>384.0</ele><time>2026-04-06T09:25:23.118Z</time></trkpt><trkpt lat="45.6876017" lon="8.40561"><ele>384.0</ele><time>2026-04-06T09:26:00.118Z</time></trkpt><trkpt lat="45.6875633" lon="8.4055117"><ele>384.0</ele><time>2026-04-06T09:26:01.118Z</time></trkpt><trkpt lat="45.6874733" lon="8.4051833"><ele>384.0</ele><time>2026-04-06T09:26:04.118Z</time></trkpt><trkpt lat="45.6874333" lon="8.4050617"><ele>384.5</ele><time>2026-04-06T09:26:05.118Z</time></trkpt><trkpt lat="45.6873517" lon="8.4047817"><ele>385.0</ele><time>2026-04-06T09:26:07.117Z</time></trkpt><trkpt lat="45.687315" lon="8.40465"><ele>385.5</ele><time>2026-04-06T09:26:08.118Z</time></trkpt><trkpt lat="45.6872867" lon="8.4045433"><ele>386.0</ele><time>2026-04-06T09:26:09.118Z</time></trkpt><trkpt lat="45.687255" lon="8.40446"><ele>386.20000000000005</ele><time>2026-04-06T09:26:10.118Z</time></trkpt><trkpt lat="45.687165" lon="8.4044133"><ele>386.40000000000003</ele><time>2026-04-06T09:26:12.118Z</time></trkpt><trkpt lat="45.687085" lon="8.4044383"><ele>386.6</ele><time>2026-04-06T09:26:13.118Z</time></trkpt><trkpt lat="45.686995" lon="8.4044833"><ele>386.8</ele><time>2026-04-06T09:26:14.118Z</time></trkpt><trkpt lat="45.6869167" lon="8.40454"><ele>387.0</ele><time>2026-04-06T09:26:15.118Z</time></trkpt><trkpt lat="45.6868283" lon="8.40462"><ele>385.75</ele><time>2026-04-06T09:26:16.118Z</time></trkpt><trkpt lat="45.68665" lon="8.4046967"><ele>384.5</ele><time>2026-04-06T09:26:18.118Z</time></trkpt><trkpt lat="45.6865633" lon="8.4047233"><ele>383.25</ele><time>2026-04-06T09:26:19.118Z</time></trkpt><trkpt lat="45.6864817" lon="8.404745"><ele>382.0</ele><time>2026-04-06T09:26:20.118Z</time></trkpt><trkpt lat="45.6863917" lon="8.4047767"><ele>382.0</ele><time>2026-04-06T09:26:21.117Z</time></trkpt><trkpt lat="45.68632" lon="8.4048017"><ele>382.0</ele><time>2026-04-06T09:26:22.118Z</time></trkpt><trkpt lat="45.6862017" lon="8.404815"><ele>382.0</ele><time>2026-04-06T09:26:24.118Z</time></trkpt><trkpt lat="45.68613" lon="8.4047583"><ele>382.0</ele><time>2026-04-06T09:26:26.118Z</time></trkpt><trkpt lat="45.6860967" lon="8.4046283"><ele>382.0</ele><time>2026-04-06T09:26:34.118Z</time></trkpt><trkpt lat="45.686055" lon="8.4044633"><ele>382.0</ele><time>2026-04-06T09:26:36.117Z</time></trkpt><trkpt lat="45.6859783" lon="8.40431"><ele>382.0</ele><time>2026-04-06T09:26:38.118Z</time></trkpt><trkpt lat="45.6859217" lon="8.4042417"><ele>382.0</ele><time>2026-04-06T09:26:39.118Z</time></trkpt><trkpt lat="45.6858333" lon="8.4041533"><ele>382.0</ele><time>2026-04-06T09:26:40.117Z</time></trkpt><trkpt lat="45.6857533" lon="8.4040583"><ele>382.0</ele><time>2026-04-06T09:26:41.118Z</time></trkpt><trkpt lat="45.6856817" lon="8.4039583"><ele>382.0</ele><time>2026-04-06T09:26:42.118Z</time></trkpt><trkpt lat="45.68562" lon="8.4038633"><ele>382.0</ele><time>2026-04-06T09:26:43.117Z</time></trkpt><trkpt lat="45.685555" lon="8.4037383"><ele>382.0</ele><time>2026-04-06T09:26:44.117Z</time></trkpt><trkpt lat="45.6854983" lon="8.4035783"><ele>382.0</ele><time>2026-04-06T09:26:45.117Z</time></trkpt><trkpt lat="45.6854467" lon="8.4034233"><ele>382.0</ele><time>2026-04-06T09:26:46.116Z</time></trkpt><trkpt lat="45.6854067" lon="8.40329"><ele>382.0</ele><time>2026-04-06T09:26:47.117Z</time></trkpt><trkpt lat="45.6853767" lon="8.4031617"><ele>382.0</ele><time>2026-04-06T09:26:48.117Z</time></trkpt><trkpt lat="45.68537" lon="8.403055"><ele>382.0</ele><time>2026-04-06T09:26:49.117Z</time></trkpt><trkpt lat="45.68538" lon="8.40289"><ele>382.0</ele><time>2026-04-06T09:26:51.117Z</time></trkpt><trkpt lat="45.6853967" lon="8.4027417"><ele>382.0</ele><time>2026-04-06T09:26:53.117Z</time></trkpt><trkpt lat="45.6853983" lon="8.4026317"><ele>382.3333333333333</ele><time>2026-04-06T09:26:55.117Z</time></trkpt><trkpt lat="45.6854033" lon="8.4025383"><ele>382.66666666666663</ele><time>2026-04-06T09:26:57.117Z</time></trkpt><trkpt lat="45.6854033" lon="8.40244"><ele>383.0</ele><time>2026-04-06T09:26:59.116Z</time></trkpt><trkpt lat="45.6854067" lon="8.402315"><ele>383.3333333333333</ele><time>2026-04-06T09:27:01.117Z</time></trkpt><trkpt lat="45.6854217" lon="8.4022067"><ele>383.6666666666667</ele><time>2026-04-06T09:27:03.117Z</time></trkpt><trkpt lat="45.68543" lon="8.40211"><ele>384.0</ele><time>2026-04-06T09:27:05.116Z</time></trkpt><trkpt lat="45.685465" lon="8.401965"><ele>384.0</ele><time>2026-04-06T09:27:36.117Z</time></trkpt><trkpt lat="45.6853567" lon="8.401825"><ele>384.0</ele><time>2026-04-06T09:27:39.117Z</time></trkpt><trkpt lat="45.685025" lon="8.4018267"><ele>381.0</ele><time>2026-04-06T09:27:42.117Z</time></trkpt><trkpt lat="45.6847717" lon="8.401825"><ele>378.0</ele><time>2026-04-06T09:27:44.117Z</time></trkpt><trkpt lat="45.6845383" lon="8.4017917"><ele>378.0</ele><time>2026-04-06T09:27:46.117Z</time></trkpt><trkpt lat="45.684435" lon="8.4017617"><ele>378.0</ele><time>2026-04-06T09:27:47.117Z</time></trkpt><trkpt lat="45.684325" lon="8.40172"><ele>378.0</ele><time>2026-04-06T09:27:48.116Z</time></trkpt><trkpt lat="45.6842317" lon="8.401635"><ele>378.0</ele><time>2026-04-06T09:27:49.117Z</time></trkpt><trkpt lat="45.6841367" lon="8.40153"><ele>377.79999999999995</ele><time>2026-04-06T09:27:50.116Z</time></trkpt><trkpt lat="45.68406" lon="8.4013967"><ele>377.6</ele><time>2026-04-06T09:27:51.117Z</time></trkpt><trkpt lat="45.6839933" lon="8.4012733"><ele>377.4</ele><time>2026-04-06T09:27:52.117Z</time></trkpt><trkpt lat="45.68394" lon="8.4011667"><ele>377.20000000000005</ele><time>2026-04-06T09:27:53.117Z</time></trkpt><trkpt lat="45.6838817" lon="8.4010717"><ele>377.0</ele><time>2026-04-06T09:27:54.117Z</time></trkpt><trkpt lat="45.6837967" lon="8.4010067"><ele>377.0</ele><time>2026-04-06T09:27:55.116Z</time></trkpt><trkpt lat="45.683695" lon="8.40097"><ele>377.0</ele><time>2026-04-06T09:27:56.117Z</time></trkpt><trkpt lat="45.6835833" lon="8.4009417"><ele>377.0</ele><time>2026-04-06T09:27:57.117Z</time></trkpt><trkpt lat="45.68348" lon="8.4009017"><ele>377.0</ele><time>2026-04-06T09:27:58.117Z</time></trkpt><trkpt lat="45.6834067" lon="8.4008783"><ele>377.0</ele><time>2026-04-06T09:27:59.117Z</time></trkpt><trkpt lat="45.6833183" lon="8.4008467"><ele>377.5</ele><time>2026-04-06T09:28:01.117Z</time></trkpt><trkpt lat="45.68325" lon="8.4008333"><ele>378.0</ele><time>2026-04-06T09:28:05.117Z</time></trkpt><trkpt lat="45.6832533" lon="8.40073"><ele>378.5</ele><time>2026-04-06T09:28:07.117Z</time></trkpt><trkpt lat="45.6832883" lon="8.4006467"><ele>379.0</ele><time>2026-04-06T09:28:08.117Z</time></trkpt><trkpt lat="45.683335" lon="8.40055"><ele>379.5</ele><time>2026-04-06T09:28:09.117Z</time></trkpt><trkpt lat="45.6833833" lon="8.4004567"><ele>380.0</ele><time>2026-04-06T09:28:10.116Z</time></trkpt><trkpt lat="45.683445" lon="8.4003367"><ele>379.75</ele><time>2026-04-06T09:28:11.117Z</time></trkpt><trkpt lat="45.6835033" lon="8.4002083"><ele>379.5</ele><time>2026-04-06T09:28:12.117Z</time></trkpt><trkpt lat="45.6835617" lon="8.4000667"><ele>379.25</ele><time>2026-04-06T09:28:13.117Z</time></trkpt><trkpt lat="45.6836133" lon="8.3999233"><ele>379.0</ele><time>2026-04-06T09:28:14.116Z</time></trkpt><trkpt lat="45.68366" lon="8.3997633"><ele>380.0</ele><time>2026-04-06T09:28:15.117Z</time></trkpt><trkpt lat="45.6837033" lon="8.3995883"><ele>381.0</ele><time>2026-04-06T09:28:16.117Z</time></trkpt><trkpt lat="45.6837367" lon="8.3993983"><ele>382.0</ele><time>2026-04-06T09:28:17.116Z</time></trkpt><trkpt lat="45.683765" lon="8.39921"><ele>383.0</ele><time>2026-04-06T09:28:18.117Z</time></trkpt><trkpt lat="45.68379" lon="8.39901"><ele>383.75</ele><time>2026-04-06T09:28:19.117Z</time></trkpt><trkpt lat="45.68381" lon="8.3988133"><ele>384.5</ele><time>2026-04-06T09:28:20.117Z</time></trkpt><trkpt lat="45.6838233" lon="8.398625"><ele>385.25</ele><time>2026-04-06T09:28:21.117Z</time></trkpt><trkpt lat="45.6838333" lon="8.3984517"><ele>386.0</ele><time>2026-04-06T09:28:22.117Z</time></trkpt><trkpt lat="45.6838483" lon="8.3982917"><ele>386.0</ele><time>2026-04-06T09:28:23.117Z</time></trkpt><trkpt lat="45.6838533" lon="8.3981233"><ele>386.0</ele><time>2026-04-06T09:28:24.116Z</time></trkpt><trkpt lat="45.68386" lon="8.3979617"><ele>386.0</ele><time>2026-04-06T09:28:25.117Z</time></trkpt><trkpt lat="45.68388" lon="8.3978117"><ele>386.0</ele><time>2026-04-06T09:28:26.116Z</time></trkpt><trkpt lat="45.6838933" lon="8.3976667"><ele>386.0</ele><time>2026-04-06T09:28:27.117Z</time></trkpt><trkpt lat="45.6839133" lon="8.397525"><ele>386.4</ele><time>2026-04-06T09:28:28.116Z</time></trkpt><trkpt lat="45.6839433" lon="8.39738"><ele>386.8</ele><time>2026-04-06T09:28:29.117Z</time></trkpt><trkpt lat="45.6839617" lon="8.3972233"><ele>387.2</ele><time>2026-04-06T09:28:30.117Z</time></trkpt><trkpt lat="45.6839867" lon="8.3970617"><ele>387.59999999999997</ele><time>2026-04-06T09:28:31.117Z</time></trkpt><trkpt lat="45.6840217" lon="8.3969117"><ele>388.0</ele><time>2026-04-06T09:28:32.117Z</time></trkpt><trkpt lat="45.684075" lon="8.3967733"><ele>388.75</ele><time>2026-04-06T09:28:33.116Z</time></trkpt><trkpt lat="45.6841383" lon="8.39664"><ele>389.5</ele><time>2026-04-06T09:28:34.117Z</time></trkpt><trkpt lat="45.6842033" lon="8.3965167"><ele>390.25</ele><time>2026-04-06T09:28:35.117Z</time></trkpt><trkpt lat="45.6842833" lon="8.3964117"><ele>391.0</ele><time>2026-04-06T09:28:36.117Z</time></trkpt><trkpt lat="45.6843833" lon="8.3963017"><ele>391.0</ele><time>2026-04-06T09:28:37.117Z</time></trkpt><trkpt lat="45.6844967" lon="8.3961933"><ele>391.0</ele><time>2026-04-06T09:28:38.116Z</time></trkpt><trkpt lat="45.6846017" lon="8.3960767"><ele>391.0</ele><time>2026-04-06T09:28:39.117Z</time></trkpt><trkpt lat="45.6846917" lon="8.3959767"><ele>391.0</ele><time>2026-04-06T09:28:40.116Z</time></trkpt><trkpt lat="45.68478" lon="8.3958867"><ele>391.0</ele><time>2026-04-06T09:28:41.117Z</time></trkpt><trkpt lat="45.68489" lon="8.3957583"><ele>391.0</ele><time>2026-04-06T09:28:42.117Z</time></trkpt><trkpt lat="45.6850083" lon="8.39562"><ele>391.0</ele><time>2026-04-06T09:28:43.117Z</time></trkpt><trkpt lat="45.6851367" lon="8.3954817"><ele>390.33333333333337</ele><time>2026-04-06T09:28:44.116Z</time></trkpt><trkpt lat="45.685255" lon="8.395335"><ele>389.66666666666663</ele><time>2026-04-06T09:28:45.117Z</time></trkpt><trkpt lat="45.6853833" lon="8.3951683"><ele>389.0</ele><time>2026-04-06T09:28:46.116Z</time></trkpt><trkpt lat="45.6855067" lon="8.3950133"><ele>389.0</ele><time>2026-04-06T09:28:47.117Z</time></trkpt><trkpt lat="45.6856317" lon="8.39487"><ele>389.0</ele><time>2026-04-06T09:28:48.117Z</time></trkpt><trkpt lat="45.6857417" lon="8.3947233"><ele>389.0</ele><time>2026-04-06T09:28:49.117Z</time></trkpt><trkpt lat="45.6858483" lon="8.3946"><ele>389.0</ele><time>2026-04-06T09:28:50.117Z</time></trkpt><trkpt lat="45.68595" lon="8.3944717"><ele>392.0</ele><time>2026-04-06T09:28:51.117Z</time></trkpt><trkpt lat="45.6862017" lon="8.3941233"><ele>395.0</ele><time>2026-04-06T09:28:54.116Z</time></trkpt><trkpt lat="45.6863733" lon="8.393875"><ele>395.3333333333333</ele><time>2026-04-06T09:28:56.117Z</time></trkpt><trkpt lat="45.6864433" lon="8.3937117"><ele>395.66666666666663</ele><time>2026-04-06T09:28:57.117Z</time></trkpt><trkpt lat="45.6864967" lon="8.3935417"><ele>396.0</ele><time>2026-04-06T09:28:58.117Z</time></trkpt><trkpt lat="45.6865783" lon="8.3931983"><ele>396.0</ele><time>2026-04-06T09:29:00.117Z</time></trkpt><trkpt lat="45.6866133" lon="8.393015"><ele>396.0</ele><time>2026-04-06T09:29:01.116Z</time></trkpt><trkpt lat="45.6866533" lon="8.3928283"><ele>396.0</ele><time>2026-04-06T09:29:02.117Z</time></trkpt><trkpt lat="45.6866983" lon="8.39264"><ele>396.0</ele><time>2026-04-06T09:29:03.117Z</time></trkpt><trkpt lat="45.6867317" lon="8.3924467"><ele>396.25</ele><time>2026-04-06T09:29:04.117Z</time></trkpt><trkpt lat="45.686745" lon="8.3922383"><ele>396.5</ele><time>2026-04-06T09:29:05.116Z</time></trkpt><trkpt lat="45.6867517" lon="8.3920283"><ele>396.75</ele><time>2026-04-06T09:29:06.117Z</time></trkpt><trkpt lat="45.6867483" lon="8.3918267"><ele>397.0</ele><time>2026-04-06T09:29:07.117Z</time></trkpt><trkpt lat="45.686735" lon="8.391615"><ele>400.0</ele><time>2026-04-06T09:29:08.116Z</time></trkpt><trkpt lat="45.68672" lon="8.3913883"><ele>403.0</ele><time>2026-04-06T09:29:09.117Z</time></trkpt><trkpt lat="45.6867" lon="8.39116"><ele>406.0</ele><time>2026-04-06T09:29:10.117Z</time></trkpt><trkpt lat="45.68669" lon="8.3909267"><ele>407.5</ele><time>2026-04-06T09:29:11.117Z</time></trkpt><trkpt lat="45.6866633" lon="8.3904633"><ele>409.0</ele><time>2026-04-06T09:29:13.117Z</time></trkpt><trkpt lat="45.6866383" lon="8.3902417"><ele>409.0</ele><time>2026-04-06T09:29:14.117Z</time></trkpt><trkpt lat="45.686625" lon="8.38988"><ele>409.0</ele><time>2026-04-06T09:29:16.117Z</time></trkpt><trkpt lat="45.6866917" lon="8.3895767"><ele>408.75</ele><time>2026-04-06T09:29:18.117Z</time></trkpt><trkpt lat="45.6867433" lon="8.389415"><ele>408.5</ele><time>2026-04-06T09:29:19.117Z</time></trkpt><trkpt lat="45.686875" lon="8.3893033"><ele>408.25</ele><time>2026-04-06T09:29:20.116Z</time></trkpt><trkpt lat="45.6869967" lon="8.3891933"><ele>408.0</ele><time>2026-04-06T09:29:21.117Z</time></trkpt><trkpt lat="45.6871" lon="8.3890867"><ele>409.66666666666663</ele><time>2026-04-06T09:29:22.117Z</time></trkpt><trkpt lat="45.6873233" lon="8.3887283"><ele>411.3333333333333</ele><time>2026-04-06T09:29:25.116Z</time></trkpt><trkpt lat="45.68736" lon="8.38859"><ele>413.0</ele><time>2026-04-06T09:29:26.117Z</time></trkpt><trkpt lat="45.6873717" lon="8.388425"><ele>413.0</ele><time>2026-04-06T09:29:27.117Z</time></trkpt><trkpt lat="45.6873667" lon="8.388255"><ele>413.0</ele><time>2026-04-06T09:29:28.117Z</time></trkpt><trkpt lat="45.6873383" lon="8.3880817"><ele>413.0</ele><time>2026-04-06T09:29:29.117Z</time></trkpt><trkpt lat="45.68732" lon="8.3879067"><ele>413.0</ele><time>2026-04-06T09:29:30.117Z</time></trkpt><trkpt lat="45.6873033" lon="8.38771"><ele>415.0</ele><time>2026-04-06T09:29:31.117Z</time></trkpt><trkpt lat="45.6872883" lon="8.3875117"><ele>417.0</ele><time>2026-04-06T09:29:32.117Z</time></trkpt><trkpt lat="45.6872883" lon="8.38731"><ele>419.0</ele><time>2026-04-06T09:29:33.117Z</time></trkpt><trkpt lat="45.6873083" lon="8.3871067"><ele>421.0</ele><time>2026-04-06T09:29:34.117Z</time></trkpt><trkpt lat="45.6873317" lon="8.3869083"><ele>422.33333333333337</ele><time>2026-04-06T09:29:35.116Z</time></trkpt><trkpt lat="45.6873683" lon="8.3867067"><ele>423.66666666666663</ele><time>2026-04-06T09:29:36.117Z</time></trkpt><trkpt lat="45.6874117" lon="8.3864933"><ele>425.0</ele><time>2026-04-06T09:29:37.116Z</time></trkpt><trkpt lat="45.6874483" lon="8.38627"><ele>425.0</ele><time>2026-04-06T09:29:38.117Z</time></trkpt><trkpt lat="45.6874933" lon="8.3860583"><ele>425.0</ele><time>2026-04-06T09:29:39.117Z</time></trkpt><trkpt lat="45.68754" lon="8.38586"><ele>425.0</ele><time>2026-04-06T09:29:40.117Z</time></trkpt><trkpt lat="45.68758" lon="8.3856533"><ele>426.25</ele><time>2026-04-06T09:29:41.116Z</time></trkpt><trkpt lat="45.6876167" lon="8.3854467"><ele>427.5</ele><time>2026-04-06T09:29:42.117Z</time></trkpt><trkpt lat="45.6876483" lon="8.385245"><ele>428.75</ele><time>2026-04-06T09:29:43.117Z</time></trkpt><trkpt lat="45.6876867" lon="8.385045"><ele>430.0</ele><time>2026-04-06T09:29:44.116Z</time></trkpt><trkpt lat="45.68773" lon="8.3848567"><ele>434.0</ele><time>2026-04-06T09:29:45.116Z</time></trkpt><trkpt lat="45.687765" lon="8.3846667"><ele>438.0</ele><time>2026-04-06T09:29:46.117Z</time></trkpt><trkpt lat="45.6877967" lon="8.3844833"><ele>442.0</ele><time>2026-04-06T09:29:47.117Z</time></trkpt><trkpt lat="45.6878317" lon="8.3842933"><ele>446.0</ele><time>2026-04-06T09:29:48.116Z</time></trkpt><trkpt lat="45.6878733" lon="8.3841"><ele>446.0</ele><time>2026-04-06T09:29:49.117Z</time></trkpt><trkpt lat="45.687935" lon="8.3839117"><ele>446.0</ele><time>2026-04-06T09:29:50.117Z</time></trkpt><trkpt lat="45.6880017" lon="8.3837417"><ele>446.0</ele><time>2026-04-06T09:29:51.117Z</time></trkpt><trkpt lat="45.6880817" lon="8.383575"><ele>446.0</ele><time>2026-04-06T09:29:52.116Z</time></trkpt><trkpt lat="45.6882817" lon="8.3832733"><ele>446.0</ele><time>2026-04-06T09:29:54.117Z</time></trkpt><trkpt lat="45.6883767" lon="8.3831183"><ele>446.0</ele><time>2026-04-06T09:29:55.116Z</time></trkpt><trkpt lat="45.6885533" lon="8.3828"><ele>446.0</ele><time>2026-04-06T09:29:57.117Z</time></trkpt><trkpt lat="45.6887167" lon="8.382505"><ele>446.99999999999994</ele><time>2026-04-06T09:29:59.116Z</time></trkpt><trkpt lat="45.688755" lon="8.3823983"><ele>448.0</ele><time>2026-04-06T09:30:00.117Z</time></trkpt><trkpt lat="45.6887933" lon="8.3823183"><ele>449.0</ele><time>2026-04-06T09:30:01.117Z</time></trkpt><trkpt lat="45.6888617" lon="8.3822267"><ele>450.0</ele><time>2026-04-06T09:30:03.117Z</time></trkpt><trkpt lat="45.6889183" lon="8.3820767"><ele>450.99999999999994</ele><time>2026-04-06T09:30:05.117Z</time></trkpt><trkpt lat="45.6889417" lon="8.38199"><ele>452.0</ele><time>2026-04-06T09:30:06.116Z</time></trkpt><trkpt lat="45.6889233" lon="8.3818733"><ele>451.99999999999994</ele><time>2026-04-06T09:30:07.117Z</time></trkpt><trkpt lat="45.6889017" lon="8.3817483"><ele>452.0</ele><time>2026-04-06T09:30:08.117Z</time></trkpt><trkpt lat="45.68887" lon="8.3816217"><ele>452.0</ele><time>2026-04-06T09:30:09.117Z</time></trkpt><trkpt lat="45.6888333" lon="8.38151"><ele>452.0</ele><time>2026-04-06T09:30:10.117Z</time></trkpt><trkpt lat="45.688785" lon="8.381405"><ele>451.99999999999994</ele><time>2026-04-06T09:30:11.117Z</time></trkpt><trkpt lat="45.6887217" lon="8.3813217"><ele>452.0</ele><time>2026-04-06T09:30:12.117Z</time></trkpt><trkpt lat="45.6886417" lon="8.3812683"><ele>452.20000000000005</ele><time>2026-04-06T09:30:13.117Z</time></trkpt><trkpt lat="45.68855" lon="8.381245"><ele>452.40000000000003</ele><time>2026-04-06T09:30:14.116Z</time></trkpt><trkpt lat="45.6884567" lon="8.3813167"><ele>452.59999999999997</ele><time>2026-04-06T09:30:15.117Z</time></trkpt><trkpt lat="45.6883683" lon="8.3814217"><ele>452.79999999999995</ele><time>2026-04-06T09:30:16.117Z</time></trkpt><trkpt lat="45.688285" lon="8.3815383"><ele>453.0</ele><time>2026-04-06T09:30:17.117Z</time></trkpt><trkpt lat="45.6881483" lon="8.3818017"><ele>453.0</ele><time>2026-04-06T09:30:19.116Z</time></trkpt><trkpt lat="45.688075" lon="8.38191"><ele>452.99999999999994</ele><time>2026-04-06T09:30:20.117Z</time></trkpt><trkpt lat="45.68797" lon="8.3819617"><ele>452.99999999999994</ele><time>2026-04-06T09:30:21.117Z</time></trkpt><trkpt lat="45.6878733" lon="8.38196"><ele>453.0</ele><time>2026-04-06T09:30:22.117Z</time></trkpt><trkpt lat="45.6877883" lon="8.3818917"><ele>453.0</ele><time>2026-04-06T09:30:23.117Z</time></trkpt><trkpt lat="45.68772" lon="8.381755"><ele>454.75</ele><time>2026-04-06T09:30:24.117Z</time></trkpt><trkpt lat="45.6876583" lon="8.38159"><ele>456.5</ele><time>2026-04-06T09:30:25.117Z</time></trkpt><trkpt lat="45.6876167" lon="8.381415"><ele>458.25</ele><time>2026-04-06T09:30:26.116Z</time></trkpt><trkpt lat="45.6875967" lon="8.38123"><ele>460.0</ele><time>2026-04-06T09:30:27.115Z</time></trkpt><trkpt lat="45.687605" lon="8.3810383"><ele>461.75</ele><time>2026-04-06T09:30:28.116Z</time></trkpt><trkpt lat="45.6876367" lon="8.3808517"><ele>463.5</ele><time>2026-04-06T09:30:29.116Z</time></trkpt><trkpt lat="45.6876883" lon="8.3806767"><ele>465.25</ele><time>2026-04-06T09:30:30.116Z</time></trkpt><trkpt lat="45.6877317" lon="8.38052"><ele>467.0</ele><time>2026-04-06T09:30:31.116Z</time></trkpt><trkpt lat="45.6877767" lon="8.38036"><ele>468.5</ele><time>2026-04-06T09:30:32.116Z</time></trkpt><trkpt lat="45.6878167" lon="8.3802017"><ele>470.0</ele><time>2026-04-06T09:30:33.116Z</time></trkpt><trkpt lat="45.6878467" lon="8.3800483"><ele>471.5</ele><time>2026-04-06T09:30:34.116Z</time></trkpt><trkpt lat="45.6878717" lon="8.3798833"><ele>473.0</ele><time>2026-04-06T09:30:35.116Z</time></trkpt><trkpt lat="45.6878817" lon="8.37971"><ele>473.79999999999995</ele><time>2026-04-06T09:30:36.116Z</time></trkpt><trkpt lat="45.6878917" lon="8.3795433"><ele>474.59999999999997</ele><time>2026-04-06T09:30:37.116Z</time></trkpt><trkpt lat="45.6878833" lon="8.379375"><ele>475.40000000000003</ele><time>2026-04-06T09:30:38.116Z</time></trkpt><trkpt lat="45.6878767" lon="8.3792467"><ele>476.20000000000005</ele><time>2026-04-06T09:30:39.116Z</time></trkpt><trkpt lat="45.6878517" lon="8.3791233"><ele>477.0</ele><time>2026-04-06T09:30:40.115Z</time></trkpt><trkpt lat="45.68781" lon="8.3790183"><ele>475.3333333333333</ele><time>2026-04-06T09:30:41.115Z</time></trkpt><trkpt lat="45.6877417" lon="8.37893"><ele>473.66666666666663</ele><time>2026-04-06T09:30:42.116Z</time></trkpt><trkpt lat="45.6876667" lon="8.37889"><ele>472.0</ele><time>2026-04-06T09:30:43.116Z</time></trkpt><trkpt lat="45.6875933" lon="8.3788683"><ele>470.3333333333333</ele><time>2026-04-06T09:30:44.116Z</time></trkpt><trkpt lat="45.687525" lon="8.3788217"><ele>468.66666666666663</ele><time>2026-04-06T09:30:45.116Z</time></trkpt><trkpt lat="45.6874617" lon="8.37877"><ele>467.0</ele><time>2026-04-06T09:30:46.115Z</time></trkpt><trkpt lat="45.68741" lon="8.3787117"><ele>467.0</ele><time>2026-04-06T09:30:47.116Z</time></trkpt><trkpt lat="45.6873483" lon="8.3785717"><ele>467.00000000000006</ele><time>2026-04-06T09:30:49.116Z</time></trkpt><trkpt lat="45.6873317" lon="8.37848"><ele>467.00000000000006</ele><time>2026-04-06T09:30:50.116Z</time></trkpt><trkpt lat="45.6873417" lon="8.3782867"><ele>467.0</ele><time>2026-04-06T09:30:52.116Z</time></trkpt><trkpt lat="45.6873617" lon="8.3781933"><ele>467.0</ele><time>2026-04-06T09:30:53.116Z</time></trkpt><trkpt lat="45.6873917" lon="8.3781117"><ele>466.20000000000005</ele><time>2026-04-06T09:30:54.116Z</time></trkpt><trkpt lat="45.68744" lon="8.3779583"><ele>465.40000000000003</ele><time>2026-04-06T09:30:56.116Z</time></trkpt><trkpt lat="45.6874517" lon="8.3777983"><ele>464.59999999999997</ele><time>2026-04-06T09:30:58.115Z</time></trkpt><trkpt lat="45.68745" lon="8.377675"><ele>463.79999999999995</ele><time>2026-04-06T09:31:00.116Z</time></trkpt><trkpt lat="45.6874467" lon="8.3775717"><ele>463.0</ele><time>2026-04-06T09:31:02.116Z</time></trkpt><trkpt lat="45.6874417" lon="8.3774583"><ele>463.0</ele><time>2026-04-06T09:31:06.116Z</time></trkpt><trkpt lat="45.6875383" lon="8.37742"><ele>463.0</ele><time>2026-04-06T09:31:09.116Z</time></trkpt><trkpt lat="45.6876967" lon="8.377265"><ele>463.0</ele><time>2026-04-06T09:31:12.116Z</time></trkpt><trkpt lat="45.687755" lon="8.3771783"><ele>463.0</ele><time>2026-04-06T09:31:13.116Z</time></trkpt><trkpt lat="45.6878033" lon="8.3770933"><ele>468.0</ele><time>2026-04-06T09:31:14.116Z</time></trkpt><trkpt lat="45.6879067" lon="8.3769967"><ele>472.99999999999994</ele><time>2026-04-06T09:31:16.116Z</time></trkpt><trkpt lat="45.6880183" lon="8.3769233"><ele>477.99999999999994</ele><time>2026-04-06T09:31:18.115Z</time></trkpt><trkpt lat="45.6880833" lon="8.37688"><ele>483.0</ele><time>2026-04-06T09:31:19.116Z</time></trkpt><trkpt lat="45.688155" lon="8.3768467"><ele>488.0</ele><time>2026-04-06T09:31:20.116Z</time></trkpt><trkpt lat="45.68822" lon="8.3767967"><ele>487.99999999999994</ele><time>2026-04-06T09:31:21.116Z</time></trkpt><trkpt lat="45.6882833" lon="8.3767367"><ele>488.0</ele><time>2026-04-06T09:31:22.116Z</time></trkpt><trkpt lat="45.68834" lon="8.3766683"><ele>488.0</ele><time>2026-04-06T09:31:23.116Z</time></trkpt><trkpt lat="45.688395" lon="8.37659"><ele>488.0</ele><time>2026-04-06T09:31:24.116Z</time></trkpt><trkpt lat="45.6884533" lon="8.37653"><ele>487.99999999999994</ele><time>2026-04-06T09:31:25.116Z</time></trkpt><trkpt lat="45.6884933" lon="8.3764533"><ele>488.0</ele><time>2026-04-06T09:31:26.116Z</time></trkpt><trkpt lat="45.6885433" lon="8.3763217"><ele>487.99999999999994</ele><time>2026-04-06T09:31:28.115Z</time></trkpt><trkpt lat="45.6885867" lon="8.3762217"><ele>488.0</ele><time>2026-04-06T09:31:30.116Z</time></trkpt><trkpt lat="45.6886433" lon="8.3761433"><ele>488.0</ele><time>2026-04-06T09:31:32.116Z</time></trkpt><trkpt lat="45.6885783" lon="8.376195"><ele>488.0</ele><time>2026-04-06T09:40:02.113Z</time></trkpt><trkpt lat="45.6885317" lon="8.3762817"><ele>487.99999999999994</ele><time>2026-04-06T09:40:04.114Z</time></trkpt><trkpt lat="45.6884883" lon="8.3763917"><ele>488.0</ele><time>2026-04-06T09:40:06.113Z</time></trkpt><trkpt lat="45.6884333" lon="8.376515"><ele>487.99999999999994</ele><time>2026-04-06T09:40:08.113Z</time></trkpt><trkpt lat="45.688365" lon="8.3766267"><ele>488.0</ele><time>2026-04-06T09:40:10.114Z</time></trkpt><trkpt lat="45.6883183" lon="8.3767317"><ele>488.0</ele><time>2026-04-06T09:40:12.114Z</time></trkpt><trkpt lat="45.688265" lon="8.3768167"><ele>488.0</ele><time>2026-04-06T09:40:15.114Z</time></trkpt><trkpt lat="45.688205" lon="8.3768733"><ele>487.99999999999994</ele><time>2026-04-06T09:40:17.114Z</time></trkpt><trkpt lat="45.6881217" lon="8.3769317"><ele>488.0</ele><time>2026-04-06T09:40:19.114Z</time></trkpt><trkpt lat="45.6880167" lon="8.3769667"><ele>488.0</ele><time>2026-04-06T09:40:21.114Z</time></trkpt><trkpt lat="45.687905" lon="8.3770133"><ele>487.99999999999994</ele><time>2026-04-06T09:40:23.114Z</time></trkpt><trkpt lat="45.6878117" lon="8.37708"><ele>487.99999999999994</ele><time>2026-04-06T09:40:25.114Z</time></trkpt><trkpt lat="45.68774" lon="8.3771767"><ele>488.0</ele><time>2026-04-06T09:40:27.114Z</time></trkpt><trkpt lat="45.687675" lon="8.3772883"><ele>488.0</ele><time>2026-04-06T09:40:29.114Z</time></trkpt><trkpt lat="45.6875783" lon="8.37738"><ele>483.79999999999995</ele><time>2026-04-06T09:40:31.114Z</time></trkpt><trkpt lat="45.6874833" lon="8.3774467"><ele>479.59999999999997</ele><time>2026-04-06T09:40:33.114Z</time></trkpt><trkpt lat="45.687415" lon="8.3773867"><ele>475.40000000000003</ele><time>2026-04-06T09:54:48.11Z</time></trkpt><trkpt lat="45.6874117" lon="8.3775167"><ele>471.20000000000005</ele><time>2026-04-06T09:54:50.11Z</time></trkpt><trkpt lat="45.6874183" lon="8.3777583"><ele>467.0</ele><time>2026-04-06T09:54:52.11Z</time></trkpt><trkpt lat="45.6873683" lon="8.3780733"><ele>467.0</ele><time>2026-04-06T09:54:54.109Z</time></trkpt><trkpt lat="45.6873067" lon="8.3783783"><ele>467.0</ele><time>2026-04-06T09:54:56.11Z</time></trkpt><trkpt lat="45.6873567" lon="8.37866"><ele>467.0</ele><time>2026-04-06T09:54:58.109Z</time></trkpt><trkpt lat="45.6874383" lon="8.3787883"><ele>465.8</ele><time>2026-04-06T09:54:59.11Z</time></trkpt><trkpt lat="45.6875317" lon="8.3789017"><ele>464.6</ele><time>2026-04-06T09:55:00.11Z</time></trkpt><trkpt lat="45.687625" lon="8.3789733"><ele>463.40000000000003</ele><time>2026-04-06T09:55:01.11Z</time></trkpt><trkpt lat="45.687715" lon="8.3790367"><ele>462.20000000000005</ele><time>2026-04-06T09:55:02.109Z</time></trkpt><trkpt lat="45.6877833" lon="8.3791017"><ele>461.0</ele><time>2026-04-06T09:55:03.109Z</time></trkpt><trkpt lat="45.68783" lon="8.3792017"><ele>464.0</ele><time>2026-04-06T09:55:04.109Z</time></trkpt><trkpt lat="45.6878583" lon="8.3794567"><ele>467.0</ele><time>2026-04-06T09:55:06.11Z</time></trkpt><trkpt lat="45.6878517" lon="8.3796017"><ele>470.0</ele><time>2026-04-06T09:55:07.109Z</time></trkpt><trkpt lat="45.6878467" lon="8.379755"><ele>473.0</ele><time>2026-04-06T09:55:08.11Z</time></trkpt><trkpt lat="45.6878367" lon="8.3799083"><ele>473.0</ele><time>2026-04-06T09:55:09.11Z</time></trkpt><trkpt lat="45.6878317" lon="8.3800533"><ele>472.99999999999994</ele><time>2026-04-06T09:55:10.11Z</time></trkpt><trkpt lat="45.6878167" lon="8.3802033"><ele>472.99999999999994</ele><time>2026-04-06T09:55:11.109Z</time></trkpt><trkpt lat="45.6877883" lon="8.3803633"><ele>473.0</ele><time>2026-04-06T09:55:12.109Z</time></trkpt><trkpt lat="45.6877533" lon="8.380525"><ele>473.0</ele><time>2026-04-06T09:55:13.109Z</time></trkpt><trkpt lat="45.6877033" lon="8.3806883"><ele>471.5</ele><time>2026-04-06T09:55:14.11Z</time></trkpt><trkpt lat="45.6876617" lon="8.38085"><ele>470.0</ele><time>2026-04-06T09:55:15.11Z</time></trkpt><trkpt lat="45.6876317" lon="8.3810133"><ele>468.5</ele><time>2026-04-06T09:55:16.11Z</time></trkpt><trkpt lat="45.68761" lon="8.3811717"><ele>467.0</ele><time>2026-04-06T09:55:17.109Z</time></trkpt><trkpt lat="45.6876117" lon="8.3813317"><ele>465.6</ele><time>2026-04-06T09:55:18.11Z</time></trkpt><trkpt lat="45.68763" lon="8.3814867"><ele>464.20000000000005</ele><time>2026-04-06T09:55:19.11Z</time></trkpt><trkpt lat="45.6876667" lon="8.3816367"><ele>462.8</ele><time>2026-04-06T09:55:20.11Z</time></trkpt><trkpt lat="45.6877283" lon="8.3817833"><ele>461.4</ele><time>2026-04-06T09:55:21.11Z</time></trkpt><trkpt lat="45.6878033" lon="8.381895"><ele>460.0</ele><time>2026-04-06T09:55:22.11Z</time></trkpt><trkpt lat="45.6878933" lon="8.3819617"><ele>458.6</ele><time>2026-04-06T09:55:23.11Z</time></trkpt><trkpt lat="45.6879817" lon="8.3819833"><ele>457.2</ele><time>2026-04-06T09:55:24.11Z</time></trkpt><trkpt lat="45.6880667" lon="8.381945"><ele>455.79999999999995</ele><time>2026-04-06T09:55:25.11Z</time></trkpt><trkpt lat="45.6881567" lon="8.3818383"><ele>454.4</ele><time>2026-04-06T09:55:26.11Z</time></trkpt><trkpt lat="45.688235" lon="8.3817133"><ele>453.0</ele><time>2026-04-06T09:55:27.11Z</time></trkpt><trkpt lat="45.6883033" lon="8.3815867"><ele>453.0</ele><time>2026-04-06T09:55:28.109Z</time></trkpt><trkpt lat="45.6883833" lon="8.3814633"><ele>452.99999999999994</ele><time>2026-04-06T09:55:29.11Z</time></trkpt><trkpt lat="45.6884667" lon="8.38137"><ele>452.99999999999994</ele><time>2026-04-06T09:55:30.109Z</time></trkpt><trkpt lat="45.6885517" lon="8.3813117"><ele>453.0</ele><time>2026-04-06T09:55:31.11Z</time></trkpt><trkpt lat="45.688635" lon="8.3812783"><ele>453.0</ele><time>2026-04-06T09:55:32.11Z</time></trkpt><trkpt lat="45.6887217" lon="8.38135"><ele>452.66666666666663</ele><time>2026-04-06T09:55:33.11Z</time></trkpt><trkpt lat="45.6888" lon="8.38149"><ele>452.3333333333333</ele><time>2026-04-06T09:55:34.11Z</time></trkpt><trkpt lat="45.6889217" lon="8.3818133"><ele>452.0</ele><time>2026-04-06T09:55:36.11Z</time></trkpt><trkpt lat="45.6889533" lon="8.3819633"><ele>452.0</ele><time>2026-04-06T09:55:37.11Z</time></trkpt><trkpt lat="45.6889517" lon="8.3821067"><ele>452.00000000000006</ele><time>2026-04-06T09:55:38.11Z</time></trkpt><trkpt lat="45.6889083" lon="8.3822433"><ele>452.00000000000006</ele><time>2026-04-06T09:55:39.11Z</time></trkpt><trkpt lat="45.6888317" lon="8.38237"><ele>452.0</ele><time>2026-04-06T09:55:40.11Z</time></trkpt><trkpt lat="45.688755" lon="8.382505"><ele>452.0</ele><time>2026-04-06T09:55:41.11Z</time></trkpt><trkpt lat="45.688665" lon="8.3826483"><ele>450.5</ele><time>2026-04-06T09:55:42.11Z</time></trkpt><trkpt lat="45.68857" lon="8.3828067"><ele>449.0</ele><time>2026-04-06T09:55:43.11Z</time></trkpt><trkpt lat="45.688485" lon="8.38297"><ele>447.5</ele><time>2026-04-06T09:55:44.109Z</time></trkpt><trkpt lat="45.6883967" lon="8.3831217"><ele>446.0</ele><time>2026-04-06T09:55:45.11Z</time></trkpt><trkpt lat="45.6883067" lon="8.3832717"><ele>445.75</ele><time>2026-04-06T09:55:46.11Z</time></trkpt><trkpt lat="45.6882217" lon="8.3834067"><ele>445.5</ele><time>2026-04-06T09:55:47.11Z</time></trkpt><trkpt lat="45.688135" lon="8.3835383"><ele>445.25</ele><time>2026-04-06T09:55:48.11Z</time></trkpt><trkpt lat="45.6880467" lon="8.38369"><ele>445.0</ele><time>2026-04-06T09:55:49.11Z</time></trkpt><trkpt lat="45.68797" lon="8.38383"><ele>445.25</ele><time>2026-04-06T09:55:50.11Z</time></trkpt><trkpt lat="45.6879033" lon="8.3839917"><ele>445.5</ele><time>2026-04-06T09:55:51.11Z</time></trkpt><trkpt lat="45.6878583" lon="8.384155"><ele>445.75</ele><time>2026-04-06T09:55:52.11Z</time></trkpt><trkpt lat="45.687815" lon="8.3843233"><ele>446.0</ele><time>2026-04-06T09:55:53.11Z</time></trkpt><trkpt lat="45.6877767" lon="8.3845017"><ele>442.0</ele><time>2026-04-06T09:55:54.109Z</time></trkpt><trkpt lat="45.6877367" lon="8.3846883"><ele>438.0</ele><time>2026-04-06T09:55:55.109Z</time></trkpt><trkpt lat="45.6877" lon="8.3848783"><ele>434.0</ele><time>2026-04-06T09:55:56.11Z</time></trkpt><trkpt lat="45.6876617" lon="8.3850683"><ele>430.0</ele><time>2026-04-06T09:55:57.11Z</time></trkpt><trkpt lat="45.6876233" lon="8.385265"><ele>430.0</ele><time>2026-04-06T09:55:58.11Z</time></trkpt><trkpt lat="45.6875833" lon="8.3854633"><ele>430.0</ele><time>2026-04-06T09:55:59.11Z</time></trkpt><trkpt lat="45.6875467" lon="8.38566"><ele>430.0</ele><time>2026-04-06T09:56:00.11Z</time></trkpt><trkpt lat="45.687515" lon="8.3858533"><ele>430.0</ele><time>2026-04-06T09:56:01.11Z</time></trkpt><trkpt lat="45.6874833" lon="8.3860417"><ele>428.75</ele><time>2026-04-06T09:56:02.11Z</time></trkpt><trkpt lat="45.6874583" lon="8.38623"><ele>427.5</ele><time>2026-04-06T09:56:03.11Z</time></trkpt><trkpt lat="45.6874267" lon="8.3864217"><ele>426.25</ele><time>2026-04-06T09:56:04.11Z</time></trkpt><trkpt lat="45.6873933" lon="8.386615"><ele>425.0</ele><time>2026-04-06T09:56:05.109Z</time></trkpt><trkpt lat="45.6873217" lon="8.38699"><ele>425.0</ele><time>2026-04-06T09:56:07.109Z</time></trkpt><trkpt lat="45.68729" lon="8.38717"><ele>425.0</ele><time>2026-04-06T09:56:08.11Z</time></trkpt><trkpt lat="45.6872717" lon="8.3873433"><ele>425.0</ele><time>2026-04-06T09:56:09.11Z</time></trkpt><trkpt lat="45.6872567" lon="8.387535"><ele>425.0</ele><time>2026-04-06T09:56:10.11Z</time></trkpt><trkpt lat="45.6872667" lon="8.3877183"><ele>424.0</ele><time>2026-04-06T09:56:11.11Z</time></trkpt><trkpt lat="45.6872767" lon="8.3879083"><ele>423.0</ele><time>2026-04-06T09:56:12.11Z</time></trkpt><trkpt lat="45.687295" lon="8.3880783"><ele>422.0</ele><time>2026-04-06T09:56:13.109Z</time></trkpt><trkpt lat="45.6873217" lon="8.3882467"><ele>421.0</ele><time>2026-04-06T09:56:14.11Z</time></trkpt><trkpt lat="45.6873383" lon="8.3884133"><ele>419.4</ele><time>2026-04-06T09:56:15.11Z</time></trkpt><trkpt lat="45.6873317" lon="8.38857"><ele>417.8</ele><time>2026-04-06T09:56:16.11Z</time></trkpt><trkpt lat="45.687315" lon="8.3887033"><ele>416.2</ele><time>2026-04-06T09:56:17.11Z</time></trkpt><trkpt lat="45.6872833" lon="8.38883"><ele>414.59999999999997</ele><time>2026-04-06T09:56:18.11Z</time></trkpt><trkpt lat="45.6872167" lon="8.3889367"><ele>413.0</ele><time>2026-04-06T09:56:19.11Z</time></trkpt><trkpt lat="45.68714" lon="8.3890383"><ele>412.75</ele><time>2026-04-06T09:56:20.109Z</time></trkpt><trkpt lat="45.687065" lon="8.3891433"><ele>412.5</ele><time>2026-04-06T09:56:21.11Z</time></trkpt><trkpt lat="45.686995" lon="8.3892517"><ele>412.25</ele><time>2026-04-06T09:56:22.11Z</time></trkpt><trkpt lat="45.6868717" lon="8.3894417"><ele>412.0</ele><time>2026-04-06T09:56:24.109Z</time></trkpt><trkpt lat="45.6868017" lon="8.389525"><ele>411.40000000000003</ele><time>2026-04-06T09:56:25.109Z</time></trkpt><trkpt lat="45.6866967" lon="8.3896983"><ele>410.8</ele><time>2026-04-06T09:56:27.11Z</time></trkpt><trkpt lat="45.6866517" lon="8.3897983"><ele>410.2</ele><time>2026-04-06T09:56:28.11Z</time></trkpt><trkpt lat="45.6866333" lon="8.3899233"><ele>409.6</ele><time>2026-04-06T09:56:29.11Z</time></trkpt><trkpt lat="45.686625" lon="8.3900367"><ele>409.0</ele><time>2026-04-06T09:56:30.11Z</time></trkpt><trkpt lat="45.6866133" lon="8.390155"><ele>409.0</ele><time>2026-04-06T09:56:31.11Z</time></trkpt><trkpt lat="45.6866067" lon="8.3902817"><ele>409.0</ele><time>2026-04-06T09:56:32.11Z</time></trkpt><trkpt lat="45.6866217" lon="8.3904533"><ele>409.0</ele><time>2026-04-06T09:56:33.11Z</time></trkpt><trkpt lat="45.6866367" lon="8.3906033"><ele>409.0</ele><time>2026-04-06T09:56:34.11Z</time></trkpt><trkpt lat="45.686655" lon="8.390755"><ele>409.0</ele><time>2026-04-06T09:56:35.11Z</time></trkpt><trkpt lat="45.686665" lon="8.3909067"><ele>409.4</ele><time>2026-04-06T09:56:36.11Z</time></trkpt><trkpt lat="45.6866683" lon="8.3910567"><ele>409.79999999999995</ele><time>2026-04-06T09:56:37.11Z</time></trkpt><trkpt lat="45.686675" lon="8.3912083"><ele>410.20000000000005</ele><time>2026-04-06T09:56:38.109Z</time></trkpt><trkpt lat="45.6866867" lon="8.3913567"><ele>410.6</ele><time>2026-04-06T09:56:39.109Z</time></trkpt><trkpt lat="45.68669" lon="8.3915017"><ele>411.0</ele><time>2026-04-06T09:56:40.109Z</time></trkpt><trkpt lat="45.6866983" lon="8.3916583"><ele>409.75</ele><time>2026-04-06T09:56:41.109Z</time></trkpt><trkpt lat="45.686725" lon="8.391815"><ele>408.5</ele><time>2026-04-06T09:56:42.109Z</time></trkpt><trkpt lat="45.6867383" lon="8.391985"><ele>407.25</ele><time>2026-04-06T09:56:43.109Z</time></trkpt><trkpt lat="45.6867333" lon="8.3921617"><ele>406.0</ele><time>2026-04-06T09:56:44.108Z</time></trkpt><trkpt lat="45.6867283" lon="8.39232"><ele>404.20000000000005</ele><time>2026-04-06T09:56:45.108Z</time></trkpt><trkpt lat="45.686715" lon="8.3924783"><ele>402.40000000000003</ele><time>2026-04-06T09:56:46.109Z</time></trkpt><trkpt lat="45.68669" lon="8.3926183"><ele>400.6</ele><time>2026-04-06T09:56:47.109Z</time></trkpt><trkpt lat="45.6866667" lon="8.3927683"><ele>398.8</ele><time>2026-04-06T09:56:48.109Z</time></trkpt><trkpt lat="45.68664" lon="8.392905"><ele>397.0</ele><time>2026-04-06T09:56:49.109Z</time></trkpt><trkpt lat="45.6866233" lon="8.3930317"><ele>396.85714285714283</ele><time>2026-04-06T09:56:50.109Z</time></trkpt><trkpt lat="45.6866117" lon="8.393145"><ele>396.71428571428567</ele><time>2026-04-06T09:56:51.109Z</time></trkpt><trkpt lat="45.6866" lon="8.3932533"><ele>396.57142857142856</ele><time>2026-04-06T09:56:52.109Z</time></trkpt><trkpt lat="45.6865933" lon="8.393345"><ele>396.42857142857144</ele><time>2026-04-06T09:56:53.109Z</time></trkpt><trkpt lat="45.6865867" lon="8.39347"><ele>396.2857142857143</ele><time>2026-04-06T09:56:55.109Z</time></trkpt><trkpt lat="45.686575" lon="8.3935617"><ele>396.14285714285717</ele><time>2026-04-06T09:56:57.109Z</time></trkpt><trkpt lat="45.6865767" lon="8.3936633"><ele>396.0</ele><time>2026-04-06T09:57:00.108Z</time></trkpt><trkpt lat="45.686505" lon="8.3937633"><ele>395.66666666666663</ele><time>2026-04-06T10:01:51.108Z</time></trkpt><trkpt lat="45.6862633" lon="8.3940733"><ele>395.3333333333333</ele><time>2026-04-06T10:01:55.108Z</time></trkpt><trkpt lat="45.686165" lon="8.394175"><ele>395.0</ele><time>2026-04-06T10:01:56.108Z</time></trkpt><trkpt lat="45.6859567" lon="8.39442"><ele>394.75</ele><time>2026-04-06T10:01:58.108Z</time></trkpt><trkpt lat="45.6858583" lon="8.394545"><ele>394.5</ele><time>2026-04-06T10:01:59.108Z</time></trkpt><trkpt lat="45.68576" lon="8.394665"><ele>394.25</ele><time>2026-04-06T10:02:00.108Z</time></trkpt><trkpt lat="45.6856583" lon="8.39478"><ele>394.0</ele><time>2026-04-06T10:02:01.108Z</time></trkpt><trkpt lat="45.6855567" lon="8.3948917"><ele>394.25</ele><time>2026-04-06T10:02:02.108Z</time></trkpt><trkpt lat="45.6854567" lon="8.395005"><ele>394.5</ele><time>2026-04-06T10:02:03.108Z</time></trkpt><trkpt lat="45.6853717" lon="8.3951283"><ele>394.75</ele><time>2026-04-06T10:02:04.108Z</time></trkpt><trkpt lat="45.68528" lon="8.39524"><ele>395.0</ele><time>2026-04-06T10:02:05.108Z</time></trkpt><trkpt lat="45.6851967" lon="8.395355"><ele>395.0</ele><time>2026-04-06T10:02:06.108Z</time></trkpt><trkpt lat="45.685105" lon="8.3954667"><ele>395.0</ele><time>2026-04-06T10:02:07.107Z</time></trkpt><trkpt lat="45.68501" lon="8.3955867"><ele>395.0</ele><time>2026-04-06T10:02:08.107Z</time></trkpt><trkpt lat="45.6849017" lon="8.3956983"><ele>395.0</ele><time>2026-04-06T10:02:09.108Z</time></trkpt><trkpt lat="45.6847783" lon="8.3958283"><ele>395.5</ele><time>2026-04-06T10:02:10.108Z</time></trkpt><trkpt lat="45.6846683" lon="8.3959567"><ele>396.0</ele><time>2026-04-06T10:02:11.108Z</time></trkpt><trkpt lat="45.6845567" lon="8.39607"><ele>396.5</ele><time>2026-04-06T10:02:12.108Z</time></trkpt><trkpt lat="45.6844467" lon="8.3962083"><ele>397.0</ele><time>2026-04-06T10:02:13.108Z</time></trkpt><trkpt lat="45.68436" lon="8.396335"><ele>395.8</ele><time>2026-04-06T10:02:14.108Z</time></trkpt><trkpt lat="45.6842733" lon="8.3964533"><ele>394.6</ele><time>2026-04-06T10:02:15.108Z</time></trkpt><trkpt lat="45.6841917" lon="8.3965633"><ele>393.40000000000003</ele><time>2026-04-06T10:02:16.108Z</time></trkpt><trkpt lat="45.6841183" lon="8.3966833"><ele>392.20000000000005</ele><time>2026-04-06T10:02:17.107Z</time></trkpt><trkpt lat="45.6840583" lon="8.3968083"><ele>391.0</ele><time>2026-04-06T10:02:18.107Z</time></trkpt><trkpt lat="45.6840033" lon="8.3969433"><ele>391.0</ele><time>2026-04-06T10:02:19.108Z</time></trkpt><trkpt lat="45.6839633" lon="8.3970917"><ele>391.0</ele><time>2026-04-06T10:02:20.108Z</time></trkpt><trkpt lat="45.6839333" lon="8.3972767"><ele>391.0</ele><time>2026-04-06T10:02:21.107Z</time></trkpt><trkpt lat="45.6839117" lon="8.3975133"><ele>391.0</ele><time>2026-04-06T10:02:22.108Z</time></trkpt><trkpt lat="45.6838733" lon="8.3977733"><ele>389.33333333333337</ele><time>2026-04-06T10:02:23.108Z</time></trkpt><trkpt lat="45.68385" lon="8.39803"><ele>387.66666666666663</ele><time>2026-04-06T10:02:24.108Z</time></trkpt><trkpt lat="45.6838167" lon="8.3982983"><ele>386.0</ele><time>2026-04-06T10:02:25.107Z</time></trkpt><trkpt lat="45.6837917" lon="8.3985783"><ele>385.0</ele><time>2026-04-06T10:02:26.108Z</time></trkpt><trkpt lat="45.68377" lon="8.39886"><ele>384.0</ele><time>2026-04-06T10:02:27.108Z</time></trkpt><trkpt lat="45.683745" lon="8.399135"><ele>383.0</ele><time>2026-04-06T10:02:28.108Z</time></trkpt><trkpt lat="45.6837117" lon="8.399405"><ele>383.0</ele><time>2026-04-06T10:02:29.108Z</time></trkpt><trkpt lat="45.6836717" lon="8.3996633"><ele>383.0</ele><time>2026-04-06T10:02:30.108Z</time></trkpt><trkpt lat="45.6835317" lon="8.4001733"><ele>383.6666666666667</ele><time>2026-04-06T10:02:32.107Z</time></trkpt><trkpt lat="45.683435" lon="8.400415"><ele>384.33333333333337</ele><time>2026-04-06T10:02:33.108Z</time></trkpt><trkpt lat="45.6833217" lon="8.4006583"><ele>385.0</ele><time>2026-04-06T10:02:34.108Z</time></trkpt><trkpt lat="45.68304" lon="8.40117"><ele>386.0</ele><time>2026-04-06T10:02:36.108Z</time></trkpt><trkpt lat="45.6827633" lon="8.4016967"><ele>386.0</ele><time>2026-04-06T10:02:38.108Z</time></trkpt><trkpt lat="45.6826183" lon="8.4019567"><ele>386.0</ele><time>2026-04-06T10:02:39.108Z</time></trkpt><trkpt lat="45.682485" lon="8.4022167"><ele>384.66666666666663</ele><time>2026-04-06T10:02:40.108Z</time></trkpt><trkpt lat="45.682355" lon="8.4024433"><ele>383.3333333333333</ele><time>2026-04-06T10:02:41.107Z</time></trkpt><trkpt lat="45.682225" lon="8.4026717"><ele>382.0</ele><time>2026-04-06T10:02:42.107Z</time></trkpt><trkpt lat="45.6820933" lon="8.4028833"><ele>382.0</ele><time>2026-04-06T10:02:43.108Z</time></trkpt><trkpt lat="45.68195" lon="8.40308"><ele>382.0</ele><time>2026-04-06T10:02:44.108Z</time></trkpt><trkpt lat="45.6817783" lon="8.4032433"><ele>382.0</ele><time>2026-04-06T10:02:45.108Z</time></trkpt><trkpt lat="45.6815933" lon="8.403395"><ele>383.3333333333333</ele><time>2026-04-06T10:02:46.108Z</time></trkpt><trkpt lat="45.681405" lon="8.4035483"><ele>384.66666666666663</ele><time>2026-04-06T10:02:47.108Z</time></trkpt><trkpt lat="45.6812233" lon="8.4037067"><ele>386.0</ele><time>2026-04-06T10:02:48.108Z</time></trkpt><trkpt lat="45.6810683" lon="8.4038683"><ele>387.0</ele><time>2026-04-06T10:02:49.107Z</time></trkpt><trkpt lat="45.6809017" lon="8.4040083"><ele>388.0</ele><time>2026-04-06T10:02:50.108Z</time></trkpt><trkpt lat="45.680595" lon="8.4042967"><ele>388.0</ele><time>2026-04-06T10:02:52.108Z</time></trkpt><trkpt lat="45.6802833" lon="8.4045467"><ele>388.0</ele><time>2026-04-06T10:02:54.108Z</time></trkpt><trkpt lat="45.680145" lon="8.40468"><ele>389.33333333333337</ele><time>2026-04-06T10:02:55.108Z</time></trkpt><trkpt lat="45.6800067" lon="8.4048283"><ele>390.66666666666663</ele><time>2026-04-06T10:02:56.108Z</time></trkpt><trkpt lat="45.679875" lon="8.4049717"><ele>392.0</ele><time>2026-04-06T10:02:57.108Z</time></trkpt><trkpt lat="45.67979" lon="8.4051483"><ele>392.0</ele><time>2026-04-06T10:02:58.108Z</time></trkpt><trkpt lat="45.67972" lon="8.405345"><ele>392.0</ele><time>2026-04-06T10:02:59.107Z</time></trkpt><trkpt lat="45.67966" lon="8.40556"><ele>392.0</ele><time>2026-04-06T10:03:00.108Z</time></trkpt><trkpt lat="45.679595" lon="8.40576"><ele>391.75</ele><time>2026-04-06T10:03:01.108Z</time></trkpt><trkpt lat="45.6795333" lon="8.4059483"><ele>391.5</ele><time>2026-04-06T10:03:02.108Z</time></trkpt><trkpt lat="45.6794717" lon="8.4061183"><ele>391.25</ele><time>2026-04-06T10:03:03.108Z</time></trkpt><trkpt lat="45.679425" lon="8.406315"><ele>391.0</ele><time>2026-04-06T10:03:04.108Z</time></trkpt><trkpt lat="45.6794033" lon="8.406505"><ele>391.0</ele><time>2026-04-06T10:03:05.108Z</time></trkpt><trkpt lat="45.6793683" lon="8.4066817"><ele>391.0</ele><time>2026-04-06T10:03:06.108Z</time></trkpt><trkpt lat="45.6793317" lon="8.4068433"><ele>391.0</ele><time>2026-04-06T10:03:07.108Z</time></trkpt><trkpt lat="45.6793017" lon="8.4070033"><ele>391.0</ele><time>2026-04-06T10:03:08.108Z</time></trkpt><trkpt lat="45.6792817" lon="8.4072133"><ele>391.0</ele><time>2026-04-06T10:03:10.108Z</time></trkpt><trkpt lat="45.679315" lon="8.4073583"><ele>391.0</ele><time>2026-04-06T10:03:12.108Z</time></trkpt><trkpt lat="45.6793867" lon="8.4073583"><ele>391.0</ele><time>2026-04-06T10:03:13.108Z</time></trkpt><trkpt lat="45.679475" lon="8.40732"><ele>391.0</ele><time>2026-04-06T10:03:14.108Z</time></trkpt><trkpt lat="45.6795783" lon="8.407265"><ele>391.0</ele><time>2026-04-06T10:03:15.108Z</time></trkpt><trkpt lat="45.6797017" lon="8.4071983"><ele>388.0</ele><time>2026-04-06T10:03:16.108Z</time></trkpt><trkpt lat="45.68001" lon="8.4071283"><ele>385.0</ele><time>2026-04-06T10:03:18.107Z</time></trkpt><trkpt lat="45.680175" lon="8.4071433"><ele>382.0</ele><time>2026-04-06T10:03:19.108Z</time></trkpt><trkpt lat="45.6803367" lon="8.407165"><ele>379.0</ele><time>2026-04-06T10:03:20.108Z</time></trkpt><trkpt lat="45.6804833" lon="8.407225"><ele>376.0</ele><time>2026-04-06T10:03:21.108Z</time></trkpt><trkpt lat="45.6806233" lon="8.4073267"><ele>376.0</ele><time>2026-04-06T10:03:22.108Z</time></trkpt><trkpt lat="45.6807583" lon="8.4074567"><ele>376.0</ele><time>2026-04-06T10:03:23.108Z</time></trkpt><trkpt lat="45.6808717" lon="8.4075833"><ele>376.0</ele><time>2026-04-06T10:03:24.107Z</time></trkpt><trkpt lat="45.68096" lon="8.4077583"><ele>376.0</ele><time>2026-04-06T10:03:25.108Z</time></trkpt><trkpt lat="45.6810517" lon="8.40795"><ele>376.0</ele><time>2026-04-06T10:03:26.108Z</time></trkpt><trkpt lat="45.681145" lon="8.4081367"><ele>376.0</ele><time>2026-04-06T10:03:27.108Z</time></trkpt><trkpt lat="45.6812367" lon="8.4083317"><ele>371.5</ele><time>2026-04-06T10:03:28.108Z</time></trkpt><trkpt lat="45.68143" lon="8.408735"><ele>367.0</ele><time>2026-04-06T10:03:30.108Z</time></trkpt><trkpt lat="45.6815333" lon="8.4089233"><ele>366.66666666666663</ele><time>2026-04-06T10:03:31.108Z</time></trkpt><trkpt lat="45.681635" lon="8.40912"><ele>366.3333333333333</ele><time>2026-04-06T10:03:32.108Z</time></trkpt><trkpt lat="45.68173" lon="8.4093117"><ele>366.0</ele><time>2026-04-06T10:03:33.108Z</time></trkpt><trkpt lat="45.6818217" lon="8.4094983"><ele>365.6666666666667</ele><time>2026-04-06T10:03:34.108Z</time></trkpt><trkpt lat="45.6819133" lon="8.409695"><ele>365.33333333333337</ele><time>2026-04-06T10:03:35.108Z</time></trkpt><trkpt lat="45.682005" lon="8.409895"><ele>365.0</ele><time>2026-04-06T10:03:36.108Z</time></trkpt><trkpt lat="45.682105" lon="8.41009"><ele>365.0</ele><time>2026-04-06T10:03:37.107Z</time></trkpt><trkpt lat="45.6822017" lon="8.4102733"><ele>365.0</ele><time>2026-04-06T10:03:38.107Z</time></trkpt><trkpt lat="45.682295" lon="8.4104517"><ele>365.0</ele><time>2026-04-06T10:03:39.107Z</time></trkpt><trkpt lat="45.6823917" lon="8.41063"><ele>365.0</ele><time>2026-04-06T10:03:40.108Z</time></trkpt><trkpt lat="45.6824933" lon="8.4107833"><ele>365.0</ele><time>2026-04-06T10:03:41.108Z</time></trkpt><trkpt lat="45.6826033" lon="8.4109233"><ele>365.0</ele><time>2026-04-06T10:03:42.107Z</time></trkpt><trkpt lat="45.682715" lon="8.41104"><ele>365.0</ele><time>2026-04-06T10:03:43.108Z</time></trkpt><trkpt lat="45.6828433" lon="8.411145"><ele>365.33333333333337</ele><time>2026-04-06T10:03:44.108Z</time></trkpt><trkpt lat="45.68297" lon="8.411265"><ele>365.6666666666667</ele><time>2026-04-06T10:03:45.108Z</time></trkpt><trkpt lat="45.68311" lon="8.4113667"><ele>366.0</ele><time>2026-04-06T10:03:46.108Z</time></trkpt><trkpt lat="45.6832483" lon="8.4114433"><ele>366.75</ele><time>2026-04-06T10:03:47.108Z</time></trkpt><trkpt lat="45.6833867" lon="8.411545"><ele>367.5</ele><time>2026-04-06T10:03:48.108Z</time></trkpt><trkpt lat="45.6835217" lon="8.4116133"><ele>368.25</ele><time>2026-04-06T10:03:49.108Z</time></trkpt><trkpt lat="45.6836483" lon="8.4117"><ele>369.0</ele><time>2026-04-06T10:03:50.108Z</time></trkpt><trkpt lat="45.683895" lon="8.4118667"><ele>370.3333333333333</ele><time>2026-04-06T10:03:52.108Z</time></trkpt><trkpt lat="45.6841367" lon="8.4120367"><ele>371.66666666666663</ele><time>2026-04-06T10:03:54.108Z</time></trkpt><trkpt lat="45.6842567" lon="8.41213"><ele>373.0</ele><time>2026-04-06T10:03:55.107Z</time></trkpt><trkpt lat="45.6843867" lon="8.4122217"><ele>374.75</ele><time>2026-04-06T10:03:56.108Z</time></trkpt><trkpt lat="45.6845167" lon="8.4122967"><ele>376.5</ele><time>2026-04-06T10:03:57.108Z</time></trkpt><trkpt lat="45.6846383" lon="8.4123683"><ele>378.25</ele><time>2026-04-06T10:03:58.108Z</time></trkpt><trkpt lat="45.6847583" lon="8.4124417"><ele>380.0</ele><time>2026-04-06T10:03:59.108Z</time></trkpt><trkpt lat="45.6848717" lon="8.412515"><ele>380.0</ele><time>2026-04-06T10:04:00.108Z</time></trkpt><trkpt lat="45.6849767" lon="8.4125917"><ele>380.0</ele><time>2026-04-06T10:04:01.107Z</time></trkpt><trkpt lat="45.685075" lon="8.4126667"><ele>380.0</ele><time>2026-04-06T10:04:02.108Z</time></trkpt><trkpt lat="45.685165" lon="8.412735"><ele>380.0</ele><time>2026-04-06T10:04:03.108Z</time></trkpt><trkpt lat="45.685255" lon="8.4127917"><ele>380.0</ele><time>2026-04-06T10:04:04.108Z</time></trkpt><trkpt lat="45.6853467" lon="8.4128567"><ele>380.5</ele><time>2026-04-06T10:04:05.106Z</time></trkpt><trkpt lat="45.6854467" lon="8.412945"><ele>381.0</ele><time>2026-04-06T10:04:06.106Z</time></trkpt><trkpt lat="45.68554" lon="8.4130283"><ele>381.5</ele><time>2026-04-06T10:04:07.106Z</time></trkpt><trkpt lat="45.6856367" lon="8.4131133"><ele>382.0</ele><time>2026-04-06T10:04:08.107Z</time></trkpt><trkpt lat="45.6857517" lon="8.4131733"><ele>382.25</ele><time>2026-04-06T10:04:09.107Z</time></trkpt><trkpt lat="45.6858683" lon="8.41324"><ele>382.5</ele><time>2026-04-06T10:04:10.107Z</time></trkpt><trkpt lat="45.6859867" lon="8.4133183"><ele>382.75</ele><time>2026-04-06T10:04:11.107Z</time></trkpt><trkpt lat="45.6860983" lon="8.4134"><ele>383.0</ele><time>2026-04-06T10:04:12.107Z</time></trkpt><trkpt lat="45.686195" lon="8.4134817"><ele>383.0</ele><time>2026-04-06T10:04:13.107Z</time></trkpt><trkpt lat="45.6862833" lon="8.41359"><ele>383.0</ele><time>2026-04-06T10:04:14.107Z</time></trkpt><trkpt lat="45.6863633" lon="8.4136967"><ele>383.0</ele><time>2026-04-06T10:04:15.107Z</time></trkpt><trkpt lat="45.6864267" lon="8.4138433"><ele>383.0</ele><time>2026-04-06T10:04:16.107Z</time></trkpt><trkpt lat="45.6864517" lon="8.4140017"><ele>382.33333333333337</ele><time>2026-04-06T10:04:17.107Z</time></trkpt><trkpt lat="45.6864683" lon="8.4141817"><ele>381.6666666666667</ele><time>2026-04-06T10:04:18.107Z</time></trkpt><trkpt lat="45.6864683" lon="8.414585"><ele>381.0</ele><time>2026-04-06T10:04:20.107Z</time></trkpt><trkpt lat="45.6864517" lon="8.41481"><ele>378.6666666666667</ele><time>2026-04-06T10:04:21.107Z</time></trkpt><trkpt lat="45.6864383" lon="8.41503"><ele>376.33333333333337</ele><time>2026-04-06T10:04:22.107Z</time></trkpt><trkpt lat="45.6864217" lon="8.4152583"><ele>374.0</ele><time>2026-04-06T10:04:23.106Z</time></trkpt><trkpt lat="45.68641" lon="8.4154883"><ele>372.0</ele><time>2026-04-06T10:04:24.107Z</time></trkpt><trkpt lat="45.686405" lon="8.4157333"><ele>370.0</ele><time>2026-04-06T10:04:25.107Z</time></trkpt><trkpt lat="45.6863933" lon="8.4159633"><ele>368.0</ele><time>2026-04-06T10:04:26.107Z</time></trkpt><trkpt lat="45.6863817" lon="8.416195"><ele>367.6666666666667</ele><time>2026-04-06T10:04:27.107Z</time></trkpt><trkpt lat="45.68637" lon="8.4164267"><ele>367.3333333333333</ele><time>2026-04-06T10:04:28.107Z</time></trkpt><trkpt lat="45.6863867" lon="8.4166383"><ele>367.0</ele><time>2026-04-06T10:04:29.107Z</time></trkpt><trkpt lat="45.686385" lon="8.41684"><ele>368.3333333333333</ele><time>2026-04-06T10:04:30.107Z</time></trkpt><trkpt lat="45.68636" lon="8.4172567"><ele>369.6666666666667</ele><time>2026-04-06T10:04:32.107Z</time></trkpt><trkpt lat="45.68636" lon="8.4174417"><ele>371.0</ele><time>2026-04-06T10:04:33.107Z</time></trkpt><trkpt lat="45.6863533" lon="8.4176267"><ele>371.0</ele><time>2026-04-06T10:04:34.107Z</time></trkpt><trkpt lat="45.6863417" lon="8.417825"><ele>371.0</ele><time>2026-04-06T10:04:35.106Z</time></trkpt><trkpt lat="45.6863417" lon="8.4180183"><ele>371.0</ele><time>2026-04-06T10:04:36.107Z</time></trkpt><trkpt lat="45.6863483" lon="8.4182117"><ele>371.0</ele><time>2026-04-06T10:04:37.106Z</time></trkpt><trkpt lat="45.68634" lon="8.4184"><ele>371.75</ele><time>2026-04-06T10:04:38.106Z</time></trkpt><trkpt lat="45.6863217" lon="8.418585"><ele>372.5</ele><time>2026-04-06T10:04:39.106Z</time></trkpt><trkpt lat="45.6863183" lon="8.41878"><ele>373.25</ele><time>2026-04-06T10:04:40.107Z</time></trkpt><trkpt lat="45.6863117" lon="8.418975"><ele>374.0</ele><time>2026-04-06T10:04:41.107Z</time></trkpt><trkpt lat="45.6863067" lon="8.4191717"><ele>374.0</ele><time>2026-04-06T10:04:42.107Z</time></trkpt><trkpt lat="45.6863033" lon="8.4197967"><ele>374.0</ele><time>2026-04-06T10:04:45.107Z</time></trkpt><trkpt lat="45.6863083" lon="8.4200017"><ele>374.0</ele><time>2026-04-06T10:04:46.107Z</time></trkpt><trkpt lat="45.68631" lon="8.420195"><ele>374.0</ele><time>2026-04-06T10:04:47.107Z</time></trkpt><trkpt lat="45.68632" lon="8.4203917"><ele>374.0</ele><time>2026-04-06T10:04:48.107Z</time></trkpt><trkpt lat="45.686335" lon="8.420755"><ele>374.25</ele><time>2026-04-06T10:04:50.107Z</time></trkpt><trkpt lat="45.68636" lon="8.4209533"><ele>374.5</ele><time>2026-04-06T10:04:51.106Z</time></trkpt><trkpt lat="45.686375" lon="8.42115"><ele>374.75</ele><time>2026-04-06T10:04:52.107Z</time></trkpt><trkpt lat="45.6864033" lon="8.4213383"><ele>375.0</ele><time>2026-04-06T10:04:53.107Z</time></trkpt><trkpt lat="45.6864233" lon="8.4215267"><ele>375.0</ele><time>2026-04-06T10:04:54.107Z</time></trkpt><trkpt lat="45.686455" lon="8.4216983"><ele>375.0</ele><time>2026-04-06T10:04:55.107Z</time></trkpt><trkpt lat="45.6864883" lon="8.4218833"><ele>375.0</ele><time>2026-04-06T10:04:56.107Z</time></trkpt><trkpt lat="45.6865083" lon="8.42207"><ele>375.0</ele><time>2026-04-06T10:04:57.106Z</time></trkpt><trkpt lat="45.6865283" lon="8.4222683"><ele>374.75</ele><time>2026-04-06T10:04:58.107Z</time></trkpt><trkpt lat="45.6865517" lon="8.4224533"><ele>374.5</ele><time>2026-04-06T10:04:59.107Z</time></trkpt><trkpt lat="45.686585" lon="8.4226367"><ele>374.25</ele><time>2026-04-06T10:05:00.107Z</time></trkpt><trkpt lat="45.686595" lon="8.4228117"><ele>374.0</ele><time>2026-04-06T10:05:01.107Z</time></trkpt><trkpt lat="45.6866133" lon="8.4229717"><ele>374.0</ele><time>2026-04-06T10:05:02.107Z</time></trkpt><trkpt lat="45.6866367" lon="8.4231317"><ele>374.0</ele><time>2026-04-06T10:05:03.107Z</time></trkpt><trkpt lat="45.6866567" lon="8.4232983"><ele>374.0</ele><time>2026-04-06T10:05:04.106Z</time></trkpt><trkpt lat="45.68668" lon="8.4234733"><ele>374.0</ele><time>2026-04-06T10:05:05.107Z</time></trkpt><trkpt lat="45.6867033" lon="8.4236383"><ele>374.0</ele><time>2026-04-06T10:05:06.106Z</time></trkpt><trkpt lat="45.6867267" lon="8.423815"><ele>374.0</ele><time>2026-04-06T10:05:07.107Z</time></trkpt><trkpt lat="45.68675" lon="8.4239817"><ele>374.0</ele><time>2026-04-06T10:05:08.107Z</time></trkpt><trkpt lat="45.686765" lon="8.4241767"><ele>374.0</ele><time>2026-04-06T10:05:09.107Z</time></trkpt><trkpt lat="45.68678" lon="8.4243383"><ele>374.0</ele><time>2026-04-06T10:05:10.107Z</time></trkpt><trkpt lat="45.6868033" lon="8.4245117"><ele>374.0</ele><time>2026-04-06T10:05:11.106Z</time></trkpt><trkpt lat="45.686835" lon="8.424685"><ele>374.0</ele><time>2026-04-06T10:05:12.107Z</time></trkpt><trkpt lat="45.6868517" lon="8.424865"><ele>374.0</ele><time>2026-04-06T10:05:13.107Z</time></trkpt><trkpt lat="45.6868733" lon="8.4250267"><ele>374.5</ele><time>2026-04-06T10:05:14.107Z</time></trkpt><trkpt lat="45.6869017" lon="8.42519"><ele>375.0</ele><time>2026-04-06T10:05:15.106Z</time></trkpt><trkpt lat="45.6869467" lon="8.4253717"><ele>375.5</ele><time>2026-04-06T10:05:16.107Z</time></trkpt><trkpt lat="45.6869983" lon="8.4255267"><ele>376.0</ele><time>2026-04-06T10:05:17.106Z</time></trkpt><trkpt lat="45.6870533" lon="8.42569"><ele>376.0</ele><time>2026-04-06T10:05:18.107Z</time></trkpt><trkpt lat="45.6871217" lon="8.42585"><ele>376.0</ele><time>2026-04-06T10:05:19.107Z</time></trkpt><trkpt lat="45.6871917" lon="8.426015"><ele>376.0</ele><time>2026-04-06T10:05:20.107Z</time></trkpt><trkpt lat="45.68726" lon="8.42618"><ele>376.0</ele><time>2026-04-06T10:05:21.107Z</time></trkpt><trkpt lat="45.6873183" lon="8.42635"><ele>375.75</ele><time>2026-04-06T10:05:22.107Z</time></trkpt><trkpt lat="45.6873783" lon="8.4264983"><ele>375.5</ele><time>2026-04-06T10:05:23.107Z</time></trkpt><trkpt lat="45.68743" lon="8.4266417"><ele>375.25</ele><time>2026-04-06T10:05:24.106Z</time></trkpt><trkpt lat="45.6874783" lon="8.4267883"><ele>375.0</ele><time>2026-04-06T10:05:25.107Z</time></trkpt><trkpt lat="45.6875267" lon="8.42692"><ele>375.0</ele><time>2026-04-06T10:05:26.107Z</time></trkpt><trkpt lat="45.6875767" lon="8.427035"><ele>375.0</ele><time>2026-04-06T10:05:27.107Z</time></trkpt><trkpt lat="45.6876283" lon="8.4271283"><ele>375.0</ele><time>2026-04-06T10:05:28.107Z</time></trkpt><trkpt lat="45.687665" lon="8.427205"><ele>375.0</ele><time>2026-04-06T10:05:29.106Z</time></trkpt><trkpt lat="45.68772" lon="8.4273133"><ele>375.0</ele><time>2026-04-06T10:05:31.107Z</time></trkpt><trkpt lat="45.6877633" lon="8.4274267"><ele>375.0</ele><time>2026-04-06T10:05:33.107Z</time></trkpt><trkpt lat="45.6878567" lon="8.42747"><ele>375.4</ele><time>2026-04-06T10:05:35.107Z</time></trkpt><trkpt lat="45.6879283" lon="8.427455"><ele>375.8</ele><time>2026-04-06T10:05:36.107Z</time></trkpt><trkpt lat="45.6880167" lon="8.4274017"><ele>376.20000000000005</ele><time>2026-04-06T10:05:37.107Z</time></trkpt><trkpt lat="45.6881117" lon="8.4273283"><ele>376.6</ele><time>2026-04-06T10:05:38.107Z</time></trkpt><trkpt lat="45.6882167" lon="8.4272483"><ele>377.0</ele><time>2026-04-06T10:05:39.107Z</time></trkpt><trkpt lat="45.68832" lon="8.4271633"><ele>377.0</ele><time>2026-04-06T10:05:40.107Z</time></trkpt><trkpt lat="45.6884217" lon="8.4270883"><ele>377.0</ele><time>2026-04-06T10:05:41.107Z</time></trkpt><trkpt lat="45.68851" lon="8.4270033"><ele>377.0</ele><time>2026-04-06T10:05:42.107Z</time></trkpt><trkpt lat="45.6886133" lon="8.4269433"><ele>377.0</ele><time>2026-04-06T10:05:43.107Z</time></trkpt><trkpt lat="45.6887" lon="8.4268733"><ele>377.0</ele><time>2026-04-06T10:05:44.107Z</time></trkpt><trkpt lat="45.6887833" lon="8.4267967"><ele>377.83333333333337</ele><time>2026-04-06T10:05:45.107Z</time></trkpt><trkpt lat="45.6888617" lon="8.4267267"><ele>378.6666666666667</ele><time>2026-04-06T10:05:46.107Z</time></trkpt><trkpt lat="45.6889417" lon="8.42667"><ele>379.5</ele><time>2026-04-06T10:05:47.106Z</time></trkpt><trkpt lat="45.6890133" lon="8.42661"><ele>380.3333333333333</ele><time>2026-04-06T10:05:48.107Z</time></trkpt><trkpt lat="45.6890717" lon="8.4265617"><ele>381.16666666666663</ele><time>2026-04-06T10:05:49.107Z</time></trkpt><trkpt lat="45.689165" lon="8.42649"><ele>382.0</ele><time>2026-04-06T10:05:51.107Z</time></trkpt><trkpt lat="45.68927" lon="8.42643"><ele>382.0</ele><time>2026-04-06T10:05:53.107Z</time></trkpt><trkpt lat="45.6893567" lon="8.4263517"><ele>382.0</ele><time>2026-04-06T10:05:55.107Z</time></trkpt><trkpt lat="45.6894283" lon="8.4262433"><ele>382.0</ele><time>2026-04-06T10:05:57.107Z</time></trkpt><trkpt lat="45.6895333" lon="8.42627"><ele>382.0</ele><time>2026-04-06T10:05:59.106Z</time></trkpt><trkpt lat="45.6896117" lon="8.42633"><ele>382.0</ele><time>2026-04-06T10:06:00.107Z</time></trkpt><trkpt lat="45.6897133" lon="8.426435"><ele>381.3333333333333</ele><time>2026-04-06T10:06:01.107Z</time></trkpt><trkpt lat="45.6898183" lon="8.4265733"><ele>380.6666666666667</ele><time>2026-04-06T10:06:02.106Z</time></trkpt><trkpt lat="45.69001" lon="8.426865"><ele>380.0</ele><time>2026-04-06T10:06:04.107Z</time></trkpt><trkpt lat="45.6901983" lon="8.4271467"><ele>377.2</ele><time>2026-04-06T10:06:06.107Z</time></trkpt><trkpt lat="45.6902917" lon="8.427275"><ele>374.4</ele><time>2026-04-06T10:06:07.106Z</time></trkpt><trkpt lat="45.6903767" lon="8.4273917"><ele>371.6</ele><time>2026-04-06T10:06:08.107Z</time></trkpt><trkpt lat="45.690445" lon="8.4275"><ele>368.8</ele><time>2026-04-06T10:06:09.107Z</time></trkpt><trkpt lat="45.6905033" lon="8.4276167"><ele>366.0</ele><time>2026-04-06T10:06:10.107Z</time></trkpt><trkpt lat="45.6905417" lon="8.4277317"><ele>366.0</ele><time>2026-04-06T10:06:11.107Z</time></trkpt><trkpt lat="45.6905583" lon="8.4278667"><ele>366.0</ele><time>2026-04-06T10:06:12.107Z</time></trkpt><trkpt lat="45.6905417" lon="8.42801"><ele>366.0</ele><time>2026-04-06T10:06:13.106Z</time></trkpt><trkpt lat="45.69049" lon="8.4281317"><ele>366.0</ele><time>2026-04-06T10:06:14.107Z</time></trkpt><trkpt lat="45.6904133" lon="8.428245"><ele>366.0</ele><time>2026-04-06T10:06:15.106Z</time></trkpt><trkpt lat="45.690335" lon="8.4283533"><ele>365.8</ele><time>2026-04-06T10:06:16.107Z</time></trkpt><trkpt lat="45.690255" lon="8.42844"><ele>365.6</ele><time>2026-04-06T10:06:17.107Z</time></trkpt><trkpt lat="45.690185" lon="8.4285467"><ele>365.4</ele><time>2026-04-06T10:06:18.107Z</time></trkpt><trkpt lat="45.6901317" lon="8.4286583"><ele>365.2</ele><time>2026-04-06T10:06:19.107Z</time></trkpt><trkpt lat="45.690085" lon="8.4287633"><ele>365.0</ele><time>2026-04-06T10:06:20.107Z</time></trkpt><trkpt lat="45.6900233" lon="8.4288683"><ele>365.0</ele><time>2026-04-06T10:06:21.107Z</time></trkpt><trkpt lat="45.689975" lon="8.4289383"><ele>365.0</ele><time>2026-04-06T10:06:22.107Z</time></trkpt><trkpt lat="45.68997" lon="8.4290883"><ele>365.0</ele><time>2026-04-06T10:06:24.107Z</time></trkpt><trkpt lat="45.690075" lon="8.429125"><ele>365.0</ele><time>2026-04-06T10:06:26.107Z</time></trkpt><trkpt lat="45.6901333" lon="8.42908"><ele>365.0</ele><time>2026-04-06T10:06:27.107Z</time></trkpt><trkpt lat="45.6901867" lon="8.428945"><ele>368.0</ele><time>2026-04-06T10:06:28.106Z</time></trkpt><trkpt lat="45.69024" lon="8.428795"><ele>371.0</ele><time>2026-04-06T10:06:29.107Z</time></trkpt><trkpt lat="45.69031" lon="8.42865"><ele>374.0</ele><time>2026-04-06T10:06:30.107Z</time></trkpt><trkpt lat="45.6903917" lon="8.4285317"><ele>377.0</ele><time>2026-04-06T10:06:31.107Z</time></trkpt><trkpt lat="45.6904967" lon="8.4284583"><ele>374.25</ele><time>2026-04-06T10:06:32.107Z</time></trkpt><trkpt lat="45.6906033" lon="8.4283817"><ele>371.5</ele><time>2026-04-06T10:06:33.107Z</time></trkpt><trkpt lat="45.6906967" lon="8.4282833"><ele>368.75</ele><time>2026-04-06T10:06:34.107Z</time></trkpt><trkpt lat="45.6907633" lon="8.4281317"><ele>366.0</ele><time>2026-04-06T10:06:35.106Z</time></trkpt><trkpt lat="45.6908233" lon="8.4279467"><ele>366.0</ele><time>2026-04-06T10:06:36.107Z</time></trkpt><trkpt lat="45.6908717" lon="8.4277633"><ele>366.0</ele><time>2026-04-06T10:06:37.107Z</time></trkpt><trkpt lat="45.6909317" lon="8.4276"><ele>366.0</ele><time>2026-04-06T10:06:38.106Z</time></trkpt><trkpt lat="45.6910017" lon="8.427435"><ele>366.0</ele><time>2026-04-06T10:06:39.107Z</time></trkpt><trkpt lat="45.691085" lon="8.4272767"><ele>363.5</ele><time>2026-04-06T10:06:40.106Z</time></trkpt><trkpt lat="45.69119" lon="8.427145"><ele>361.0</ele><time>2026-04-06T10:06:41.107Z</time></trkpt><trkpt lat="45.6913017" lon="8.42702"><ele>358.5</ele><time>2026-04-06T10:06:42.107Z</time></trkpt><trkpt lat="45.69142" lon="8.42691"><ele>356.0</ele><time>2026-04-06T10:06:43.107Z</time></trkpt><trkpt lat="45.6915317" lon="8.42678"><ele>356.0</ele><time>2026-04-06T10:06:44.107Z</time></trkpt><trkpt lat="45.6916467" lon="8.42664"><ele>356.0</ele><time>2026-04-06T10:06:45.107Z</time></trkpt><trkpt lat="45.69177" lon="8.4265083"><ele>356.0</ele><time>2026-04-06T10:06:46.107Z</time></trkpt><trkpt lat="45.691885" lon="8.4263733"><ele>353.0</ele><time>2026-04-06T10:06:47.107Z</time></trkpt><trkpt lat="45.6919967" lon="8.4262517"><ele>350.0</ele><time>2026-04-06T10:06:48.107Z</time></trkpt><trkpt lat="45.69212" lon="8.426135"><ele>347.0</ele><time>2026-04-06T10:06:49.107Z</time></trkpt><trkpt lat="45.692255" lon="8.4260583"><ele>344.0</ele><time>2026-04-06T10:06:50.106Z</time></trkpt><trkpt lat="45.6923917" lon="8.426005"><ele>344.0</ele><time>2026-04-06T10:06:51.107Z</time></trkpt><trkpt lat="45.6926917" lon="8.4259717"><ele>344.0</ele><time>2026-04-06T10:06:53.107Z</time></trkpt><trkpt lat="45.6928383" lon="8.4259867"><ele>344.0</ele><time>2026-04-06T10:06:54.107Z</time></trkpt><trkpt lat="45.6929917" lon="8.4260167"><ele>341.25</ele><time>2026-04-06T10:06:55.106Z</time></trkpt><trkpt lat="45.693135" lon="8.4260317"><ele>338.5</ele><time>2026-04-06T10:06:56.107Z</time></trkpt><trkpt lat="45.6932783" lon="8.4260183"><ele>335.75</ele><time>2026-04-06T10:06:57.107Z</time></trkpt><trkpt lat="45.6934083" lon="8.426015"><ele>333.0</ele><time>2026-04-06T10:06:58.107Z</time></trkpt><trkpt lat="45.6935467" lon="8.4260117"><ele>332.5</ele><time>2026-04-06T10:06:59.107Z</time></trkpt><trkpt lat="45.6936683" lon="8.4260167"><ele>332.0</ele><time>2026-04-06T10:07:00.107Z</time></trkpt><trkpt lat="45.6937967" lon="8.4260167"><ele>331.5</ele><time>2026-04-06T10:07:01.107Z</time></trkpt><trkpt lat="45.69392" lon="8.4260283"><ele>331.0</ele><time>2026-04-06T10:07:02.107Z</time></trkpt><trkpt lat="45.6940367" lon="8.4260367"><ele>331.0</ele><time>2026-04-06T10:07:03.107Z</time></trkpt><trkpt lat="45.6941433" lon="8.42609"><ele>331.0</ele><time>2026-04-06T10:07:04.107Z</time></trkpt><trkpt lat="45.6942367" lon="8.4261817"><ele>331.0</ele><time>2026-04-06T10:07:05.107Z</time></trkpt><trkpt lat="45.694315" lon="8.4262967"><ele>331.0</ele><time>2026-04-06T10:07:06.106Z</time></trkpt><trkpt lat="45.6943683" lon="8.4264333"><ele>331.0</ele><time>2026-04-06T10:07:07.107Z</time></trkpt><trkpt lat="45.6943883" lon="8.4265967"><ele>331.0</ele><time>2026-04-06T10:07:08.107Z</time></trkpt><trkpt lat="45.69438" lon="8.4267867"><ele>331.0</ele><time>2026-04-06T10:07:09.107Z</time></trkpt><trkpt lat="45.6943583" lon="8.4270033"><ele>331.0</ele><time>2026-04-06T10:07:10.107Z</time></trkpt><trkpt lat="45.6943267" lon="8.4272267"><ele>331.0</ele><time>2026-04-06T10:07:11.107Z</time></trkpt><trkpt lat="45.694305" lon="8.427455"><ele>331.0</ele><time>2026-04-06T10:07:12.107Z</time></trkpt><trkpt lat="45.694275" lon="8.427695"><ele>331.0</ele><time>2026-04-06T10:07:13.107Z</time></trkpt><trkpt lat="45.6942533" lon="8.4279317"><ele>331.0</ele><time>2026-04-06T10:07:14.106Z</time></trkpt><trkpt lat="45.6942317" lon="8.4281617"><ele>330.66666666666663</ele><time>2026-04-06T10:07:15.107Z</time></trkpt><trkpt lat="45.6942067" lon="8.4283933"><ele>330.3333333333333</ele><time>2026-04-06T10:07:16.107Z</time></trkpt><trkpt lat="45.6941967" lon="8.4286267"><ele>330.0</ele><time>2026-04-06T10:07:17.107Z</time></trkpt><trkpt lat="45.6941767" lon="8.428855"><ele>330.0</ele><time>2026-04-06T10:07:18.107Z</time></trkpt><trkpt lat="45.6941667" lon="8.4290783"><ele>330.0</ele><time>2026-04-06T10:07:19.106Z</time></trkpt><trkpt lat="45.6941417" lon="8.4292933"><ele>330.0</ele><time>2026-04-06T10:07:20.107Z</time></trkpt><trkpt lat="45.694125" lon="8.429505"><ele>331.3333333333333</ele><time>2026-04-06T10:07:21.106Z</time></trkpt><trkpt lat="45.694105" lon="8.4296933"><ele>332.66666666666663</ele><time>2026-04-06T10:07:22.107Z</time></trkpt><trkpt lat="45.6940733" lon="8.430065"><ele>334.0</ele><time>2026-04-06T10:07:24.107Z</time></trkpt><trkpt lat="45.6940517" lon="8.4302533"><ele>334.0</ele><time>2026-04-06T10:07:25.107Z</time></trkpt><trkpt lat="45.6940333" lon="8.4304467"><ele>334.0</ele><time>2026-04-06T10:07:26.107Z</time></trkpt><trkpt lat="45.69403" lon="8.4306317"><ele>334.0</ele><time>2026-04-06T10:07:27.107Z</time></trkpt><trkpt lat="45.6940283" lon="8.4308183"><ele>334.0</ele><time>2026-04-06T10:07:28.106Z</time></trkpt><trkpt lat="45.694035" lon="8.4310033"><ele>335.75</ele><time>2026-04-06T10:07:29.106Z</time></trkpt><trkpt lat="45.6940467" lon="8.4311933"><ele>337.5</ele><time>2026-04-06T10:07:30.106Z</time></trkpt><trkpt lat="45.6940533" lon="8.4313817"><ele>339.25</ele><time>2026-04-06T10:07:31.107Z</time></trkpt><trkpt lat="45.69406" lon="8.4315733"><ele>341.0</ele><time>2026-04-06T10:07:32.106Z</time></trkpt><trkpt lat="45.6940717" lon="8.4317733"><ele>341.75</ele><time>2026-04-06T10:07:33.107Z</time></trkpt><trkpt lat="45.6940917" lon="8.43198"><ele>342.5</ele><time>2026-04-06T10:07:34.107Z</time></trkpt><trkpt lat="45.6941083" lon="8.43219"><ele>343.25</ele><time>2026-04-06T10:07:35.107Z</time></trkpt><trkpt lat="45.6941433" lon="8.4324"><ele>344.0</ele><time>2026-04-06T10:07:36.107Z</time></trkpt><trkpt lat="45.6941733" lon="8.4326067"><ele>344.0</ele><time>2026-04-06T10:07:37.107Z</time></trkpt><trkpt lat="45.6942217" lon="8.4328067"><ele>344.0</ele><time>2026-04-06T10:07:38.107Z</time></trkpt><trkpt lat="45.6942667" lon="8.433015"><ele>344.0</ele><time>2026-04-06T10:07:39.107Z</time></trkpt><trkpt lat="45.694305" lon="8.4332317"><ele>343.5</ele><time>2026-04-06T10:07:40.107Z</time></trkpt><trkpt lat="45.69434" lon="8.43344"><ele>343.0</ele><time>2026-04-06T10:07:41.107Z</time></trkpt><trkpt lat="45.6943867" lon="8.4336267"><ele>342.5</ele><time>2026-04-06T10:07:42.107Z</time></trkpt><trkpt lat="45.69444" lon="8.4337817"><ele>342.0</ele><time>2026-04-06T10:07:43.107Z</time></trkpt><trkpt lat="45.6945183" lon="8.4339267"><ele>345.6666666666667</ele><time>2026-04-06T10:07:44.107Z</time></trkpt><trkpt lat="45.6946217" lon="8.434065"><ele>349.33333333333337</ele><time>2026-04-06T10:07:45.106Z</time></trkpt><trkpt lat="45.694735" lon="8.4341883"><ele>353.0</ele><time>2026-04-06T10:07:46.106Z</time></trkpt><trkpt lat="45.6950233" lon="8.43436"><ele>353.0</ele><time>2026-04-06T10:07:48.105Z</time></trkpt><trkpt lat="45.6951683" lon="8.434415"><ele>353.0</ele><time>2026-04-06T10:07:49.106Z</time></trkpt><trkpt lat="45.69531" lon="8.4344633"><ele>353.0</ele><time>2026-04-06T10:07:50.106Z</time></trkpt><trkpt lat="45.6954333" lon="8.4345317"><ele>353.0</ele><time>2026-04-06T10:07:51.106Z</time></trkpt><trkpt lat="45.6955633" lon="8.4346283"><ele>352.5</ele><time>2026-04-06T10:07:52.106Z</time></trkpt><trkpt lat="45.6956767" lon="8.4347367"><ele>352.0</ele><time>2026-04-06T10:07:53.105Z</time></trkpt><trkpt lat="45.6957817" lon="8.43486"><ele>351.5</ele><time>2026-04-06T10:07:54.106Z</time></trkpt><trkpt lat="45.6958967" lon="8.43499"><ele>351.0</ele><time>2026-04-06T10:07:55.105Z</time></trkpt><trkpt lat="45.696015" lon="8.4351083"><ele>353.6666666666667</ele><time>2026-04-06T10:07:56.106Z</time></trkpt><trkpt lat="45.6961467" lon="8.4352217"><ele>356.33333333333337</ele><time>2026-04-06T10:07:57.106Z</time></trkpt><trkpt lat="45.6962933" lon="8.43532"><ele>359.0</ele><time>2026-04-06T10:07:58.105Z</time></trkpt><trkpt lat="45.6964433" lon="8.4354133"><ele>354.0</ele><time>2026-04-06T10:07:59.105Z</time></trkpt><trkpt lat="45.6965967" lon="8.4354883"><ele>349.0</ele><time>2026-04-06T10:08:00.105Z</time></trkpt><trkpt lat="45.696745" lon="8.43557"><ele>344.0</ele><time>2026-04-06T10:08:01.105Z</time></trkpt><trkpt lat="45.6968917" lon="8.43565"><ele>345.0</ele><time>2026-04-06T10:08:02.106Z</time></trkpt><trkpt lat="45.69703" lon="8.4357167"><ele>346.0</ele><time>2026-04-06T10:08:03.105Z</time></trkpt><trkpt lat="45.6971633" lon="8.4357933"><ele>347.0</ele><time>2026-04-06T10:08:04.106Z</time></trkpt><trkpt lat="45.697305" lon="8.4358533"><ele>348.0</ele><time>2026-04-06T10:08:05.106Z</time></trkpt><trkpt lat="45.6974483" lon="8.435895"><ele>348.0</ele><time>2026-04-06T10:08:06.106Z</time></trkpt><trkpt lat="45.6975933" lon="8.4359433"><ele>348.0</ele><time>2026-04-06T10:08:07.106Z</time></trkpt><trkpt lat="45.6977317" lon="8.436"><ele>348.0</ele><time>2026-04-06T10:08:08.106Z</time></trkpt><trkpt lat="45.6978633" lon="8.4360717"><ele>348.0</ele><time>2026-04-06T10:08:09.106Z</time></trkpt><trkpt lat="45.6979967" lon="8.4361517"><ele>349.75</ele><time>2026-04-06T10:08:10.105Z</time></trkpt><trkpt lat="45.69813" lon="8.43621"><ele>351.5</ele><time>2026-04-06T10:08:11.106Z</time></trkpt><trkpt lat="45.6982567" lon="8.436285"><ele>353.25</ele><time>2026-04-06T10:08:12.106Z</time></trkpt><trkpt lat="45.6983883" lon="8.4363533"><ele>355.0</ele><time>2026-04-06T10:08:13.106Z</time></trkpt><trkpt lat="45.6985317" lon="8.43643"><ele>351.25</ele><time>2026-04-06T10:08:14.106Z</time></trkpt><trkpt lat="45.6986717" lon="8.4364933"><ele>347.5</ele><time>2026-04-06T10:08:15.106Z</time></trkpt><trkpt lat="45.6988033" lon="8.4365717"><ele>343.75</ele><time>2026-04-06T10:08:16.106Z</time></trkpt><trkpt lat="45.6989417" lon="8.4366467"><ele>340.0</ele><time>2026-04-06T10:08:17.106Z</time></trkpt><trkpt lat="45.6990867" lon="8.4367033"><ele>340.0</ele><time>2026-04-06T10:08:18.105Z</time></trkpt><trkpt lat="45.69921" lon="8.436785"><ele>340.0</ele><time>2026-04-06T10:08:19.106Z</time></trkpt><trkpt lat="45.6993467" lon="8.4368517"><ele>340.0</ele><time>2026-04-06T10:08:20.106Z</time></trkpt><trkpt lat="45.6994817" lon="8.4369067"><ele>340.0</ele><time>2026-04-06T10:08:21.106Z</time></trkpt><trkpt lat="45.6996083" lon="8.4369533"><ele>338.0</ele><time>2026-04-06T10:08:22.105Z</time></trkpt><trkpt lat="45.6997233" lon="8.4370183"><ele>336.0</ele><time>2026-04-06T10:08:23.106Z</time></trkpt><trkpt lat="45.6998567" lon="8.43709"><ele>334.0</ele><time>2026-04-06T10:08:24.105Z</time></trkpt><trkpt lat="45.7000033" lon="8.4371367"><ele>332.0</ele><time>2026-04-06T10:08:25.106Z</time></trkpt><trkpt lat="45.7001433" lon="8.4371933"><ele>332.75</ele><time>2026-04-06T10:08:26.106Z</time></trkpt><trkpt lat="45.7002817" lon="8.43725"><ele>333.5</ele><time>2026-04-06T10:08:27.105Z</time></trkpt><trkpt lat="45.7004233" lon="8.4372917"><ele>334.25</ele><time>2026-04-06T10:08:28.106Z</time></trkpt><trkpt lat="45.7005617" lon="8.4373433"><ele>335.0</ele><time>2026-04-06T10:08:29.106Z</time></trkpt><trkpt lat="45.7006933" lon="8.4374"><ele>335.0</ele><time>2026-04-06T10:08:30.106Z</time></trkpt><trkpt lat="45.700795" lon="8.43748"><ele>335.0</ele><time>2026-04-06T10:08:31.106Z</time></trkpt><trkpt lat="45.70088" lon="8.437615"><ele>335.0</ele><time>2026-04-06T10:08:32.106Z</time></trkpt><trkpt lat="45.7009633" lon="8.4377783"><ele>335.0</ele><time>2026-04-06T10:08:33.106Z</time></trkpt><trkpt lat="45.701035" lon="8.437955"><ele>334.8</ele><time>2026-04-06T10:08:34.106Z</time></trkpt><trkpt lat="45.7010967" lon="8.4381133"><ele>334.6</ele><time>2026-04-06T10:08:35.106Z</time></trkpt><trkpt lat="45.7011383" lon="8.4382333"><ele>334.4</ele><time>2026-04-06T10:08:36.106Z</time></trkpt><trkpt lat="45.7011733" lon="8.4383217"><ele>334.2</ele><time>2026-04-06T10:08:37.106Z</time></trkpt><trkpt lat="45.7012383" lon="8.4384583"><ele>334.0</ele><time>2026-04-06T10:08:39.106Z</time></trkpt><trkpt lat="45.70127" lon="8.43854"><ele>334.0</ele><time>2026-04-06T10:08:40.106Z</time></trkpt><trkpt lat="45.701305" lon="8.4386167"><ele>334.0</ele><time>2026-04-06T10:08:41.106Z</time></trkpt><trkpt lat="45.7013283" lon="8.438705"><ele>334.0</ele><time>2026-04-06T10:08:42.106Z</time></trkpt><trkpt lat="45.7013383" lon="8.438815"><ele>334.0</ele><time>2026-04-06T10:08:43.106Z</time></trkpt><trkpt lat="45.70134" lon="8.4389533"><ele>334.0</ele><time>2026-04-06T10:08:44.106Z</time></trkpt><trkpt lat="45.701325" lon="8.439105"><ele>334.0</ele><time>2026-04-06T10:08:45.106Z</time></trkpt><trkpt lat="45.7013067" lon="8.4392583"><ele>334.25</ele><time>2026-04-06T10:08:46.106Z</time></trkpt><trkpt lat="45.7012933" lon="8.439425"><ele>334.5</ele><time>2026-04-06T10:08:47.105Z</time></trkpt><trkpt lat="45.7012767" lon="8.4395883"><ele>334.75</ele><time>2026-04-06T10:08:48.106Z</time></trkpt><trkpt lat="45.701255" lon="8.4397617"><ele>335.0</ele><time>2026-04-06T10:08:49.106Z</time></trkpt><trkpt lat="45.701235" lon="8.439945"><ele>335.2</ele><time>2026-04-06T10:08:50.105Z</time></trkpt><trkpt lat="45.701215" lon="8.4401017"><ele>335.4</ele><time>2026-04-06T10:08:51.106Z</time></trkpt><trkpt lat="45.7012" lon="8.4402533"><ele>335.6</ele><time>2026-04-06T10:08:52.105Z</time></trkpt><trkpt lat="45.70118" lon="8.440415"><ele>335.8</ele><time>2026-04-06T10:08:53.106Z</time></trkpt><trkpt lat="45.7011583" lon="8.440575"><ele>336.0</ele><time>2026-04-06T10:08:54.105Z</time></trkpt><trkpt lat="45.7011433" lon="8.4407183"><ele>337.20000000000005</ele><time>2026-04-06T10:08:55.106Z</time></trkpt><trkpt lat="45.7011233" lon="8.4408733"><ele>338.40000000000003</ele><time>2026-04-06T10:08:56.105Z</time></trkpt><trkpt lat="45.7011083" lon="8.44103"><ele>339.6</ele><time>2026-04-06T10:08:57.106Z</time></trkpt><trkpt lat="45.7010967" lon="8.4411717"><ele>340.8</ele><time>2026-04-06T10:08:58.106Z</time></trkpt><trkpt lat="45.701105" lon="8.4413067"><ele>342.0</ele><time>2026-04-06T10:08:59.106Z</time></trkpt><trkpt lat="45.7011383" lon="8.4414317"><ele>342.0</ele><time>2026-04-06T10:09:00.106Z</time></trkpt><trkpt lat="45.7012" lon="8.4415433"><ele>342.0</ele><time>2026-04-06T10:09:01.106Z</time></trkpt><trkpt lat="45.7012717" lon="8.4416583"><ele>342.0</ele><time>2026-04-06T10:09:02.105Z</time></trkpt><trkpt lat="45.7013417" lon="8.441765"><ele>342.0</ele><time>2026-04-06T10:09:03.106Z</time></trkpt><trkpt lat="45.70142" lon="8.44187"><ele>342.0</ele><time>2026-04-06T10:09:04.105Z</time></trkpt><trkpt lat="45.7015067" lon="8.4419917"><ele>342.0</ele><time>2026-04-06T10:09:05.106Z</time></trkpt><trkpt lat="45.7016017" lon="8.4421033"><ele>342.0</ele><time>2026-04-06T10:09:06.106Z</time></trkpt><trkpt lat="45.70169" lon="8.4422067"><ele>342.0</ele><time>2026-04-06T10:09:07.106Z</time></trkpt><trkpt lat="45.7017783" lon="8.4423033"><ele>342.0</ele><time>2026-04-06T10:09:08.105Z</time></trkpt><trkpt lat="45.7018733" lon="8.442385"><ele>341.5</ele><time>2026-04-06T10:09:09.106Z</time></trkpt><trkpt lat="45.7019667" lon="8.4424767"><ele>341.0</ele><time>2026-04-06T10:09:10.105Z</time></trkpt><trkpt lat="45.7020617" lon="8.4425683"><ele>340.5</ele><time>2026-04-06T10:09:11.105Z</time></trkpt><trkpt lat="45.702155" lon="8.44266"><ele>340.0</ele><time>2026-04-06T10:09:12.106Z</time></trkpt><trkpt lat="45.702255" lon="8.442735"><ele>340.0</ele><time>2026-04-06T10:09:13.106Z</time></trkpt><trkpt lat="45.7023383" lon="8.4428183"><ele>340.0</ele><time>2026-04-06T10:09:14.106Z</time></trkpt><trkpt lat="45.7023917" lon="8.44292"><ele>340.0</ele><time>2026-04-06T10:09:15.106Z</time></trkpt><trkpt lat="45.7024433" lon="8.4430383"><ele>340.0</ele><time>2026-04-06T10:09:16.106Z</time></trkpt><trkpt lat="45.7024833" lon="8.443355"><ele>337.75</ele><time>2026-04-06T10:09:18.106Z</time></trkpt><trkpt lat="45.7024733" lon="8.4435333"><ele>335.5</ele><time>2026-04-06T10:09:19.106Z</time></trkpt><trkpt lat="45.70246" lon="8.4437067"><ele>333.25</ele><time>2026-04-06T10:09:20.106Z</time></trkpt><trkpt lat="45.7024567" lon="8.443885"><ele>331.0</ele><time>2026-04-06T10:09:21.106Z</time></trkpt><trkpt lat="45.7024533" lon="8.444055"><ele>329.4</ele><time>2026-04-06T10:09:22.106Z</time></trkpt><trkpt lat="45.702445" lon="8.44421"><ele>327.8</ele><time>2026-04-06T10:09:23.106Z</time></trkpt><trkpt lat="45.702435" lon="8.44436"><ele>326.2</ele><time>2026-04-06T10:09:24.105Z</time></trkpt><trkpt lat="45.7024383" lon="8.444495"><ele>324.59999999999997</ele><time>2026-04-06T10:09:25.106Z</time></trkpt><trkpt lat="45.702435" lon="8.4446433"><ele>323.0</ele><time>2026-04-06T10:09:26.106Z</time></trkpt><trkpt lat="45.7024217" lon="8.4447967"><ele>322.4</ele><time>2026-04-06T10:09:27.106Z</time></trkpt><trkpt lat="45.7024067" lon="8.4449367"><ele>321.79999999999995</ele><time>2026-04-06T10:09:28.106Z</time></trkpt><trkpt lat="45.7024133" lon="8.4450833"><ele>321.2</ele><time>2026-04-06T10:09:29.106Z</time></trkpt><trkpt lat="45.70241" lon="8.4452333"><ele>320.6</ele><time>2026-04-06T10:09:30.106Z</time></trkpt><trkpt lat="45.7024" lon="8.4453833"><ele>320.0</ele><time>2026-04-06T10:09:31.106Z</time></trkpt><trkpt lat="45.7024017" lon="8.4455217"><ele>319.8</ele><time>2026-04-06T10:09:32.106Z</time></trkpt><trkpt lat="45.7024167" lon="8.445665"><ele>319.6</ele><time>2026-04-06T10:09:33.106Z</time></trkpt><trkpt lat="45.7024283" lon="8.4458133"><ele>319.4</ele><time>2026-04-06T10:09:34.105Z</time></trkpt><trkpt lat="45.70242" lon="8.4459833"><ele>319.2</ele><time>2026-04-06T10:09:35.105Z</time></trkpt><trkpt lat="45.70244" lon="8.4461383"><ele>319.0</ele><time>2026-04-06T10:09:36.106Z</time></trkpt><trkpt lat="45.702455" lon="8.4462883"><ele>318.5</ele><time>2026-04-06T10:09:37.106Z</time></trkpt><trkpt lat="45.7024833" lon="8.4464167"><ele>318.0</ele><time>2026-04-06T10:09:38.106Z</time></trkpt><trkpt lat="45.7025033" lon="8.446555"><ele>317.5</ele><time>2026-04-06T10:09:39.106Z</time></trkpt><trkpt lat="45.7025233" lon="8.4466667"><ele>317.0</ele><time>2026-04-06T10:09:40.106Z</time></trkpt><trkpt lat="45.70255" lon="8.4467567"><ele>316.5</ele><time>2026-04-06T10:09:41.106Z</time></trkpt><trkpt lat="45.7025817" lon="8.4468917"><ele>316.0</ele><time>2026-04-06T10:09:43.106Z</time></trkpt><trkpt lat="45.702615" lon="8.4470183"><ele>316.0</ele><time>2026-04-06T10:09:45.105Z</time></trkpt><trkpt lat="45.7026517" lon="8.4471583"><ele>316.0</ele><time>2026-04-06T10:09:47.106Z</time></trkpt><trkpt lat="45.7026883" lon="8.4472517"><ele>316.0</ele><time>2026-04-06T10:09:49.106Z</time></trkpt><trkpt lat="45.7027217" lon="8.447145"><ele>316.0</ele><time>2026-04-06T10:09:52.106Z</time></trkpt><trkpt lat="45.7026883" lon="8.4470517"><ele>316.0</ele><time>2026-04-06T10:09:53.105Z</time></trkpt><trkpt lat="45.7026483" lon="8.4469383"><ele>316.0</ele><time>2026-04-06T10:09:54.106Z</time></trkpt><trkpt lat="45.7026017" lon="8.446785"><ele>316.0</ele><time>2026-04-06T10:09:55.106Z</time></trkpt><trkpt lat="45.7025617" lon="8.4465817"><ele>316.0</ele><time>2026-04-06T10:09:56.106Z</time></trkpt><trkpt lat="45.702535" lon="8.44637"><ele>316.0</ele><time>2026-04-06T10:09:57.106Z</time></trkpt><trkpt lat="45.7025033" lon="8.4461467"><ele>317.0</ele><time>2026-04-06T10:09:58.106Z</time></trkpt><trkpt lat="45.7024817" lon="8.4459417"><ele>318.0</ele><time>2026-04-06T10:09:59.106Z</time></trkpt><trkpt lat="45.7024733" lon="8.445705"><ele>319.0</ele><time>2026-04-06T10:10:00.106Z</time></trkpt><trkpt lat="45.7024583" lon="8.4454667"><ele>319.3333333333333</ele><time>2026-04-06T10:10:01.105Z</time></trkpt><trkpt lat="45.7024567" lon="8.4452283"><ele>319.6666666666667</ele><time>2026-04-06T10:10:02.106Z</time></trkpt><trkpt lat="45.702465" lon="8.4449633"><ele>320.0</ele><time>2026-04-06T10:10:03.106Z</time></trkpt><trkpt lat="45.702475" lon="8.4446783"><ele>321.0</ele><time>2026-04-06T10:10:04.105Z</time></trkpt><trkpt lat="45.7024783" lon="8.44438"><ele>322.0</ele><time>2026-04-06T10:10:05.105Z</time></trkpt><trkpt lat="45.7024933" lon="8.44409"><ele>323.0</ele><time>2026-04-06T10:10:06.106Z</time></trkpt><trkpt lat="45.7024983" lon="8.4438183"><ele>325.6666666666667</ele><time>2026-04-06T10:10:07.106Z</time></trkpt><trkpt lat="45.7025" lon="8.4435533"><ele>328.3333333333333</ele><time>2026-04-06T10:10:08.105Z</time></trkpt><trkpt lat="45.7025133" lon="8.443325"><ele>331.0</ele><time>2026-04-06T10:10:09.106Z</time></trkpt><trkpt lat="45.7025083" lon="8.4431083"><ele>333.25</ele><time>2026-04-06T10:10:10.106Z</time></trkpt><trkpt lat="45.70248" lon="8.4429283"><ele>335.5</ele><time>2026-04-06T10:10:11.105Z</time></trkpt><trkpt lat="45.7024133" lon="8.44278"><ele>337.75</ele><time>2026-04-06T10:10:12.106Z</time></trkpt><trkpt lat="45.7023283" lon="8.4426417"><ele>340.0</ele><time>2026-04-06T10:10:13.106Z</time></trkpt><trkpt lat="45.70219" lon="8.4425317"><ele>340.0</ele><time>2026-04-06T10:10:14.105Z</time></trkpt><trkpt lat="45.702055" lon="8.4424133"><ele>340.0</ele><time>2026-04-06T10:10:15.105Z</time></trkpt><trkpt lat="45.7019217" lon="8.4422917"><ele>340.0</ele><time>2026-04-06T10:10:16.106Z</time></trkpt><trkpt lat="45.7017933" lon="8.4421683"><ele>340.66666666666663</ele><time>2026-04-06T10:10:17.105Z</time></trkpt><trkpt lat="45.7016733" lon="8.4420717"><ele>341.3333333333333</ele><time>2026-04-06T10:10:18.106Z</time></trkpt><trkpt lat="45.701475" lon="8.441835"><ele>342.0</ele><time>2026-04-06T10:10:20.106Z</time></trkpt><trkpt lat="45.7013817" lon="8.4416933"><ele>342.0</ele><time>2026-04-06T10:10:21.106Z</time></trkpt><trkpt lat="45.7012917" lon="8.44157"><ele>342.0</ele><time>2026-04-06T10:10:22.106Z</time></trkpt><trkpt lat="45.701225" lon="8.4414283"><ele>342.0</ele><time>2026-04-06T10:10:23.106Z</time></trkpt><trkpt lat="45.7011767" lon="8.441295"><ele>342.0</ele><time>2026-04-06T10:10:24.106Z</time></trkpt><trkpt lat="45.701135" lon="8.4411633"><ele>342.0</ele><time>2026-04-06T10:10:25.105Z</time></trkpt><trkpt lat="45.701135" lon="8.4409883"><ele>342.0</ele><time>2026-04-06T10:10:26.106Z</time></trkpt><trkpt lat="45.7011617" lon="8.4407883"><ele>342.0</ele><time>2026-04-06T10:10:27.106Z</time></trkpt><trkpt lat="45.7011883" lon="8.4405717"><ele>342.0</ele><time>2026-04-06T10:10:28.106Z</time></trkpt><trkpt lat="45.7012067" lon="8.4403633"><ele>340.5</ele><time>2026-04-06T10:10:29.106Z</time></trkpt><trkpt lat="45.701215" lon="8.4401533"><ele>339.0</ele><time>2026-04-06T10:10:30.106Z</time></trkpt><trkpt lat="45.7012367" lon="8.4399483"><ele>337.5</ele><time>2026-04-06T10:10:31.106Z</time></trkpt><trkpt lat="45.7012633" lon="8.4397417"><ele>336.0</ele><time>2026-04-06T10:10:32.105Z</time></trkpt><trkpt lat="45.7012883" lon="8.4395283"><ele>335.75</ele><time>2026-04-06T10:10:33.106Z</time></trkpt><trkpt lat="45.70131" lon="8.439325"><ele>335.5</ele><time>2026-04-06T10:10:34.106Z</time></trkpt><trkpt lat="45.7013283" lon="8.4391233"><ele>335.25</ele><time>2026-04-06T10:10:35.106Z</time></trkpt><trkpt lat="45.701345" lon="8.4389417"><ele>335.0</ele><time>2026-04-06T10:10:36.106Z</time></trkpt><trkpt lat="45.7013533" lon="8.4387767"><ele>334.8</ele><time>2026-04-06T10:10:37.105Z</time></trkpt><trkpt lat="45.70134" lon="8.4386233"><ele>334.6</ele><time>2026-04-06T10:10:38.106Z</time></trkpt><trkpt lat="45.7013133" lon="8.4385"><ele>334.4</ele><time>2026-04-06T10:10:39.106Z</time></trkpt><trkpt lat="45.7012783" lon="8.43838"><ele>334.2</ele><time>2026-04-06T10:10:40.105Z</time></trkpt><trkpt lat="45.7012567" lon="8.4382667"><ele>334.0</ele><time>2026-04-06T10:10:41.105Z</time></trkpt><trkpt lat="45.7012567" lon="8.4381367"><ele>334.0</ele><time>2026-04-06T10:10:42.106Z</time></trkpt><trkpt lat="45.7012767" lon="8.4379967"><ele>334.0</ele><time>2026-04-06T10:10:43.106Z</time></trkpt><trkpt lat="45.7013" lon="8.4378533"><ele>334.0</ele><time>2026-04-06T10:10:44.106Z</time></trkpt><trkpt lat="45.701335" lon="8.4376917"><ele>334.0</ele><time>2026-04-06T10:10:45.106Z</time></trkpt><trkpt lat="45.7013783" lon="8.4375267"><ele>334.0</ele><time>2026-04-06T10:10:46.106Z</time></trkpt><trkpt lat="45.7014317" lon="8.4373533"><ele>335.0</ele><time>2026-04-06T10:10:47.106Z</time></trkpt><trkpt lat="45.7014617" lon="8.4371917"><ele>336.0</ele><time>2026-04-06T10:10:48.105Z</time></trkpt><trkpt lat="45.7015583" lon="8.4368833"><ele>337.0</ele><time>2026-04-06T10:10:50.106Z</time></trkpt><trkpt lat="45.7016467" lon="8.4367733"><ele>342.66666666666663</ele><time>2026-04-06T10:10:51.106Z</time></trkpt><trkpt lat="45.7017767" lon="8.43666"><ele>348.3333333333333</ele><time>2026-04-06T10:10:52.106Z</time></trkpt><trkpt lat="45.7019133" lon="8.436555"><ele>354.0</ele><time>2026-04-06T10:10:53.106Z</time></trkpt><trkpt lat="45.7020417" lon="8.43645"><ele>358.6666666666667</ele><time>2026-04-06T10:10:54.106Z</time></trkpt><trkpt lat="45.702225" lon="8.4361917"><ele>363.33333333333337</ele><time>2026-04-06T10:10:56.105Z</time></trkpt><trkpt lat="45.702285" lon="8.4360333"><ele>368.0</ele><time>2026-04-06T10:10:57.105Z</time></trkpt><trkpt lat="45.70235" lon="8.4358433"><ele>368.0</ele><time>2026-04-06T10:10:58.105Z</time></trkpt><trkpt lat="45.7024267" lon="8.4356017"><ele>368.0</ele><time>2026-04-06T10:10:59.106Z</time></trkpt><trkpt lat="45.7025217" lon="8.4353333"><ele>368.0</ele><time>2026-04-06T10:11:00.106Z</time></trkpt><trkpt lat="45.7026083" lon="8.4350617"><ele>371.6666666666667</ele><time>2026-04-06T10:11:01.106Z</time></trkpt><trkpt lat="45.702695" lon="8.43481"><ele>375.3333333333333</ele><time>2026-04-06T10:11:02.106Z</time></trkpt><trkpt lat="45.70278" lon="8.4345667"><ele>379.0</ele><time>2026-04-06T10:11:03.105Z</time></trkpt><trkpt lat="45.7028617" lon="8.43434"><ele>379.0</ele><time>2026-04-06T10:11:04.105Z</time></trkpt><trkpt lat="45.70295" lon="8.43414"><ele>379.0</ele><time>2026-04-06T10:11:05.106Z</time></trkpt><trkpt lat="45.7030617" lon="8.43398"><ele>379.0</ele><time>2026-04-06T10:11:06.106Z</time></trkpt><trkpt lat="45.7031983" lon="8.43385"><ele>383.66666666666663</ele><time>2026-04-06T10:11:07.106Z</time></trkpt><trkpt lat="45.7033283" lon="8.43374"><ele>388.3333333333333</ele><time>2026-04-06T10:11:08.106Z</time></trkpt><trkpt lat="45.703455" lon="8.4336033"><ele>393.0</ele><time>2026-04-06T10:11:09.105Z</time></trkpt><trkpt lat="45.703575" lon="8.43346"><ele>393.66666666666663</ele><time>2026-04-06T10:11:10.106Z</time></trkpt><trkpt lat="45.7037933" lon="8.4331433"><ele>394.3333333333333</ele><time>2026-04-06T10:11:12.105Z</time></trkpt><trkpt lat="45.7038767" lon="8.433015"><ele>395.0</ele><time>2026-04-06T10:11:13.106Z</time></trkpt><trkpt lat="45.7039417" lon="8.4328817"><ele>395.0</ele><time>2026-04-06T10:11:14.106Z</time></trkpt><trkpt lat="45.7039883" lon="8.43275"><ele>395.0</ele><time>2026-04-06T10:11:15.106Z</time></trkpt><trkpt lat="45.70403" lon="8.43259"><ele>395.0</ele><time>2026-04-06T10:11:16.105Z</time></trkpt><trkpt lat="45.704055" lon="8.43244"><ele>395.0</ele><time>2026-04-06T10:11:17.106Z</time></trkpt><trkpt lat="45.7040683" lon="8.4322833"><ele>395.0</ele><time>2026-04-06T10:11:18.105Z</time></trkpt><trkpt lat="45.7040767" lon="8.432115"><ele>396.0</ele><time>2026-04-06T10:11:19.106Z</time></trkpt><trkpt lat="45.7040867" lon="8.43194"><ele>397.0</ele><time>2026-04-06T10:11:20.106Z</time></trkpt><trkpt lat="45.7040983" lon="8.4317683"><ele>398.0</ele><time>2026-04-06T10:11:21.105Z</time></trkpt><trkpt lat="45.7041183" lon="8.43161"><ele>399.0</ele><time>2026-04-06T10:11:22.106Z</time></trkpt><trkpt lat="45.7041433" lon="8.4314583"><ele>399.0</ele><time>2026-04-06T10:11:23.106Z</time></trkpt><trkpt lat="45.7041817" lon="8.43132"><ele>399.0</ele><time>2026-04-06T10:11:24.105Z</time></trkpt><trkpt lat="45.7042317" lon="8.4311967"><ele>399.0</ele><time>2026-04-06T10:11:25.105Z</time></trkpt><trkpt lat="45.7043033" lon="8.4310567"><ele>399.0</ele><time>2026-04-06T10:11:26.104Z</time></trkpt><trkpt lat="45.7044083" lon="8.4309117"><ele>399.0</ele><time>2026-04-06T10:11:27.105Z</time></trkpt><trkpt lat="45.7045183" lon="8.430775"><ele>399.0</ele><time>2026-04-06T10:11:28.105Z</time></trkpt><trkpt lat="45.7046133" lon="8.4306217"><ele>399.0</ele><time>2026-04-06T10:11:29.105Z</time></trkpt><trkpt lat="45.7047083" lon="8.4304483"><ele>399.0</ele><time>2026-04-06T10:11:30.104Z</time></trkpt><trkpt lat="45.7047967" lon="8.4302583"><ele>399.33333333333337</ele><time>2026-04-06T10:11:31.104Z</time></trkpt><trkpt lat="45.70488" lon="8.4300667"><ele>399.6666666666667</ele><time>2026-04-06T10:11:32.104Z</time></trkpt><trkpt lat="45.70496" lon="8.4298717"><ele>400.0</ele><time>2026-04-06T10:11:33.105Z</time></trkpt><trkpt lat="45.7050517" lon="8.4296833"><ele>400.33333333333337</ele><time>2026-04-06T10:11:34.105Z</time></trkpt><trkpt lat="45.70514" lon="8.429495"><ele>400.66666666666663</ele><time>2026-04-06T10:11:35.105Z</time></trkpt><trkpt lat="45.7052233" lon="8.4293067"><ele>401.0</ele><time>2026-04-06T10:11:36.105Z</time></trkpt><trkpt lat="45.7053083" lon="8.42909"><ele>401.66666666666663</ele><time>2026-04-06T10:11:37.105Z</time></trkpt><trkpt lat="45.7053783" lon="8.428895"><ele>402.33333333333337</ele><time>2026-04-06T10:11:38.105Z</time></trkpt><trkpt lat="45.705445" lon="8.428705"><ele>403.0</ele><time>2026-04-06T10:11:39.105Z</time></trkpt><trkpt lat="45.7055133" lon="8.428515"><ele>403.5</ele><time>2026-04-06T10:11:40.105Z</time></trkpt><trkpt lat="45.70558" lon="8.4283117"><ele>404.0</ele><time>2026-04-06T10:11:41.105Z</time></trkpt><trkpt lat="45.70565" lon="8.42811"><ele>404.5</ele><time>2026-04-06T10:11:42.105Z</time></trkpt><trkpt lat="45.7057067" lon="8.4279483"><ele>405.0</ele><time>2026-04-06T10:11:43.105Z</time></trkpt><trkpt lat="45.7057617" lon="8.4277783"><ele>405.0</ele><time>2026-04-06T10:11:44.104Z</time></trkpt><trkpt lat="45.7058333" lon="8.4275767"><ele>405.0</ele><time>2026-04-06T10:11:45.104Z</time></trkpt><trkpt lat="45.7059" lon="8.4273683"><ele>405.0</ele><time>2026-04-06T10:11:46.105Z</time></trkpt><trkpt lat="45.70596" lon="8.4271733"><ele>404.33333333333337</ele><time>2026-04-06T10:11:47.105Z</time></trkpt><trkpt lat="45.706035" lon="8.4269667"><ele>403.6666666666667</ele><time>2026-04-06T10:11:48.105Z</time></trkpt><trkpt lat="45.7061017" lon="8.4267583"><ele>403.0</ele><time>2026-04-06T10:11:49.105Z</time></trkpt><trkpt lat="45.7061533" lon="8.4265667"><ele>404.25</ele><time>2026-04-06T10:11:50.105Z</time></trkpt><trkpt lat="45.70621" lon="8.426385"><ele>405.5</ele><time>2026-04-06T10:11:51.105Z</time></trkpt><trkpt lat="45.70627" lon="8.4262133"><ele>406.75</ele><time>2026-04-06T10:11:52.104Z</time></trkpt><trkpt lat="45.7063217" lon="8.4260517"><ele>408.0</ele><time>2026-04-06T10:11:53.105Z</time></trkpt><trkpt lat="45.7063817" lon="8.4258883"><ele>410.33333333333337</ele><time>2026-04-06T10:11:54.105Z</time></trkpt><trkpt lat="45.7065367" lon="8.4254617"><ele>412.6666666666667</ele><time>2026-04-06T10:11:57.105Z</time></trkpt><trkpt lat="45.7065917" lon="8.4253383"><ele>415.0</ele><time>2026-04-06T10:11:58.105Z</time></trkpt><trkpt lat="45.70665" lon="8.42522"><ele>415.00000000000006</ele><time>2026-04-06T10:11:59.105Z</time></trkpt><trkpt lat="45.70671" lon="8.4251167"><ele>415.0</ele><time>2026-04-06T10:12:00.105Z</time></trkpt><trkpt lat="45.7067583" lon="8.425025"><ele>415.0</ele><time>2026-04-06T10:12:01.105Z</time></trkpt><trkpt lat="45.7068083" lon="8.4249333"><ele>415.0</ele><time>2026-04-06T10:12:02.104Z</time></trkpt><trkpt lat="45.7068517" lon="8.4248367"><ele>415.00000000000006</ele><time>2026-04-06T10:12:03.105Z</time></trkpt><trkpt lat="45.7068983" lon="8.4247417"><ele>415.0</ele><time>2026-04-06T10:12:04.105Z</time></trkpt><trkpt lat="45.7069467" lon="8.4246583"><ele>417.8</ele><time>2026-04-06T10:12:05.105Z</time></trkpt><trkpt lat="45.7070033" lon="8.4245767"><ele>420.6</ele><time>2026-04-06T10:12:06.104Z</time></trkpt><trkpt lat="45.70705" lon="8.4244817"><ele>423.4</ele><time>2026-04-06T10:12:07.105Z</time></trkpt><trkpt lat="45.7071033" lon="8.4243683"><ele>426.2</ele><time>2026-04-06T10:12:08.105Z</time></trkpt><trkpt lat="45.7071717" lon="8.4242533"><ele>429.0</ele><time>2026-04-06T10:12:09.105Z</time></trkpt><trkpt lat="45.7072417" lon="8.4241633"><ele>429.0</ele><time>2026-04-06T10:12:10.105Z</time></trkpt><trkpt lat="45.7073067" lon="8.42408"><ele>429.0</ele><time>2026-04-06T10:12:11.105Z</time></trkpt><trkpt lat="45.707365" lon="8.4239917"><ele>429.0</ele><time>2026-04-06T10:12:12.105Z</time></trkpt><trkpt lat="45.7074433" lon="8.4239083"><ele>429.0</ele><time>2026-04-06T10:12:13.105Z</time></trkpt><trkpt lat="45.70752" lon="8.4238083"><ele>429.0</ele><time>2026-04-06T10:12:14.105Z</time></trkpt><trkpt lat="45.7075783" lon="8.4237133"><ele>429.6666666666667</ele><time>2026-04-06T10:12:15.105Z</time></trkpt><trkpt lat="45.7076433" lon="8.423615"><ele>430.33333333333337</ele><time>2026-04-06T10:12:16.105Z</time></trkpt><trkpt lat="45.7077033" lon="8.4235267"><ele>431.0</ele><time>2026-04-06T10:12:17.105Z</time></trkpt><trkpt lat="45.7077633" lon="8.42345"><ele>431.6666666666667</ele><time>2026-04-06T10:12:18.105Z</time></trkpt><trkpt lat="45.7078083" lon="8.4233783"><ele>432.33333333333337</ele><time>2026-04-06T10:12:19.105Z</time></trkpt><trkpt lat="45.707885" lon="8.423245"><ele>433.0</ele><time>2026-04-06T10:12:21.105Z</time></trkpt><trkpt lat="45.7079183" lon="8.4230633"><ele>433.79999999999995</ele><time>2026-04-06T10:12:23.105Z</time></trkpt><trkpt lat="45.7079383" lon="8.4229533"><ele>434.59999999999997</ele><time>2026-04-06T10:12:24.105Z</time></trkpt><trkpt lat="45.70797" lon="8.422835"><ele>435.40000000000003</ele><time>2026-04-06T10:12:25.105Z</time></trkpt><trkpt lat="45.7080267" lon="8.422705"><ele>436.20000000000005</ele><time>2026-04-06T10:12:26.105Z</time></trkpt><trkpt lat="45.7080683" lon="8.42257"><ele>437.0</ele><time>2026-04-06T10:12:27.104Z</time></trkpt><trkpt lat="45.7080883" lon="8.42243"><ele>436.99999999999994</ele><time>2026-04-06T10:12:28.104Z</time></trkpt><trkpt lat="45.708115" lon="8.4222983"><ele>437.0</ele><time>2026-04-06T10:12:29.104Z</time></trkpt><trkpt lat="45.7081433" lon="8.422185"><ele>437.0</ele><time>2026-04-06T10:12:30.105Z</time></trkpt><trkpt lat="45.70818" lon="8.4220983"><ele>437.0</ele><time>2026-04-06T10:12:31.105Z</time></trkpt><trkpt lat="45.708245" lon="8.422045"><ele>436.99999999999994</ele><time>2026-04-06T10:12:32.105Z</time></trkpt><trkpt lat="45.7083233" lon="8.42196"><ele>437.0</ele><time>2026-04-06T10:12:33.105Z</time></trkpt><trkpt lat="45.70841" lon="8.4218817"><ele>437.5</ele><time>2026-04-06T10:12:34.105Z</time></trkpt><trkpt lat="45.7084933" lon="8.4218017"><ele>438.0</ele><time>2026-04-06T10:12:35.105Z</time></trkpt><trkpt lat="45.7085733" lon="8.421745"><ele>438.5</ele><time>2026-04-06T10:12:36.104Z</time></trkpt><trkpt lat="45.70874" lon="8.42165"><ele>439.0</ele><time>2026-04-06T10:12:38.104Z</time></trkpt><trkpt lat="45.7088383" lon="8.42162"><ele>439.0</ele><time>2026-04-06T10:12:39.105Z</time></trkpt><trkpt lat="45.708935" lon="8.42159"><ele>439.0</ele><time>2026-04-06T10:12:40.105Z</time></trkpt><trkpt lat="45.7090433" lon="8.42157"><ele>439.0</ele><time>2026-04-06T10:12:41.104Z</time></trkpt><trkpt lat="45.7091517" lon="8.4215683"><ele>439.0</ele><time>2026-04-06T10:12:42.105Z</time></trkpt><trkpt lat="45.7092633" lon="8.421555"><ele>439.0</ele><time>2026-04-06T10:12:43.104Z</time></trkpt><trkpt lat="45.70936" lon="8.4215"><ele>437.79999999999995</ele><time>2026-04-06T10:12:44.105Z</time></trkpt><trkpt lat="45.7094333" lon="8.4214083"><ele>436.59999999999997</ele><time>2026-04-06T10:12:45.105Z</time></trkpt><trkpt lat="45.7094967" lon="8.4213067"><ele>435.4</ele><time>2026-04-06T10:12:46.105Z</time></trkpt><trkpt lat="45.7095317" lon="8.4212017"><ele>434.2</ele><time>2026-04-06T10:12:47.105Z</time></trkpt><trkpt lat="45.7095483" lon="8.4210767"><ele>433.0</ele><time>2026-04-06T10:12:48.105Z</time></trkpt><trkpt lat="45.7095483" lon="8.4209083"><ele>433.0</ele><time>2026-04-06T10:12:49.105Z</time></trkpt><trkpt lat="45.70955" lon="8.42075"><ele>432.99999999999994</ele><time>2026-04-06T10:12:50.105Z</time></trkpt><trkpt lat="45.70956" lon="8.4206"><ele>432.99999999999994</ele><time>2026-04-06T10:12:51.105Z</time></trkpt><trkpt lat="45.70959" lon="8.4204633"><ele>433.0</ele><time>2026-04-06T10:12:52.105Z</time></trkpt><trkpt lat="45.7096467" lon="8.420335"><ele>433.0</ele><time>2026-04-06T10:12:53.105Z</time></trkpt><trkpt lat="45.7097217" lon="8.420215"><ele>433.0</ele><time>2026-04-06T10:12:54.105Z</time></trkpt><trkpt lat="45.7098033" lon="8.42009"><ele>432.99999999999994</ele><time>2026-04-06T10:12:55.105Z</time></trkpt><trkpt lat="45.7098767" lon="8.4199783"><ele>432.99999999999994</ele><time>2026-04-06T10:12:56.105Z</time></trkpt><trkpt lat="45.7099467" lon="8.41988"><ele>433.0</ele><time>2026-04-06T10:12:57.105Z</time></trkpt><trkpt lat="45.7100283" lon="8.4197967"><ele>433.0</ele><time>2026-04-06T10:12:58.105Z</time></trkpt><trkpt lat="45.710115" lon="8.4197117"><ele>433.0</ele><time>2026-04-06T10:12:59.105Z</time></trkpt><trkpt lat="45.7101917" lon="8.4196167"><ele>432.99999999999994</ele><time>2026-04-06T10:13:00.105Z</time></trkpt><trkpt lat="45.7102567" lon="8.4195067"><ele>432.99999999999994</ele><time>2026-04-06T10:13:01.104Z</time></trkpt><trkpt lat="45.7103133" lon="8.419385"><ele>433.0</ele><time>2026-04-06T10:13:02.105Z</time></trkpt><trkpt lat="45.7103717" lon="8.4192717"><ele>433.0</ele><time>2026-04-06T10:13:03.105Z</time></trkpt><trkpt lat="45.7104467" lon="8.41916"><ele>433.79999999999995</ele><time>2026-04-06T10:13:04.104Z</time></trkpt><trkpt lat="45.71053" lon="8.41907"><ele>434.59999999999997</ele><time>2026-04-06T10:13:05.105Z</time></trkpt><trkpt lat="45.7106167" lon="8.4189783"><ele>435.40000000000003</ele><time>2026-04-06T10:13:06.105Z</time></trkpt><trkpt lat="45.7106933" lon="8.4188967"><ele>436.20000000000005</ele><time>2026-04-06T10:13:07.104Z</time></trkpt><trkpt lat="45.7107817" lon="8.4188083"><ele>437.0</ele><time>2026-04-06T10:13:08.105Z</time></trkpt><trkpt lat="45.7108583" lon="8.4187167"><ele>437.0</ele><time>2026-04-06T10:13:09.104Z</time></trkpt><trkpt lat="45.7109383" lon="8.4186283"><ele>437.0</ele><time>2026-04-06T10:13:10.105Z</time></trkpt><trkpt lat="45.71105" lon="8.418545"><ele>437.0</ele><time>2026-04-06T10:13:11.105Z</time></trkpt><trkpt lat="45.7111517" lon="8.4184783"><ele>437.0</ele><time>2026-04-06T10:13:12.105Z</time></trkpt><trkpt lat="45.7112617" lon="8.418365"><ele>438.20000000000005</ele><time>2026-04-06T10:13:13.105Z</time></trkpt><trkpt lat="45.71135" lon="8.4182633"><ele>439.40000000000003</ele><time>2026-04-06T10:13:14.104Z</time></trkpt><trkpt lat="45.711415" lon="8.4181733"><ele>440.59999999999997</ele><time>2026-04-06T10:13:15.105Z</time></trkpt><trkpt lat="45.7114667" lon="8.4180867"><ele>441.79999999999995</ele><time>2026-04-06T10:13:16.105Z</time></trkpt><trkpt lat="45.7115383" lon="8.4180083"><ele>443.0</ele><time>2026-04-06T10:13:17.104Z</time></trkpt><trkpt lat="45.7116233" lon="8.417935"><ele>443.0</ele><time>2026-04-06T10:13:18.105Z</time></trkpt><trkpt lat="45.7117283" lon="8.417865"><ele>442.99999999999994</ele><time>2026-04-06T10:13:19.105Z</time></trkpt><trkpt lat="45.7118267" lon="8.4177917"><ele>442.99999999999994</ele><time>2026-04-06T10:13:20.105Z</time></trkpt><trkpt lat="45.71191" lon="8.4177067"><ele>443.0</ele><time>2026-04-06T10:13:21.105Z</time></trkpt><trkpt lat="45.711995" lon="8.4176033"><ele>443.0</ele><time>2026-04-06T10:13:22.105Z</time></trkpt><trkpt lat="45.71209" lon="8.4174917"><ele>442.75</ele><time>2026-04-06T10:13:23.105Z</time></trkpt><trkpt lat="45.7122" lon="8.4173783"><ele>442.5</ele><time>2026-04-06T10:13:24.105Z</time></trkpt><trkpt lat="45.7123083" lon="8.4172667"><ele>442.25</ele><time>2026-04-06T10:13:25.105Z</time></trkpt><trkpt lat="45.7124067" lon="8.4171517"><ele>442.0</ele><time>2026-04-06T10:13:26.105Z</time></trkpt><trkpt lat="45.7124933" lon="8.4170267"><ele>442.0</ele><time>2026-04-06T10:13:27.105Z</time></trkpt><trkpt lat="45.7125933" lon="8.4169267"><ele>442.00000000000006</ele><time>2026-04-06T10:13:28.104Z</time></trkpt><trkpt lat="45.7126883" lon="8.4168317"><ele>442.00000000000006</ele><time>2026-04-06T10:13:29.105Z</time></trkpt><trkpt lat="45.7127767" lon="8.4167533"><ele>442.0</ele><time>2026-04-06T10:13:30.105Z</time></trkpt><trkpt lat="45.7128633" lon="8.4166817"><ele>442.0</ele><time>2026-04-06T10:13:31.105Z</time></trkpt><trkpt lat="45.71296" lon="8.4166183"><ele>443.75</ele><time>2026-04-06T10:13:32.105Z</time></trkpt><trkpt lat="45.7130667" lon="8.4165517"><ele>445.5</ele><time>2026-04-06T10:13:33.105Z</time></trkpt><trkpt lat="45.713185" lon="8.4164767"><ele>447.25</ele><time>2026-04-06T10:13:34.104Z</time></trkpt><trkpt lat="45.7133067" lon="8.416405"><ele>449.0</ele><time>2026-04-06T10:13:35.105Z</time></trkpt><trkpt lat="45.7134217" lon="8.416305"><ele>449.0</ele><time>2026-04-06T10:13:36.105Z</time></trkpt><trkpt lat="45.7135283" lon="8.4161917"><ele>449.0</ele><time>2026-04-06T10:13:37.105Z</time></trkpt><trkpt lat="45.7136417" lon="8.4160667"><ele>449.0</ele><time>2026-04-06T10:13:38.105Z</time></trkpt><trkpt lat="45.7137367" lon="8.4159333"><ele>449.0</ele><time>2026-04-06T10:13:39.105Z</time></trkpt><trkpt lat="45.7138133" lon="8.4157783"><ele>450.0</ele><time>2026-04-06T10:13:40.105Z</time></trkpt><trkpt lat="45.7138733" lon="8.4156367"><ele>451.0</ele><time>2026-04-06T10:13:41.105Z</time></trkpt><trkpt lat="45.7139317" lon="8.4155067"><ele>452.0</ele><time>2026-04-06T10:13:42.104Z</time></trkpt><trkpt lat="45.7139967" lon="8.4153967"><ele>453.0</ele><time>2026-04-06T10:13:43.105Z</time></trkpt><trkpt lat="45.71407" lon="8.4152983"><ele>454.0</ele><time>2026-04-06T10:13:44.105Z</time></trkpt><trkpt lat="45.7141433" lon="8.4152033"><ele>454.0</ele><time>2026-04-06T10:13:45.105Z</time></trkpt><trkpt lat="45.7142317" lon="8.4150933"><ele>454.0</ele><time>2026-04-06T10:13:46.105Z</time></trkpt><trkpt lat="45.7143233" lon="8.4150083"><ele>454.0</ele><time>2026-04-06T10:13:47.104Z</time></trkpt><trkpt lat="45.7144133" lon="8.4149317"><ele>454.0</ele><time>2026-04-06T10:13:48.105Z</time></trkpt><trkpt lat="45.7145017" lon="8.4148817"><ele>454.0</ele><time>2026-04-06T10:13:49.105Z</time></trkpt><trkpt lat="45.7145867" lon="8.4148483"><ele>454.0</ele><time>2026-04-06T10:13:50.105Z</time></trkpt><trkpt lat="45.714685" lon="8.4148267"><ele>454.0</ele><time>2026-04-06T10:13:51.105Z</time></trkpt><trkpt lat="45.7147767" lon="8.41481"><ele>454.0</ele><time>2026-04-06T10:13:52.104Z</time></trkpt><trkpt lat="45.7149733" lon="8.414705"><ele>454.0</ele><time>2026-04-06T10:13:54.105Z</time></trkpt><trkpt lat="45.7150617" lon="8.4146083"><ele>454.0</ele><time>2026-04-06T10:13:55.105Z</time></trkpt><trkpt lat="45.715145" lon="8.414525"><ele>454.0</ele><time>2026-04-06T10:13:56.105Z</time></trkpt><trkpt lat="45.7152417" lon="8.4144517"><ele>454.0</ele><time>2026-04-06T10:13:57.105Z</time></trkpt><trkpt lat="45.7153267" lon="8.4143517"><ele>454.0</ele><time>2026-04-06T10:13:58.105Z</time></trkpt><trkpt lat="45.715405" lon="8.414205"><ele>456.0</ele><time>2026-04-06T10:13:59.105Z</time></trkpt><trkpt lat="45.7154817" lon="8.4140183"><ele>458.0</ele><time>2026-04-06T10:14:00.105Z</time></trkpt><trkpt lat="45.715535" lon="8.4138733"><ele>460.0</ele><time>2026-04-06T10:14:01.105Z</time></trkpt><trkpt lat="45.7155867" lon="8.413745"><ele>462.0</ele><time>2026-04-06T10:14:02.105Z</time></trkpt><trkpt lat="45.7156467" lon="8.4136067"><ele>462.20000000000005</ele><time>2026-04-06T10:14:03.105Z</time></trkpt><trkpt lat="45.7156933" lon="8.4135033"><ele>462.40000000000003</ele><time>2026-04-06T10:14:04.105Z</time></trkpt><trkpt lat="45.715735" lon="8.4133917"><ele>462.59999999999997</ele><time>2026-04-06T10:14:05.105Z</time></trkpt><trkpt lat="45.71577" lon="8.413265"><ele>462.79999999999995</ele><time>2026-04-06T10:14:06.105Z</time></trkpt><trkpt lat="45.7158017" lon="8.4131317"><ele>463.0</ele><time>2026-04-06T10:14:07.105Z</time></trkpt><trkpt lat="45.7158417" lon="8.4130083"><ele>462.59999999999997</ele><time>2026-04-06T10:14:08.105Z</time></trkpt><trkpt lat="45.7158967" lon="8.4128833"><ele>462.19999999999993</ele><time>2026-04-06T10:14:09.104Z</time></trkpt><trkpt lat="45.7159583" lon="8.4127733"><ele>461.8</ele><time>2026-04-06T10:14:10.104Z</time></trkpt><trkpt lat="45.7160233" lon="8.4126767"><ele>461.4</ele><time>2026-04-06T10:14:11.105Z</time></trkpt><trkpt lat="45.716095" lon="8.4125917"><ele>461.0</ele><time>2026-04-06T10:14:12.105Z</time></trkpt><trkpt lat="45.716165" lon="8.4125183"><ele>460.20000000000005</ele><time>2026-04-06T10:14:13.104Z</time></trkpt><trkpt lat="45.716245" lon="8.41244"><ele>459.40000000000003</ele><time>2026-04-06T10:14:14.105Z</time></trkpt><trkpt lat="45.716335" lon="8.4123733"><ele>458.6</ele><time>2026-04-06T10:14:15.105Z</time></trkpt><trkpt lat="45.716445" lon="8.412305"><ele>457.8</ele><time>2026-04-06T10:14:16.105Z</time></trkpt><trkpt lat="45.7165483" lon="8.4122433"><ele>457.0</ele><time>2026-04-06T10:14:17.105Z</time></trkpt><trkpt lat="45.7166617" lon="8.4121717"><ele>455.5</ele><time>2026-04-06T10:14:18.105Z</time></trkpt><trkpt lat="45.7167767" lon="8.4120967"><ele>454.0</ele><time>2026-04-06T10:14:19.105Z</time></trkpt><trkpt lat="45.7169033" lon="8.412065"><ele>452.5</ele><time>2026-04-06T10:14:20.105Z</time></trkpt><trkpt lat="45.7170333" lon="8.4120383"><ele>451.0</ele><time>2026-04-06T10:14:21.105Z</time></trkpt><trkpt lat="45.7171683" lon="8.4119967"><ele>453.6</ele><time>2026-04-06T10:14:22.105Z</time></trkpt><trkpt lat="45.7172867" lon="8.4119417"><ele>456.20000000000005</ele><time>2026-04-06T10:14:23.105Z</time></trkpt><trkpt lat="45.7173933" lon="8.4119083"><ele>458.79999999999995</ele><time>2026-04-06T10:14:24.105Z</time></trkpt><trkpt lat="45.7174817" lon="8.411855"><ele>461.4</ele><time>2026-04-06T10:14:25.105Z</time></trkpt><trkpt lat="45.71757" lon="8.4118183"><ele>464.0</ele><time>2026-04-06T10:14:26.105Z</time></trkpt><trkpt lat="45.71765" lon="8.4117733"><ele>463.99999999999994</ele><time>2026-04-06T10:14:27.105Z</time></trkpt><trkpt lat="45.71773" lon="8.411715"><ele>464.0</ele><time>2026-04-06T10:14:28.105Z</time></trkpt><trkpt lat="45.7178017" lon="8.411655"><ele>464.0</ele><time>2026-04-06T10:14:29.105Z</time></trkpt><trkpt lat="45.71787" lon="8.4115883"><ele>464.0</ele><time>2026-04-06T10:14:30.104Z</time></trkpt><trkpt lat="45.717945" lon="8.41151"><ele>463.99999999999994</ele><time>2026-04-06T10:14:31.104Z</time></trkpt><trkpt lat="45.7180133" lon="8.4114283"><ele>464.0</ele><time>2026-04-06T10:14:32.105Z</time></trkpt><trkpt lat="45.7180767" lon="8.411325"><ele>468.66666666666663</ele><time>2026-04-06T10:14:33.104Z</time></trkpt><trkpt lat="45.7181483" lon="8.4112233"><ele>473.33333333333337</ele><time>2026-04-06T10:14:34.104Z</time></trkpt><trkpt lat="45.7183233" lon="8.41087"><ele>478.0</ele><time>2026-04-06T10:14:37.105Z</time></trkpt><trkpt lat="45.7183667" lon="8.4107417"><ele>478.0</ele><time>2026-04-06T10:14:38.104Z</time></trkpt><trkpt lat="45.7184717" lon="8.41046"><ele>478.0</ele><time>2026-04-06T10:14:40.105Z</time></trkpt><trkpt lat="45.7185683" lon="8.41024"><ele>478.0</ele><time>2026-04-06T10:14:42.105Z</time></trkpt><trkpt lat="45.7186133" lon="8.4101417"><ele>477.59999999999997</ele><time>2026-04-06T10:14:43.105Z</time></trkpt><trkpt lat="45.7186783" lon="8.4100567"><ele>477.19999999999993</ele><time>2026-04-06T10:14:44.105Z</time></trkpt><trkpt lat="45.718735" lon="8.4099617"><ele>476.8</ele><time>2026-04-06T10:14:45.105Z</time></trkpt><trkpt lat="45.7187833" lon="8.40984"><ele>476.4</ele><time>2026-04-06T10:14:46.105Z</time></trkpt><trkpt lat="45.7188067" lon="8.409705"><ele>476.0</ele><time>2026-04-06T10:14:47.105Z</time></trkpt><trkpt lat="45.7188267" lon="8.40956"><ele>475.4</ele><time>2026-04-06T10:14:48.105Z</time></trkpt><trkpt lat="45.7188517" lon="8.4094167"><ele>474.8</ele><time>2026-04-06T10:14:49.104Z</time></trkpt><trkpt lat="45.71888" lon="8.409255"><ele>474.19999999999993</ele><time>2026-04-06T10:14:50.105Z</time></trkpt><trkpt lat="45.7189083" lon="8.409115"><ele>473.59999999999997</ele><time>2026-04-06T10:14:51.105Z</time></trkpt><trkpt lat="45.7189383" lon="8.4089717"><ele>473.0</ele><time>2026-04-06T10:14:52.105Z</time></trkpt><trkpt lat="45.7189583" lon="8.4088333"><ele>472.0</ele><time>2026-04-06T10:14:53.105Z</time></trkpt><trkpt lat="45.718975" lon="8.4086867"><ele>470.99999999999994</ele><time>2026-04-06T10:14:54.105Z</time></trkpt><trkpt lat="45.7189783" lon="8.408555"><ele>469.99999999999994</ele><time>2026-04-06T10:14:55.105Z</time></trkpt><trkpt lat="45.718985" lon="8.408425"><ele>469.0</ele><time>2026-04-06T10:14:56.104Z</time></trkpt><trkpt lat="45.7189833" lon="8.4083067"><ele>468.0</ele><time>2026-04-06T10:14:57.105Z</time></trkpt><trkpt lat="45.71898" lon="8.40818"><ele>468.0</ele><time>2026-04-06T10:14:58.105Z</time></trkpt><trkpt lat="45.7189783" lon="8.40804"><ele>467.99999999999994</ele><time>2026-04-06T10:14:59.104Z</time></trkpt><trkpt lat="45.7190017" lon="8.4078917"><ele>467.99999999999994</ele><time>2026-04-06T10:15:00.105Z</time></trkpt><trkpt lat="45.7190183" lon="8.407745"><ele>468.0</ele><time>2026-04-06T10:15:01.105Z</time></trkpt><trkpt lat="45.71905" lon="8.4075883"><ele>468.0</ele><time>2026-04-06T10:15:02.104Z</time></trkpt><trkpt lat="45.719075" lon="8.4074317"><ele>468.59999999999997</ele><time>2026-04-06T10:15:03.104Z</time></trkpt><trkpt lat="45.719105" lon="8.4072733"><ele>469.19999999999993</ele><time>2026-04-06T10:15:04.105Z</time></trkpt><trkpt lat="45.719145" lon="8.4071283"><ele>469.8</ele><time>2026-04-06T10:15:05.105Z</time></trkpt><trkpt lat="45.7191983" lon="8.4069933"><ele>470.4</ele><time>2026-04-06T10:15:06.104Z</time></trkpt><trkpt lat="45.719265" lon="8.40686"><ele>471.0</ele><time>2026-04-06T10:15:07.104Z</time></trkpt><trkpt lat="45.7193317" lon="8.4067383"><ele>471.20000000000005</ele><time>2026-04-06T10:15:08.104Z</time></trkpt><trkpt lat="45.7194" lon="8.4066067"><ele>471.40000000000003</ele><time>2026-04-06T10:15:09.104Z</time></trkpt><trkpt lat="45.7194667" lon="8.4064883"><ele>471.6</ele><time>2026-04-06T10:15:10.104Z</time></trkpt><trkpt lat="45.719515" lon="8.4063567"><ele>471.8</ele><time>2026-04-06T10:15:11.104Z</time></trkpt><trkpt lat="45.71957" lon="8.4062317"><ele>472.0</ele><time>2026-04-06T10:15:12.104Z</time></trkpt><trkpt lat="45.7196333" lon="8.4061283"><ele>471.0</ele><time>2026-04-06T10:15:13.103Z</time></trkpt><trkpt lat="45.7197033" lon="8.4060233"><ele>470.00000000000006</ele><time>2026-04-06T10:15:14.103Z</time></trkpt><trkpt lat="45.7197633" lon="8.4059017"><ele>469.00000000000006</ele><time>2026-04-06T10:15:15.104Z</time></trkpt><trkpt lat="45.719815" lon="8.405775"><ele>468.0</ele><time>2026-04-06T10:15:16.104Z</time></trkpt><trkpt lat="45.7198583" lon="8.405665"><ele>467.0</ele><time>2026-04-06T10:15:17.104Z</time></trkpt><trkpt lat="45.7199017" lon="8.40556"><ele>467.0</ele><time>2026-04-06T10:15:18.103Z</time></trkpt><trkpt lat="45.719955" lon="8.4054783"><ele>467.00000000000006</ele><time>2026-04-06T10:15:19.103Z</time></trkpt><trkpt lat="45.7200333" lon="8.4054067"><ele>467.00000000000006</ele><time>2026-04-06T10:15:20.104Z</time></trkpt><trkpt lat="45.7201117" lon="8.4053383"><ele>467.0</ele><time>2026-04-06T10:15:21.104Z</time></trkpt><trkpt lat="45.7201867" lon="8.40525"><ele>467.0</ele><time>2026-04-06T10:15:22.103Z</time></trkpt><trkpt lat="45.7202583" lon="8.4051483"><ele>467.0</ele><time>2026-04-06T10:15:23.104Z</time></trkpt><trkpt lat="45.7203317" lon="8.4050417"><ele>467.00000000000006</ele><time>2026-04-06T10:15:24.103Z</time></trkpt><trkpt lat="45.720415" lon="8.4049367"><ele>467.00000000000006</ele><time>2026-04-06T10:15:25.104Z</time></trkpt><trkpt lat="45.720495" lon="8.4048217"><ele>467.0</ele><time>2026-04-06T10:15:26.104Z</time></trkpt><trkpt lat="45.720575" lon="8.404705"><ele>467.0</ele><time>2026-04-06T10:15:27.104Z</time></trkpt><trkpt lat="45.7206467" lon="8.4045717"><ele>468.0</ele><time>2026-04-06T10:15:28.104Z</time></trkpt><trkpt lat="45.7207167" lon="8.40443"><ele>469.0</ele><time>2026-04-06T10:15:29.104Z</time></trkpt><trkpt lat="45.7207817" lon="8.4042933"><ele>470.0</ele><time>2026-04-06T10:15:30.104Z</time></trkpt><trkpt lat="45.7208483" lon="8.404175"><ele>471.0</ele><time>2026-04-06T10:15:31.104Z</time></trkpt><trkpt lat="45.7209217" lon="8.4040617"><ele>471.0</ele><time>2026-04-06T10:15:32.104Z</time></trkpt><trkpt lat="45.7209783" lon="8.4039483"><ele>471.0</ele><time>2026-04-06T10:15:33.104Z</time></trkpt><trkpt lat="45.721035" lon="8.40384"><ele>471.0</ele><time>2026-04-06T10:15:34.104Z</time></trkpt><trkpt lat="45.7210883" lon="8.4037367"><ele>471.0</ele><time>2026-04-06T10:15:35.104Z</time></trkpt><trkpt lat="45.7211533" lon="8.4036567"><ele>471.0</ele><time>2026-04-06T10:15:36.104Z</time></trkpt><trkpt lat="45.721215" lon="8.4035717"><ele>472.3333333333333</ele><time>2026-04-06T10:15:37.104Z</time></trkpt><trkpt lat="45.7212583" lon="8.403475"><ele>473.66666666666663</ele><time>2026-04-06T10:15:38.104Z</time></trkpt><trkpt lat="45.7213033" lon="8.4033933"><ele>475.0</ele><time>2026-04-06T10:15:39.104Z</time></trkpt><trkpt lat="45.7213733" lon="8.4032867"><ele>476.3333333333333</ele><time>2026-04-06T10:15:41.104Z</time></trkpt><trkpt lat="45.721435" lon="8.4032667"><ele>477.66666666666663</ele><time>2026-04-06T10:16:01.104Z</time></trkpt><trkpt lat="45.7215017" lon="8.4032567"><ele>479.0</ele><time>2026-04-06T10:16:50.104Z</time></trkpt><trkpt lat="45.7215667" lon="8.403285"><ele>479.0</ele><time>2026-04-06T10:18:39.104Z</time></trkpt><trkpt lat="45.7216267" lon="8.40335"><ele>479.0</ele><time>2026-04-06T10:18:41.104Z</time></trkpt><trkpt lat="45.721665" lon="8.4035"><ele>479.0</ele><time>2026-04-06T10:18:43.104Z</time></trkpt><trkpt lat="45.72172" lon="8.4036367"><ele>479.0</ele><time>2026-04-06T10:18:45.103Z</time></trkpt><trkpt lat="45.7218" lon="8.4036617"><ele>479.0</ele><time>2026-04-06T10:18:46.104Z</time></trkpt><trkpt lat="45.7218733" lon="8.4036783"><ele>479.3333333333333</ele><time>2026-04-06T10:18:47.104Z</time></trkpt><trkpt lat="45.721945" lon="8.403685"><ele>479.66666666666663</ele><time>2026-04-06T10:18:48.104Z</time></trkpt><trkpt lat="45.7220367" lon="8.4036917"><ele>480.0</ele><time>2026-04-06T10:18:50.102Z</time></trkpt><trkpt lat="45.7220667" lon="8.4037917"><ele>480.33333333333337</ele><time>2026-04-06T10:18:55.102Z</time></trkpt><trkpt lat="45.72207" lon="8.4039233"><ele>480.6666666666667</ele><time>2026-04-06T10:19:03.102Z</time></trkpt><trkpt lat="45.7220817" lon="8.404045"><ele>481.0</ele><time>2026-04-06T10:19:04.103Z</time></trkpt><trkpt lat="45.722095" lon="8.4041667"><ele>481.0</ele><time>2026-04-06T10:19:05.103Z</time></trkpt><trkpt lat="45.7221383" lon="8.40437"><ele>481.0</ele><time>2026-04-06T10:19:07.103Z</time></trkpt><trkpt lat="45.7223" lon="8.4044867"><ele>481.0</ele><time>2026-04-06T10:19:09.103Z</time></trkpt><trkpt lat="45.722395" lon="8.4045433"><ele>481.0</ele><time>2026-04-06T10:19:10.103Z</time></trkpt><trkpt lat="45.7224817" lon="8.4046083"><ele>472.5</ele><time>2026-04-06T10:19:11.103Z</time></trkpt><trkpt lat="45.7227467" lon="8.404935"><ele>464.0</ele><time>2026-04-06T10:19:14.103Z</time></trkpt><trkpt lat="45.7228483" lon="8.40502"><ele>464.0</ele><time>2026-04-06T10:19:15.103Z</time></trkpt><trkpt lat="45.7229367" lon="8.405075"><ele>464.0</ele><time>2026-04-06T10:19:16.103Z</time></trkpt><trkpt lat="45.7230867" lon="8.4051983"><ele>464.0</ele><time>2026-04-06T10:19:18.102Z</time></trkpt><trkpt lat="45.7232" lon="8.4054067"><ele>464.4</ele><time>2026-04-06T10:19:20.103Z</time></trkpt><trkpt lat="45.7232417" lon="8.4055217"><ele>464.79999999999995</ele><time>2026-04-06T10:19:21.103Z</time></trkpt><trkpt lat="45.7232883" lon="8.4056417"><ele>465.20000000000005</ele><time>2026-04-06T10:19:22.103Z</time></trkpt><trkpt lat="45.7233383" lon="8.4057583"><ele>465.6</ele><time>2026-04-06T10:19:23.103Z</time></trkpt><trkpt lat="45.7233883" lon="8.4058767"><ele>466.0</ele><time>2026-04-06T10:19:24.103Z</time></trkpt><trkpt lat="45.72343" lon="8.4059967"><ele>466.00000000000006</ele><time>2026-04-06T10:19:25.102Z</time></trkpt><trkpt lat="45.7234717" lon="8.4061083"><ele>466.0</ele><time>2026-04-06T10:19:26.103Z</time></trkpt><trkpt lat="45.7235" lon="8.4062117"><ele>466.0</ele><time>2026-04-06T10:19:27.103Z</time></trkpt><trkpt lat="45.72352" lon="8.4063317"><ele>466.0</ele><time>2026-04-06T10:19:28.103Z</time></trkpt><trkpt lat="45.7234767" lon="8.40645"><ele>466.00000000000006</ele><time>2026-04-06T10:19:29.103Z</time></trkpt><trkpt lat="45.7234283" lon="8.406565"><ele>466.0</ele><time>2026-04-06T10:19:30.103Z</time></trkpt><trkpt lat="45.7233967" lon="8.4066733"><ele>466.20000000000005</ele><time>2026-04-06T10:19:31.103Z</time></trkpt><trkpt lat="45.7233783" lon="8.406785"><ele>466.40000000000003</ele><time>2026-04-06T10:19:32.103Z</time></trkpt><trkpt lat="45.7233683" lon="8.4069117"><ele>466.6</ele><time>2026-04-06T10:19:33.103Z</time></trkpt><trkpt lat="45.7233917" lon="8.40701"><ele>466.8</ele><time>2026-04-06T10:19:34.103Z</time></trkpt><trkpt lat="45.7234117" lon="8.4071633"><ele>467.0</ele><time>2026-04-06T10:19:36.103Z</time></trkpt><trkpt lat="45.72338" lon="8.407335"><ele>467.0</ele><time>2026-04-06T10:19:38.103Z</time></trkpt><trkpt lat="45.7233567" lon="8.40746"><ele>467.00000000000006</ele><time>2026-04-06T10:19:39.103Z</time></trkpt><trkpt lat="45.7233467" lon="8.407595"><ele>467.00000000000006</ele><time>2026-04-06T10:19:40.103Z</time></trkpt><trkpt lat="45.7233417" lon="8.40774"><ele>467.0</ele><time>2026-04-06T10:19:41.103Z</time></trkpt><trkpt lat="45.7233483" lon="8.4078933"><ele>467.0</ele><time>2026-04-06T10:19:42.103Z</time></trkpt><trkpt lat="45.7233667" lon="8.4080467"><ele>466.0</ele><time>2026-04-06T10:19:43.103Z</time></trkpt><trkpt lat="45.7233767" lon="8.408205"><ele>465.0</ele><time>2026-04-06T10:19:44.103Z</time></trkpt><trkpt lat="45.7233633" lon="8.4083783"><ele>464.0</ele><time>2026-04-06T10:19:45.103Z</time></trkpt><trkpt lat="45.72335" lon="8.4085383"><ele>463.0</ele><time>2026-04-06T10:19:46.102Z</time></trkpt><trkpt lat="45.7233483" lon="8.4086983"><ele>462.4</ele><time>2026-04-06T10:19:47.103Z</time></trkpt><trkpt lat="45.72335" lon="8.4088383"><ele>461.79999999999995</ele><time>2026-04-06T10:19:48.102Z</time></trkpt><trkpt lat="45.723375" lon="8.4089683"><ele>461.2</ele><time>2026-04-06T10:19:49.103Z</time></trkpt><trkpt lat="45.7233967" lon="8.4091033"><ele>460.6</ele><time>2026-04-06T10:19:50.103Z</time></trkpt><trkpt lat="45.7234133" lon="8.40925"><ele>460.0</ele><time>2026-04-06T10:19:51.103Z</time></trkpt><trkpt lat="45.7234167" lon="8.409385"><ele>460.0</ele><time>2026-04-06T10:19:52.102Z</time></trkpt><trkpt lat="45.72341" lon="8.40951"><ele>460.0</ele><time>2026-04-06T10:19:53.103Z</time></trkpt><trkpt lat="45.723385" lon="8.4096583"><ele>460.0</ele><time>2026-04-06T10:19:54.103Z</time></trkpt><trkpt lat="45.7233633" lon="8.4097883"><ele>460.0</ele><time>2026-04-06T10:19:55.103Z</time></trkpt><trkpt lat="45.7233417" lon="8.4099267"><ele>460.0</ele><time>2026-04-06T10:19:56.103Z</time></trkpt><trkpt lat="45.7233183" lon="8.41005"><ele>459.0</ele><time>2026-04-06T10:19:57.103Z</time></trkpt><trkpt lat="45.7233083" lon="8.4101767"><ele>458.0</ele><time>2026-04-06T10:19:58.103Z</time></trkpt><trkpt lat="45.723315" lon="8.4103133"><ele>457.0</ele><time>2026-04-06T10:19:59.103Z</time></trkpt><trkpt lat="45.72334" lon="8.410445"><ele>456.0</ele><time>2026-04-06T10:20:00.103Z</time></trkpt><trkpt lat="45.7233867" lon="8.410565"><ele>455.0</ele><time>2026-04-06T10:20:01.102Z</time></trkpt><trkpt lat="45.7234417" lon="8.4106717"><ele>454.8</ele><time>2026-04-06T10:20:02.103Z</time></trkpt><trkpt lat="45.7234983" lon="8.4107717"><ele>454.6</ele><time>2026-04-06T10:20:03.103Z</time></trkpt><trkpt lat="45.7235433" lon="8.4108717"><ele>454.4</ele><time>2026-04-06T10:20:04.103Z</time></trkpt><trkpt lat="45.7235783" lon="8.410975"><ele>454.2</ele><time>2026-04-06T10:20:05.103Z</time></trkpt><trkpt lat="45.7235833" lon="8.4112217"><ele>454.0</ele><time>2026-04-06T10:20:07.103Z</time></trkpt><trkpt lat="45.7235667" lon="8.4113917"><ele>453.4</ele><time>2026-04-06T10:20:08.102Z</time></trkpt><trkpt lat="45.723555" lon="8.411545"><ele>452.79999999999995</ele><time>2026-04-06T10:20:09.103Z</time></trkpt><trkpt lat="45.7235367" lon="8.4116817"><ele>452.20000000000005</ele><time>2026-04-06T10:20:10.103Z</time></trkpt><trkpt lat="45.7235483" lon="8.4118133"><ele>451.6</ele><time>2026-04-06T10:20:11.103Z</time></trkpt><trkpt lat="45.723575" lon="8.4119283"><ele>451.0</ele><time>2026-04-06T10:20:12.102Z</time></trkpt><trkpt lat="45.723625" lon="8.4120333"><ele>450.20000000000005</ele><time>2026-04-06T10:20:13.103Z</time></trkpt><trkpt lat="45.723675" lon="8.4121533"><ele>449.40000000000003</ele><time>2026-04-06T10:20:14.103Z</time></trkpt><trkpt lat="45.7237333" lon="8.4122583"><ele>448.6</ele><time>2026-04-06T10:20:15.103Z</time></trkpt><trkpt lat="45.7237983" lon="8.4123667"><ele>447.8</ele><time>2026-04-06T10:20:16.103Z</time></trkpt><trkpt lat="45.7238733" lon="8.41248"><ele>447.0</ele><time>2026-04-06T10:20:17.103Z</time></trkpt><trkpt lat="45.723955" lon="8.41258"><ele>447.0</ele><time>2026-04-06T10:20:18.103Z</time></trkpt><trkpt lat="45.724145" lon="8.4127383"><ele>447.0</ele><time>2026-04-06T10:20:20.102Z</time></trkpt><trkpt lat="45.7242517" lon="8.412815"><ele>447.0</ele><time>2026-04-06T10:20:21.103Z</time></trkpt><trkpt lat="45.72435" lon="8.4128883"><ele>444.0</ele><time>2026-04-06T10:20:22.103Z</time></trkpt><trkpt lat="45.7244467" lon="8.4129683"><ele>441.00000000000006</ele><time>2026-04-06T10:20:23.103Z</time></trkpt><trkpt lat="45.72453" lon="8.4130733"><ele>438.00000000000006</ele><time>2026-04-06T10:20:24.103Z</time></trkpt><trkpt lat="45.7245983" lon="8.4131867"><ele>435.0</ele><time>2026-04-06T10:20:25.103Z</time></trkpt><trkpt lat="45.724655" lon="8.4133"><ele>432.0</ele><time>2026-04-06T10:20:26.103Z</time></trkpt><trkpt lat="45.724685" lon="8.4134133"><ele>432.0</ele><time>2026-04-06T10:20:27.103Z</time></trkpt><trkpt lat="45.7247" lon="8.413535"><ele>432.00000000000006</ele><time>2026-04-06T10:20:28.103Z</time></trkpt><trkpt lat="45.72468" lon="8.41368"><ele>432.00000000000006</ele><time>2026-04-06T10:20:29.103Z</time></trkpt><trkpt lat="45.7246517" lon="8.41382"><ele>432.0</ele><time>2026-04-06T10:20:30.103Z</time></trkpt><trkpt lat="45.7246117" lon="8.413985"><ele>432.0</ele><time>2026-04-06T10:20:31.102Z</time></trkpt><trkpt lat="45.72456" lon="8.414155"><ele>432.5</ele><time>2026-04-06T10:20:32.102Z</time></trkpt><trkpt lat="45.7245183" lon="8.4143367"><ele>433.0</ele><time>2026-04-06T10:20:33.103Z</time></trkpt><trkpt lat="45.72448" lon="8.4145"><ele>433.5</ele><time>2026-04-06T10:20:34.103Z</time></trkpt><trkpt lat="45.7244367" lon="8.4146583"><ele>434.0</ele><time>2026-04-06T10:20:35.103Z</time></trkpt><trkpt lat="45.7243783" lon="8.4148167"><ele>434.0</ele><time>2026-04-06T10:20:36.103Z</time></trkpt><trkpt lat="45.7243017" lon="8.414955"><ele>434.0</ele><time>2026-04-06T10:20:37.103Z</time></trkpt><trkpt lat="45.72422" lon="8.4151"><ele>434.0</ele><time>2026-04-06T10:20:38.103Z</time></trkpt><trkpt lat="45.7241167" lon="8.4152167"><ele>434.0</ele><time>2026-04-06T10:20:39.103Z</time></trkpt><trkpt lat="45.724025" lon="8.41534"><ele>434.0</ele><time>2026-04-06T10:20:40.103Z</time></trkpt><trkpt lat="45.7239233" lon="8.4154433"><ele>434.0</ele><time>2026-04-06T10:20:41.103Z</time></trkpt><trkpt lat="45.7238283" lon="8.4155417"><ele>434.0</ele><time>2026-04-06T10:20:42.103Z</time></trkpt><trkpt lat="45.7237267" lon="8.41564"><ele>434.0</ele><time>2026-04-06T10:20:43.103Z</time></trkpt><trkpt lat="45.7236317" lon="8.415745"><ele>434.75</ele><time>2026-04-06T10:20:44.103Z</time></trkpt><trkpt lat="45.7235383" lon="8.415875"><ele>435.5</ele><time>2026-04-06T10:20:45.103Z</time></trkpt><trkpt lat="45.7234733" lon="8.4160117"><ele>436.25</ele><time>2026-04-06T10:20:46.102Z</time></trkpt><trkpt lat="45.7234033" lon="8.4161383"><ele>437.0</ele><time>2026-04-06T10:20:47.103Z</time></trkpt><trkpt lat="45.723335" lon="8.41626"><ele>430.25</ele><time>2026-04-06T10:20:48.103Z</time></trkpt><trkpt lat="45.7232483" lon="8.4163933"><ele>423.5</ele><time>2026-04-06T10:20:49.103Z</time></trkpt><trkpt lat="45.7231617" lon="8.4165133"><ele>416.75</ele><time>2026-04-06T10:20:50.102Z</time></trkpt><trkpt lat="45.7230883" lon="8.4166333"><ele>410.0</ele><time>2026-04-06T10:20:51.103Z</time></trkpt><trkpt lat="45.7230183" lon="8.41677"><ele>410.0</ele><time>2026-04-06T10:20:52.102Z</time></trkpt><trkpt lat="45.7229567" lon="8.4169117"><ele>410.0</ele><time>2026-04-06T10:20:53.103Z</time></trkpt><trkpt lat="45.7228933" lon="8.417055"><ele>410.0</ele><time>2026-04-06T10:20:54.103Z</time></trkpt><trkpt lat="45.722815" lon="8.417205"><ele>410.0</ele><time>2026-04-06T10:20:55.103Z</time></trkpt><trkpt lat="45.72277" lon="8.4173517"><ele>409.6</ele><time>2026-04-06T10:20:56.103Z</time></trkpt><trkpt lat="45.7227217" lon="8.4175117"><ele>409.2</ele><time>2026-04-06T10:20:57.103Z</time></trkpt><trkpt lat="45.722675" lon="8.4176683"><ele>408.79999999999995</ele><time>2026-04-06T10:20:58.103Z</time></trkpt><trkpt lat="45.7226283" lon="8.4178067"><ele>408.4</ele><time>2026-04-06T10:20:59.103Z</time></trkpt><trkpt lat="45.7225867" lon="8.4179217"><ele>408.0</ele><time>2026-04-06T10:21:00.103Z</time></trkpt><trkpt lat="45.722545" lon="8.4179983"><ele>405.0</ele><time>2026-04-06T10:21:01.103Z</time></trkpt><trkpt lat="45.7224767" lon="8.4180483"><ele>402.0</ele><time>2026-04-06T10:21:02.103Z</time></trkpt><trkpt lat="45.7223817" lon="8.418075"><ele>399.0</ele><time>2026-04-06T10:21:03.103Z</time></trkpt><trkpt lat="45.72226" lon="8.418075"><ele>396.0</ele><time>2026-04-06T10:21:04.103Z</time></trkpt><trkpt lat="45.7221217" lon="8.41808"><ele>393.0</ele><time>2026-04-06T10:21:05.103Z</time></trkpt><trkpt lat="45.7219833" lon="8.41808"><ele>392.5</ele><time>2026-04-06T10:21:06.103Z</time></trkpt><trkpt lat="45.7218433" lon="8.41809"><ele>392.0</ele><time>2026-04-06T10:21:07.102Z</time></trkpt><trkpt lat="45.7216933" lon="8.418095"><ele>391.5</ele><time>2026-04-06T10:21:08.103Z</time></trkpt><trkpt lat="45.7215483" lon="8.418105"><ele>391.0</ele><time>2026-04-06T10:21:09.103Z</time></trkpt><trkpt lat="45.7214233" lon="8.4181167"><ele>391.00000000000006</ele><time>2026-04-06T10:21:10.103Z</time></trkpt><trkpt lat="45.7213167" lon="8.4181333"><ele>391.0</ele><time>2026-04-06T10:21:11.103Z</time></trkpt><trkpt lat="45.7212283" lon="8.41815"><ele>391.0</ele><time>2026-04-06T10:21:12.103Z</time></trkpt><trkpt lat="45.7211517" lon="8.4181917"><ele>391.0</ele><time>2026-04-06T10:21:13.103Z</time></trkpt><trkpt lat="45.7211033" lon="8.4182583"><ele>391.00000000000006</ele><time>2026-04-06T10:21:14.102Z</time></trkpt><trkpt lat="45.72107" lon="8.418355"><ele>391.0</ele><time>2026-04-06T10:21:15.103Z</time></trkpt><trkpt lat="45.72106" lon="8.4184983"><ele>388.5</ele><time>2026-04-06T10:21:16.103Z</time></trkpt><trkpt lat="45.721055" lon="8.4186767"><ele>386.0</ele><time>2026-04-06T10:21:17.103Z</time></trkpt><trkpt lat="45.7210467" lon="8.4188717"><ele>383.5</ele><time>2026-04-06T10:21:18.103Z</time></trkpt><trkpt lat="45.7210483" lon="8.4190817"><ele>381.0</ele><time>2026-04-06T10:21:19.103Z</time></trkpt><trkpt lat="45.7210483" lon="8.419285"><ele>381.75</ele><time>2026-04-06T10:21:20.103Z</time></trkpt><trkpt lat="45.721055" lon="8.4194517"><ele>382.5</ele><time>2026-04-06T10:21:21.103Z</time></trkpt><trkpt lat="45.7210717" lon="8.4196167"><ele>383.25</ele><time>2026-04-06T10:21:22.102Z</time></trkpt><trkpt lat="45.7211083" lon="8.4197533"><ele>384.0</ele><time>2026-04-06T10:21:23.103Z</time></trkpt><trkpt lat="45.7212117" lon="8.4200233"><ele>381.5</ele><time>2026-04-06T10:21:25.103Z</time></trkpt><trkpt lat="45.7213033" lon="8.420155"><ele>379.0</ele><time>2026-04-06T10:21:26.103Z</time></trkpt><trkpt lat="45.7214067" lon="8.420285"><ele>376.5</ele><time>2026-04-06T10:21:27.103Z</time></trkpt><trkpt lat="45.7214983" lon="8.4204117"><ele>374.0</ele><time>2026-04-06T10:21:28.103Z</time></trkpt><trkpt lat="45.7215783" lon="8.4205333"><ele>373.75</ele><time>2026-04-06T10:21:29.103Z</time></trkpt><trkpt lat="45.7216633" lon="8.4206367"><ele>373.5</ele><time>2026-04-06T10:21:30.103Z</time></trkpt><trkpt lat="45.7217667" lon="8.4207033"><ele>373.25</ele><time>2026-04-06T10:21:31.103Z</time></trkpt><trkpt lat="45.72188" lon="8.4207417"><ele>373.0</ele><time>2026-04-06T10:21:32.103Z</time></trkpt><trkpt lat="45.722" lon="8.420755"><ele>375.59999999999997</ele><time>2026-04-06T10:21:33.103Z</time></trkpt><trkpt lat="45.7221183" lon="8.420745"><ele>378.2</ele><time>2026-04-06T10:21:34.103Z</time></trkpt><trkpt lat="45.7222217" lon="8.4207183"><ele>380.8</ele><time>2026-04-06T10:21:35.103Z</time></trkpt><trkpt lat="45.7223033" lon="8.4206933"><ele>383.4</ele><time>2026-04-06T10:21:36.102Z</time></trkpt><trkpt lat="45.72237" lon="8.4206867"><ele>386.0</ele><time>2026-04-06T10:21:37.103Z</time></trkpt><trkpt lat="45.7224533" lon="8.420705"><ele>386.0</ele><time>2026-04-06T10:21:39.103Z</time></trkpt><trkpt lat="45.7224617" lon="8.4208217"><ele>386.0</ele><time>2026-04-06T10:21:41.102Z</time></trkpt><trkpt lat="45.7224033" lon="8.420895"><ele>386.0</ele><time>2026-04-06T10:21:42.103Z</time></trkpt><trkpt lat="45.7223367" lon="8.4209933"><ele>386.0</ele><time>2026-04-06T10:21:43.103Z</time></trkpt><trkpt lat="45.7222383" lon="8.4211267"><ele>386.0</ele><time>2026-04-06T10:21:44.103Z</time></trkpt><trkpt lat="45.7221317" lon="8.4213317"><ele>385.5</ele><time>2026-04-06T10:21:45.103Z</time></trkpt><trkpt lat="45.7220367" lon="8.421525"><ele>385.0</ele><time>2026-04-06T10:21:46.102Z</time></trkpt><trkpt lat="45.7219633" lon="8.42169"><ele>384.5</ele><time>2026-04-06T10:21:47.103Z</time></trkpt><trkpt lat="45.721895" lon="8.4218033"><ele>384.0</ele><time>2026-04-06T10:21:48.103Z</time></trkpt><trkpt lat="45.7218217" lon="8.4218917"><ele>384.0</ele><time>2026-04-06T10:21:49.103Z</time></trkpt><trkpt lat="45.72174" lon="8.4219583"><ele>384.0</ele><time>2026-04-06T10:21:50.103Z</time></trkpt><trkpt lat="45.72167" lon="8.4220283"><ele>384.0</ele><time>2026-04-06T10:21:51.103Z</time></trkpt><trkpt lat="45.7216033" lon="8.4221017"><ele>384.0</ele><time>2026-04-06T10:21:52.103Z</time></trkpt><trkpt lat="45.7215533" lon="8.4221867"><ele>384.0</ele><time>2026-04-06T10:21:53.103Z</time></trkpt><trkpt lat="45.721515" lon="8.4222633"><ele>384.0</ele><time>2026-04-06T10:21:54.103Z</time></trkpt><trkpt lat="45.7214417" lon="8.42238"><ele>387.0</ele><time>2026-04-06T10:21:56.103Z</time></trkpt><trkpt lat="45.721375" lon="8.4224667"><ele>390.0</ele><time>2026-04-06T10:21:58.102Z</time></trkpt><trkpt lat="45.721325" lon="8.4225283"><ele>393.0</ele><time>2026-04-06T10:22:00.103Z</time></trkpt><trkpt lat="45.7212783" lon="8.42261"><ele>396.0</ele><time>2026-04-06T10:22:02.103Z</time></trkpt><trkpt lat="45.7212167" lon="8.4226983"><ele>399.0</ele><time>2026-04-06T10:22:04.102Z</time></trkpt><trkpt lat="45.72116" lon="8.42277"><ele>402.0</ele><time>2026-04-06T10:22:06.103Z</time></trkpt><trkpt lat="45.7210883" lon="8.4228283"><ele>403.40000000000003</ele><time>2026-04-06T10:22:08.103Z</time></trkpt><trkpt lat="45.7210033" lon="8.4228683"><ele>404.8</ele><time>2026-04-06T10:22:10.103Z</time></trkpt><trkpt lat="45.7209133" lon="8.4229267"><ele>406.2</ele><time>2026-04-06T10:22:12.103Z</time></trkpt><trkpt lat="45.720825" lon="8.4229917"><ele>407.6</ele><time>2026-04-06T10:22:14.103Z</time></trkpt><trkpt lat="45.720735" lon="8.423045"><ele>409.0</ele><time>2026-04-06T10:22:16.102Z</time></trkpt><trkpt lat="45.7206583" lon="8.4231183"><ele>409.00000000000006</ele><time>2026-04-06T10:22:18.103Z</time></trkpt><trkpt lat="45.720615" lon="8.4232183"><ele>409.0</ele><time>2026-04-06T10:22:20.103Z</time></trkpt><trkpt lat="45.7205683" lon="8.4233017"><ele>409.0</ele><time>2026-04-06T10:22:23.103Z</time></trkpt><trkpt lat="45.7205683" lon="8.4234033"><ele>409.0</ele><time>2026-04-06T10:22:25.102Z</time></trkpt><trkpt lat="45.7206" lon="8.4235083"><ele>409.00000000000006</ele><time>2026-04-06T10:22:27.103Z</time></trkpt><trkpt lat="45.7206233" lon="8.423615"><ele>409.0</ele><time>2026-04-06T10:22:30.102Z</time></trkpt><trkpt lat="45.7206867" lon="8.4236717"><ele>409.0</ele><time>2026-04-06T10:22:33.102Z</time></trkpt><trkpt lat="45.7207933" lon="8.423655"><ele>409.0</ele><time>2026-04-06T10:22:35.102Z</time></trkpt><trkpt lat="45.7208867" lon="8.4236267"><ele>409.0</ele><time>2026-04-06T10:22:36.102Z</time></trkpt><trkpt lat="45.7209933" lon="8.4235933"><ele>409.0</ele><time>2026-04-06T10:22:37.102Z</time></trkpt><trkpt lat="45.7211167" lon="8.4235567"><ele>409.0</ele><time>2026-04-06T10:22:38.102Z</time></trkpt><trkpt lat="45.7212367" lon="8.4235167"><ele>409.75</ele><time>2026-04-06T10:22:39.101Z</time></trkpt><trkpt lat="45.721365" lon="8.4234883"><ele>410.5</ele><time>2026-04-06T10:22:40.102Z</time></trkpt><trkpt lat="45.72149" lon="8.4234667"><ele>411.25</ele><time>2026-04-06T10:22:41.102Z</time></trkpt><trkpt lat="45.72161" lon="8.423445"><ele>412.0</ele><time>2026-04-06T10:22:42.102Z</time></trkpt><trkpt lat="45.7217133" lon="8.4234067"><ele>412.00000000000006</ele><time>2026-04-06T10:22:43.102Z</time></trkpt><trkpt lat="45.7218033" lon="8.4233617"><ele>412.0</ele><time>2026-04-06T10:22:44.102Z</time></trkpt><trkpt lat="45.7218883" lon="8.4233233"><ele>412.0</ele><time>2026-04-06T10:22:45.102Z</time></trkpt><trkpt lat="45.72196" lon="8.4232967"><ele>412.0</ele><time>2026-04-06T10:22:46.102Z</time></trkpt><trkpt lat="45.7220567" lon="8.4232433"><ele>412.00000000000006</ele><time>2026-04-06T10:22:48.102Z</time></trkpt><trkpt lat="45.7221367" lon="8.4232067"><ele>412.0</ele><time>2026-04-06T10:22:50.102Z</time></trkpt><trkpt lat="45.7222267" lon="8.423165"><ele>411.25</ele><time>2026-04-06T10:22:52.102Z</time></trkpt><trkpt lat="45.7223333" lon="8.42311"><ele>410.5</ele><time>2026-04-06T10:22:54.102Z</time></trkpt><trkpt lat="45.7224233" lon="8.4230383"><ele>409.75</ele><time>2026-04-06T10:22:56.102Z</time></trkpt><trkpt lat="45.722525" lon="8.4229733"><ele>409.0</ele><time>2026-04-06T10:22:58.102Z</time></trkpt><trkpt lat="45.7226367" lon="8.4229033"><ele>409.00000000000006</ele><time>2026-04-06T10:23:00.102Z</time></trkpt><trkpt lat="45.7227033" lon="8.4228717"><ele>409.0</ele><time>2026-04-06T10:23:01.102Z</time></trkpt><trkpt lat="45.722775" lon="8.42284"><ele>409.0</ele><time>2026-04-06T10:23:02.102Z</time></trkpt><trkpt lat="45.7229" lon="8.4227883"><ele>409.0</ele><time>2026-04-06T10:23:04.102Z</time></trkpt><trkpt lat="45.7229733" lon="8.4227767"><ele>409.00000000000006</ele><time>2026-04-06T10:23:05.101Z</time></trkpt><trkpt lat="45.7230633" lon="8.4227817"><ele>409.0</ele><time>2026-04-06T10:23:06.102Z</time></trkpt><trkpt lat="45.723155" lon="8.42278"><ele>409.2</ele><time>2026-04-06T10:23:07.102Z</time></trkpt><trkpt lat="45.7232617" lon="8.4227933"><ele>409.4</ele><time>2026-04-06T10:23:08.102Z</time></trkpt><trkpt lat="45.7233733" lon="8.4227983"><ele>409.6</ele><time>2026-04-06T10:23:09.102Z</time></trkpt><trkpt lat="45.72348" lon="8.42283"><ele>409.8</ele><time>2026-04-06T10:23:10.101Z</time></trkpt><trkpt lat="45.7235833" lon="8.42286"><ele>410.0</ele><time>2026-04-06T10:23:11.102Z</time></trkpt><trkpt lat="45.7236683" lon="8.422905"><ele>409.66666666666663</ele><time>2026-04-06T10:23:12.102Z</time></trkpt><trkpt lat="45.7237583" lon="8.4229367"><ele>409.3333333333333</ele><time>2026-04-06T10:23:13.102Z</time></trkpt><trkpt lat="45.7238417" lon="8.422955"><ele>409.0</ele><time>2026-04-06T10:23:14.102Z</time></trkpt><trkpt lat="45.72393" lon="8.4229617"><ele>408.66666666666663</ele><time>2026-04-06T10:23:15.102Z</time></trkpt><trkpt lat="45.7240133" lon="8.4229567"><ele>408.3333333333333</ele><time>2026-04-06T10:23:16.102Z</time></trkpt><trkpt lat="45.7240983" lon="8.42296"><ele>408.0</ele><time>2026-04-06T10:23:17.102Z</time></trkpt><trkpt lat="45.7241683" lon="8.4229633"><ele>406.3333333333333</ele><time>2026-04-06T10:23:18.102Z</time></trkpt><trkpt lat="45.724245" lon="8.4229867"><ele>404.66666666666663</ele><time>2026-04-06T10:23:19.102Z</time></trkpt><trkpt lat="45.7243083" lon="8.4230133"><ele>403.0</ele><time>2026-04-06T10:23:20.102Z</time></trkpt><trkpt lat="45.7244167" lon="8.4230567"><ele>401.3333333333333</ele><time>2026-04-06T10:23:22.102Z</time></trkpt><trkpt lat="45.724465" lon="8.42315"><ele>399.66666666666663</ele><time>2026-04-06T10:23:24.102Z</time></trkpt><trkpt lat="45.7244717" lon="8.4232417"><ele>398.0</ele><time>2026-04-06T10:23:26.102Z</time></trkpt><trkpt lat="45.724505" lon="8.42333"><ele>397.66666666666663</ele><time>2026-04-06T10:23:29.102Z</time></trkpt><trkpt lat="45.7245417" lon="8.4234267"><ele>397.3333333333333</ele><time>2026-04-06T10:23:46.102Z</time></trkpt><trkpt lat="45.7246017" lon="8.4234817"><ele>397.0</ele><time>2026-04-06T10:23:50.101Z</time></trkpt><trkpt lat="45.7246733" lon="8.4234233"><ele>396.66666666666663</ele><time>2026-04-06T10:23:56.102Z</time></trkpt><trkpt lat="45.7246167" lon="8.4233283"><ele>396.3333333333333</ele><time>2026-04-06T10:47:29.098Z</time></trkpt><trkpt lat="45.7245483" lon="8.423255"><ele>396.0</ele><time>2026-04-06T10:47:47.098Z</time></trkpt><trkpt lat="45.72452" lon="8.423165"><ele>396.0</ele><time>2026-04-06T10:47:48.098Z</time></trkpt><trkpt lat="45.7244633" lon="8.423075"><ele>396.0</ele><time>2026-04-06T10:47:49.098Z</time></trkpt><trkpt lat="45.7244033" lon="8.423005"><ele>396.0</ele><time>2026-04-06T10:47:50.098Z</time></trkpt><trkpt lat="45.7243167" lon="8.4229567"><ele>396.0</ele><time>2026-04-06T10:47:51.098Z</time></trkpt><trkpt lat="45.7242217" lon="8.4229267"><ele>396.0</ele><time>2026-04-06T10:47:52.098Z</time></trkpt><trkpt lat="45.72411" lon="8.42291"><ele>399.0</ele><time>2026-04-06T10:47:53.098Z</time></trkpt><trkpt lat="45.7239867" lon="8.4229217"><ele>402.0</ele><time>2026-04-06T10:47:54.098Z</time></trkpt><trkpt lat="45.723865" lon="8.4229233"><ele>405.0</ele><time>2026-04-06T10:47:55.098Z</time></trkpt><trkpt lat="45.723745" lon="8.422905"><ele>408.0</ele><time>2026-04-06T10:47:56.098Z</time></trkpt><trkpt lat="45.723625" lon="8.4228483"><ele>408.5</ele><time>2026-04-06T10:47:57.098Z</time></trkpt><trkpt lat="45.7235083" lon="8.4228233"><ele>409.0</ele><time>2026-04-06T10:47:58.098Z</time></trkpt><trkpt lat="45.7233717" lon="8.422775"><ele>409.5</ele><time>2026-04-06T10:47:59.097Z</time></trkpt><trkpt lat="45.72325" lon="8.422745"><ele>410.0</ele><time>2026-04-06T10:48:00.098Z</time></trkpt><trkpt lat="45.7231333" lon="8.42273"><ele>410.0</ele><time>2026-04-06T10:48:01.098Z</time></trkpt><trkpt lat="45.7230167" lon="8.4227467"><ele>410.0</ele><time>2026-04-06T10:48:02.098Z</time></trkpt><trkpt lat="45.7228967" lon="8.4227833"><ele>410.0</ele><time>2026-04-06T10:48:03.098Z</time></trkpt><trkpt lat="45.7227667" lon="8.42284"><ele>410.0</ele><time>2026-04-06T10:48:04.097Z</time></trkpt><trkpt lat="45.7226133" lon="8.4229"><ele>409.5</ele><time>2026-04-06T10:48:05.098Z</time></trkpt><trkpt lat="45.7224617" lon="8.4229917"><ele>409.0</ele><time>2026-04-06T10:48:06.098Z</time></trkpt><trkpt lat="45.7223167" lon="8.4230667"><ele>408.5</ele><time>2026-04-06T10:48:07.098Z</time></trkpt><trkpt lat="45.7221967" lon="8.4231333"><ele>408.0</ele><time>2026-04-06T10:48:08.098Z</time></trkpt><trkpt lat="45.7220717" lon="8.4231933"><ele>408.0</ele><time>2026-04-06T10:48:09.098Z</time></trkpt><trkpt lat="45.7219467" lon="8.4232683"><ele>408.0</ele><time>2026-04-06T10:48:10.098Z</time></trkpt><trkpt lat="45.7218267" lon="8.4233333"><ele>408.0</ele><time>2026-04-06T10:48:11.098Z</time></trkpt><trkpt lat="45.72169" lon="8.42339"><ele>408.0</ele><time>2026-04-06T10:48:12.098Z</time></trkpt><trkpt lat="45.7215517" lon="8.42343"><ele>408.25</ele><time>2026-04-06T10:48:13.098Z</time></trkpt><trkpt lat="45.7214283" lon="8.4234617"><ele>408.5</ele><time>2026-04-06T10:48:14.097Z</time></trkpt><trkpt lat="45.7213" lon="8.4234783"><ele>408.75</ele><time>2026-04-06T10:48:15.097Z</time></trkpt><trkpt lat="45.721165" lon="8.42351"><ele>409.0</ele><time>2026-04-06T10:48:16.098Z</time></trkpt><trkpt lat="45.7210383" lon="8.42355"><ele>409.0</ele><time>2026-04-06T10:48:17.098Z</time></trkpt><trkpt lat="45.720925" lon="8.4235967"><ele>409.0</ele><time>2026-04-06T10:48:18.098Z</time></trkpt><trkpt lat="45.7208367" lon="8.4236417"><ele>409.0</ele><time>2026-04-06T10:48:19.098Z</time></trkpt><trkpt lat="45.72076" lon="8.4236667"><ele>409.0</ele><time>2026-04-06T10:48:20.097Z</time></trkpt><trkpt lat="45.720695" lon="8.4236733"><ele>409.0</ele><time>2026-04-06T10:48:21.098Z</time></trkpt><trkpt lat="45.7206133" lon="8.4235967"><ele>409.0</ele><time>2026-04-06T10:48:23.097Z</time></trkpt><trkpt lat="45.7205817" lon="8.4235067"><ele>409.0</ele><time>2026-04-06T10:48:24.097Z</time></trkpt><trkpt lat="45.7205517" lon="8.4234233"><ele>409.0</ele><time>2026-04-06T10:48:25.097Z</time></trkpt><trkpt lat="45.7205383" lon="8.4232667"><ele>409.0</ele><time>2026-04-06T10:48:27.097Z</time></trkpt><trkpt lat="45.7206117" lon="8.4231383"><ele>409.0</ele><time>2026-04-06T10:48:29.097Z</time></trkpt><trkpt lat="45.7206867" lon="8.4230683"><ele>409.0</ele><time>2026-04-06T10:48:30.096Z</time></trkpt><trkpt lat="45.7208083" lon="8.4230367"><ele>409.0</ele><time>2026-04-06T10:48:31.097Z</time></trkpt><trkpt lat="45.7209283" lon="8.42299"><ele>409.0</ele><time>2026-04-06T10:48:32.096Z</time></trkpt><trkpt lat="45.72104" lon="8.4229583"><ele>409.0</ele><time>2026-04-06T10:48:33.097Z</time></trkpt><trkpt lat="45.7211383" lon="8.422905"><ele>407.6</ele><time>2026-04-06T10:48:34.096Z</time></trkpt><trkpt lat="45.721225" lon="8.4228283"><ele>406.2</ele><time>2026-04-06T10:48:35.097Z</time></trkpt><trkpt lat="45.72131" lon="8.42272"><ele>404.8</ele><time>2026-04-06T10:48:36.097Z</time></trkpt><trkpt lat="45.7213883" lon="8.4226167"><ele>403.40000000000003</ele><time>2026-04-06T10:48:37.097Z</time></trkpt><trkpt lat="45.721455" lon="8.4224933"><ele>402.0</ele><time>2026-04-06T10:48:38.097Z</time></trkpt><trkpt lat="45.7215233" lon="8.4223717"><ele>402.0</ele><time>2026-04-06T10:48:39.097Z</time></trkpt><trkpt lat="45.7215833" lon="8.422255"><ele>402.0</ele><time>2026-04-06T10:48:40.097Z</time></trkpt><trkpt lat="45.7216433" lon="8.4221467"><ele>402.0</ele><time>2026-04-06T10:48:41.097Z</time></trkpt><trkpt lat="45.7217133" lon="8.4220617"><ele>402.0</ele><time>2026-04-06T10:48:42.097Z</time></trkpt><trkpt lat="45.721815" lon="8.4219733"><ele>402.0</ele><time>2026-04-06T10:48:43.097Z</time></trkpt><trkpt lat="45.7219183" lon="8.4218683"><ele>402.25</ele><time>2026-04-06T10:48:44.097Z</time></trkpt><trkpt lat="45.722015" lon="8.4217433"><ele>402.5</ele><time>2026-04-06T10:48:45.097Z</time></trkpt><trkpt lat="45.7221017" lon="8.4216017"><ele>402.75</ele><time>2026-04-06T10:48:46.097Z</time></trkpt><trkpt lat="45.7221933" lon="8.42147"><ele>403.0</ele><time>2026-04-06T10:48:47.097Z</time></trkpt><trkpt lat="45.722255" lon="8.42132"><ele>399.59999999999997</ele><time>2026-04-06T10:48:48.096Z</time></trkpt><trkpt lat="45.7223083" lon="8.4211783"><ele>396.2</ele><time>2026-04-06T10:48:49.097Z</time></trkpt><trkpt lat="45.72236" lon="8.4210567"><ele>392.8</ele><time>2026-04-06T10:48:50.097Z</time></trkpt><trkpt lat="45.7224167" lon="8.42096"><ele>389.4</ele><time>2026-04-06T10:48:51.096Z</time></trkpt><trkpt lat="45.7224633" lon="8.4208783"><ele>386.0</ele><time>2026-04-06T10:48:52.096Z</time></trkpt><trkpt lat="45.72253" lon="8.4207833"><ele>386.0</ele><time>2026-04-06T10:48:54.097Z</time></trkpt><trkpt lat="45.7224567" lon="8.4207167"><ele>386.0</ele><time>2026-04-06T10:48:58.097Z</time></trkpt><trkpt lat="45.72236" lon="8.4207317"><ele>386.0</ele><time>2026-04-06T10:48:59.097Z</time></trkpt><trkpt lat="45.722195" lon="8.420735"><ele>386.0</ele><time>2026-04-06T10:49:00.097Z</time></trkpt><trkpt lat="45.7220333" lon="8.4207417"><ele>383.0</ele><time>2026-04-06T10:49:01.097Z</time></trkpt><trkpt lat="45.7218933" lon="8.4207117"><ele>380.0</ele><time>2026-04-06T10:49:02.097Z</time></trkpt><trkpt lat="45.721765" lon="8.420655"><ele>377.0</ele><time>2026-04-06T10:49:03.097Z</time></trkpt><trkpt lat="45.7216517" lon="8.42055"><ele>374.0</ele><time>2026-04-06T10:49:04.097Z</time></trkpt><trkpt lat="45.7215467" lon="8.4204067"><ele>374.0</ele><time>2026-04-06T10:49:05.097Z</time></trkpt><trkpt lat="45.7214583" lon="8.42025"><ele>374.0</ele><time>2026-04-06T10:49:06.096Z</time></trkpt><trkpt lat="45.7213767" lon="8.4201017"><ele>374.0</ele><time>2026-04-06T10:49:07.097Z</time></trkpt><trkpt lat="45.7212917" lon="8.4199667"><ele>374.0</ele><time>2026-04-06T10:49:08.097Z</time></trkpt><trkpt lat="45.72122" lon="8.419845"><ele>374.0</ele><time>2026-04-06T10:49:09.097Z</time></trkpt><trkpt lat="45.7211733" lon="8.41972"><ele>374.0</ele><time>2026-04-06T10:49:10.097Z</time></trkpt><trkpt lat="45.721155" lon="8.4195667"><ele>374.0</ele><time>2026-04-06T10:49:11.097Z</time></trkpt><trkpt lat="45.7211417" lon="8.4193933"><ele>374.0</ele><time>2026-04-06T10:49:12.097Z</time></trkpt><trkpt lat="45.7211483" lon="8.419205"><ele>376.5</ele><time>2026-04-06T10:49:13.097Z</time></trkpt><trkpt lat="45.72115" lon="8.4190183"><ele>379.0</ele><time>2026-04-06T10:49:14.097Z</time></trkpt><trkpt lat="45.7211567" lon="8.4188"><ele>381.5</ele><time>2026-04-06T10:49:15.097Z</time></trkpt><trkpt lat="45.7211683" lon="8.4186083"><ele>384.0</ele><time>2026-04-06T10:49:16.097Z</time></trkpt><trkpt lat="45.7211717" lon="8.4184267"><ele>385.1666666666667</ele><time>2026-04-06T10:49:17.097Z</time></trkpt><trkpt lat="45.721175" lon="8.41829"><ele>386.33333333333337</ele><time>2026-04-06T10:49:18.097Z</time></trkpt><trkpt lat="45.7212" lon="8.4181933"><ele>387.5</ele><time>2026-04-06T10:49:19.097Z</time></trkpt><trkpt lat="45.72125" lon="8.4181367"><ele>388.6666666666667</ele><time>2026-04-06T10:49:20.097Z</time></trkpt><trkpt lat="45.7213217" lon="8.4181017"><ele>389.83333333333337</ele><time>2026-04-06T10:49:21.097Z</time></trkpt><trkpt lat="45.72142" lon="8.4180667"><ele>391.0</ele><time>2026-04-06T10:49:22.097Z</time></trkpt><trkpt lat="45.721545" lon="8.4180633"><ele>391.0</ele><time>2026-04-06T10:49:23.096Z</time></trkpt><trkpt lat="45.72169" lon="8.41807"><ele>391.0</ele><time>2026-04-06T10:49:24.097Z</time></trkpt><trkpt lat="45.7218433" lon="8.4180867"><ele>391.0</ele><time>2026-04-06T10:49:25.097Z</time></trkpt><trkpt lat="45.72201" lon="8.418095"><ele>391.5</ele><time>2026-04-06T10:49:26.097Z</time></trkpt><trkpt lat="45.7221833" lon="8.4180967"><ele>392.0</ele><time>2026-04-06T10:49:27.097Z</time></trkpt><trkpt lat="45.7223167" lon="8.418105"><ele>392.5</ele><time>2026-04-06T10:49:28.097Z</time></trkpt><trkpt lat="45.7224383" lon="8.418095"><ele>393.0</ele><time>2026-04-06T10:49:29.097Z</time></trkpt><trkpt lat="45.7225417" lon="8.4180567"><ele>393.0</ele><time>2026-04-06T10:49:30.097Z</time></trkpt><trkpt lat="45.7226233" lon="8.4180017"><ele>393.0</ele><time>2026-04-06T10:49:31.097Z</time></trkpt><trkpt lat="45.7226883" lon="8.4178983"><ele>393.0</ele><time>2026-04-06T10:49:32.097Z</time></trkpt><trkpt lat="45.7227417" lon="8.417775"><ele>393.0</ele><time>2026-04-06T10:49:33.097Z</time></trkpt><trkpt lat="45.7227883" lon="8.4175967"><ele>393.0</ele><time>2026-04-06T10:49:34.096Z</time></trkpt><trkpt lat="45.7228383" lon="8.4173917"><ele>392.66666666666663</ele><time>2026-04-06T10:49:35.097Z</time></trkpt><trkpt lat="45.722885" lon="8.4171733"><ele>392.3333333333333</ele><time>2026-04-06T10:49:36.097Z</time></trkpt><trkpt lat="45.7229617" lon="8.4169483"><ele>392.0</ele><time>2026-04-06T10:49:37.097Z</time></trkpt><trkpt lat="45.72303" lon="8.41675"><ele>396.5</ele><time>2026-04-06T10:49:38.097Z</time></trkpt><trkpt lat="45.7230967" lon="8.4165967"><ele>401.0</ele><time>2026-04-06T10:49:39.097Z</time></trkpt><trkpt lat="45.7231683" lon="8.4164717"><ele>405.5</ele><time>2026-04-06T10:49:40.097Z</time></trkpt><trkpt lat="45.7232533" lon="8.4163533"><ele>410.0</ele><time>2026-04-06T10:49:41.097Z</time></trkpt><trkpt lat="45.72333" lon="8.4162233"><ele>408.5</ele><time>2026-04-06T10:49:42.097Z</time></trkpt><trkpt lat="45.723395" lon="8.4160617"><ele>407.0</ele><time>2026-04-06T10:49:43.096Z</time></trkpt><trkpt lat="45.7234567" lon="8.4159"><ele>405.5</ele><time>2026-04-06T10:49:44.097Z</time></trkpt><trkpt lat="45.7235233" lon="8.415755"><ele>404.0</ele><time>2026-04-06T10:49:45.097Z</time></trkpt><trkpt lat="45.723595" lon="8.41563"><ele>404.0</ele><time>2026-04-06T10:49:46.097Z</time></trkpt><trkpt lat="45.7236733" lon="8.415525"><ele>404.0</ele><time>2026-04-06T10:49:47.096Z</time></trkpt><trkpt lat="45.72376" lon="8.415435"><ele>404.0</ele><time>2026-04-06T10:49:48.096Z</time></trkpt><trkpt lat="45.7238517" lon="8.415335"><ele>404.0</ele><time>2026-04-06T10:49:49.097Z</time></trkpt><trkpt lat="45.72394" lon="8.4152233"><ele>404.0</ele><time>2026-04-06T10:49:50.096Z</time></trkpt><trkpt lat="45.724035" lon="8.4151067"><ele>411.5</ele><time>2026-04-06T10:49:51.097Z</time></trkpt><trkpt lat="45.7241317" lon="8.4149567"><ele>419.0</ele><time>2026-04-06T10:49:52.096Z</time></trkpt><trkpt lat="45.7242233" lon="8.4148"><ele>426.5</ele><time>2026-04-06T10:49:53.097Z</time></trkpt><trkpt lat="45.7243117" lon="8.4146433"><ele>434.0</ele><time>2026-04-06T10:49:54.097Z</time></trkpt><trkpt lat="45.72438" lon="8.4144617"><ele>429.0</ele><time>2026-04-06T10:49:55.097Z</time></trkpt><trkpt lat="45.72443" lon="8.4142583"><ele>424.0</ele><time>2026-04-06T10:49:56.097Z</time></trkpt><trkpt lat="45.7244917" lon="8.414055"><ele>419.0</ele><time>2026-04-06T10:49:57.097Z</time></trkpt><trkpt lat="45.724545" lon="8.4138467"><ele>421.6</ele><time>2026-04-06T10:49:58.097Z</time></trkpt><trkpt lat="45.7246067" lon="8.4136717"><ele>424.2</ele><time>2026-04-06T10:49:59.097Z</time></trkpt><trkpt lat="45.7246567" lon="8.4135267"><ele>426.80000000000007</ele><time>2026-04-06T10:50:00.097Z</time></trkpt><trkpt lat="45.7247" lon="8.4134083"><ele>429.40000000000003</ele><time>2026-04-06T10:50:01.097Z</time></trkpt><trkpt lat="45.7247083" lon="8.4133"><ele>432.0</ele><time>2026-04-06T10:50:02.097Z</time></trkpt><trkpt lat="45.7247067" lon="8.413195"><ele>432.0</ele><time>2026-04-06T10:50:03.097Z</time></trkpt><trkpt lat="45.724675" lon="8.4130833"><ele>432.0</ele><time>2026-04-06T10:50:04.097Z</time></trkpt><trkpt lat="45.7245683" lon="8.41297"><ele>432.0</ele><time>2026-04-06T10:50:05.096Z</time></trkpt><trkpt lat="45.7244617" lon="8.4128517"><ele>432.0</ele><time>2026-04-06T10:50:06.096Z</time></trkpt><trkpt lat="45.724335" lon="8.41276"><ele>435.75</ele><time>2026-04-06T10:50:07.097Z</time></trkpt><trkpt lat="45.72421" lon="8.4126667"><ele>439.5</ele><time>2026-04-06T10:50:08.096Z</time></trkpt><trkpt lat="45.7240883" lon="8.412575"><ele>443.25</ele><time>2026-04-06T10:50:09.097Z</time></trkpt><trkpt lat="45.7239783" lon="8.41248"><ele>447.0</ele><time>2026-04-06T10:50:10.097Z</time></trkpt><trkpt lat="45.7238767" lon="8.4123567"><ele>447.0</ele><time>2026-04-06T10:50:11.096Z</time></trkpt><trkpt lat="45.7237867" lon="8.41224"><ele>447.0</ele><time>2026-04-06T10:50:12.097Z</time></trkpt><trkpt lat="45.72371" lon="8.41212"><ele>447.0</ele><time>2026-04-06T10:50:13.097Z</time></trkpt><trkpt lat="45.723675" lon="8.411975"><ele>447.0</ele><time>2026-04-06T10:50:14.097Z</time></trkpt><trkpt lat="45.7236317" lon="8.4118233"><ele>446.40000000000003</ele><time>2026-04-06T10:50:15.097Z</time></trkpt><trkpt lat="45.7235917" lon="8.411705"><ele>445.80000000000007</ele><time>2026-04-06T10:50:16.097Z</time></trkpt><trkpt lat="45.723585" lon="8.4115867"><ele>445.2</ele><time>2026-04-06T10:50:17.096Z</time></trkpt><trkpt lat="45.7235967" lon="8.4114433"><ele>444.6</ele><time>2026-04-06T10:50:18.097Z</time></trkpt><trkpt lat="45.7236117" lon="8.411285"><ele>444.0</ele><time>2026-04-06T10:50:19.097Z</time></trkpt><trkpt lat="45.7236283" lon="8.41113"><ele>443.79999999999995</ele><time>2026-04-06T10:50:20.097Z</time></trkpt><trkpt lat="45.723605" lon="8.4109817"><ele>443.59999999999997</ele><time>2026-04-06T10:50:21.097Z</time></trkpt><trkpt lat="45.7235617" lon="8.410855"><ele>443.4</ele><time>2026-04-06T10:50:22.096Z</time></trkpt><trkpt lat="45.7235067" lon="8.4107283"><ele>443.2</ele><time>2026-04-06T10:50:23.097Z</time></trkpt><trkpt lat="45.7234317" lon="8.410595"><ele>443.0</ele><time>2026-04-06T10:50:24.097Z</time></trkpt><trkpt lat="45.723385" lon="8.4104617"><ele>445.4</ele><time>2026-04-06T10:50:25.097Z</time></trkpt><trkpt lat="45.7233517" lon="8.4103417"><ele>447.79999999999995</ele><time>2026-04-06T10:50:26.097Z</time></trkpt><trkpt lat="45.723345" lon="8.4102333"><ele>450.2</ele><time>2026-04-06T10:50:27.097Z</time></trkpt><trkpt lat="45.7233483" lon="8.4100967"><ele>452.6</ele><time>2026-04-06T10:50:28.097Z</time></trkpt><trkpt lat="45.7233817" lon="8.40991"><ele>455.0</ele><time>2026-04-06T10:50:29.097Z</time></trkpt><trkpt lat="45.7234283" lon="8.4097217"><ele>456.25</ele><time>2026-04-06T10:50:30.097Z</time></trkpt><trkpt lat="45.723465" lon="8.4095383"><ele>457.5</ele><time>2026-04-06T10:50:31.097Z</time></trkpt><trkpt lat="45.72349" lon="8.409375"><ele>458.75</ele><time>2026-04-06T10:50:32.097Z</time></trkpt><trkpt lat="45.72349" lon="8.40921"><ele>460.0</ele><time>2026-04-06T10:50:33.097Z</time></trkpt><trkpt lat="45.7234617" lon="8.4090517"><ele>460.0</ele><time>2026-04-06T10:50:34.097Z</time></trkpt><trkpt lat="45.7234367" lon="8.4089067"><ele>460.0</ele><time>2026-04-06T10:50:35.097Z</time></trkpt><trkpt lat="45.723415" lon="8.4087633"><ele>460.0</ele><time>2026-04-06T10:50:36.097Z</time></trkpt><trkpt lat="45.7234233" lon="8.408595"><ele>460.0</ele><time>2026-04-06T10:50:37.097Z</time></trkpt><trkpt lat="45.7234383" lon="8.4084083"><ele>460.75</ele><time>2026-04-06T10:50:38.097Z</time></trkpt><trkpt lat="45.7234517" lon="8.4082233"><ele>461.5</ele><time>2026-04-06T10:50:39.097Z</time></trkpt><trkpt lat="45.7234483" lon="8.4080467"><ele>462.25</ele><time>2026-04-06T10:50:40.097Z</time></trkpt><trkpt lat="45.7234267" lon="8.4078767"><ele>463.0</ele><time>2026-04-06T10:50:41.097Z</time></trkpt><trkpt lat="45.723405" lon="8.40772"><ele>463.6666666666667</ele><time>2026-04-06T10:50:42.096Z</time></trkpt><trkpt lat="45.7233883" lon="8.4075717"><ele>464.33333333333337</ele><time>2026-04-06T10:50:43.097Z</time></trkpt><trkpt lat="45.7233767" lon="8.40744"><ele>465.0</ele><time>2026-04-06T10:50:44.097Z</time></trkpt><trkpt lat="45.72338" lon="8.4073233"><ele>465.66666666666663</ele><time>2026-04-06T10:50:45.097Z</time></trkpt><trkpt lat="45.7234017" lon="8.4072217"><ele>466.3333333333333</ele><time>2026-04-06T10:50:46.096Z</time></trkpt><trkpt lat="45.7234267" lon="8.40713"><ele>467.0</ele><time>2026-04-06T10:50:47.096Z</time></trkpt><trkpt lat="45.7234417" lon="8.4070383"><ele>467.3333333333333</ele><time>2026-04-06T10:50:48.096Z</time></trkpt><trkpt lat="45.7234383" lon="8.4069367"><ele>467.66666666666663</ele><time>2026-04-06T10:50:49.097Z</time></trkpt><trkpt lat="45.723415" lon="8.4068183"><ele>468.0</ele><time>2026-04-06T10:50:50.097Z</time></trkpt><trkpt lat="45.7234083" lon="8.4067"><ele>468.33333333333337</ele><time>2026-04-06T10:50:51.097Z</time></trkpt><trkpt lat="45.7234217" lon="8.406585"><ele>468.6666666666667</ele><time>2026-04-06T10:50:52.096Z</time></trkpt><trkpt lat="45.7234533" lon="8.4064783"><ele>469.0</ele><time>2026-04-06T10:50:53.097Z</time></trkpt><trkpt lat="45.723495" lon="8.4063667"><ele>468.4</ele><time>2026-04-06T10:50:54.097Z</time></trkpt><trkpt lat="45.72351" lon="8.4062533"><ele>467.79999999999995</ele><time>2026-04-06T10:50:55.097Z</time></trkpt><trkpt lat="45.723505" lon="8.406135"><ele>467.20000000000005</ele><time>2026-04-06T10:50:56.097Z</time></trkpt><trkpt lat="45.7234833" lon="8.4060167"><ele>466.6</ele><time>2026-04-06T10:50:57.097Z</time></trkpt><trkpt lat="45.72345" lon="8.405885"><ele>466.0</ele><time>2026-04-06T10:50:58.097Z</time></trkpt><trkpt lat="45.7233967" lon="8.40573"><ele>466.0</ele><time>2026-04-06T10:50:59.097Z</time></trkpt><trkpt lat="45.7233233" lon="8.405565"><ele>466.0</ele><time>2026-04-06T10:51:00.096Z</time></trkpt><trkpt lat="45.72324" lon="8.4054"><ele>466.0</ele><time>2026-04-06T10:51:01.097Z</time></trkpt><trkpt lat="45.723155" lon="8.4052533"><ele>466.0</ele><time>2026-04-06T10:51:02.097Z</time></trkpt><trkpt lat="45.723075" lon="8.4051383"><ele>465.6</ele><time>2026-04-06T10:51:03.096Z</time></trkpt><trkpt lat="45.7229967" lon="8.4050617"><ele>465.20000000000005</ele><time>2026-04-06T10:51:04.097Z</time></trkpt><trkpt lat="45.7229" lon="8.4049983"><ele>464.79999999999995</ele><time>2026-04-06T10:51:05.097Z</time></trkpt><trkpt lat="45.722795" lon="8.404915"><ele>464.4</ele><time>2026-04-06T10:51:06.097Z</time></trkpt><trkpt lat="45.7227017" lon="8.404815"><ele>464.0</ele><time>2026-04-06T10:51:07.096Z</time></trkpt><trkpt lat="45.7226067" lon="8.4047133"><ele>467.4</ele><time>2026-04-06T10:51:08.097Z</time></trkpt><trkpt lat="45.722515" lon="8.4046067"><ele>470.79999999999995</ele><time>2026-04-06T10:51:09.097Z</time></trkpt><trkpt lat="45.722415" lon="8.4045083"><ele>474.20000000000005</ele><time>2026-04-06T10:51:10.097Z</time></trkpt><trkpt lat="45.7223183" lon="8.4044233"><ele>477.6</ele><time>2026-04-06T10:51:11.096Z</time></trkpt><trkpt lat="45.72224" lon="8.4043567"><ele>481.0</ele><time>2026-04-06T10:51:12.097Z</time></trkpt><trkpt lat="45.722185" lon="8.404295"><ele>481.0</ele><time>2026-04-06T10:51:13.097Z</time></trkpt><trkpt lat="45.7221483" lon="8.4042067"><ele>481.0</ele><time>2026-04-06T10:51:14.097Z</time></trkpt><trkpt lat="45.7221183" lon="8.4041033"><ele>481.0</ele><time>2026-04-06T10:51:15.097Z</time></trkpt><trkpt lat="45.7220983" lon="8.403935"><ele>481.0</ele><time>2026-04-06T10:51:16.097Z</time></trkpt><trkpt lat="45.72208" lon="8.4037317"><ele>481.0</ele><time>2026-04-06T10:51:17.097Z</time></trkpt><trkpt lat="45.722065" lon="8.40355"><ele>481.25</ele><time>2026-04-06T10:51:18.097Z</time></trkpt><trkpt lat="45.7220567" lon="8.4033667"><ele>481.5</ele><time>2026-04-06T10:51:19.097Z</time></trkpt><trkpt lat="45.72206" lon="8.40321"><ele>481.75</ele><time>2026-04-06T10:51:20.097Z</time></trkpt><trkpt lat="45.7220617" lon="8.4030667"><ele>482.0</ele><time>2026-04-06T10:51:21.097Z</time></trkpt><trkpt lat="45.7220633" lon="8.402905"><ele>480.75</ele><time>2026-04-06T10:51:22.097Z</time></trkpt><trkpt lat="45.7220617" lon="8.4027417"><ele>479.5</ele><time>2026-04-06T10:51:23.097Z</time></trkpt><trkpt lat="45.7220633" lon="8.40258"><ele>478.25</ele><time>2026-04-06T10:51:24.097Z</time></trkpt><trkpt lat="45.7220633" lon="8.402425"><ele>477.0</ele><time>2026-04-06T10:51:25.097Z</time></trkpt><trkpt lat="45.72207" lon="8.4022567"><ele>476.8</ele><time>2026-04-06T10:51:26.096Z</time></trkpt><trkpt lat="45.7220567" lon="8.4021017"><ele>476.6</ele><time>2026-04-06T10:51:27.096Z</time></trkpt><trkpt lat="45.722055" lon="8.4019467"><ele>476.40000000000003</ele><time>2026-04-06T10:51:28.096Z</time></trkpt><trkpt lat="45.7220533" lon="8.40178"><ele>476.20000000000005</ele><time>2026-04-06T10:51:29.097Z</time></trkpt><trkpt lat="45.7220517" lon="8.401625"><ele>476.0</ele><time>2026-04-06T10:51:30.096Z</time></trkpt><trkpt lat="45.722055" lon="8.4014783"><ele>475.0</ele><time>2026-04-06T10:51:31.097Z</time></trkpt><trkpt lat="45.7220717" lon="8.40133"><ele>474.0</ele><time>2026-04-06T10:51:32.097Z</time></trkpt><trkpt lat="45.7220833" lon="8.4011767"><ele>473.0</ele><time>2026-04-06T10:51:33.097Z</time></trkpt><trkpt lat="45.722105" lon="8.4010333"><ele>472.0</ele><time>2026-04-06T10:51:34.097Z</time></trkpt><trkpt lat="45.7221167" lon="8.4009117"><ele>471.0</ele><time>2026-04-06T10:51:35.097Z</time></trkpt><trkpt lat="45.7221233" lon="8.4007817"><ele>471.0</ele><time>2026-04-06T10:51:36.097Z</time></trkpt><trkpt lat="45.72211" lon="8.4006483"><ele>471.0</ele><time>2026-04-06T10:51:37.097Z</time></trkpt><trkpt lat="45.722075" lon="8.4004867"><ele>471.0</ele><time>2026-04-06T10:51:38.097Z</time></trkpt><trkpt lat="45.7220317" lon="8.4003217"><ele>471.0</ele><time>2026-04-06T10:51:39.097Z</time></trkpt><trkpt lat="45.7219917" lon="8.4001783"><ele>471.0</ele><time>2026-04-06T10:51:40.097Z</time></trkpt><trkpt lat="45.7219467" lon="8.40004"><ele>470.5</ele><time>2026-04-06T10:51:41.096Z</time></trkpt><trkpt lat="45.72191" lon="8.3999183"><ele>470.0</ele><time>2026-04-06T10:51:42.097Z</time></trkpt><trkpt lat="45.7218567" lon="8.3998067"><ele>469.5</ele><time>2026-04-06T10:51:43.097Z</time></trkpt><trkpt lat="45.7217967" lon="8.3997167"><ele>469.0</ele><time>2026-04-06T10:51:44.097Z</time></trkpt><trkpt lat="45.72174" lon="8.3996267"><ele>468.5</ele><time>2026-04-06T10:51:45.097Z</time></trkpt><trkpt lat="45.7216817" lon="8.3995467"><ele>468.0</ele><time>2026-04-06T10:51:46.096Z</time></trkpt><trkpt lat="45.7216317" lon="8.3994767"><ele>470.2</ele><time>2026-04-06T10:51:47.097Z</time></trkpt><trkpt lat="45.72159" lon="8.399345"><ele>472.4</ele><time>2026-04-06T10:51:49.097Z</time></trkpt><trkpt lat="45.721615" lon="8.399225"><ele>474.59999999999997</ele><time>2026-04-06T10:51:51.097Z</time></trkpt><trkpt lat="45.7216683" lon="8.399165"><ele>476.79999999999995</ele><time>2026-04-06T10:51:52.097Z</time></trkpt><trkpt lat="45.7217533" lon="8.3990983"><ele>479.0</ele><time>2026-04-06T10:51:53.097Z</time></trkpt><trkpt lat="45.72185" lon="8.3990283"><ele>478.79999999999995</ele><time>2026-04-06T10:51:54.096Z</time></trkpt><trkpt lat="45.7219583" lon="8.3989533"><ele>478.59999999999997</ele><time>2026-04-06T10:51:55.097Z</time></trkpt><trkpt lat="45.722065" lon="8.3988683"><ele>478.4</ele><time>2026-04-06T10:51:56.097Z</time></trkpt><trkpt lat="45.7221717" lon="8.3987817"><ele>478.2</ele><time>2026-04-06T10:51:57.097Z</time></trkpt><trkpt lat="45.72223" lon="8.39872"><ele>478.0</ele><time>2026-04-06T10:51:58.097Z</time></trkpt><trkpt lat="45.7222817" lon="8.3985817"><ele>480.75</ele><time>2026-04-06T10:52:00.097Z</time></trkpt><trkpt lat="45.7222783" lon="8.3984617"><ele>483.5</ele><time>2026-04-06T10:52:01.096Z</time></trkpt><trkpt lat="45.7222667" lon="8.39832"><ele>486.25</ele><time>2026-04-06T10:52:02.097Z</time></trkpt><trkpt lat="45.7222917" lon="8.3981183"><ele>489.0</ele><time>2026-04-06T10:52:03.097Z</time></trkpt><trkpt lat="45.7223317" lon="8.3979033"><ele>491.79999999999995</ele><time>2026-04-06T10:52:04.097Z</time></trkpt><trkpt lat="45.7223967" lon="8.3977117"><ele>494.59999999999997</ele><time>2026-04-06T10:52:05.097Z</time></trkpt><trkpt lat="45.7224567" lon="8.3976017"><ele>497.4</ele><time>2026-04-06T10:52:06.097Z</time></trkpt><trkpt lat="45.722515" lon="8.3975283"><ele>500.2</ele><time>2026-04-06T10:52:07.097Z</time></trkpt><trkpt lat="45.72258" lon="8.39747"><ele>503.0</ele><time>2026-04-06T10:52:08.097Z</time></trkpt><trkpt lat="45.722665" lon="8.3974667"><ele>502.59999999999997</ele><time>2026-04-06T10:52:09.097Z</time></trkpt><trkpt lat="45.722765" lon="8.3975067"><ele>502.19999999999993</ele><time>2026-04-06T10:52:10.097Z</time></trkpt><trkpt lat="45.7228567" lon="8.3975183"><ele>501.8</ele><time>2026-04-06T10:52:11.096Z</time></trkpt><trkpt lat="45.7229633" lon="8.397475"><ele>501.4</ele><time>2026-04-06T10:52:12.097Z</time></trkpt><trkpt lat="45.7230633" lon="8.397405"><ele>501.0</ele><time>2026-04-06T10:52:13.097Z</time></trkpt><trkpt lat="45.7231733" lon="8.3973433"><ele>501.0</ele><time>2026-04-06T10:52:14.097Z</time></trkpt><trkpt lat="45.723295" lon="8.3973167"><ele>501.0</ele><time>2026-04-06T10:52:15.097Z</time></trkpt><trkpt lat="45.723445" lon="8.3972833"><ele>501.0</ele><time>2026-04-06T10:52:16.097Z</time></trkpt><trkpt lat="45.7235967" lon="8.3972633"><ele>501.0</ele><time>2026-04-06T10:52:17.097Z</time></trkpt><trkpt lat="45.7237367" lon="8.3972217"><ele>502.5</ele><time>2026-04-06T10:52:18.097Z</time></trkpt><trkpt lat="45.723865" lon="8.3971833"><ele>504.0</ele><time>2026-04-06T10:52:19.097Z</time></trkpt><trkpt lat="45.724" lon="8.3971817"><ele>505.5</ele><time>2026-04-06T10:52:20.097Z</time></trkpt><trkpt lat="45.7241217" lon="8.3972183"><ele>507.0</ele><time>2026-04-06T10:52:21.097Z</time></trkpt><trkpt lat="45.7242167" lon="8.3972917"><ele>507.0</ele><time>2026-04-06T10:52:22.097Z</time></trkpt><trkpt lat="45.7243017" lon="8.3973533"><ele>507.00000000000006</ele><time>2026-04-06T10:52:23.097Z</time></trkpt><trkpt lat="45.724375" lon="8.3973817"><ele>507.00000000000006</ele><time>2026-04-06T10:52:24.097Z</time></trkpt><trkpt lat="45.7244633" lon="8.3973833"><ele>507.0</ele><time>2026-04-06T10:52:25.097Z</time></trkpt><trkpt lat="45.7245367" lon="8.397355"><ele>507.0</ele><time>2026-04-06T10:52:26.096Z</time></trkpt><trkpt lat="45.7246283" lon="8.3972133"><ele>509.40000000000003</ele><time>2026-04-06T10:52:28.097Z</time></trkpt><trkpt lat="45.7246483" lon="8.3971017"><ele>511.80000000000007</ele><time>2026-04-06T10:52:29.096Z</time></trkpt><trkpt lat="45.7246517" lon="8.3969733"><ele>514.2</ele><time>2026-04-06T10:52:30.097Z</time></trkpt><trkpt lat="45.72463" lon="8.3968217"><ele>516.6</ele><time>2026-04-06T10:52:31.097Z</time></trkpt><trkpt lat="45.7246083" lon="8.3966817"><ele>519.0</ele><time>2026-04-06T10:52:32.097Z</time></trkpt><trkpt lat="45.7245967" lon="8.3965483"><ele>519.0</ele><time>2026-04-06T10:52:33.097Z</time></trkpt><trkpt lat="45.724625" lon="8.396455"><ele>519.0</ele><time>2026-04-06T10:52:34.097Z</time></trkpt><trkpt lat="45.724685" lon="8.3963817"><ele>519.0</ele><time>2026-04-06T10:52:35.097Z</time></trkpt><trkpt lat="45.7247683" lon="8.3962967"><ele>519.0</ele><time>2026-04-06T10:52:36.097Z</time></trkpt><trkpt lat="45.72488" lon="8.3962133"><ele>519.0</ele><time>2026-04-06T10:52:37.097Z</time></trkpt><trkpt lat="45.7249933" lon="8.3961417"><ele>519.0</ele><time>2026-04-06T10:52:38.097Z</time></trkpt><trkpt lat="45.7250967" lon="8.3960967"><ele>519.0</ele><time>2026-04-06T10:52:39.096Z</time></trkpt><trkpt lat="45.72519" lon="8.3960717"><ele>519.0</ele><time>2026-04-06T10:52:40.097Z</time></trkpt><trkpt lat="45.7252717" lon="8.396035"><ele>519.0</ele><time>2026-04-06T10:52:41.097Z</time></trkpt><trkpt lat="45.7253367" lon="8.396005"><ele>519.0</ele><time>2026-04-06T10:52:42.095Z</time></trkpt><trkpt lat="45.7254" lon="8.3959567"><ele>519.0</ele><time>2026-04-06T10:52:43.096Z</time></trkpt><trkpt lat="45.7254817" lon="8.3958417"><ele>519.0</ele><time>2026-04-06T10:52:45.096Z</time></trkpt><trkpt lat="45.7255083" lon="8.395695"><ele>519.0</ele><time>2026-04-06T10:52:47.096Z</time></trkpt><trkpt lat="45.7254667" lon="8.3954933"><ele>519.0</ele><time>2026-04-06T10:52:49.096Z</time></trkpt><trkpt lat="45.7253983" lon="8.395365"><ele>519.0</ele><time>2026-04-06T10:52:50.096Z</time></trkpt><trkpt lat="45.7252567" lon="8.3952867"><ele>517.0</ele><time>2026-04-06T10:52:51.096Z</time></trkpt><trkpt lat="45.7251217" lon="8.3952433"><ele>515.0</ele><time>2026-04-06T10:52:52.095Z</time></trkpt><trkpt lat="45.7250033" lon="8.3952033"><ele>513.0</ele><time>2026-04-06T10:52:53.096Z</time></trkpt><trkpt lat="45.724905" lon="8.3951467"><ele>511.0</ele><time>2026-04-06T10:52:54.096Z</time></trkpt><trkpt lat="45.724805" lon="8.3950683"><ele>511.0</ele><time>2026-04-06T10:52:55.096Z</time></trkpt><trkpt lat="45.72473" lon="8.3949783"><ele>511.0</ele><time>2026-04-06T10:52:56.095Z</time></trkpt><trkpt lat="45.7246583" lon="8.3948833"><ele>511.0</ele><time>2026-04-06T10:52:57.096Z</time></trkpt><trkpt lat="45.7246017" lon="8.39476"><ele>511.0</ele><time>2026-04-06T10:52:58.096Z</time></trkpt><trkpt lat="45.7245467" lon="8.3946217"><ele>511.0</ele><time>2026-04-06T10:52:59.096Z</time></trkpt><trkpt lat="45.7244933" lon="8.3944733"><ele>509.8</ele><time>2026-04-06T10:53:00.095Z</time></trkpt><trkpt lat="45.724435" lon="8.3943417"><ele>508.6</ele><time>2026-04-06T10:53:01.096Z</time></trkpt><trkpt lat="45.7243917" lon="8.39422"><ele>507.4</ele><time>2026-04-06T10:53:02.096Z</time></trkpt><trkpt lat="45.724355" lon="8.3941167"><ele>506.2</ele><time>2026-04-06T10:53:03.096Z</time></trkpt><trkpt lat="45.7243467" lon="8.393975"><ele>505.0</ele><time>2026-04-06T10:53:05.095Z</time></trkpt><trkpt lat="45.7244333" lon="8.3938633"><ele>505.00000000000006</ele><time>2026-04-06T10:53:07.096Z</time></trkpt><trkpt lat="45.7245" lon="8.3938367"><ele>505.0</ele><time>2026-04-06T10:53:08.096Z</time></trkpt><trkpt lat="45.7245683" lon="8.3938533"><ele>505.0</ele><time>2026-04-06T10:53:09.096Z</time></trkpt><trkpt lat="45.7246467" lon="8.3938983"><ele>505.0</ele><time>2026-04-06T10:53:10.096Z</time></trkpt><trkpt lat="45.72472" lon="8.393975"><ele>505.00000000000006</ele><time>2026-04-06T10:53:11.096Z</time></trkpt><trkpt lat="45.7248117" lon="8.3940483"><ele>505.0</ele><time>2026-04-06T10:53:12.096Z</time></trkpt><trkpt lat="45.724905" lon="8.3941033"><ele>505.00000000000006</ele><time>2026-04-06T10:53:13.096Z</time></trkpt><trkpt lat="45.7250017" lon="8.3941417"><ele>505.0</ele><time>2026-04-06T10:53:14.095Z</time></trkpt><trkpt lat="45.725095" lon="8.39416"><ele>505.0</ele><time>2026-04-06T10:53:15.096Z</time></trkpt><trkpt lat="45.7251833" lon="8.3941617"><ele>505.0</ele><time>2026-04-06T10:53:16.094Z</time></trkpt><trkpt lat="45.7252633" lon="8.3941633"><ele>505.00000000000006</ele><time>2026-04-06T10:53:17.096Z</time></trkpt><trkpt lat="45.7253333" lon="8.3941367"><ele>505.0</ele><time>2026-04-06T10:53:18.096Z</time></trkpt><trkpt lat="45.725395" lon="8.3940917"><ele>507.1666666666667</ele><time>2026-04-06T10:53:19.096Z</time></trkpt><trkpt lat="45.725445" lon="8.3940367"><ele>509.33333333333337</ele><time>2026-04-06T10:53:20.096Z</time></trkpt><trkpt lat="45.7255117" lon="8.39391"><ele>511.5</ele><time>2026-04-06T10:53:22.096Z</time></trkpt><trkpt lat="45.725465" lon="8.3937817"><ele>513.6666666666666</ele><time>2026-04-06T10:53:24.096Z</time></trkpt><trkpt lat="45.7254017" lon="8.3937267"><ele>515.8333333333333</ele><time>2026-04-06T10:53:25.096Z</time></trkpt><trkpt lat="45.7253167" lon="8.39369"><ele>518.0</ele><time>2026-04-06T10:53:26.095Z</time></trkpt><trkpt lat="45.7252333" lon="8.3936567"><ele>515.3333333333333</ele><time>2026-04-06T10:53:27.095Z</time></trkpt><trkpt lat="45.7251583" lon="8.3936083"><ele>512.6666666666666</ele><time>2026-04-06T10:53:28.096Z</time></trkpt><trkpt lat="45.7250883" lon="8.3935383"><ele>510.0</ele><time>2026-04-06T10:53:29.096Z</time></trkpt><trkpt lat="45.7250283" lon="8.3934517"><ele>507.33333333333337</ele><time>2026-04-06T10:53:30.096Z</time></trkpt><trkpt lat="45.7250083" lon="8.3933567"><ele>504.6666666666667</ele><time>2026-04-06T10:53:31.096Z</time></trkpt><trkpt lat="45.725005" lon="8.3932417"><ele>502.0</ele><time>2026-04-06T10:53:32.096Z</time></trkpt><trkpt lat="45.7250117" lon="8.3931233"><ele>502.00000000000006</ele><time>2026-04-06T10:53:33.095Z</time></trkpt><trkpt lat="45.725" lon="8.3930233"><ele>502.0</ele><time>2026-04-06T10:53:34.096Z</time></trkpt><trkpt lat="45.7249683" lon="8.39294"><ele>502.0</ele><time>2026-04-06T10:53:35.096Z</time></trkpt><trkpt lat="45.7249" lon="8.3928733"><ele>502.0</ele><time>2026-04-06T10:53:36.096Z</time></trkpt><trkpt lat="45.7248033" lon="8.3928483"><ele>502.00000000000006</ele><time>2026-04-06T10:53:37.096Z</time></trkpt><trkpt lat="45.7246983" lon="8.3928467"><ele>502.0</ele><time>2026-04-06T10:53:38.096Z</time></trkpt><trkpt lat="45.7245967" lon="8.3928233"><ele>500.20000000000005</ele><time>2026-04-06T10:53:39.096Z</time></trkpt><trkpt lat="45.7245017" lon="8.392795"><ele>498.40000000000003</ele><time>2026-04-06T10:53:40.095Z</time></trkpt><trkpt lat="45.7244067" lon="8.3927483"><ele>496.59999999999997</ele><time>2026-04-06T10:53:41.096Z</time></trkpt><trkpt lat="45.7243217" lon="8.3926867"><ele>494.79999999999995</ele><time>2026-04-06T10:53:42.096Z</time></trkpt><trkpt lat="45.7242333" lon="8.392625"><ele>493.0</ele><time>2026-04-06T10:53:43.096Z</time></trkpt><trkpt lat="45.72417" lon="8.3925467"><ele>493.00000000000006</ele><time>2026-04-06T10:53:44.096Z</time></trkpt><trkpt lat="45.7241333" lon="8.39247"><ele>493.0</ele><time>2026-04-06T10:53:45.096Z</time></trkpt><trkpt lat="45.7241067" lon="8.3922817"><ele>493.0</ele><time>2026-04-06T10:53:47.096Z</time></trkpt><trkpt lat="45.7240967" lon="8.3921667"><ele>493.0</ele><time>2026-04-06T10:53:48.096Z</time></trkpt><trkpt lat="45.7240833" lon="8.392055"><ele>493.00000000000006</ele><time>2026-04-06T10:53:49.096Z</time></trkpt><trkpt lat="45.72406" lon="8.3919483"><ele>493.0</ele><time>2026-04-06T10:53:50.096Z</time></trkpt><trkpt lat="45.7240283" lon="8.3918533"><ele>494.00000000000006</ele><time>2026-04-06T10:53:51.096Z</time></trkpt><trkpt lat="45.72397" lon="8.3917917"><ele>495.0</ele><time>2026-04-06T10:53:52.096Z</time></trkpt><trkpt lat="45.723885" lon="8.3917417"><ele>496.0</ele><time>2026-04-06T10:53:53.096Z</time></trkpt><trkpt lat="45.7237933" lon="8.3916867"><ele>497.0</ele><time>2026-04-06T10:53:54.096Z</time></trkpt><trkpt lat="45.7237267" lon="8.3916317"><ele>498.00000000000006</ele><time>2026-04-06T10:53:55.095Z</time></trkpt><trkpt lat="45.72367" lon="8.3915717"><ele>499.0</ele><time>2026-04-06T10:53:56.096Z</time></trkpt><trkpt lat="45.723625" lon="8.3914517"><ele>498.33333333333337</ele><time>2026-04-06T10:53:58.096Z</time></trkpt><trkpt lat="45.7236667" lon="8.3912867"><ele>497.6666666666667</ele><time>2026-04-06T10:54:00.095Z</time></trkpt><trkpt lat="45.7237083" lon="8.3911867"><ele>497.0</ele><time>2026-04-06T10:54:01.096Z</time></trkpt><trkpt lat="45.72375" lon="8.3910933"><ele>496.33333333333337</ele><time>2026-04-06T10:54:02.096Z</time></trkpt><trkpt lat="45.72379" lon="8.39102"><ele>495.6666666666667</ele><time>2026-04-06T10:54:03.096Z</time></trkpt><trkpt lat="45.7238417" lon="8.39095"><ele>495.0</ele><time>2026-04-06T10:54:04.095Z</time></trkpt><trkpt lat="45.7238983" lon="8.3908883"><ele>495.0</ele><time>2026-04-06T10:54:05.096Z</time></trkpt><trkpt lat="45.723955" lon="8.3908367"><ele>495.0</ele><time>2026-04-06T10:54:06.096Z</time></trkpt><trkpt lat="45.7240117" lon="8.3907817"><ele>495.0</ele><time>2026-04-06T10:54:07.096Z</time></trkpt><trkpt lat="45.72406" lon="8.390665"><ele>495.0</ele><time>2026-04-06T10:54:09.095Z</time></trkpt><trkpt lat="45.7239767" lon="8.390585"><ele>495.0</ele><time>2026-04-06T10:54:11.095Z</time></trkpt><trkpt lat="45.7238933" lon="8.3905483"><ele>495.0</ele><time>2026-04-06T10:54:12.096Z</time></trkpt><trkpt lat="45.7237867" lon="8.3905117"><ele>495.3333333333333</ele><time>2026-04-06T10:54:13.096Z</time></trkpt><trkpt lat="45.7236933" lon="8.39048"><ele>495.66666666666663</ele><time>2026-04-06T10:54:14.096Z</time></trkpt><trkpt lat="45.7236117" lon="8.3904733"><ele>496.0</ele><time>2026-04-06T10:54:15.096Z</time></trkpt><trkpt lat="45.7235267" lon="8.390475"><ele>496.3333333333333</ele><time>2026-04-06T10:54:16.096Z</time></trkpt><trkpt lat="45.7234417" lon="8.3904967"><ele>496.66666666666663</ele><time>2026-04-06T10:54:17.096Z</time></trkpt><trkpt lat="45.7233667" lon="8.3905567"><ele>497.0</ele><time>2026-04-06T10:54:18.096Z</time></trkpt><trkpt lat="45.723275" lon="8.390605"><ele>494.3333333333333</ele><time>2026-04-06T10:54:19.095Z</time></trkpt><trkpt lat="45.7232017" lon="8.3906517"><ele>491.66666666666663</ele><time>2026-04-06T10:54:20.096Z</time></trkpt><trkpt lat="45.7231283" lon="8.3906883"><ele>489.0</ele><time>2026-04-06T10:54:21.096Z</time></trkpt><trkpt lat="45.723065" lon="8.39075"><ele>486.33333333333337</ele><time>2026-04-06T10:54:22.096Z</time></trkpt><trkpt lat="45.7230017" lon="8.3908183"><ele>483.6666666666667</ele><time>2026-04-06T10:54:23.096Z</time></trkpt><trkpt lat="45.7229433" lon="8.390885"><ele>481.0</ele><time>2026-04-06T10:54:24.095Z</time></trkpt><trkpt lat="45.722885" lon="8.39095"><ele>481.0</ele><time>2026-04-06T10:54:25.096Z</time></trkpt><trkpt lat="45.722765" lon="8.39102"><ele>481.0</ele><time>2026-04-06T10:54:27.096Z</time></trkpt><trkpt lat="45.7226833" lon="8.3910167"><ele>481.0</ele><time>2026-04-06T10:54:28.096Z</time></trkpt><trkpt lat="45.7225933" lon="8.3909767"><ele>481.0</ele><time>2026-04-06T10:54:29.096Z</time></trkpt><trkpt lat="45.7225083" lon="8.3909183"><ele>481.0</ele><time>2026-04-06T10:54:30.096Z</time></trkpt><trkpt lat="45.72242" lon="8.390835"><ele>481.20000000000005</ele><time>2026-04-06T10:54:31.096Z</time></trkpt><trkpt lat="45.7223417" lon="8.39074"><ele>481.40000000000003</ele><time>2026-04-06T10:54:32.096Z</time></trkpt><trkpt lat="45.7222633" lon="8.3906367"><ele>481.6</ele><time>2026-04-06T10:54:33.095Z</time></trkpt><trkpt lat="45.7221917" lon="8.3905433"><ele>481.8</ele><time>2026-04-06T10:54:34.096Z</time></trkpt><trkpt lat="45.7221267" lon="8.39046"><ele>482.0</ele><time>2026-04-06T10:54:35.096Z</time></trkpt><trkpt lat="45.7220683" lon="8.390375"><ele>481.99999999999994</ele><time>2026-04-06T10:54:36.095Z</time></trkpt><trkpt lat="45.7220317" lon="8.3902933"><ele>482.0</ele><time>2026-04-06T10:54:37.096Z</time></trkpt><trkpt lat="45.72198" lon="8.3901283"><ele>482.0</ele><time>2026-04-06T10:54:39.096Z</time></trkpt><trkpt lat="45.721965" lon="8.3900317"><ele>482.0</ele><time>2026-04-06T10:54:40.096Z</time></trkpt><trkpt lat="45.7219467" lon="8.3899417"><ele>481.99999999999994</ele><time>2026-04-06T10:54:41.095Z</time></trkpt><trkpt lat="45.721915" lon="8.38986"><ele>482.0</ele><time>2026-04-06T10:54:42.096Z</time></trkpt><trkpt lat="45.7218517" lon="8.3897133"><ele>482.8333333333333</ele><time>2026-04-06T10:54:44.096Z</time></trkpt><trkpt lat="45.7218367" lon="8.3895467"><ele>483.66666666666663</ele><time>2026-04-06T10:54:46.096Z</time></trkpt><trkpt lat="45.7218583" lon="8.3894433"><ele>484.5</ele><time>2026-04-06T10:54:47.096Z</time></trkpt><trkpt lat="45.7218933" lon="8.3893483"><ele>485.33333333333337</ele><time>2026-04-06T10:54:48.095Z</time></trkpt><trkpt lat="45.721945" lon="8.3892467"><ele>486.1666666666667</ele><time>2026-04-06T10:54:49.095Z</time></trkpt><trkpt lat="45.7219933" lon="8.38916"><ele>487.0</ele><time>2026-04-06T10:54:50.096Z</time></trkpt><trkpt lat="45.72203" lon="8.3890733"><ele>487.0</ele><time>2026-04-06T10:54:51.096Z</time></trkpt><trkpt lat="45.7220517" lon="8.3889267"><ele>487.00000000000006</ele><time>2026-04-06T10:54:53.096Z</time></trkpt><trkpt lat="45.721995" lon="8.3888333"><ele>487.00000000000006</ele><time>2026-04-06T10:54:55.096Z</time></trkpt><trkpt lat="45.7218667" lon="8.3888567"><ele>487.0</ele><time>2026-04-06T10:54:57.095Z</time></trkpt><trkpt lat="45.7217983" lon="8.3888833"><ele>487.0</ele><time>2026-04-06T10:54:58.096Z</time></trkpt><trkpt lat="45.7217217" lon="8.3889033"><ele>483.33333333333337</ele><time>2026-04-06T10:54:59.096Z</time></trkpt><trkpt lat="45.721655" lon="8.38891"><ele>479.6666666666667</ele><time>2026-04-06T10:55:00.096Z</time></trkpt><trkpt lat="45.7215617" lon="8.3888667"><ele>476.0</ele><time>2026-04-06T10:55:02.096Z</time></trkpt><trkpt lat="45.7215083" lon="8.3887567"><ele>472.33333333333337</ele><time>2026-04-06T10:55:04.095Z</time></trkpt><trkpt lat="45.7214883" lon="8.3886617"><ele>468.6666666666667</ele><time>2026-04-06T10:55:05.096Z</time></trkpt><trkpt lat="45.7214817" lon="8.38854"><ele>465.0</ele><time>2026-04-06T10:55:06.096Z</time></trkpt><trkpt lat="45.7214917" lon="8.3884"><ele>465.0</ele><time>2026-04-06T10:55:07.096Z</time></trkpt><trkpt lat="45.721515" lon="8.3882533"><ele>465.0</ele><time>2026-04-06T10:55:08.096Z</time></trkpt><trkpt lat="45.72154" lon="8.3881133"><ele>465.0</ele><time>2026-04-06T10:55:09.095Z</time></trkpt><trkpt lat="45.7215717" lon="8.387985"><ele>465.0</ele><time>2026-04-06T10:55:10.095Z</time></trkpt><trkpt lat="45.721605" lon="8.387885"><ele>465.0</ele><time>2026-04-06T10:55:11.096Z</time></trkpt><trkpt lat="45.7216533" lon="8.3878033"><ele>464.0</ele><time>2026-04-06T10:55:12.096Z</time></trkpt><trkpt lat="45.7217083" lon="8.387725"><ele>463.0</ele><time>2026-04-06T10:55:13.096Z</time></trkpt><trkpt lat="45.7217667" lon="8.3876383"><ele>462.0</ele><time>2026-04-06T10:55:14.096Z</time></trkpt><trkpt lat="45.7218117" lon="8.3875633"><ele>461.0</ele><time>2026-04-06T10:55:15.096Z</time></trkpt><trkpt lat="45.7218333" lon="8.3874717"><ele>460.0</ele><time>2026-04-06T10:55:16.096Z</time></trkpt><trkpt lat="45.721835" lon="8.387375"><ele>459.0</ele><time>2026-04-06T10:55:17.096Z</time></trkpt><trkpt lat="45.7218317" lon="8.3872733"><ele>458.0</ele><time>2026-04-06T10:55:18.096Z</time></trkpt><trkpt lat="45.72184" lon="8.3871683"><ele>457.66666666666663</ele><time>2026-04-06T10:55:19.096Z</time></trkpt><trkpt lat="45.72186" lon="8.3870583"><ele>457.3333333333333</ele><time>2026-04-06T10:55:20.095Z</time></trkpt><trkpt lat="45.7219083" lon="8.38694"><ele>457.0</ele><time>2026-04-06T10:55:21.096Z</time></trkpt><trkpt lat="45.72196" lon="8.3868267"><ele>456.66666666666663</ele><time>2026-04-06T10:55:22.096Z</time></trkpt><trkpt lat="45.722015" lon="8.386735"><ele>456.3333333333333</ele><time>2026-04-06T10:55:23.095Z</time></trkpt><trkpt lat="45.722045" lon="8.38665"><ele>456.0</ele><time>2026-04-06T10:55:24.096Z</time></trkpt><trkpt lat="45.72204" lon="8.3865483"><ele>460.3333333333333</ele><time>2026-04-06T10:55:25.095Z</time></trkpt><trkpt lat="45.72202" lon="8.3864617"><ele>464.66666666666663</ele><time>2026-04-06T10:55:26.096Z</time></trkpt><trkpt lat="45.7220117" lon="8.38629"><ele>469.0</ele><time>2026-04-06T10:55:28.095Z</time></trkpt><trkpt lat="45.7220267" lon="8.38618"><ele>473.3333333333333</ele><time>2026-04-06T10:55:29.096Z</time></trkpt><trkpt lat="45.7220317" lon="8.38607"><ele>477.66666666666663</ele><time>2026-04-06T10:55:30.096Z</time></trkpt><trkpt lat="45.722025" lon="8.3859717"><ele>482.0</ele><time>2026-04-06T10:55:31.096Z</time></trkpt><trkpt lat="45.7219883" lon="8.3858467"><ele>482.20000000000005</ele><time>2026-04-06T10:55:32.096Z</time></trkpt><trkpt lat="45.72194" lon="8.3857167"><ele>482.40000000000003</ele><time>2026-04-06T10:55:33.096Z</time></trkpt><trkpt lat="45.721895" lon="8.3855783"><ele>482.59999999999997</ele><time>2026-04-06T10:55:34.096Z</time></trkpt><trkpt lat="45.7218517" lon="8.3854483"><ele>482.79999999999995</ele><time>2026-04-06T10:55:35.095Z</time></trkpt><trkpt lat="45.7218083" lon="8.38531"><ele>483.0</ele><time>2026-04-06T10:55:36.096Z</time></trkpt><trkpt lat="45.721755" lon="8.3851983"><ele>479.79999999999995</ele><time>2026-04-06T10:55:37.096Z</time></trkpt><trkpt lat="45.72171" lon="8.3850817"><ele>476.59999999999997</ele><time>2026-04-06T10:55:38.096Z</time></trkpt><trkpt lat="45.7216467" lon="8.3849583"><ele>473.40000000000003</ele><time>2026-04-06T10:55:39.096Z</time></trkpt><trkpt lat="45.7215883" lon="8.3848417"><ele>470.20000000000005</ele><time>2026-04-06T10:55:40.096Z</time></trkpt><trkpt lat="45.72153" lon="8.3847233"><ele>467.0</ele><time>2026-04-06T10:55:41.096Z</time></trkpt><trkpt lat="45.721485" lon="8.38462"><ele>466.16666666666663</ele><time>2026-04-06T10:55:42.095Z</time></trkpt><trkpt lat="45.721455" lon="8.3845183"><ele>465.3333333333333</ele><time>2026-04-06T10:55:43.096Z</time></trkpt><trkpt lat="45.721455" lon="8.3844033"><ele>464.5</ele><time>2026-04-06T10:55:44.096Z</time></trkpt><trkpt lat="45.721505" lon="8.3843117"><ele>463.66666666666663</ele><time>2026-04-06T10:55:45.096Z</time></trkpt><trkpt lat="45.721555" lon="8.3842433"><ele>462.8333333333333</ele><time>2026-04-06T10:55:46.096Z</time></trkpt><trkpt lat="45.7216167" lon="8.3841917"><ele>462.0</ele><time>2026-04-06T10:55:47.096Z</time></trkpt><trkpt lat="45.721675" lon="8.3841267"><ele>462.0</ele><time>2026-04-06T10:55:48.096Z</time></trkpt><trkpt lat="45.7217233" lon="8.384035"><ele>462.0</ele><time>2026-04-06T10:55:49.096Z</time></trkpt><trkpt lat="45.721765" lon="8.383925"><ele>462.0</ele><time>2026-04-06T10:55:50.096Z</time></trkpt><trkpt lat="45.7217967" lon="8.3838167"><ele>462.0</ele><time>2026-04-06T10:55:51.095Z</time></trkpt><trkpt lat="45.7218233" lon="8.383725"><ele>462.0</ele><time>2026-04-06T10:55:52.095Z</time></trkpt><trkpt lat="45.7218917" lon="8.3836"><ele>462.0</ele><time>2026-04-06T10:55:54.096Z</time></trkpt><trkpt lat="45.7219983" lon="8.3835217"><ele>462.0</ele><time>2026-04-06T10:55:56.096Z</time></trkpt><trkpt lat="45.7220633" lon="8.383495"><ele>462.0</ele><time>2026-04-06T10:55:57.096Z</time></trkpt><trkpt lat="45.7221633" lon="8.3833983"><ele>462.0</ele><time>2026-04-06T10:55:59.096Z</time></trkpt><trkpt lat="45.7222117" lon="8.3833283"><ele>462.0</ele><time>2026-04-06T10:56:00.095Z</time></trkpt><trkpt lat="45.7222617" lon="8.38325"><ele>462.0</ele><time>2026-04-06T10:56:01.096Z</time></trkpt><trkpt lat="45.7223117" lon="8.383165"><ele>462.0</ele><time>2026-04-06T10:56:02.096Z</time></trkpt><trkpt lat="45.7223667" lon="8.3830783"><ele>461.1428571428571</ele><time>2026-04-06T10:56:03.096Z</time></trkpt><trkpt lat="45.7224217" lon="8.3829833"><ele>460.2857142857143</ele><time>2026-04-06T10:56:04.096Z</time></trkpt><trkpt lat="45.7224733" lon="8.3829083"><ele>459.42857142857144</ele><time>2026-04-06T10:56:05.096Z</time></trkpt><trkpt lat="45.7225333" lon="8.382875"><ele>458.57142857142856</ele><time>2026-04-06T10:56:06.096Z</time></trkpt><trkpt lat="45.7226017" lon="8.3828717"><ele>457.71428571428567</ele><time>2026-04-06T10:56:07.096Z</time></trkpt><trkpt lat="45.7226667" lon="8.3828617"><ele>456.85714285714283</ele><time>2026-04-06T10:56:08.096Z</time></trkpt><trkpt lat="45.7227417" lon="8.3828567"><ele>456.0</ele><time>2026-04-06T10:56:09.096Z</time></trkpt><trkpt lat="45.7228067" lon="8.3828433"><ele>456.8333333333333</ele><time>2026-04-06T10:56:10.096Z</time></trkpt><trkpt lat="45.7229" lon="8.3828117"><ele>457.66666666666663</ele><time>2026-04-06T10:56:12.096Z</time></trkpt><trkpt lat="45.7229667" lon="8.3828683"><ele>458.5</ele><time>2026-04-06T10:56:14.096Z</time></trkpt><trkpt lat="45.72303" lon="8.38292"><ele>459.3333333333333</ele><time>2026-04-06T10:56:33.095Z</time></trkpt><trkpt lat="45.7230867" lon="8.382975"><ele>460.16666666666663</ele><time>2026-04-06T10:56:34.095Z</time></trkpt><trkpt lat="45.7231583" lon="8.38305"><ele>461.0</ele><time>2026-04-06T10:56:35.095Z</time></trkpt><trkpt lat="45.723225" lon="8.3831367"><ele>460.99999999999994</ele><time>2026-04-06T10:56:36.095Z</time></trkpt><trkpt lat="45.7232767" lon="8.383235"><ele>461.0</ele><time>2026-04-06T10:56:37.095Z</time></trkpt><trkpt lat="45.72332" lon="8.38331"><ele>461.0</ele><time>2026-04-06T10:56:38.094Z</time></trkpt><trkpt lat="45.7234217" lon="8.3833833"><ele>461.0</ele><time>2026-04-06T10:56:40.095Z</time></trkpt><trkpt lat="45.723505" lon="8.3833883"><ele>460.99999999999994</ele><time>2026-04-06T10:56:42.095Z</time></trkpt><trkpt lat="45.7235567" lon="8.3833367"><ele>461.0</ele><time>2026-04-06T10:56:44.095Z</time></trkpt><trkpt lat="45.7235283" lon="8.3832217"><ele>461.0</ele><time>2026-04-06T10:56:47.095Z</time></trkpt><trkpt lat="45.72348" lon="8.3830733"><ele>461.0</ele><time>2026-04-06T10:56:49.095Z</time></trkpt><trkpt lat="45.7234567" lon="8.3829617"><ele>461.0</ele><time>2026-04-06T10:56:50.095Z</time></trkpt><trkpt lat="45.723445" lon="8.3828383"><ele>461.0</ele><time>2026-04-06T10:56:51.094Z</time></trkpt><trkpt lat="45.72343" lon="8.3827067"><ele>461.0</ele><time>2026-04-06T10:56:52.095Z</time></trkpt><trkpt lat="45.7234117" lon="8.3825717"><ele>462.66666666666663</ele><time>2026-04-06T10:56:53.095Z</time></trkpt><trkpt lat="45.7233733" lon="8.3824517"><ele>464.3333333333333</ele><time>2026-04-06T10:56:54.095Z</time></trkpt><trkpt lat="45.7233167" lon="8.3823583"><ele>466.0</ele><time>2026-04-06T10:56:55.095Z</time></trkpt><trkpt lat="45.7232683" lon="8.3822783"><ele>467.66666666666663</ele><time>2026-04-06T10:56:56.095Z</time></trkpt><trkpt lat="45.7232" lon="8.3822083"><ele>469.3333333333333</ele><time>2026-04-06T10:56:57.095Z</time></trkpt><trkpt lat="45.7231333" lon="8.3821483"><ele>471.0</ele><time>2026-04-06T10:56:58.095Z</time></trkpt><trkpt lat="45.7230467" lon="8.38206"><ele>471.8333333333333</ele><time>2026-04-06T10:57:00.095Z</time></trkpt><trkpt lat="45.7230667" lon="8.381875"><ele>472.66666666666663</ele><time>2026-04-06T10:57:02.095Z</time></trkpt><trkpt lat="45.7231233" lon="8.3817817"><ele>473.5</ele><time>2026-04-06T10:57:03.095Z</time></trkpt><trkpt lat="45.7231567" lon="8.3816783"><ele>474.3333333333333</ele><time>2026-04-06T10:57:04.095Z</time></trkpt><trkpt lat="45.7231883" lon="8.3815867"><ele>475.16666666666663</ele><time>2026-04-06T10:57:05.095Z</time></trkpt><trkpt lat="45.7232183" lon="8.3815017"><ele>476.0</ele><time>2026-04-06T10:57:06.095Z</time></trkpt><trkpt lat="45.7232533" lon="8.3814267"><ele>475.4</ele><time>2026-04-06T10:57:07.094Z</time></trkpt><trkpt lat="45.72334" lon="8.3813433"><ele>474.8</ele><time>2026-04-06T10:57:09.095Z</time></trkpt><trkpt lat="45.7234017" lon="8.3813067"><ele>474.19999999999993</ele><time>2026-04-06T10:57:10.095Z</time></trkpt><trkpt lat="45.7234583" lon="8.38126"><ele>473.59999999999997</ele><time>2026-04-06T10:57:11.095Z</time></trkpt><trkpt lat="45.7235467" lon="8.38115"><ele>473.0</ele><time>2026-04-06T10:57:13.095Z</time></trkpt><trkpt lat="45.7236667" lon="8.3810967"><ele>476.66666666666663</ele><time>2026-04-06T10:57:15.095Z</time></trkpt><trkpt lat="45.723735" lon="8.3810733"><ele>480.3333333333333</ele><time>2026-04-06T10:57:16.095Z</time></trkpt><trkpt lat="45.7238183" lon="8.3810617"><ele>484.0</ele><time>2026-04-06T10:57:17.095Z</time></trkpt><trkpt lat="45.72389" lon="8.3810317"><ele>487.66666666666663</ele><time>2026-04-06T10:57:18.095Z</time></trkpt><trkpt lat="45.7239467" lon="8.3809883"><ele>491.3333333333333</ele><time>2026-04-06T10:57:19.095Z</time></trkpt><trkpt lat="45.7240517" lon="8.380935"><ele>495.0</ele><time>2026-04-06T10:57:21.095Z</time></trkpt><trkpt lat="45.7240883" lon="8.3810333"><ele>495.0</ele><time>2026-04-06T10:57:23.095Z</time></trkpt><trkpt lat="45.7240167" lon="8.3811683"><ele>495.0</ele><time>2026-04-06T10:57:25.095Z</time></trkpt><trkpt lat="45.72395" lon="8.3812233"><ele>495.0</ele><time>2026-04-06T10:57:26.095Z</time></trkpt><trkpt lat="45.7238433" lon="8.381255"><ele>495.0</ele><time>2026-04-06T10:57:27.094Z</time></trkpt><trkpt lat="45.72376" lon="8.3813183"><ele>495.0</ele><time>2026-04-06T10:57:28.095Z</time></trkpt><trkpt lat="45.7236667" lon="8.3813733"><ele>495.8333333333333</ele><time>2026-04-06T10:57:29.094Z</time></trkpt><trkpt lat="45.7236" lon="8.3814583"><ele>496.66666666666663</ele><time>2026-04-06T10:57:30.094Z</time></trkpt><trkpt lat="45.72353" lon="8.38156"><ele>497.5</ele><time>2026-04-06T10:57:31.095Z</time></trkpt><trkpt lat="45.7234833" lon="8.3816583"><ele>498.3333333333333</ele><time>2026-04-06T10:57:32.095Z</time></trkpt><trkpt lat="45.7234683" lon="8.381765"><ele>499.16666666666663</ele><time>2026-04-06T10:57:33.095Z</time></trkpt><trkpt lat="45.7234767" lon="8.3818717"><ele>500.0</ele><time>2026-04-06T10:57:34.095Z</time></trkpt><trkpt lat="45.7234933" lon="8.38198"><ele>498.0</ele><time>2026-04-06T10:57:35.094Z</time></trkpt><trkpt lat="45.72354" lon="8.382085"><ele>496.0</ele><time>2026-04-06T10:57:36.094Z</time></trkpt><trkpt lat="45.7235933" lon="8.3821867"><ele>494.0</ele><time>2026-04-06T10:57:37.095Z</time></trkpt><trkpt lat="45.723655" lon="8.382295"><ele>492.0</ele><time>2026-04-06T10:57:38.094Z</time></trkpt><trkpt lat="45.72373" lon="8.3823867"><ele>490.0</ele><time>2026-04-06T10:57:39.095Z</time></trkpt><trkpt lat="45.7237983" lon="8.38247"><ele>490.00000000000006</ele><time>2026-04-06T10:57:40.095Z</time></trkpt><trkpt lat="45.7238633" lon="8.3825317"><ele>490.0</ele><time>2026-04-06T10:57:41.094Z</time></trkpt><trkpt lat="45.7239533" lon="8.3825333"><ele>490.0</ele><time>2026-04-06T10:57:43.095Z</time></trkpt><trkpt lat="45.72395" lon="8.3824417"><ele>490.0</ele><time>2026-04-06T10:57:45.095Z</time></trkpt><trkpt lat="45.72387" lon="8.38236"><ele>490.00000000000006</ele><time>2026-04-06T10:57:47.095Z</time></trkpt><trkpt lat="45.7238183" lon="8.3823083"><ele>490.0</ele><time>2026-04-06T10:57:48.094Z</time></trkpt><trkpt lat="45.72378" lon="8.382235"><ele>491.6666666666667</ele><time>2026-04-06T10:57:49.095Z</time></trkpt><trkpt lat="45.7237517" lon="8.38213"><ele>493.33333333333337</ele><time>2026-04-06T10:57:50.095Z</time></trkpt><trkpt lat="45.7237583" lon="8.3820117"><ele>495.0</ele><time>2026-04-06T10:57:51.094Z</time></trkpt><trkpt lat="45.7237817" lon="8.38191"><ele>496.66666666666663</ele><time>2026-04-06T10:57:52.095Z</time></trkpt><trkpt lat="45.7238217" lon="8.3818217"><ele>498.3333333333333</ele><time>2026-04-06T10:57:53.095Z</time></trkpt><trkpt lat="45.7238717" lon="8.3817533"><ele>500.0</ele><time>2026-04-06T10:57:54.095Z</time></trkpt><trkpt lat="45.7239383" lon="8.3816933"><ele>500.0</ele><time>2026-04-06T10:57:55.095Z</time></trkpt><trkpt lat="45.7240083" lon="8.3816383"><ele>500.0</ele><time>2026-04-06T10:57:56.095Z</time></trkpt><trkpt lat="45.7240933" lon="8.3815883"><ele>500.0</ele><time>2026-04-06T10:57:57.095Z</time></trkpt><trkpt lat="45.72419" lon="8.38154"><ele>500.0</ele><time>2026-04-06T10:57:58.094Z</time></trkpt><trkpt lat="45.724285" lon="8.3814933"><ele>500.0</ele><time>2026-04-06T10:57:59.095Z</time></trkpt><trkpt lat="45.7243933" lon="8.3814767"><ele>500.99999999999994</ele><time>2026-04-06T10:58:00.095Z</time></trkpt><trkpt lat="45.72449" lon="8.3814517"><ele>502.0</ele><time>2026-04-06T10:58:01.095Z</time></trkpt><trkpt lat="45.7245983" lon="8.3814133"><ele>503.0</ele><time>2026-04-06T10:58:02.094Z</time></trkpt><trkpt lat="45.7246883" lon="8.381365"><ele>504.0</ele><time>2026-04-06T10:58:03.095Z</time></trkpt><trkpt lat="45.7247433" lon="8.3813133"><ele>504.99999999999994</ele><time>2026-04-06T10:58:04.095Z</time></trkpt><trkpt lat="45.7247983" lon="8.381235"><ele>506.0</ele><time>2026-04-06T10:58:05.094Z</time></trkpt><trkpt lat="45.72483" lon="8.38107"><ele>509.3333333333333</ele><time>2026-04-06T10:58:07.095Z</time></trkpt><trkpt lat="45.72481" lon="8.3809633"><ele>512.6666666666666</ele><time>2026-04-06T10:58:08.095Z</time></trkpt><trkpt lat="45.7247267" lon="8.3808233"><ele>516.0</ele><time>2026-04-06T10:58:09.095Z</time></trkpt><trkpt lat="45.7246933" lon="8.3807183"><ele>519.3333333333334</ele><time>2026-04-06T10:58:10.095Z</time></trkpt><trkpt lat="45.7246517" lon="8.3806167"><ele>522.6666666666667</ele><time>2026-04-06T10:58:11.095Z</time></trkpt><trkpt lat="45.7246367" lon="8.3805117"><ele>526.0</ele><time>2026-04-06T10:58:12.095Z</time></trkpt><trkpt lat="45.7246467" lon="8.3803983"><ele>527.0</ele><time>2026-04-06T10:58:13.095Z</time></trkpt><trkpt lat="45.7246717" lon="8.3802867"><ele>528.0</ele><time>2026-04-06T10:58:14.094Z</time></trkpt><trkpt lat="45.7247083" lon="8.3802033"><ele>529.0</ele><time>2026-04-06T10:58:15.094Z</time></trkpt><trkpt lat="45.72477" lon="8.38013"><ele>530.0</ele><time>2026-04-06T10:58:16.095Z</time></trkpt><trkpt lat="45.72485" lon="8.3800833"><ele>531.0</ele><time>2026-04-06T10:58:17.094Z</time></trkpt><trkpt lat="45.724935" lon="8.3800383"><ele>532.0</ele><time>2026-04-06T10:58:18.095Z</time></trkpt><trkpt lat="45.7249933" lon="8.3799717"><ele>532.0</ele><time>2026-04-06T10:58:19.095Z</time></trkpt><trkpt lat="45.72504" lon="8.37988"><ele>532.0</ele><time>2026-04-06T10:58:20.095Z</time></trkpt><trkpt lat="45.72507" lon="8.3797783"><ele>532.0</ele><time>2026-04-06T10:58:21.094Z</time></trkpt><trkpt lat="45.7250867" lon="8.3796483"><ele>532.0</ele><time>2026-04-06T10:58:22.095Z</time></trkpt><trkpt lat="45.7250933" lon="8.3795233"><ele>532.0</ele><time>2026-04-06T10:58:23.095Z</time></trkpt><trkpt lat="45.7251" lon="8.3793933"><ele>532.0</ele><time>2026-04-06T10:58:24.095Z</time></trkpt><trkpt lat="45.7251183" lon="8.379285"><ele>531.3333333333334</ele><time>2026-04-06T10:58:25.095Z</time></trkpt><trkpt lat="45.72516" lon="8.37919"><ele>530.6666666666667</ele><time>2026-04-06T10:58:26.095Z</time></trkpt><trkpt lat="45.72521" lon="8.3791183"><ele>530.0</ele><time>2026-04-06T10:58:27.095Z</time></trkpt><trkpt lat="45.72529" lon="8.3790667"><ele>529.3333333333334</ele><time>2026-04-06T10:58:28.095Z</time></trkpt><trkpt lat="45.7253783" lon="8.379015"><ele>528.6666666666666</ele><time>2026-04-06T10:58:29.095Z</time></trkpt><trkpt lat="45.725445" lon="8.3789383"><ele>528.0</ele><time>2026-04-06T10:58:30.095Z</time></trkpt><trkpt lat="45.7255067" lon="8.3788433"><ele>532.8333333333334</ele><time>2026-04-06T10:58:31.095Z</time></trkpt><trkpt lat="45.7255767" lon="8.3787467"><ele>537.6666666666666</ele><time>2026-04-06T10:58:32.095Z</time></trkpt><trkpt lat="45.725615" lon="8.378645"><ele>542.5</ele><time>2026-04-06T10:58:33.095Z</time></trkpt><trkpt lat="45.7256383" lon="8.37856"><ele>547.3333333333333</ele><time>2026-04-06T10:58:34.095Z</time></trkpt><trkpt lat="45.7256533" lon="8.3784583"><ele>552.1666666666666</ele><time>2026-04-06T10:58:35.094Z</time></trkpt><trkpt lat="45.7256533" lon="8.3783317"><ele>557.0</ele><time>2026-04-06T10:58:36.095Z</time></trkpt><trkpt lat="45.7256417" lon="8.3782067"><ele>557.0</ele><time>2026-04-06T10:58:37.095Z</time></trkpt><trkpt lat="45.72562" lon="8.378065"><ele>557.0</ele><time>2026-04-06T10:58:38.095Z</time></trkpt><trkpt lat="45.72562" lon="8.377885"><ele>557.0</ele><time>2026-04-06T10:58:40.095Z</time></trkpt><trkpt lat="45.72563" lon="8.377785"><ele>557.0</ele><time>2026-04-06T10:58:42.095Z</time></trkpt><trkpt lat="45.7256633" lon="8.3778967"><ele>557.0</ele><time>2026-04-06T10:58:45.094Z</time></trkpt><trkpt lat="45.725685" lon="8.3780133"><ele>557.0</ele><time>2026-04-06T10:58:46.095Z</time></trkpt><trkpt lat="45.7257283" lon="8.378145"><ele>557.0</ele><time>2026-04-06T10:58:47.095Z</time></trkpt><trkpt lat="45.7257767" lon="8.3782717"><ele>557.0</ele><time>2026-04-06T10:58:48.095Z</time></trkpt><trkpt lat="45.7258033" lon="8.3783883"><ele>557.0</ele><time>2026-04-06T10:58:49.095Z</time></trkpt><trkpt lat="45.72577" lon="8.3785733"><ele>557.0</ele><time>2026-04-06T10:58:51.095Z</time></trkpt><trkpt lat="45.72574" lon="8.3787"><ele>557.6</ele><time>2026-04-06T10:58:52.095Z</time></trkpt><trkpt lat="45.7257083" lon="8.3788533"><ele>558.2</ele><time>2026-04-06T10:58:53.095Z</time></trkpt><trkpt lat="45.725695" lon="8.379"><ele>558.8</ele><time>2026-04-06T10:58:54.095Z</time></trkpt><trkpt lat="45.7256867" lon="8.3791467"><ele>559.4</ele><time>2026-04-06T10:58:55.095Z</time></trkpt><trkpt lat="45.7256733" lon="8.3793"><ele>560.0</ele><time>2026-04-06T10:58:56.095Z</time></trkpt><trkpt lat="45.7256517" lon="8.37944"><ele>560.0</ele><time>2026-04-06T10:58:57.095Z</time></trkpt><trkpt lat="45.725605" lon="8.3795467"><ele>560.0</ele><time>2026-04-06T10:58:58.095Z</time></trkpt><trkpt lat="45.72555" lon="8.3796333"><ele>560.0</ele><time>2026-04-06T10:58:59.095Z</time></trkpt><trkpt lat="45.7254983" lon="8.3797"><ele>560.0</ele><time>2026-04-06T10:59:00.095Z</time></trkpt><trkpt lat="45.7254517" lon="8.3797767"><ele>560.0</ele><time>2026-04-06T10:59:01.095Z</time></trkpt><trkpt lat="45.7254533" lon="8.379915"><ele>560.0</ele><time>2026-04-06T10:59:03.095Z</time></trkpt><trkpt lat="45.7255517" lon="8.3798517"><ele>560.0</ele><time>2026-04-06T10:59:05.095Z</time></trkpt><trkpt lat="45.7257083" lon="8.37971"><ele>560.0</ele><time>2026-04-06T10:59:07.095Z</time></trkpt><trkpt lat="45.72579" lon="8.3796167"><ele>560.0</ele><time>2026-04-06T10:59:08.095Z</time></trkpt><trkpt lat="45.7258617" lon="8.3795117"><ele>560.0</ele><time>2026-04-06T10:59:09.095Z</time></trkpt><trkpt lat="45.7259317" lon="8.3794217"><ele>560.0</ele><time>2026-04-06T10:59:10.095Z</time></trkpt><trkpt lat="45.72599" lon="8.379335"><ele>560.0</ele><time>2026-04-06T10:59:11.095Z</time></trkpt><trkpt lat="45.726045" lon="8.37927"><ele>560.0</ele><time>2026-04-06T10:59:12.094Z</time></trkpt><trkpt lat="45.7261083" lon="8.3792483"><ele>560.0</ele><time>2026-04-06T10:59:13.095Z</time></trkpt><trkpt lat="45.7262267" lon="8.37925"><ele>560.0</ele><time>2026-04-06T10:59:15.095Z</time></trkpt><trkpt lat="45.72629" lon="8.3792417"><ele>560.0</ele><time>2026-04-06T10:59:16.095Z</time></trkpt><trkpt lat="45.7263833" lon="8.37914"><ele>557.75</ele><time>2026-04-06T10:59:18.094Z</time></trkpt><trkpt lat="45.72638" lon="8.37897"><ele>555.5</ele><time>2026-04-06T10:59:20.095Z</time></trkpt><trkpt lat="45.7263333" lon="8.3788117"><ele>553.25</ele><time>2026-04-06T10:59:21.095Z</time></trkpt><trkpt lat="45.7263183" lon="8.3786317"><ele>551.0</ele><time>2026-04-06T10:59:22.095Z</time></trkpt><trkpt lat="45.7263083" lon="8.37847"><ele>550.6</ele><time>2026-04-06T10:59:23.094Z</time></trkpt><trkpt lat="45.7262983" lon="8.3783267"><ele>550.2</ele><time>2026-04-06T10:59:24.095Z</time></trkpt><trkpt lat="45.7262667" lon="8.3781783"><ele>549.8</ele><time>2026-04-06T10:59:25.094Z</time></trkpt><trkpt lat="45.7262133" lon="8.3780183"><ele>549.4</ele><time>2026-04-06T10:59:26.095Z</time></trkpt><trkpt lat="45.72616" lon="8.377875"><ele>549.0</ele><time>2026-04-06T10:59:27.095Z</time></trkpt><trkpt lat="45.726135" lon="8.37773"><ele>548.2</ele><time>2026-04-06T10:59:28.095Z</time></trkpt><trkpt lat="45.7261417" lon="8.3775833"><ele>547.4</ele><time>2026-04-06T10:59:29.095Z</time></trkpt><trkpt lat="45.7261667" lon="8.3774383"><ele>546.6</ele><time>2026-04-06T10:59:30.095Z</time></trkpt><trkpt lat="45.7261833" lon="8.3772933"><ele>545.8</ele><time>2026-04-06T10:59:31.095Z</time></trkpt><trkpt lat="45.7261817" lon="8.3771417"><ele>545.0</ele><time>2026-04-06T10:59:32.095Z</time></trkpt><trkpt lat="45.7261517" lon="8.376975"><ele>544.0</ele><time>2026-04-06T10:59:33.095Z</time></trkpt><trkpt lat="45.7261167" lon="8.3767983"><ele>543.0</ele><time>2026-04-06T10:59:34.095Z</time></trkpt><trkpt lat="45.7260733" lon="8.37662"><ele>542.0</ele><time>2026-04-06T10:59:35.095Z</time></trkpt><trkpt lat="45.7260483" lon="8.3764333"><ele>541.0</ele><time>2026-04-06T10:59:36.095Z</time></trkpt><trkpt lat="45.7260283" lon="8.37627"><ele>547.25</ele><time>2026-04-06T10:59:37.095Z</time></trkpt><trkpt lat="45.7260117" lon="8.3760817"><ele>553.5</ele><time>2026-04-06T10:59:38.095Z</time></trkpt><trkpt lat="45.7260233" lon="8.37589"><ele>559.75</ele><time>2026-04-06T10:59:39.095Z</time></trkpt><trkpt lat="45.7260317" lon="8.375685"><ele>566.0</ele><time>2026-04-06T10:59:40.095Z</time></trkpt><trkpt lat="45.7260417" lon="8.375485"><ele>567.0</ele><time>2026-04-06T10:59:41.095Z</time></trkpt><trkpt lat="45.726045" lon="8.375305"><ele>568.0</ele><time>2026-04-06T10:59:42.095Z</time></trkpt><trkpt lat="45.7260433" lon="8.3751383"><ele>569.0</ele><time>2026-04-06T10:59:43.095Z</time></trkpt><trkpt lat="45.7260217" lon="8.3749967"><ele>570.0</ele><time>2026-04-06T10:59:44.095Z</time></trkpt><trkpt lat="45.7259733" lon="8.3748667"><ele>571.0</ele><time>2026-04-06T10:59:45.094Z</time></trkpt><trkpt lat="45.7259067" lon="8.37474"><ele>571.5</ele><time>2026-04-06T10:59:46.095Z</time></trkpt><trkpt lat="45.725825" lon="8.37461"><ele>572.0</ele><time>2026-04-06T10:59:47.095Z</time></trkpt><trkpt lat="45.7257417" lon="8.3744717"><ele>572.5</ele><time>2026-04-06T10:59:48.095Z</time></trkpt><trkpt lat="45.7256833" lon="8.374325"><ele>573.0</ele><time>2026-04-06T10:59:49.095Z</time></trkpt><trkpt lat="45.7256433" lon="8.3741983"><ele>573.0</ele><time>2026-04-06T10:59:50.094Z</time></trkpt><trkpt lat="45.7256133" lon="8.37405"><ele>573.0</ele><time>2026-04-06T10:59:51.095Z</time></trkpt><trkpt lat="45.7256117" lon="8.37391"><ele>573.0</ele><time>2026-04-06T10:59:52.095Z</time></trkpt><trkpt lat="45.725605" lon="8.3737667"><ele>573.0</ele><time>2026-04-06T10:59:53.095Z</time></trkpt><trkpt lat="45.725605" lon="8.3736383"><ele>573.0</ele><time>2026-04-06T10:59:54.095Z</time></trkpt><trkpt lat="45.7255817" lon="8.3735267"><ele>575.6</ele><time>2026-04-06T10:59:55.093Z</time></trkpt><trkpt lat="45.72554" lon="8.3734083"><ele>578.1999999999999</ele><time>2026-04-06T10:59:56.093Z</time></trkpt><trkpt lat="45.7254567" lon="8.373285"><ele>580.8</ele><time>2026-04-06T10:59:57.093Z</time></trkpt><trkpt lat="45.7253883" lon="8.3731383"><ele>583.4</ele><time>2026-04-06T10:59:58.094Z</time></trkpt><trkpt lat="45.7253117" lon="8.3730233"><ele>586.0</ele><time>2026-04-06T10:59:59.093Z</time></trkpt><trkpt lat="45.7252517" lon="8.3728767"><ele>587.8333333333334</ele><time>2026-04-06T11:00:00.094Z</time></trkpt><trkpt lat="45.7251867" lon="8.3727617"><ele>589.6666666666667</ele><time>2026-04-06T11:00:01.094Z</time></trkpt><trkpt lat="45.7251383" lon="8.3726817"><ele>591.5</ele><time>2026-04-06T11:00:02.094Z</time></trkpt><trkpt lat="45.72509" lon="8.3726183"><ele>593.3333333333334</ele><time>2026-04-06T11:00:03.094Z</time></trkpt><trkpt lat="45.7251633" lon="8.3726117"><ele>595.1666666666666</ele><time>2026-04-06T11:00:08.094Z</time></trkpt><trkpt lat="45.7252283" lon="8.3726817"><ele>597.0</ele><time>2026-04-06T11:00:09.094Z</time></trkpt><trkpt lat="45.7253017" lon="8.3727817"><ele>597.3333333333334</ele><time>2026-04-06T11:00:10.093Z</time></trkpt><trkpt lat="45.72537" lon="8.372865"><ele>597.6666666666666</ele><time>2026-04-06T11:00:11.094Z</time></trkpt><trkpt lat="45.7254317" lon="8.3729267"><ele>598.0</ele><time>2026-04-06T11:00:12.094Z</time></trkpt><trkpt lat="45.72555" lon="8.3729317"><ele>598.3333333333333</ele><time>2026-04-06T11:00:14.093Z</time></trkpt><trkpt lat="45.7256" lon="8.37286"><ele>598.6666666666666</ele><time>2026-04-06T11:00:15.094Z</time></trkpt><trkpt lat="45.7256467" lon="8.37279"><ele>599.0</ele><time>2026-04-06T11:00:16.094Z</time></trkpt><trkpt lat="45.7256783" lon="8.3727083"><ele>599.0</ele><time>2026-04-06T11:00:17.094Z</time></trkpt><trkpt lat="45.7256833" lon="8.372605"><ele>599.0</ele><time>2026-04-06T11:00:18.094Z</time></trkpt><trkpt lat="45.7256683" lon="8.372475"><ele>599.0</ele><time>2026-04-06T11:00:19.094Z</time></trkpt><trkpt lat="45.7256383" lon="8.3723167"><ele>599.0</ele><time>2026-04-06T11:00:20.094Z</time></trkpt><trkpt lat="45.7255967" lon="8.372145"><ele>599.0</ele><time>2026-04-06T11:00:21.094Z</time></trkpt><trkpt lat="45.7255733" lon="8.37198"><ele>603.5</ele><time>2026-04-06T11:00:22.094Z</time></trkpt><trkpt lat="45.725565" lon="8.3718017"><ele>608.0</ele><time>2026-04-06T11:00:23.094Z</time></trkpt><trkpt lat="45.72558" lon="8.3716183"><ele>612.5</ele><time>2026-04-06T11:00:24.094Z</time></trkpt><trkpt lat="45.7255867" lon="8.3714417"><ele>617.0</ele><time>2026-04-06T11:00:25.094Z</time></trkpt><trkpt lat="45.7255967" lon="8.3712717"><ele>620.4</ele><time>2026-04-06T11:00:26.094Z</time></trkpt><trkpt lat="45.7256033" lon="8.3711233"><ele>623.8000000000001</ele><time>2026-04-06T11:00:27.094Z</time></trkpt><trkpt lat="45.7256133" lon="8.3710017"><ele>627.2</ele><time>2026-04-06T11:00:28.094Z</time></trkpt><trkpt lat="45.7256433" lon="8.3708783"><ele>630.6</ele><time>2026-04-06T11:00:29.094Z</time></trkpt><trkpt lat="45.72569" lon="8.3707733"><ele>634.0</ele><time>2026-04-06T11:00:30.094Z</time></trkpt><trkpt lat="45.7257567" lon="8.3706867"><ele>634.0</ele><time>2026-04-06T11:00:31.094Z</time></trkpt><trkpt lat="45.7258167" lon="8.3706017"><ele>634.0</ele><time>2026-04-06T11:00:32.094Z</time></trkpt><trkpt lat="45.72588" lon="8.3705383"><ele>634.0</ele><time>2026-04-06T11:00:33.094Z</time></trkpt><trkpt lat="45.7259483" lon="8.3704867"><ele>634.0</ele><time>2026-04-06T11:00:34.094Z</time></trkpt><trkpt lat="45.72601" lon="8.370455"><ele>634.0</ele><time>2026-04-06T11:00:35.093Z</time></trkpt><trkpt lat="45.7260983" lon="8.3705967"><ele>634.0</ele><time>2026-04-06T11:00:37.094Z</time></trkpt><trkpt lat="45.72609" lon="8.3708183"><ele>633.0</ele><time>2026-04-06T11:00:38.094Z</time></trkpt><trkpt lat="45.7260767" lon="8.3710167"><ele>632.0</ele><time>2026-04-06T11:00:39.094Z</time></trkpt><trkpt lat="45.7260783" lon="8.3711783"><ele>631.0</ele><time>2026-04-06T11:00:40.094Z</time></trkpt><trkpt lat="45.7260867" lon="8.3712967"><ele>630.0</ele><time>2026-04-06T11:00:41.094Z</time></trkpt><trkpt lat="45.7261117" lon="8.3713833"><ele>629.0</ele><time>2026-04-06T11:00:42.094Z</time></trkpt><trkpt lat="45.7261717" lon="8.3714633"><ele>629.0</ele><time>2026-04-06T11:00:44.094Z</time></trkpt><trkpt lat="45.7262333" lon="8.371375"><ele>629.0</ele><time>2026-04-06T11:00:59.094Z</time></trkpt><trkpt lat="45.726235" lon="8.3712783"><ele>629.0</ele><time>2026-04-06T11:01:00.094Z</time></trkpt><trkpt lat="45.7262383" lon="8.37114"><ele>629.0</ele><time>2026-04-06T11:01:01.094Z</time></trkpt><trkpt lat="45.7262533" lon="8.3709967"><ele>629.0</ele><time>2026-04-06T11:01:02.094Z</time></trkpt><trkpt lat="45.72627" lon="8.3708217"><ele>635.0</ele><time>2026-04-06T11:01:03.094Z</time></trkpt><trkpt lat="45.7262717" lon="8.3705967"><ele>641.0</ele><time>2026-04-06T11:01:04.094Z</time></trkpt><trkpt lat="45.726255" lon="8.3703933"><ele>647.0</ele><time>2026-04-06T11:01:05.093Z</time></trkpt><trkpt lat="45.72625" lon="8.3702317"><ele>653.0</ele><time>2026-04-06T11:01:06.093Z</time></trkpt><trkpt lat="45.7262483" lon="8.370095"><ele>653.8333333333333</ele><time>2026-04-06T11:01:07.094Z</time></trkpt><trkpt lat="45.726245" lon="8.3699833"><ele>654.6666666666666</ele><time>2026-04-06T11:01:08.094Z</time></trkpt><trkpt lat="45.726235" lon="8.36989"><ele>655.5</ele><time>2026-04-06T11:01:09.094Z</time></trkpt><trkpt lat="45.726165" lon="8.3697767"><ele>656.3333333333334</ele><time>2026-04-06T11:01:11.094Z</time></trkpt><trkpt lat="45.7260933" lon="8.3698017"><ele>657.1666666666667</ele><time>2026-04-06T11:01:12.094Z</time></trkpt><trkpt lat="45.726055" lon="8.36988"><ele>658.0</ele><time>2026-04-06T11:01:13.094Z</time></trkpt><trkpt lat="45.7259617" lon="8.3700683"><ele>658.0</ele><time>2026-04-06T11:01:14.093Z</time></trkpt><trkpt lat="45.725865" lon="8.3701817"><ele>658.0</ele><time>2026-04-06T11:01:15.094Z</time></trkpt><trkpt lat="45.72578" lon="8.3703083"><ele>658.0</ele><time>2026-04-06T11:01:16.094Z</time></trkpt><trkpt lat="45.7256833" lon="8.3703883"><ele>658.0</ele><time>2026-04-06T11:01:17.094Z</time></trkpt><trkpt lat="45.72556" lon="8.370415"><ele>658.0</ele><time>2026-04-06T11:01:18.094Z</time></trkpt><trkpt lat="45.725465" lon="8.37045"><ele>658.0</ele><time>2026-04-06T11:01:19.093Z</time></trkpt><trkpt lat="45.72538" lon="8.370485"><ele>658.0</ele><time>2026-04-06T11:01:20.094Z</time></trkpt><trkpt lat="45.7253" lon="8.3705167"><ele>658.0</ele><time>2026-04-06T11:01:21.094Z</time></trkpt><trkpt lat="45.7251933" lon="8.3705367"><ele>658.0</ele><time>2026-04-06T11:01:23.094Z</time></trkpt><trkpt lat="45.7251467" lon="8.3703833"><ele>660.0</ele><time>2026-04-06T11:01:25.094Z</time></trkpt><trkpt lat="45.7251467" lon="8.3702467"><ele>662.0</ele><time>2026-04-06T11:01:26.094Z</time></trkpt><trkpt lat="45.7251667" lon="8.37008"><ele>664.0</ele><time>2026-04-06T11:01:27.093Z</time></trkpt><trkpt lat="45.72519" lon="8.36989"><ele>666.0</ele><time>2026-04-06T11:01:28.094Z</time></trkpt><trkpt lat="45.7251967" lon="8.3696883"><ele>666.0</ele><time>2026-04-06T11:01:29.093Z</time></trkpt><trkpt lat="45.72521" lon="8.369505"><ele>666.0</ele><time>2026-04-06T11:01:30.094Z</time></trkpt><trkpt lat="45.7252117" lon="8.3693467"><ele>666.0</ele><time>2026-04-06T11:01:31.094Z</time></trkpt><trkpt lat="45.72518" lon="8.369205"><ele>666.0</ele><time>2026-04-06T11:01:32.093Z</time></trkpt><trkpt lat="45.7251317" lon="8.3690767"><ele>666.0</ele><time>2026-04-06T11:01:33.094Z</time></trkpt><trkpt lat="45.72507" lon="8.3689633"><ele>666.0</ele><time>2026-04-06T11:01:34.094Z</time></trkpt><trkpt lat="45.7250417" lon="8.3688717"><ele>666.0</ele><time>2026-04-06T11:01:35.093Z</time></trkpt><trkpt lat="45.725025" lon="8.36877"><ele>666.0</ele><time>2026-04-06T11:01:36.094Z</time></trkpt><trkpt lat="45.7250167" lon="8.36865"><ele>666.0</ele><time>2026-04-06T11:01:37.093Z</time></trkpt><trkpt lat="45.72499" lon="8.3685367"><ele>666.0</ele><time>2026-04-06T11:01:38.094Z</time></trkpt><trkpt lat="45.7249583" lon="8.3683983"><ele>666.0</ele><time>2026-04-06T11:01:39.094Z</time></trkpt><trkpt lat="45.7249183" lon="8.3682617"><ele>669.5</ele><time>2026-04-06T11:01:40.094Z</time></trkpt><trkpt lat="45.7249117" lon="8.36813"><ele>673.0</ele><time>2026-04-06T11:01:41.094Z</time></trkpt><trkpt lat="45.724905" lon="8.3680033"><ele>676.5</ele><time>2026-04-06T11:01:42.094Z</time></trkpt><trkpt lat="45.7248933" lon="8.3678917"><ele>680.0</ele><time>2026-04-06T11:01:43.094Z</time></trkpt><trkpt lat="45.72488" lon="8.3677817"><ele>683.5</ele><time>2026-04-06T11:01:44.094Z</time></trkpt><trkpt lat="45.724855" lon="8.3676733"><ele>687.0</ele><time>2026-04-06T11:01:45.094Z</time></trkpt><trkpt lat="45.7248183" lon="8.367555"><ele>688.4000000000001</ele><time>2026-04-06T11:01:46.094Z</time></trkpt><trkpt lat="45.72475" lon="8.3674433"><ele>689.8000000000001</ele><time>2026-04-06T11:01:47.094Z</time></trkpt><trkpt lat="45.72466" lon="8.3673567"><ele>691.2</ele><time>2026-04-06T11:01:48.093Z</time></trkpt><trkpt lat="45.7245617" lon="8.367285"><ele>692.6</ele><time>2026-04-06T11:01:49.094Z</time></trkpt><trkpt lat="45.7244533" lon="8.367255"><ele>694.0</ele><time>2026-04-06T11:01:50.094Z</time></trkpt><trkpt lat="45.724315" lon="8.36729"><ele>694.0</ele><time>2026-04-06T11:01:51.094Z</time></trkpt><trkpt lat="45.7242167" lon="8.3673433"><ele>694.0</ele><time>2026-04-06T11:01:52.094Z</time></trkpt><trkpt lat="45.72415" lon="8.3673917"><ele>694.0</ele><time>2026-04-06T11:01:53.094Z</time></trkpt><trkpt lat="45.72408" lon="8.3674067"><ele>694.0</ele><time>2026-04-06T11:01:54.094Z</time></trkpt><trkpt lat="45.724" lon="8.3674067"><ele>694.0</ele><time>2026-04-06T11:01:55.094Z</time></trkpt><trkpt lat="45.7239417" lon="8.3673583"><ele>694.0</ele><time>2026-04-06T11:01:56.093Z</time></trkpt><trkpt lat="45.7238483" lon="8.3672217"><ele>693.1666666666667</ele><time>2026-04-06T11:01:58.094Z</time></trkpt><trkpt lat="45.7237933" lon="8.3671733"><ele>692.3333333333334</ele><time>2026-04-06T11:01:59.093Z</time></trkpt><trkpt lat="45.7237217" lon="8.36713"><ele>691.5</ele><time>2026-04-06T11:02:00.094Z</time></trkpt><trkpt lat="45.723655" lon="8.3670683"><ele>690.6666666666666</ele><time>2026-04-06T11:02:01.093Z</time></trkpt><trkpt lat="45.7235933" lon="8.3669917"><ele>689.8333333333333</ele><time>2026-04-06T11:02:02.093Z</time></trkpt><trkpt lat="45.723575" lon="8.3668283"><ele>689.0</ele><time>2026-04-06T11:02:03.094Z</time></trkpt><trkpt lat="45.7235417" lon="8.3666633"><ele>689.0</ele><time>2026-04-06T11:02:04.093Z</time></trkpt><trkpt lat="45.723505" lon="8.366495"><ele>689.0</ele><time>2026-04-06T11:02:05.094Z</time></trkpt><trkpt lat="45.7234717" lon="8.3663267"><ele>689.0</ele><time>2026-04-06T11:02:06.094Z</time></trkpt><trkpt lat="45.7234667" lon="8.3661367"><ele>689.0</ele><time>2026-04-06T11:02:07.094Z</time></trkpt><trkpt lat="45.7234733" lon="8.3659717"><ele>693.0</ele><time>2026-04-06T11:02:08.094Z</time></trkpt><trkpt lat="45.7234833" lon="8.3658117"><ele>697.0</ele><time>2026-04-06T11:02:09.094Z</time></trkpt><trkpt lat="45.7234833" lon="8.3656383"><ele>701.0</ele><time>2026-04-06T11:02:10.094Z</time></trkpt><trkpt lat="45.723455" lon="8.36547"><ele>705.0</ele><time>2026-04-06T11:02:11.093Z</time></trkpt><trkpt lat="45.72341" lon="8.3653183"><ele>709.4</ele><time>2026-04-06T11:02:12.094Z</time></trkpt><trkpt lat="45.72338" lon="8.3651767"><ele>713.8</ele><time>2026-04-06T11:02:13.094Z</time></trkpt><trkpt lat="45.7233717" lon="8.3650317"><ele>718.2</ele><time>2026-04-06T11:02:14.094Z</time></trkpt><trkpt lat="45.7233617" lon="8.3649067"><ele>722.6</ele><time>2026-04-06T11:02:15.093Z</time></trkpt><trkpt lat="45.723365" lon="8.3647683"><ele>727.0</ele><time>2026-04-06T11:02:16.094Z</time></trkpt><trkpt lat="45.723345" lon="8.3646417"><ele>730.8</ele><time>2026-04-06T11:02:17.094Z</time></trkpt><trkpt lat="45.7233" lon="8.3645283"><ele>734.6</ele><time>2026-04-06T11:02:18.094Z</time></trkpt><trkpt lat="45.7232517" lon="8.36442"><ele>738.4</ele><time>2026-04-06T11:02:19.093Z</time></trkpt><trkpt lat="45.7231833" lon="8.3643017"><ele>742.1999999999999</ele><time>2026-04-06T11:02:20.094Z</time></trkpt><trkpt lat="45.7231283" lon="8.3641883"><ele>746.0</ele><time>2026-04-06T11:02:21.094Z</time></trkpt><trkpt lat="45.723085" lon="8.3640633"><ele>746.0</ele><time>2026-04-06T11:02:22.094Z</time></trkpt><trkpt lat="45.7230433" lon="8.3639167"><ele>746.0</ele><time>2026-04-06T11:02:23.093Z</time></trkpt><trkpt lat="45.7229917" lon="8.36377"><ele>746.0</ele><time>2026-04-06T11:02:24.094Z</time></trkpt><trkpt lat="45.72293" lon="8.36362"><ele>746.0</ele><time>2026-04-06T11:02:25.094Z</time></trkpt><trkpt lat="45.72287" lon="8.3635"><ele>747.5999999999999</ele><time>2026-04-06T11:02:26.094Z</time></trkpt><trkpt lat="45.722795" lon="8.36344"><ele>749.2</ele><time>2026-04-06T11:02:27.094Z</time></trkpt><trkpt lat="45.7227183" lon="8.36341"><ele>750.8</ele><time>2026-04-06T11:02:28.094Z</time></trkpt><trkpt lat="45.722625" lon="8.363415"><ele>752.4000000000001</ele><time>2026-04-06T11:02:29.093Z</time></trkpt><trkpt lat="45.722535" lon="8.36351"><ele>754.0</ele><time>2026-04-06T11:02:30.093Z</time></trkpt><trkpt lat="45.72245" lon="8.363625"><ele>754.0</ele><time>2026-04-06T11:02:31.094Z</time></trkpt><trkpt lat="45.7223783" lon="8.3636367"><ele>754.0</ele><time>2026-04-06T11:02:32.094Z</time></trkpt><trkpt lat="45.7223117" lon="8.3636117"><ele>754.0</ele><time>2026-04-06T11:02:33.094Z</time></trkpt><trkpt lat="45.7222433" lon="8.3635683"><ele>754.0</ele><time>2026-04-06T11:02:34.094Z</time></trkpt><trkpt lat="45.722165" lon="8.36354"><ele>754.0</ele><time>2026-04-06T11:02:35.094Z</time></trkpt><trkpt lat="45.72208" lon="8.36351"><ele>754.0</ele><time>2026-04-06T11:02:36.094Z</time></trkpt><trkpt lat="45.7219867" lon="8.3635233"><ele>751.2</ele><time>2026-04-06T11:02:37.094Z</time></trkpt><trkpt lat="45.72189" lon="8.36353"><ele>748.4000000000001</ele><time>2026-04-06T11:02:38.094Z</time></trkpt><trkpt lat="45.7217983" lon="8.36352"><ele>745.6</ele><time>2026-04-06T11:02:39.093Z</time></trkpt><trkpt lat="45.7217067" lon="8.363455"><ele>742.8</ele><time>2026-04-06T11:02:40.094Z</time></trkpt><trkpt lat="45.7216167" lon="8.3633433"><ele>740.0</ele><time>2026-04-06T11:02:41.094Z</time></trkpt><trkpt lat="45.7215467" lon="8.363245"><ele>740.0</ele><time>2026-04-06T11:02:42.094Z</time></trkpt><trkpt lat="45.7214867" lon="8.36312"><ele>740.0</ele><time>2026-04-06T11:02:43.094Z</time></trkpt><trkpt lat="45.7214333" lon="8.3630167"><ele>740.0</ele><time>2026-04-06T11:02:44.094Z</time></trkpt><trkpt lat="45.7213883" lon="8.3629233"><ele>740.0</ele><time>2026-04-06T11:02:45.093Z</time></trkpt><trkpt lat="45.72133" lon="8.3628683"><ele>740.0</ele><time>2026-04-06T11:02:46.094Z</time></trkpt><trkpt lat="45.72122" lon="8.3628317"><ele>740.0</ele><time>2026-04-06T11:02:48.094Z</time></trkpt><trkpt lat="45.7211383" lon="8.363"><ele>740.0</ele><time>2026-04-06T11:02:50.093Z</time></trkpt><trkpt lat="45.7211133" lon="8.3632"><ele>740.0</ele><time>2026-04-06T11:02:51.094Z</time></trkpt><trkpt lat="45.7210883" lon="8.36346"><ele>737.4</ele><time>2026-04-06T11:02:52.094Z</time></trkpt><trkpt lat="45.7210533" lon="8.3636683"><ele>734.8</ele><time>2026-04-06T11:02:53.094Z</time></trkpt><trkpt lat="45.7210083" lon="8.363805"><ele>732.2</ele><time>2026-04-06T11:02:54.094Z</time></trkpt><trkpt lat="45.7209567" lon="8.3639217"><ele>729.6</ele><time>2026-04-06T11:02:55.094Z</time></trkpt><trkpt lat="45.7208933" lon="8.36398"><ele>727.0</ele><time>2026-04-06T11:02:56.093Z</time></trkpt><trkpt lat="45.7208033" lon="8.36402"><ele>727.0</ele><time>2026-04-06T11:02:57.094Z</time></trkpt><trkpt lat="45.7206967" lon="8.3640483"><ele>727.0</ele><time>2026-04-06T11:02:58.094Z</time></trkpt><trkpt lat="45.7206233" lon="8.3640667"><ele>727.0</ele><time>2026-04-06T11:02:59.094Z</time></trkpt><trkpt lat="45.720545" lon="8.3640683"><ele>727.0</ele><time>2026-04-06T11:03:00.094Z</time></trkpt><trkpt lat="45.7204867" lon="8.364"><ele>727.0</ele><time>2026-04-06T11:03:01.094Z</time></trkpt><trkpt lat="45.7204317" lon="8.36394"><ele>727.0</ele><time>2026-04-06T11:03:02.094Z</time></trkpt><trkpt lat="45.7203583" lon="8.3639067"><ele>727.0</ele><time>2026-04-06T11:03:03.094Z</time></trkpt><trkpt lat="45.72028" lon="8.36396"><ele>727.0</ele><time>2026-04-06T11:03:04.094Z</time></trkpt><trkpt lat="45.720205" lon="8.364055"><ele>727.0</ele><time>2026-04-06T11:03:05.093Z</time></trkpt><trkpt lat="45.7201183" lon="8.3641417"><ele>727.0</ele><time>2026-04-06T11:03:06.094Z</time></trkpt><trkpt lat="45.7200367" lon="8.364225"><ele>727.0</ele><time>2026-04-06T11:03:07.094Z</time></trkpt><trkpt lat="45.71994" lon="8.3642767"><ele>729.0</ele><time>2026-04-06T11:03:08.094Z</time></trkpt><trkpt lat="45.7198267" lon="8.36427"><ele>731.0</ele><time>2026-04-06T11:03:09.094Z</time></trkpt><trkpt lat="45.7197317" lon="8.3642417"><ele>733.0</ele><time>2026-04-06T11:03:10.094Z</time></trkpt><trkpt lat="45.7196517" lon="8.3642017"><ele>735.0</ele><time>2026-04-06T11:03:11.094Z</time></trkpt><trkpt lat="45.7196017" lon="8.364145"><ele>737.0</ele><time>2026-04-06T11:03:12.094Z</time></trkpt><trkpt lat="45.7195983" lon="8.36404"><ele>739.0</ele><time>2026-04-06T11:03:13.094Z</time></trkpt><trkpt lat="45.7196183" lon="8.3639233"><ele>743.2</ele><time>2026-04-06T11:03:14.094Z</time></trkpt><trkpt lat="45.719655" lon="8.3637917"><ele>747.4000000000001</ele><time>2026-04-06T11:03:15.094Z</time></trkpt><trkpt lat="45.7196883" lon="8.3636533"><ele>751.6</ele><time>2026-04-06T11:03:16.094Z</time></trkpt><trkpt lat="45.719705" lon="8.3635283"><ele>755.8</ele><time>2026-04-06T11:03:17.094Z</time></trkpt><trkpt lat="45.7197067" lon="8.3634017"><ele>760.0</ele><time>2026-04-06T11:03:18.094Z</time></trkpt><trkpt lat="45.7196933" lon="8.36328"><ele>760.0</ele><time>2026-04-06T11:03:19.094Z</time></trkpt><trkpt lat="45.7196583" lon="8.3631767"><ele>760.0</ele><time>2026-04-06T11:03:20.094Z</time></trkpt><trkpt lat="45.7195967" lon="8.36309"><ele>760.0</ele><time>2026-04-06T11:03:21.094Z</time></trkpt><trkpt lat="45.7195333" lon="8.3630067"><ele>760.0</ele><time>2026-04-06T11:03:22.094Z</time></trkpt><trkpt lat="45.719435" lon="8.3629433"><ele>760.0</ele><time>2026-04-06T11:03:23.094Z</time></trkpt><trkpt lat="45.7193433" lon="8.3629133"><ele>759.0</ele><time>2026-04-06T11:03:24.094Z</time></trkpt><trkpt lat="45.7192667" lon="8.3628817"><ele>758.0</ele><time>2026-04-06T11:03:25.094Z</time></trkpt><trkpt lat="45.7191917" lon="8.3628133"><ele>757.0</ele><time>2026-04-06T11:03:26.094Z</time></trkpt><trkpt lat="45.7191183" lon="8.3627283"><ele>756.0</ele><time>2026-04-06T11:03:27.094Z</time></trkpt><trkpt lat="45.719045" lon="8.36261"><ele>755.0</ele><time>2026-04-06T11:03:28.094Z</time></trkpt><trkpt lat="45.7189617" lon="8.36248"><ele>755.0</ele><time>2026-04-06T11:03:29.094Z</time></trkpt><trkpt lat="45.7188933" lon="8.362345"><ele>755.0</ele><time>2026-04-06T11:03:30.094Z</time></trkpt><trkpt lat="45.71883" lon="8.3622167"><ele>755.0</ele><time>2026-04-06T11:03:31.094Z</time></trkpt><trkpt lat="45.718795" lon="8.3620933"><ele>755.0</ele><time>2026-04-06T11:03:32.094Z</time></trkpt><trkpt lat="45.7187483" lon="8.361995"><ele>755.0</ele><time>2026-04-06T11:03:33.094Z</time></trkpt><trkpt lat="45.7186717" lon="8.3619533"><ele>757.0</ele><time>2026-04-06T11:03:34.093Z</time></trkpt><trkpt lat="45.7185817" lon="8.3619433"><ele>759.0</ele><time>2026-04-06T11:03:35.094Z</time></trkpt><trkpt lat="45.7184667" lon="8.3620167"><ele>761.0</ele><time>2026-04-06T11:03:36.094Z</time></trkpt><trkpt lat="45.7183417" lon="8.3620983"><ele>763.0</ele><time>2026-04-06T11:03:37.093Z</time></trkpt><trkpt lat="45.718215" lon="8.36215"><ele>763.0</ele><time>2026-04-06T11:03:38.093Z</time></trkpt><trkpt lat="45.71808" lon="8.3621833"><ele>763.0</ele><time>2026-04-06T11:03:39.093Z</time></trkpt><trkpt lat="45.71794" lon="8.3622033"><ele>763.0</ele><time>2026-04-06T11:03:40.093Z</time></trkpt><trkpt lat="45.7178233" lon="8.36221"><ele>763.0</ele><time>2026-04-06T11:03:41.093Z</time></trkpt><trkpt lat="45.7177367" lon="8.3621883"><ele>757.4</ele><time>2026-04-06T11:03:42.093Z</time></trkpt><trkpt lat="45.7176517" lon="8.3621717"><ele>751.8</ele><time>2026-04-06T11:03:43.093Z</time></trkpt><trkpt lat="45.7175817" lon="8.362115"><ele>746.2</ele><time>2026-04-06T11:03:44.093Z</time></trkpt><trkpt lat="45.71752" lon="8.3620017"><ele>740.6</ele><time>2026-04-06T11:03:45.093Z</time></trkpt><trkpt lat="45.7174767" lon="8.3618383"><ele>735.0</ele><time>2026-04-06T11:03:46.093Z</time></trkpt><trkpt lat="45.71744" lon="8.361665"><ele>735.0</ele><time>2026-04-06T11:03:47.093Z</time></trkpt><trkpt lat="45.7173783" lon="8.3615067"><ele>735.0</ele><time>2026-04-06T11:03:48.093Z</time></trkpt><trkpt lat="45.7173067" lon="8.3613533"><ele>735.0</ele><time>2026-04-06T11:03:49.093Z</time></trkpt><trkpt lat="45.71722" lon="8.3612167"><ele>735.0</ele><time>2026-04-06T11:03:50.093Z</time></trkpt><trkpt lat="45.71713" lon="8.3610683"><ele>737.2</ele><time>2026-04-06T11:03:51.092Z</time></trkpt><trkpt lat="45.71706" lon="8.36091"><ele>739.4</ele><time>2026-04-06T11:03:52.092Z</time></trkpt><trkpt lat="45.7170167" lon="8.360775"><ele>741.5999999999999</ele><time>2026-04-06T11:03:53.093Z</time></trkpt><trkpt lat="45.7169933" lon="8.3606733"><ele>743.8</ele><time>2026-04-06T11:03:54.093Z</time></trkpt><trkpt lat="45.71702" lon="8.3605133"><ele>746.0</ele><time>2026-04-06T11:03:56.093Z</time></trkpt><trkpt lat="45.7170583" lon="8.360425"><ele>746.0</ele><time>2026-04-06T11:03:57.093Z</time></trkpt><trkpt lat="45.7171117" lon="8.3603283"><ele>746.0</ele><time>2026-04-06T11:03:58.092Z</time></trkpt><trkpt lat="45.7172033" lon="8.3602333"><ele>746.0</ele><time>2026-04-06T11:03:59.093Z</time></trkpt><trkpt lat="45.7173083" lon="8.3601633"><ele>746.0</ele><time>2026-04-06T11:04:00.093Z</time></trkpt><trkpt lat="45.717405" lon="8.3601067"><ele>746.0</ele><time>2026-04-06T11:04:01.093Z</time></trkpt><trkpt lat="45.71751" lon="8.36008"><ele>746.0</ele><time>2026-04-06T11:04:02.093Z</time></trkpt><trkpt lat="45.717595" lon="8.3600517"><ele>746.0</ele><time>2026-04-06T11:04:03.093Z</time></trkpt><trkpt lat="45.71761" lon="8.3599617"><ele>746.0</ele><time>2026-04-06T11:04:05.093Z</time></trkpt><trkpt lat="45.7175483" lon="8.359895"><ele>746.0</ele><time>2026-04-06T11:04:06.093Z</time></trkpt><trkpt lat="45.7174283" lon="8.3597167"><ele>746.0</ele><time>2026-04-06T11:04:08.093Z</time></trkpt><trkpt lat="45.71736" lon="8.3596067"><ele>749.5</ele><time>2026-04-06T11:04:09.093Z</time></trkpt><trkpt lat="45.71727" lon="8.3594333"><ele>753.0</ele><time>2026-04-06T11:04:10.092Z</time></trkpt><trkpt lat="45.7172383" lon="8.3592933"><ele>756.5</ele><time>2026-04-06T11:04:11.093Z</time></trkpt><trkpt lat="45.7172183" lon="8.3591133"><ele>760.0</ele><time>2026-04-06T11:04:12.093Z</time></trkpt><trkpt lat="45.71724" lon="8.3589333"><ele>764.6</ele><time>2026-04-06T11:04:13.093Z</time></trkpt><trkpt lat="45.7172583" lon="8.35878"><ele>769.2</ele><time>2026-04-06T11:04:14.093Z</time></trkpt><trkpt lat="45.71727" lon="8.3586433"><ele>773.8</ele><time>2026-04-06T11:04:15.093Z</time></trkpt><trkpt lat="45.7172533" lon="8.3585483"><ele>778.4</ele><time>2026-04-06T11:04:16.093Z</time></trkpt><trkpt lat="45.7172167" lon="8.358405"><ele>783.0</ele><time>2026-04-06T11:04:18.093Z</time></trkpt><trkpt lat="45.7171283" lon="8.3583517"><ele>783.0</ele><time>2026-04-06T11:04:20.093Z</time></trkpt><trkpt lat="45.7170517" lon="8.35835"><ele>783.0</ele><time>2026-04-06T11:04:21.092Z</time></trkpt><trkpt lat="45.7168867" lon="8.35841"><ele>783.0</ele><time>2026-04-06T11:04:22.093Z</time></trkpt><trkpt lat="45.716645" lon="8.358495"><ele>776.75</ele><time>2026-04-06T11:04:23.093Z</time></trkpt><trkpt lat="45.71648" lon="8.3585317"><ele>770.5</ele><time>2026-04-06T11:04:24.093Z</time></trkpt><trkpt lat="45.71636" lon="8.3585383"><ele>764.25</ele><time>2026-04-06T11:04:25.093Z</time></trkpt><trkpt lat="45.71628" lon="8.3585083"><ele>758.0</ele><time>2026-04-06T11:04:26.093Z</time></trkpt><trkpt lat="45.716215" lon="8.358435"><ele>758.0</ele><time>2026-04-06T11:04:27.093Z</time></trkpt><trkpt lat="45.7161833" lon="8.358255"><ele>758.0</ele><time>2026-04-06T11:04:28.092Z</time></trkpt><trkpt lat="45.7161483" lon="8.358085"><ele>758.0</ele><time>2026-04-06T11:04:29.093Z</time></trkpt><trkpt lat="45.7161167" lon="8.35794"><ele>758.0</ele><time>2026-04-06T11:04:30.093Z</time></trkpt><trkpt lat="45.716095" lon="8.357785"><ele>758.5714285714287</ele><time>2026-04-06T11:04:31.093Z</time></trkpt><trkpt lat="45.7160667" lon="8.3576733"><ele>759.1428571428571</ele><time>2026-04-06T11:04:32.093Z</time></trkpt><trkpt lat="45.7159917" lon="8.3576833"><ele>759.7142857142858</ele><time>2026-04-06T11:04:33.093Z</time></trkpt><trkpt lat="45.7159233" lon="8.357705"><ele>760.2857142857143</ele><time>2026-04-06T11:04:34.093Z</time></trkpt><trkpt lat="45.715855" lon="8.3577383"><ele>760.8571428571429</ele><time>2026-04-06T11:04:35.092Z</time></trkpt><trkpt lat="45.71579" lon="8.3577333"><ele>761.4285714285714</ele><time>2026-04-06T11:04:36.093Z</time></trkpt><trkpt lat="45.715725" lon="8.3576683"><ele>762.0</ele><time>2026-04-06T11:04:37.092Z</time></trkpt><trkpt lat="45.7156517" lon="8.3575817"><ele>762.0</ele><time>2026-04-06T11:04:38.093Z</time></trkpt><trkpt lat="45.7155733" lon="8.3574717"><ele>762.0</ele><time>2026-04-06T11:04:39.093Z</time></trkpt><trkpt lat="45.7154767" lon="8.3573883"><ele>762.0</ele><time>2026-04-06T11:04:40.093Z</time></trkpt><trkpt lat="45.7153933" lon="8.3573033"><ele>762.0</ele><time>2026-04-06T11:04:41.092Z</time></trkpt><trkpt lat="45.7153167" lon="8.3572167"><ele>762.0</ele><time>2026-04-06T11:04:42.093Z</time></trkpt><trkpt lat="45.7152717" lon="8.3570967"><ele>763.8333333333334</ele><time>2026-04-06T11:04:43.093Z</time></trkpt><trkpt lat="45.7152417" lon="8.3569917"><ele>765.6666666666667</ele><time>2026-04-06T11:04:44.093Z</time></trkpt><trkpt lat="45.715215" lon="8.356905"><ele>767.5</ele><time>2026-04-06T11:04:45.093Z</time></trkpt><trkpt lat="45.715195" lon="8.35675"><ele>769.3333333333334</ele><time>2026-04-06T11:04:47.093Z</time></trkpt><trkpt lat="45.7152283" lon="8.3566267"><ele>771.1666666666667</ele><time>2026-04-06T11:04:49.093Z</time></trkpt><trkpt lat="45.7151533" lon="8.3566367"><ele>773.0</ele><time>2026-04-06T11:04:55.092Z</time></trkpt><trkpt lat="45.7150733" lon="8.35663"><ele>768.0</ele><time>2026-04-06T11:04:57.092Z</time></trkpt><trkpt lat="45.7150033" lon="8.356475"><ele>763.0</ele><time>2026-04-06T11:04:59.093Z</time></trkpt><trkpt lat="45.7149683" lon="8.356355"><ele>758.0</ele><time>2026-04-06T11:05:00.092Z</time></trkpt><trkpt lat="45.7149333" lon="8.35623"><ele>753.0</ele><time>2026-04-06T11:05:01.093Z</time></trkpt><trkpt lat="45.7148917" lon="8.356135"><ele>748.0</ele><time>2026-04-06T11:05:02.093Z</time></trkpt><trkpt lat="45.71483" lon="8.3560367"><ele>748.0</ele><time>2026-04-06T11:05:03.093Z</time></trkpt><trkpt lat="45.7147383" lon="8.3559567"><ele>748.0</ele><time>2026-04-06T11:05:04.093Z</time></trkpt><trkpt lat="45.714635" lon="8.3558917"><ele>748.0</ele><time>2026-04-06T11:05:05.093Z</time></trkpt><trkpt lat="45.7145233" lon="8.35585"><ele>748.0</ele><time>2026-04-06T11:05:06.093Z</time></trkpt><trkpt lat="45.7144233" lon="8.3558183"><ele>748.0</ele><time>2026-04-06T11:05:07.093Z</time></trkpt><trkpt lat="45.7143133" lon="8.3557967"><ele>746.75</ele><time>2026-04-06T11:05:08.093Z</time></trkpt><trkpt lat="45.7141983" lon="8.3557767"><ele>745.5</ele><time>2026-04-06T11:05:09.092Z</time></trkpt><trkpt lat="45.71406" lon="8.3557867"><ele>744.25</ele><time>2026-04-06T11:05:10.093Z</time></trkpt><trkpt lat="45.71393" lon="8.3557367"><ele>743.0</ele><time>2026-04-06T11:05:11.093Z</time></trkpt><trkpt lat="45.7137983" lon="8.355695"><ele>743.0</ele><time>2026-04-06T11:05:12.093Z</time></trkpt><trkpt lat="45.71366" lon="8.3556817"><ele>743.0</ele><time>2026-04-06T11:05:13.093Z</time></trkpt><trkpt lat="45.7135383" lon="8.3556733"><ele>743.0</ele><time>2026-04-06T11:05:14.093Z</time></trkpt><trkpt lat="45.7134333" lon="8.3556717"><ele>743.0</ele><time>2026-04-06T11:05:15.093Z</time></trkpt><trkpt lat="45.7133483" lon="8.3556717"><ele>742.5999999999999</ele><time>2026-04-06T11:05:16.093Z</time></trkpt><trkpt lat="45.71322" lon="8.3556683"><ele>742.1999999999999</ele><time>2026-04-06T11:05:18.093Z</time></trkpt><trkpt lat="45.71315" lon="8.355625"><ele>741.8</ele><time>2026-04-06T11:05:19.093Z</time></trkpt><trkpt lat="45.71307" lon="8.3555833"><ele>741.4</ele><time>2026-04-06T11:05:20.093Z</time></trkpt><trkpt lat="45.71297" lon="8.355545"><ele>741.0</ele><time>2026-04-06T11:05:21.093Z</time></trkpt><trkpt lat="45.71286" lon="8.3555183"><ele>740.5999999999999</ele><time>2026-04-06T11:05:22.092Z</time></trkpt><trkpt lat="45.7127467" lon="8.3554933"><ele>740.2</ele><time>2026-04-06T11:05:23.093Z</time></trkpt><trkpt lat="45.7126367" lon="8.3554683"><ele>739.8</ele><time>2026-04-06T11:05:24.093Z</time></trkpt><trkpt lat="45.7125467" lon="8.3554233"><ele>739.4000000000001</ele><time>2026-04-06T11:05:25.093Z</time></trkpt><trkpt lat="45.7124717" lon="8.3553517"><ele>739.0</ele><time>2026-04-06T11:05:26.093Z</time></trkpt><trkpt lat="45.712405" lon="8.3552567"><ele>744.0</ele><time>2026-04-06T11:05:27.093Z</time></trkpt><trkpt lat="45.712365" lon="8.3551183"><ele>749.0</ele><time>2026-04-06T11:05:28.092Z</time></trkpt><trkpt lat="45.7123533" lon="8.3549583"><ele>754.0</ele><time>2026-04-06T11:05:29.093Z</time></trkpt><trkpt lat="45.7123433" lon="8.3547917"><ele>759.0</ele><time>2026-04-06T11:05:30.093Z</time></trkpt><trkpt lat="45.7123317" lon="8.35463"><ele>764.0</ele><time>2026-04-06T11:05:31.093Z</time></trkpt><trkpt lat="45.7123417" lon="8.35446"><ele>764.0</ele><time>2026-04-06T11:05:32.093Z</time></trkpt><trkpt lat="45.71237" lon="8.3542967"><ele>764.0</ele><time>2026-04-06T11:05:33.093Z</time></trkpt><trkpt lat="45.7124233" lon="8.3541617"><ele>764.0</ele><time>2026-04-06T11:05:34.093Z</time></trkpt><trkpt lat="45.71248" lon="8.3540517"><ele>764.0</ele><time>2026-04-06T11:05:35.093Z</time></trkpt><trkpt lat="45.7125467" lon="8.35397"><ele>764.0</ele><time>2026-04-06T11:05:36.093Z</time></trkpt><trkpt lat="45.7126133" lon="8.353915"><ele>763.6666666666666</ele><time>2026-04-06T11:05:37.093Z</time></trkpt><trkpt lat="45.7126733" lon="8.3538567"><ele>763.3333333333333</ele><time>2026-04-06T11:05:38.093Z</time></trkpt><trkpt lat="45.71272" lon="8.3537817"><ele>763.0</ele><time>2026-04-06T11:05:39.093Z</time></trkpt><trkpt lat="45.7127517" lon="8.3537"><ele>762.6666666666666</ele><time>2026-04-06T11:05:40.093Z</time></trkpt><trkpt lat="45.712795" lon="8.353615"><ele>762.3333333333334</ele><time>2026-04-06T11:05:41.093Z</time></trkpt><trkpt lat="45.7128383" lon="8.3535083"><ele>762.0</ele><time>2026-04-06T11:05:42.093Z</time></trkpt><trkpt lat="45.7128767" lon="8.3533833"><ele>756.4000000000001</ele><time>2026-04-06T11:05:43.092Z</time></trkpt><trkpt lat="45.71292" lon="8.3532533"><ele>750.8000000000001</ele><time>2026-04-06T11:05:44.093Z</time></trkpt><trkpt lat="45.7129417" lon="8.35311"><ele>745.2</ele><time>2026-04-06T11:05:45.093Z</time></trkpt><trkpt lat="45.712945" lon="8.3529583"><ele>739.6</ele><time>2026-04-06T11:05:46.093Z</time></trkpt><trkpt lat="45.7129283" lon="8.352805"><ele>734.0</ele><time>2026-04-06T11:05:47.092Z</time></trkpt><trkpt lat="45.7129033" lon="8.35268"><ele>734.0</ele><time>2026-04-06T11:05:48.093Z</time></trkpt><trkpt lat="45.7128733" lon="8.35258"><ele>734.0</ele><time>2026-04-06T11:05:49.093Z</time></trkpt><trkpt lat="45.7128383" lon="8.3525"><ele>734.0</ele><time>2026-04-06T11:05:50.093Z</time></trkpt><trkpt lat="45.7127667" lon="8.3524467"><ele>734.0</ele><time>2026-04-06T11:05:51.093Z</time></trkpt><trkpt lat="45.71268" lon="8.352405"><ele>734.0</ele><time>2026-04-06T11:05:52.093Z</time></trkpt><trkpt lat="45.7125883" lon="8.3523667"><ele>734.0</ele><time>2026-04-06T11:05:53.092Z</time></trkpt><trkpt lat="45.712505" lon="8.3523133"><ele>735.0</ele><time>2026-04-06T11:05:54.092Z</time></trkpt><trkpt lat="45.7124483" lon="8.35223"><ele>736.0</ele><time>2026-04-06T11:05:55.092Z</time></trkpt><trkpt lat="45.71243" lon="8.352095"><ele>737.0</ele><time>2026-04-06T11:05:56.093Z</time></trkpt><trkpt lat="45.712425" lon="8.3519467"><ele>738.0</ele><time>2026-04-06T11:05:57.093Z</time></trkpt><trkpt lat="45.7124367" lon="8.351815"><ele>739.0</ele><time>2026-04-06T11:05:58.092Z</time></trkpt><trkpt lat="45.712455" lon="8.3517"><ele>739.0</ele><time>2026-04-06T11:05:59.093Z</time></trkpt><trkpt lat="45.712455" lon="8.3516067"><ele>739.0</ele><time>2026-04-06T11:06:00.093Z</time></trkpt><trkpt lat="45.71237" lon="8.35149"><ele>739.0</ele><time>2026-04-06T11:06:02.092Z</time></trkpt><trkpt lat="45.7122883" lon="8.3514383"><ele>739.0</ele><time>2026-04-06T11:06:03.093Z</time></trkpt><trkpt lat="45.7122033" lon="8.3513833"><ele>739.0</ele><time>2026-04-06T11:06:04.093Z</time></trkpt><trkpt lat="45.7121233" lon="8.3513"><ele>737.5</ele><time>2026-04-06T11:06:05.093Z</time></trkpt><trkpt lat="45.7120733" lon="8.3511567"><ele>736.0</ele><time>2026-04-06T11:06:06.093Z</time></trkpt><trkpt lat="45.712035" lon="8.3509967"><ele>734.5</ele><time>2026-04-06T11:06:07.093Z</time></trkpt><trkpt lat="45.712005" lon="8.3508283"><ele>733.0</ele><time>2026-04-06T11:06:08.093Z</time></trkpt><trkpt lat="45.7120167" lon="8.3506433"><ele>730.5999999999999</ele><time>2026-04-06T11:06:09.093Z</time></trkpt><trkpt lat="45.71202" lon="8.350475"><ele>728.1999999999999</ele><time>2026-04-06T11:06:10.093Z</time></trkpt><trkpt lat="45.71202" lon="8.3503267"><ele>725.8</ele><time>2026-04-06T11:06:11.093Z</time></trkpt><trkpt lat="45.712015" lon="8.3501833"><ele>723.4</ele><time>2026-04-06T11:06:12.092Z</time></trkpt><trkpt lat="45.712" lon="8.3500583"><ele>721.0</ele><time>2026-04-06T11:06:13.092Z</time></trkpt><trkpt lat="45.7119767" lon="8.3499533"><ele>721.0</ele><time>2026-04-06T11:06:14.092Z</time></trkpt><trkpt lat="45.711955" lon="8.3498667"><ele>721.0</ele><time>2026-04-06T11:06:15.093Z</time></trkpt><trkpt lat="45.7119133" lon="8.349715"><ele>721.0</ele><time>2026-04-06T11:06:17.093Z</time></trkpt><trkpt lat="45.71187" lon="8.3495417"><ele>721.0</ele><time>2026-04-06T11:06:19.093Z</time></trkpt><trkpt lat="45.7118417" lon="8.3494467"><ele>721.0</ele><time>2026-04-06T11:06:20.093Z</time></trkpt><trkpt lat="45.7117933" lon="8.34934"><ele>723.1999999999999</ele><time>2026-04-06T11:06:21.093Z</time></trkpt><trkpt lat="45.7117333" lon="8.3492233"><ele>725.4</ele><time>2026-04-06T11:06:22.093Z</time></trkpt><trkpt lat="45.711665" lon="8.3490817"><ele>727.6</ele><time>2026-04-06T11:06:23.093Z</time></trkpt><trkpt lat="45.7116017" lon="8.3489483"><ele>729.8</ele><time>2026-04-06T11:06:24.092Z</time></trkpt><trkpt lat="45.711555" lon="8.3488083"><ele>732.0</ele><time>2026-04-06T11:06:25.093Z</time></trkpt><trkpt lat="45.7115383" lon="8.348675"><ele>733.0</ele><time>2026-04-06T11:06:26.092Z</time></trkpt><trkpt lat="45.7115317" lon="8.3485317"><ele>734.0</ele><time>2026-04-06T11:06:27.092Z</time></trkpt><trkpt lat="45.7115417" lon="8.34838"><ele>735.0</ele><time>2026-04-06T11:06:28.092Z</time></trkpt><trkpt lat="45.711575" lon="8.3482083"><ele>736.0</ele><time>2026-04-06T11:06:29.093Z</time></trkpt><trkpt lat="45.7115967" lon="8.3480417"><ele>737.0</ele><time>2026-04-06T11:06:30.093Z</time></trkpt><trkpt lat="45.711615" lon="8.3478833"><ele>738.5</ele><time>2026-04-06T11:06:31.093Z</time></trkpt><trkpt lat="45.7116183" lon="8.3477233"><ele>740.0</ele><time>2026-04-06T11:06:32.093Z</time></trkpt><trkpt lat="45.71161" lon="8.347555"><ele>741.5</ele><time>2026-04-06T11:06:33.093Z</time></trkpt><trkpt lat="45.7116167" lon="8.347385"><ele>743.0</ele><time>2026-04-06T11:06:34.093Z</time></trkpt><trkpt lat="45.7115967" lon="8.3472"><ele>745.0</ele><time>2026-04-06T11:06:35.093Z</time></trkpt><trkpt lat="45.7115667" lon="8.3470483"><ele>747.0</ele><time>2026-04-06T11:06:36.093Z</time></trkpt><trkpt lat="45.711515" lon="8.34689"><ele>749.0</ele><time>2026-04-06T11:06:37.093Z</time></trkpt><trkpt lat="45.7114517" lon="8.3467267"><ele>751.0</ele><time>2026-04-06T11:06:38.093Z</time></trkpt><trkpt lat="45.7113933" lon="8.34656"><ele>751.0</ele><time>2026-04-06T11:06:39.092Z</time></trkpt><trkpt lat="45.7113533" lon="8.3463883"><ele>751.0</ele><time>2026-04-06T11:06:40.092Z</time></trkpt><trkpt lat="45.71131" lon="8.3462183"><ele>751.0</ele><time>2026-04-06T11:06:41.093Z</time></trkpt><trkpt lat="45.7112633" lon="8.3460533"><ele>751.0</ele><time>2026-04-06T11:06:42.093Z</time></trkpt><trkpt lat="45.711205" lon="8.3458933"><ele>751.75</ele><time>2026-04-06T11:06:43.093Z</time></trkpt><trkpt lat="45.7111133" lon="8.3457383"><ele>752.5</ele><time>2026-04-06T11:06:44.093Z</time></trkpt><trkpt lat="45.7110333" lon="8.3455833"><ele>753.25</ele><time>2026-04-06T11:06:45.093Z</time></trkpt><trkpt lat="45.7109567" lon="8.3454567"><ele>754.0</ele><time>2026-04-06T11:06:46.093Z</time></trkpt><trkpt lat="45.71087" lon="8.3453533"><ele>759.25</ele><time>2026-04-06T11:06:47.093Z</time></trkpt><trkpt lat="45.7107683" lon="8.3452667"><ele>764.5</ele><time>2026-04-06T11:06:48.093Z</time></trkpt><trkpt lat="45.7106567" lon="8.3451783"><ele>769.75</ele><time>2026-04-06T11:06:49.093Z</time></trkpt><trkpt lat="45.7105483" lon="8.3451"><ele>775.0</ele><time>2026-04-06T11:06:50.093Z</time></trkpt><trkpt lat="45.7104617" lon="8.3450317"><ele>774.9999999999999</ele><time>2026-04-06T11:06:51.093Z</time></trkpt><trkpt lat="45.7103833" lon="8.3449783"><ele>775.0</ele><time>2026-04-06T11:06:52.093Z</time></trkpt><trkpt lat="45.7103167" lon="8.3449517"><ele>775.0</ele><time>2026-04-06T11:06:53.093Z</time></trkpt><trkpt lat="45.7102467" lon="8.3449183"><ele>775.0</ele><time>2026-04-06T11:06:54.092Z</time></trkpt><trkpt lat="45.710175" lon="8.3448883"><ele>774.9999999999999</ele><time>2026-04-06T11:06:55.093Z</time></trkpt><trkpt lat="45.7101033" lon="8.3448483"><ele>775.0</ele><time>2026-04-06T11:06:56.093Z</time></trkpt><trkpt lat="45.7100333" lon="8.3447917"><ele>772.1666666666666</ele><time>2026-04-06T11:06:57.092Z</time></trkpt><trkpt lat="45.7099717" lon="8.344725"><ele>769.3333333333333</ele><time>2026-04-06T11:06:58.092Z</time></trkpt><trkpt lat="45.70992" lon="8.344655"><ele>766.5</ele><time>2026-04-06T11:06:59.093Z</time></trkpt><trkpt lat="45.709875" lon="8.3445533"><ele>763.6666666666666</ele><time>2026-04-06T11:07:00.093Z</time></trkpt><trkpt lat="45.7098467" lon="8.3444417"><ele>760.8333333333333</ele><time>2026-04-06T11:07:01.093Z</time></trkpt><trkpt lat="45.70987" lon="8.344315"><ele>758.0</ele><time>2026-04-06T11:07:02.093Z</time></trkpt><trkpt lat="45.709915" lon="8.34419"><ele>758.0</ele><time>2026-04-06T11:07:03.093Z</time></trkpt><trkpt lat="45.7099633" lon="8.344055"><ele>758.0</ele><time>2026-04-06T11:07:04.093Z</time></trkpt><trkpt lat="45.7100183" lon="8.3439267"><ele>758.0</ele><time>2026-04-06T11:07:05.093Z</time></trkpt><trkpt lat="45.71008" lon="8.34381"><ele>758.0</ele><time>2026-04-06T11:07:06.093Z</time></trkpt><trkpt lat="45.71015" lon="8.343695"><ele>758.0</ele><time>2026-04-06T11:07:07.093Z</time></trkpt><trkpt lat="45.7102517" lon="8.3435983"><ele>759.25</ele><time>2026-04-06T11:07:08.093Z</time></trkpt><trkpt lat="45.71035" lon="8.3435"><ele>760.5</ele><time>2026-04-06T11:07:09.093Z</time></trkpt><trkpt lat="45.7104417" lon="8.3433817"><ele>761.75</ele><time>2026-04-06T11:07:10.093Z</time></trkpt><trkpt lat="45.7105133" lon="8.34326"><ele>763.0</ele><time>2026-04-06T11:07:11.093Z</time></trkpt><trkpt lat="45.7105633" lon="8.3431417"><ele>762.1666666666667</ele><time>2026-04-06T11:07:12.093Z</time></trkpt><trkpt lat="45.7105933" lon="8.34303"><ele>761.3333333333334</ele><time>2026-04-06T11:07:13.093Z</time></trkpt><trkpt lat="45.71057" lon="8.3429217"><ele>760.5</ele><time>2026-04-06T11:07:14.093Z</time></trkpt><trkpt lat="45.7105467" lon="8.34281"><ele>759.6666666666666</ele><time>2026-04-06T11:07:15.093Z</time></trkpt><trkpt lat="45.7105317" lon="8.3427033"><ele>758.8333333333333</ele><time>2026-04-06T11:07:16.093Z</time></trkpt><trkpt lat="45.7105383" lon="8.3426067"><ele>758.0</ele><time>2026-04-06T11:07:17.093Z</time></trkpt><trkpt lat="45.7106183" lon="8.3424483"><ele>758.0</ele><time>2026-04-06T11:07:19.093Z</time></trkpt><trkpt lat="45.7107" lon="8.3423433"><ele>758.0</ele><time>2026-04-06T11:07:20.092Z</time></trkpt><trkpt lat="45.71079" lon="8.3422283"><ele>758.0</ele><time>2026-04-06T11:07:21.092Z</time></trkpt><trkpt lat="45.7108783" lon="8.3421117"><ele>758.0</ele><time>2026-04-06T11:07:22.093Z</time></trkpt><trkpt lat="45.7109567" lon="8.342005"><ele>757.4</ele><time>2026-04-06T11:07:23.093Z</time></trkpt><trkpt lat="45.7110417" lon="8.341915"><ele>756.8</ele><time>2026-04-06T11:07:24.093Z</time></trkpt><trkpt lat="45.71111" lon="8.3418133"><ele>756.2</ele><time>2026-04-06T11:07:25.093Z</time></trkpt><trkpt lat="45.7111533" lon="8.341685"><ele>755.6</ele><time>2026-04-06T11:07:26.092Z</time></trkpt><trkpt lat="45.7111833" lon="8.3415367"><ele>755.0</ele><time>2026-04-06T11:07:27.093Z</time></trkpt><trkpt lat="45.7112083" lon="8.3413817"><ele>755.0</ele><time>2026-04-06T11:07:28.092Z</time></trkpt><trkpt lat="45.711225" lon="8.341215"><ele>755.0</ele><time>2026-04-06T11:07:29.092Z</time></trkpt><trkpt lat="45.7112267" lon="8.3410683"><ele>755.0</ele><time>2026-04-06T11:07:30.091Z</time></trkpt><trkpt lat="45.711215" lon="8.3409317"><ele>755.0</ele><time>2026-04-06T11:07:31.092Z</time></trkpt><trkpt lat="45.71119" lon="8.340825"><ele>755.0</ele><time>2026-04-06T11:07:32.092Z</time></trkpt><trkpt lat="45.7111667" lon="8.3407317"><ele>755.0</ele><time>2026-04-06T11:07:33.091Z</time></trkpt><trkpt lat="45.71113" lon="8.3405617"><ele>755.0</ele><time>2026-04-06T11:07:35.092Z</time></trkpt><trkpt lat="45.711105" lon="8.340475"><ele>755.0</ele><time>2026-04-06T11:07:36.092Z</time></trkpt><trkpt lat="45.7110783" lon="8.3403817"><ele>755.0</ele><time>2026-04-06T11:07:37.091Z</time></trkpt><trkpt lat="45.7110633" lon="8.3402833"><ele>755.0</ele><time>2026-04-06T11:07:38.092Z</time></trkpt><trkpt lat="45.7110483" lon="8.3401667"><ele>755.0</ele><time>2026-04-06T11:07:39.092Z</time></trkpt><trkpt lat="45.7110367" lon="8.3400583"><ele>752.6666666666666</ele><time>2026-04-06T11:07:40.091Z</time></trkpt><trkpt lat="45.711055" lon="8.3399383"><ele>750.3333333333333</ele><time>2026-04-06T11:07:41.091Z</time></trkpt><trkpt lat="45.7110683" lon="8.3398383"><ele>748.0</ele><time>2026-04-06T11:07:42.092Z</time></trkpt><trkpt lat="45.7110717" lon="8.3397317"><ele>745.6666666666666</ele><time>2026-04-06T11:07:43.092Z</time></trkpt><trkpt lat="45.7110383" lon="8.3396317"><ele>743.3333333333334</ele><time>2026-04-06T11:07:44.092Z</time></trkpt><trkpt lat="45.7109833" lon="8.3395317"><ele>741.0</ele><time>2026-04-06T11:07:45.092Z</time></trkpt><trkpt lat="45.710915" lon="8.3394417"><ele>741.0</ele><time>2026-04-06T11:07:46.091Z</time></trkpt><trkpt lat="45.710835" lon="8.339335"><ele>741.0</ele><time>2026-04-06T11:07:47.091Z</time></trkpt><trkpt lat="45.7107517" lon="8.3392433"><ele>741.0</ele><time>2026-04-06T11:07:48.092Z</time></trkpt><trkpt lat="45.7106883" lon="8.3391283"><ele>741.0</ele><time>2026-04-06T11:07:49.092Z</time></trkpt><trkpt lat="45.71063" lon="8.3390017"><ele>741.0</ele><time>2026-04-06T11:07:50.092Z</time></trkpt><trkpt lat="45.71059" lon="8.33888"><ele>742.5</ele><time>2026-04-06T11:07:51.092Z</time></trkpt><trkpt lat="45.7105433" lon="8.3387617"><ele>744.0</ele><time>2026-04-06T11:07:52.092Z</time></trkpt><trkpt lat="45.7105067" lon="8.338635"><ele>745.5</ele><time>2026-04-06T11:07:53.091Z</time></trkpt><trkpt lat="45.71047" lon="8.3385067"><ele>747.0</ele><time>2026-04-06T11:07:54.092Z</time></trkpt><trkpt lat="45.710425" lon="8.33842"><ele>748.5</ele><time>2026-04-06T11:07:55.092Z</time></trkpt><trkpt lat="45.710365" lon="8.3383683"><ele>750.0</ele><time>2026-04-06T11:07:56.092Z</time></trkpt><trkpt lat="45.7102883" lon="8.3383583"><ele>745.4</ele><time>2026-04-06T11:07:57.092Z</time></trkpt><trkpt lat="45.7101667" lon="8.33832"><ele>740.8</ele><time>2026-04-06T11:07:59.092Z</time></trkpt><trkpt lat="45.71011" lon="8.3382733"><ele>736.2</ele><time>2026-04-06T11:08:00.092Z</time></trkpt><trkpt lat="45.7100567" lon="8.3381833"><ele>731.6</ele><time>2026-04-06T11:08:01.092Z</time></trkpt><trkpt lat="45.7099983" lon="8.3380833"><ele>727.0</ele><time>2026-04-06T11:08:02.092Z</time></trkpt><trkpt lat="45.7099183" lon="8.33802"><ele>726.8333333333334</ele><time>2026-04-06T11:08:03.092Z</time></trkpt><trkpt lat="45.7098267" lon="8.3379817"><ele>726.6666666666667</ele><time>2026-04-06T11:08:04.092Z</time></trkpt><trkpt lat="45.7097533" lon="8.33795"><ele>726.5</ele><time>2026-04-06T11:08:05.092Z</time></trkpt><trkpt lat="45.7096733" lon="8.3378783"><ele>726.3333333333334</ele><time>2026-04-06T11:08:07.092Z</time></trkpt><trkpt lat="45.7096833" lon="8.337755"><ele>726.1666666666666</ele><time>2026-04-06T11:08:09.092Z</time></trkpt><trkpt lat="45.7097133" lon="8.3376367"><ele>726.0</ele><time>2026-04-06T11:08:10.092Z</time></trkpt><trkpt lat="45.7097583" lon="8.3374917"><ele>726.0</ele><time>2026-04-06T11:08:11.092Z</time></trkpt><trkpt lat="45.709805" lon="8.3373583"><ele>726.0</ele><time>2026-04-06T11:08:12.091Z</time></trkpt><trkpt lat="45.7098633" lon="8.33726"><ele>726.0</ele><time>2026-04-06T11:08:13.092Z</time></trkpt><trkpt lat="45.70993" lon="8.3371883"><ele>726.0</ele><time>2026-04-06T11:08:14.092Z</time></trkpt><trkpt lat="45.7099983" lon="8.3371317"><ele>726.0</ele><time>2026-04-06T11:08:15.091Z</time></trkpt><trkpt lat="45.710075" lon="8.3370983"><ele>726.0</ele><time>2026-04-06T11:08:16.092Z</time></trkpt><trkpt lat="45.7101717" lon="8.3370717"><ele>720.8</ele><time>2026-04-06T11:08:17.092Z</time></trkpt><trkpt lat="45.7102717" lon="8.3370517"><ele>715.5999999999999</ele><time>2026-04-06T11:08:18.092Z</time></trkpt><trkpt lat="45.710375" lon="8.3370233"><ele>710.4</ele><time>2026-04-06T11:08:19.091Z</time></trkpt><trkpt lat="45.710465" lon="8.33699"><ele>705.2</ele><time>2026-04-06T11:08:20.092Z</time></trkpt><trkpt lat="45.7105567" lon="8.3369583"><ele>700.0</ele><time>2026-04-06T11:08:21.092Z</time></trkpt><trkpt lat="45.710635" lon="8.336895"><ele>700.0</ele><time>2026-04-06T11:08:22.092Z</time></trkpt><trkpt lat="45.7107067" lon="8.3368133"><ele>700.0</ele><time>2026-04-06T11:08:23.092Z</time></trkpt><trkpt lat="45.7107767" lon="8.3367283"><ele>700.0</ele><time>2026-04-06T11:08:24.092Z</time></trkpt><trkpt lat="45.7108317" lon="8.3366467"><ele>700.0</ele><time>2026-04-06T11:08:25.092Z</time></trkpt><trkpt lat="45.7108983" lon="8.3365733"><ele>700.0</ele><time>2026-04-06T11:08:26.091Z</time></trkpt><trkpt lat="45.7109683" lon="8.3364883"><ele>700.0</ele><time>2026-04-06T11:08:27.092Z</time></trkpt><trkpt lat="45.7110417" lon="8.3363917"><ele>695.1666666666667</ele><time>2026-04-06T11:08:28.092Z</time></trkpt><trkpt lat="45.7111233" lon="8.3363083"><ele>690.3333333333334</ele><time>2026-04-06T11:08:29.092Z</time></trkpt><trkpt lat="45.7111917" lon="8.3362217"><ele>685.5</ele><time>2026-04-06T11:08:30.092Z</time></trkpt><trkpt lat="45.7112617" lon="8.3361567"><ele>680.6666666666666</ele><time>2026-04-06T11:08:31.092Z</time></trkpt><trkpt lat="45.71133" lon="8.336115"><ele>675.8333333333333</ele><time>2026-04-06T11:08:32.091Z</time></trkpt><trkpt lat="45.711395" lon="8.3361383"><ele>671.0</ele><time>2026-04-06T11:08:33.092Z</time></trkpt><trkpt lat="45.711475" lon="8.3362567"><ele>671.0</ele><time>2026-04-06T11:08:35.092Z</time></trkpt><trkpt lat="45.711485" lon="8.3363567"><ele>671.0</ele><time>2026-04-06T11:08:36.092Z</time></trkpt><trkpt lat="45.7114833" lon="8.3364733"><ele>671.0</ele><time>2026-04-06T11:08:37.092Z</time></trkpt><trkpt lat="45.71148" lon="8.3366317"><ele>671.0</ele><time>2026-04-06T11:08:39.092Z</time></trkpt><trkpt lat="45.71155" lon="8.3365483"><ele>671.0</ele><time>2026-04-06T11:08:42.092Z</time></trkpt><trkpt lat="45.7115867" lon="8.3364217"><ele>671.0</ele><time>2026-04-06T11:08:43.091Z</time></trkpt><trkpt lat="45.7116033" lon="8.3362833"><ele>671.0</ele><time>2026-04-06T11:08:44.091Z</time></trkpt><trkpt lat="45.7116133" lon="8.3361283"><ele>671.0</ele><time>2026-04-06T11:08:45.092Z</time></trkpt><trkpt lat="45.7116017" lon="8.3359517"><ele>671.0</ele><time>2026-04-06T11:08:46.092Z</time></trkpt><trkpt lat="45.711575" lon="8.33578"><ele>671.0</ele><time>2026-04-06T11:08:47.092Z</time></trkpt><trkpt lat="45.7115483" lon="8.3356317"><ele>670.5</ele><time>2026-04-06T11:08:48.092Z</time></trkpt><trkpt lat="45.7115317" lon="8.33553"><ele>670.0</ele><time>2026-04-06T11:08:49.092Z</time></trkpt><trkpt lat="45.711515" lon="8.3354117"><ele>669.5</ele><time>2026-04-06T11:08:51.092Z</time></trkpt><trkpt lat="45.7115867" lon="8.3353033"><ele>669.0</ele><time>2026-04-06T11:08:53.092Z</time></trkpt><trkpt lat="45.7116533" lon="8.335235"><ele>668.5</ele><time>2026-04-06T11:08:54.092Z</time></trkpt><trkpt lat="45.711725" lon="8.3351483"><ele>668.0</ele><time>2026-04-06T11:08:55.092Z</time></trkpt><trkpt lat="45.7117867" lon="8.33505"><ele>668.0</ele><time>2026-04-06T11:08:56.092Z</time></trkpt><trkpt lat="45.7118433" lon="8.3349317"><ele>668.0</ele><time>2026-04-06T11:08:57.091Z</time></trkpt><trkpt lat="45.7119" lon="8.3348183"><ele>668.0</ele><time>2026-04-06T11:08:58.092Z</time></trkpt><trkpt lat="45.7119467" lon="8.3347017"><ele>668.0</ele><time>2026-04-06T11:08:59.092Z</time></trkpt><trkpt lat="45.7119967" lon="8.3345967"><ele>668.0</ele><time>2026-04-06T11:09:00.092Z</time></trkpt><trkpt lat="45.7120533" lon="8.3345033"><ele>666.6666666666666</ele><time>2026-04-06T11:09:01.092Z</time></trkpt><trkpt lat="45.7121033" lon="8.334415"><ele>665.3333333333333</ele><time>2026-04-06T11:09:02.092Z</time></trkpt><trkpt lat="45.7121667" lon="8.3343383"><ele>664.0</ele><time>2026-04-06T11:09:03.091Z</time></trkpt><trkpt lat="45.71222" lon="8.334265"><ele>662.6666666666666</ele><time>2026-04-06T11:09:04.091Z</time></trkpt><trkpt lat="45.71227" lon="8.334195"><ele>661.3333333333334</ele><time>2026-04-06T11:09:05.091Z</time></trkpt><trkpt lat="45.712315" lon="8.3341317"><ele>660.0</ele><time>2026-04-06T11:09:06.092Z</time></trkpt><trkpt lat="45.712305" lon="8.3339333"><ele>660.3333333333334</ele><time>2026-04-06T11:09:08.092Z</time></trkpt><trkpt lat="45.7122633" lon="8.3338233"><ele>660.6666666666666</ele><time>2026-04-06T11:09:09.092Z</time></trkpt><trkpt lat="45.7122233" lon="8.3337283"><ele>661.0</ele><time>2026-04-06T11:09:10.091Z</time></trkpt><trkpt lat="45.7122" lon="8.333635"><ele>661.3333333333333</ele><time>2026-04-06T11:09:11.092Z</time></trkpt><trkpt lat="45.7121683" lon="8.333475"><ele>661.6666666666666</ele><time>2026-04-06T11:09:13.092Z</time></trkpt><trkpt lat="45.71216" lon="8.333365"><ele>662.0</ele><time>2026-04-06T11:09:15.092Z</time></trkpt><trkpt lat="45.7120967" lon="8.3333083"><ele>662.0</ele><time>2026-04-06T11:09:18.092Z</time></trkpt><trkpt lat="45.71204" lon="8.333375"><ele>662.0</ele><time>2026-04-06T11:09:20.092Z</time></trkpt><trkpt lat="45.712" lon="8.3332883"><ele>662.0</ele><time>2026-04-06T11:09:23.092Z</time></trkpt><trkpt lat="45.7120217" lon="8.3331133"><ele>662.0</ele><time>2026-04-06T11:09:25.092Z</time></trkpt><trkpt lat="45.7120067" lon="8.3330117"><ele>662.0</ele><time>2026-04-06T11:09:26.092Z</time></trkpt><trkpt lat="45.7119783" lon="8.3328933"><ele>662.0</ele><time>2026-04-06T11:09:27.092Z</time></trkpt><trkpt lat="45.7119533" lon="8.3327867"><ele>661.3333333333333</ele><time>2026-04-06T11:09:28.092Z</time></trkpt><trkpt lat="45.71194" lon="8.332665"><ele>660.6666666666666</ele><time>2026-04-06T11:09:29.092Z</time></trkpt><trkpt lat="45.7119267" lon="8.3325433"><ele>660.0</ele><time>2026-04-06T11:09:30.091Z</time></trkpt><trkpt lat="45.7119133" lon="8.33244"><ele>659.3333333333334</ele><time>2026-04-06T11:09:31.092Z</time></trkpt><trkpt lat="45.71186" lon="8.3323017"><ele>658.6666666666667</ele><time>2026-04-06T11:09:33.092Z</time></trkpt><trkpt lat="45.7118" lon="8.332225"><ele>658.0</ele><time>2026-04-06T11:09:36.092Z</time></trkpt><trkpt lat="45.7117233" lon="8.3322217"><ele>668.0</ele><time>2026-04-06T11:09:42.091Z</time></trkpt></trkseg><trkseg><trkpt lat="45.7118133" lon="8.3324033"><ele>675.0</ele><time>2026-04-06T13:47:56.05Z</time></trkpt><trkpt lat="45.7118667" lon="8.33248"><ele>675.0</ele><time>2026-04-06T13:48:08.05Z</time></trkpt><trkpt lat="45.711905" lon="8.3325917"><ele>675.0</ele><time>2026-04-06T13:48:10.05Z</time></trkpt><trkpt lat="45.7119533" lon="8.33274"><ele>675.0</ele><time>2026-04-06T13:48:12.051Z</time></trkpt><trkpt lat="45.7119967" lon="8.3329067"><ele>675.0</ele><time>2026-04-06T13:48:14.051Z</time></trkpt><trkpt lat="45.7120483" lon="8.3330733"><ele>672.8333333333334</ele><time>2026-04-06T13:48:16.051Z</time></trkpt><trkpt lat="45.7120433" lon="8.3332017"><ele>670.6666666666666</ele><time>2026-04-06T13:48:18.051Z</time></trkpt><trkpt lat="45.7120083" lon="8.3332783"><ele>668.5</ele><time>2026-04-06T13:48:20.051Z</time></trkpt><trkpt lat="45.7119767" lon="8.33339"><ele>666.3333333333333</ele><time>2026-04-06T13:48:24.051Z</time></trkpt><trkpt lat="45.7120467" lon="8.3333733"><ele>664.1666666666666</ele><time>2026-04-06T13:48:26.051Z</time></trkpt><trkpt lat="45.712115" lon="8.33336"><ele>662.0</ele><time>2026-04-06T13:48:28.05Z</time></trkpt><trkpt lat="45.7121617" lon="8.3336633"><ele>662.0</ele><time>2026-04-06T13:48:33.05Z</time></trkpt><trkpt lat="45.7121717" lon="8.3337733"><ele>662.0</ele><time>2026-04-06T13:48:34.051Z</time></trkpt><trkpt lat="45.712195" lon="8.3338783"><ele>662.0</ele><time>2026-04-06T13:48:35.051Z</time></trkpt><trkpt lat="45.7122217" lon="8.333975"><ele>662.0</ele><time>2026-04-06T13:48:36.051Z</time></trkpt><trkpt lat="45.7122617" lon="8.3341383"><ele>662.0</ele><time>2026-04-06T13:48:38.051Z</time></trkpt><trkpt lat="45.71221" lon="8.33425"><ele>662.0</ele><time>2026-04-06T13:48:41.051Z</time></trkpt><trkpt lat="45.7121383" lon="8.3342933"><ele>661.8333333333333</ele><time>2026-04-06T13:48:43.051Z</time></trkpt><trkpt lat="45.712075" lon="8.33437"><ele>661.6666666666666</ele><time>2026-04-06T13:48:45.051Z</time></trkpt><trkpt lat="45.7120233" lon="8.3344267"><ele>661.5</ele><time>2026-04-06T13:48:46.051Z</time></trkpt><trkpt lat="45.7119867" lon="8.3345083"><ele>661.3333333333334</ele><time>2026-04-06T13:48:47.051Z</time></trkpt><trkpt lat="45.711945" lon="8.3346083"><ele>661.1666666666667</ele><time>2026-04-06T13:48:48.051Z</time></trkpt><trkpt lat="45.711905" lon="8.3347067"><ele>661.0</ele><time>2026-04-06T13:48:49.051Z</time></trkpt><trkpt lat="45.7118633" lon="8.3348133"><ele>662.1666666666667</ele><time>2026-04-06T13:48:50.05Z</time></trkpt><trkpt lat="45.7118067" lon="8.3349217"><ele>663.3333333333334</ele><time>2026-04-06T13:48:51.051Z</time></trkpt><trkpt lat="45.71175" lon="8.33503"><ele>664.5</ele><time>2026-04-06T13:48:52.051Z</time></trkpt><trkpt lat="45.7116867" lon="8.3351333"><ele>665.6666666666666</ele><time>2026-04-06T13:48:53.051Z</time></trkpt><trkpt lat="45.7116317" lon="8.3352183"><ele>666.8333333333333</ele><time>2026-04-06T13:48:54.051Z</time></trkpt><trkpt lat="45.71158" lon="8.3352917"><ele>668.0</ele><time>2026-04-06T13:48:55.051Z</time></trkpt><trkpt lat="45.7114883" lon="8.3353967"><ele>668.0</ele><time>2026-04-06T13:48:57.05Z</time></trkpt><trkpt lat="45.7114317" lon="8.335515"><ele>668.0</ele><time>2026-04-06T13:48:59.051Z</time></trkpt><trkpt lat="45.7114533" lon="8.335685"><ele>668.0</ele><time>2026-04-06T13:49:01.05Z</time></trkpt><trkpt lat="45.7114683" lon="8.3358"><ele>668.0</ele><time>2026-04-06T13:49:02.05Z</time></trkpt><trkpt lat="45.7114767" lon="8.3359317"><ele>668.0</ele><time>2026-04-06T13:49:03.051Z</time></trkpt><trkpt lat="45.7114917" lon="8.3360717"><ele>668.5</ele><time>2026-04-06T13:49:04.051Z</time></trkpt><trkpt lat="45.7115033" lon="8.336215"><ele>669.0</ele><time>2026-04-06T13:49:05.051Z</time></trkpt><trkpt lat="45.7115167" lon="8.3363517"><ele>669.5</ele><time>2026-04-06T13:49:06.051Z</time></trkpt><trkpt lat="45.7115233" lon="8.3364533"><ele>670.0</ele><time>2026-04-06T13:49:07.051Z</time></trkpt><trkpt lat="45.7115367" lon="8.3366033"><ele>670.5</ele><time>2026-04-06T13:49:09.051Z</time></trkpt><trkpt lat="45.711525" lon="8.3366933"><ele>671.0</ele><time>2026-04-06T13:49:11.051Z</time></trkpt><trkpt lat="45.71146" lon="8.336585"><ele>671.0</ele><time>2026-04-06T13:49:14.051Z</time></trkpt><trkpt lat="45.7114417" lon="8.3364867"><ele>671.0</ele><time>2026-04-06T13:49:15.051Z</time></trkpt><trkpt lat="45.7114267" lon="8.3363583"><ele>671.0</ele><time>2026-04-06T13:49:16.051Z</time></trkpt><trkpt lat="45.7114067" lon="8.336235"><ele>671.0</ele><time>2026-04-06T13:49:17.051Z</time></trkpt><trkpt lat="45.711385" lon="8.33613"><ele>671.0</ele><time>2026-04-06T13:49:18.051Z</time></trkpt><trkpt lat="45.7112683" lon="8.3361117"><ele>671.0</ele><time>2026-04-06T13:49:20.05Z</time></trkpt><trkpt lat="45.711195" lon="8.336175"><ele>671.0</ele><time>2026-04-06T13:49:21.05Z</time></trkpt><trkpt lat="45.7111233" lon="8.33627"><ele>671.0</ele><time>2026-04-06T13:49:22.051Z</time></trkpt><trkpt lat="45.71105" lon="8.3363983"><ele>671.0</ele><time>2026-04-06T13:49:23.051Z</time></trkpt><trkpt lat="45.7109733" lon="8.3365017"><ele>671.0</ele><time>2026-04-06T13:49:24.051Z</time></trkpt><trkpt lat="45.710895" lon="8.3365783"><ele>671.0</ele><time>2026-04-06T13:49:25.051Z</time></trkpt><trkpt lat="45.7108117" lon="8.336635"><ele>675.8333333333333</ele><time>2026-04-06T13:49:26.051Z</time></trkpt><trkpt lat="45.7107333" lon="8.3366817"><ele>680.6666666666666</ele><time>2026-04-06T13:49:27.05Z</time></trkpt><trkpt lat="45.7106733" lon="8.3367583"><ele>685.5</ele><time>2026-04-06T13:49:28.051Z</time></trkpt><trkpt lat="45.710615" lon="8.336855"><ele>690.3333333333334</ele><time>2026-04-06T13:49:29.05Z</time></trkpt><trkpt lat="45.7105717" lon="8.33693"><ele>695.1666666666667</ele><time>2026-04-06T13:49:30.051Z</time></trkpt><trkpt lat="45.7105233" lon="8.3369917"><ele>700.0</ele><time>2026-04-06T13:49:31.051Z</time></trkpt><trkpt lat="45.710395" lon="8.3370967"><ele>697.75</ele><time>2026-04-06T13:49:33.05Z</time></trkpt><trkpt lat="45.7102083" lon="8.3371933"><ele>695.5</ele><time>2026-04-06T13:49:35.051Z</time></trkpt><trkpt lat="45.7100983" lon="8.337215"><ele>693.25</ele><time>2026-04-06T13:49:36.051Z</time></trkpt><trkpt lat="45.7099967" lon="8.3372333"><ele>691.0</ele><time>2026-04-06T13:49:37.051Z</time></trkpt><trkpt lat="45.7099083" lon="8.3372383"><ele>696.8333333333334</ele><time>2026-04-06T13:49:38.051Z</time></trkpt><trkpt lat="45.7098233" lon="8.3372883"><ele>702.6666666666667</ele><time>2026-04-06T13:49:39.05Z</time></trkpt><trkpt lat="45.7097617" lon="8.3373533"><ele>708.5</ele><time>2026-04-06T13:49:40.051Z</time></trkpt><trkpt lat="45.7096933" lon="8.3374217"><ele>714.3333333333334</ele><time>2026-04-06T13:49:41.051Z</time></trkpt><trkpt lat="45.7096867" lon="8.3375667"><ele>720.1666666666666</ele><time>2026-04-06T13:49:42.05Z</time></trkpt><trkpt lat="45.709675" lon="8.3376867"><ele>726.0</ele><time>2026-04-06T13:49:43.051Z</time></trkpt><trkpt lat="45.7096717" lon="8.337785"><ele>726.0</ele><time>2026-04-06T13:49:44.051Z</time></trkpt><trkpt lat="45.7097" lon="8.3379233"><ele>726.0</ele><time>2026-04-06T13:49:46.051Z</time></trkpt><trkpt lat="45.709785" lon="8.33801"><ele>726.0</ele><time>2026-04-06T13:49:48.051Z</time></trkpt><trkpt lat="45.709855" lon="8.338045"><ele>726.0</ele><time>2026-04-06T13:49:49.051Z</time></trkpt><trkpt lat="45.7099267" lon="8.3381033"><ele>726.0</ele><time>2026-04-06T13:49:50.051Z</time></trkpt><trkpt lat="45.7100067" lon="8.3381633"><ele>726.1428571428571</ele><time>2026-04-06T13:49:51.051Z</time></trkpt><trkpt lat="45.71007" lon="8.3382233"><ele>726.2857142857142</ele><time>2026-04-06T13:49:52.051Z</time></trkpt><trkpt lat="45.7101167" lon="8.3383017"><ele>726.4285714285713</ele><time>2026-04-06T13:49:53.051Z</time></trkpt><trkpt lat="45.7101683" lon="8.338355"><ele>726.5714285714286</ele><time>2026-04-06T13:49:54.05Z</time></trkpt><trkpt lat="45.71023" lon="8.3383883"><ele>726.7142857142858</ele><time>2026-04-06T13:49:55.051Z</time></trkpt><trkpt lat="45.7102967" lon="8.3384017"><ele>726.8571428571428</ele><time>2026-04-06T13:49:56.05Z</time></trkpt><trkpt lat="45.71037" lon="8.3384217"><ele>727.0</ele><time>2026-04-06T13:49:57.051Z</time></trkpt><trkpt lat="45.7104383" lon="8.338455"><ele>729.3333333333334</ele><time>2026-04-06T13:49:58.051Z</time></trkpt><trkpt lat="45.710495" lon="8.3385067"><ele>731.6666666666667</ele><time>2026-04-06T13:49:59.051Z</time></trkpt><trkpt lat="45.710575" lon="8.3386533"><ele>734.0</ele><time>2026-04-06T13:50:01.051Z</time></trkpt><trkpt lat="45.7106017" lon="8.3387567"><ele>736.3333333333334</ele><time>2026-04-06T13:50:02.051Z</time></trkpt><trkpt lat="45.7106117" lon="8.33887"><ele>738.6666666666666</ele><time>2026-04-06T13:50:03.051Z</time></trkpt><trkpt lat="45.7106383" lon="8.3389733"><ele>741.0</ele><time>2026-04-06T13:50:04.05Z</time></trkpt><trkpt lat="45.7106783" lon="8.3390933"><ele>741.0</ele><time>2026-04-06T13:50:05.05Z</time></trkpt><trkpt lat="45.7107267" lon="8.3392117"><ele>741.0</ele><time>2026-04-06T13:50:06.051Z</time></trkpt><trkpt lat="45.7107917" lon="8.339325"><ele>741.0</ele><time>2026-04-06T13:50:07.051Z</time></trkpt><trkpt lat="45.7108683" lon="8.3394217"><ele>741.0</ele><time>2026-04-06T13:50:08.051Z</time></trkpt><trkpt lat="45.7109533" lon="8.3394883"><ele>741.0</ele><time>2026-04-06T13:50:09.05Z</time></trkpt><trkpt lat="45.7110317" lon="8.33955"><ele>743.3333333333334</ele><time>2026-04-06T13:50:10.051Z</time></trkpt><trkpt lat="45.7110983" lon="8.3396067"><ele>745.6666666666666</ele><time>2026-04-06T13:50:11.051Z</time></trkpt><trkpt lat="45.7111483" lon="8.3396933"><ele>748.0</ele><time>2026-04-06T13:50:12.051Z</time></trkpt><trkpt lat="45.71119" lon="8.33978"><ele>750.3333333333333</ele><time>2026-04-06T13:50:13.051Z</time></trkpt><trkpt lat="45.7111767" lon="8.3398867"><ele>752.6666666666666</ele><time>2026-04-06T13:50:14.051Z</time></trkpt><trkpt lat="45.711155" lon="8.339995"><ele>755.0</ele><time>2026-04-06T13:50:15.051Z</time></trkpt><trkpt lat="45.7111317" lon="8.3400967"><ele>755.0</ele><time>2026-04-06T13:50:16.051Z</time></trkpt><trkpt lat="45.7111383" lon="8.3402117"><ele>755.0</ele><time>2026-04-06T13:50:17.051Z</time></trkpt><trkpt lat="45.7111583" lon="8.34036"><ele>755.0</ele><time>2026-04-06T13:50:18.05Z</time></trkpt><trkpt lat="45.7111833" lon="8.3405167"><ele>755.0</ele><time>2026-04-06T13:50:19.05Z</time></trkpt><trkpt lat="45.71121" lon="8.3406983"><ele>755.0</ele><time>2026-04-06T13:50:20.051Z</time></trkpt><trkpt lat="45.7112267" lon="8.3408867"><ele>755.0</ele><time>2026-04-06T13:50:21.051Z</time></trkpt><trkpt lat="45.7112367" lon="8.3410617"><ele>755.0</ele><time>2026-04-06T13:50:22.051Z</time></trkpt><trkpt lat="45.7112233" lon="8.341225"><ele>755.0</ele><time>2026-04-06T13:50:23.051Z</time></trkpt><trkpt lat="45.7111983" lon="8.3413967"><ele>755.0</ele><time>2026-04-06T13:50:24.05Z</time></trkpt><trkpt lat="45.7111617" lon="8.3415533"><ele>753.8</ele><time>2026-04-06T13:50:25.05Z</time></trkpt><trkpt lat="45.71114" lon="8.3416867"><ele>752.6</ele><time>2026-04-06T13:50:26.05Z</time></trkpt><trkpt lat="45.7111117" lon="8.341805"><ele>751.4000000000001</ele><time>2026-04-06T13:50:27.05Z</time></trkpt><trkpt lat="45.7110733" lon="8.34191"><ele>750.2</ele><time>2026-04-06T13:50:28.05Z</time></trkpt><trkpt lat="45.7110017" lon="8.342015"><ele>749.0</ele><time>2026-04-06T13:50:29.05Z</time></trkpt><trkpt lat="45.7109183" lon="8.3421183"><ele>750.8000000000001</ele><time>2026-04-06T13:50:30.05Z</time></trkpt><trkpt lat="45.710835" lon="8.3422283"><ele>752.6</ele><time>2026-04-06T13:50:31.049Z</time></trkpt><trkpt lat="45.7107483" lon="8.34233"><ele>754.4</ele><time>2026-04-06T13:50:32.05Z</time></trkpt><trkpt lat="45.710665" lon="8.34243"><ele>756.2</ele><time>2026-04-06T13:50:33.049Z</time></trkpt><trkpt lat="45.710585" lon="8.3424983"><ele>758.0</ele><time>2026-04-06T13:50:34.049Z</time></trkpt><trkpt lat="45.7105183" lon="8.3425683"><ele>758.0</ele><time>2026-04-06T13:50:35.05Z</time></trkpt><trkpt lat="45.7104633" lon="8.342625"><ele>758.0</ele><time>2026-04-06T13:50:36.05Z</time></trkpt><trkpt lat="45.7104283" lon="8.3427867"><ele>758.0</ele><time>2026-04-06T13:50:38.05Z</time></trkpt><trkpt lat="45.710445" lon="8.3428967"><ele>758.0</ele><time>2026-04-06T13:50:39.05Z</time></trkpt><trkpt lat="45.7104733" lon="8.3430133"><ele>758.0</ele><time>2026-04-06T13:50:40.05Z</time></trkpt><trkpt lat="45.710485" lon="8.3431083"><ele>758.0</ele><time>2026-04-06T13:50:41.05Z</time></trkpt><trkpt lat="45.71048" lon="8.3432083"><ele>758.8333333333333</ele><time>2026-04-06T13:50:42.05Z</time></trkpt><trkpt lat="45.7104533" lon="8.3432917"><ele>759.6666666666666</ele><time>2026-04-06T13:50:43.05Z</time></trkpt><trkpt lat="45.710405" lon="8.34338"><ele>760.5</ele><time>2026-04-06T13:50:44.05Z</time></trkpt><trkpt lat="45.710355" lon="8.3434633"><ele>761.3333333333334</ele><time>2026-04-06T13:50:45.05Z</time></trkpt><trkpt lat="45.7102683" lon="8.3435533"><ele>762.1666666666667</ele><time>2026-04-06T13:50:46.049Z</time></trkpt><trkpt lat="45.71018" lon="8.3436317"><ele>763.0</ele><time>2026-04-06T13:50:47.05Z</time></trkpt><trkpt lat="45.7101033" lon="8.3437183"><ele>761.75</ele><time>2026-04-06T13:50:48.05Z</time></trkpt><trkpt lat="45.7099583" lon="8.3439283"><ele>760.5</ele><time>2026-04-06T13:50:50.05Z</time></trkpt><trkpt lat="45.7099283" lon="8.3440717"><ele>759.25</ele><time>2026-04-06T13:50:51.05Z</time></trkpt><trkpt lat="45.7098883" lon="8.3441983"><ele>758.0</ele><time>2026-04-06T13:50:52.049Z</time></trkpt><trkpt lat="45.7098583" lon="8.3443067"><ele>758.0</ele><time>2026-04-06T13:50:53.05Z</time></trkpt><trkpt lat="45.7098533" lon="8.3445933"><ele>758.0</ele><time>2026-04-06T13:50:56.049Z</time></trkpt><trkpt lat="45.70987" lon="8.3446933"><ele>758.0</ele><time>2026-04-06T13:50:57.05Z</time></trkpt><trkpt lat="45.709925" lon="8.3447967"><ele>758.0</ele><time>2026-04-06T13:50:58.05Z</time></trkpt><trkpt lat="45.71001" lon="8.3448767"><ele>756.3333333333333</ele><time>2026-04-06T13:50:59.05Z</time></trkpt><trkpt lat="45.7101" lon="8.34493"><ele>754.6666666666666</ele><time>2026-04-06T13:51:00.05Z</time></trkpt><trkpt lat="45.7103867" lon="8.3450383"><ele>753.0</ele><time>2026-04-06T13:51:03.05Z</time></trkpt><trkpt lat="45.7105783" lon="8.3450817"><ele>757.4</ele><time>2026-04-06T13:51:05.05Z</time></trkpt><trkpt lat="45.7106883" lon="8.3451117"><ele>761.8</ele><time>2026-04-06T13:51:06.05Z</time></trkpt><trkpt lat="45.71079" lon="8.3451967"><ele>766.2</ele><time>2026-04-06T13:51:07.05Z</time></trkpt><trkpt lat="45.7108917" lon="8.3452617"><ele>770.6</ele><time>2026-04-06T13:51:08.05Z</time></trkpt><trkpt lat="45.7109767" lon="8.34535"><ele>775.0</ele><time>2026-04-06T13:51:09.05Z</time></trkpt><trkpt lat="45.7110583" lon="8.3454483"><ele>767.75</ele><time>2026-04-06T13:51:10.05Z</time></trkpt><trkpt lat="45.7111283" lon="8.345565"><ele>760.5</ele><time>2026-04-06T13:51:11.049Z</time></trkpt><trkpt lat="45.71117" lon="8.345725"><ele>753.25</ele><time>2026-04-06T13:51:12.05Z</time></trkpt><trkpt lat="45.7111983" lon="8.3458967"><ele>746.0</ele><time>2026-04-06T13:51:13.05Z</time></trkpt><trkpt lat="45.7112317" lon="8.3460483"><ele>746.0</ele><time>2026-04-06T13:51:14.05Z</time></trkpt><trkpt lat="45.7112617" lon="8.3462017"><ele>746.0</ele><time>2026-04-06T13:51:15.05Z</time></trkpt><trkpt lat="45.7112933" lon="8.3463583"><ele>746.0</ele><time>2026-04-06T13:51:16.05Z</time></trkpt><trkpt lat="45.71133" lon="8.3465167"><ele>746.0</ele><time>2026-04-06T13:51:17.05Z</time></trkpt><trkpt lat="45.7113717" lon="8.3466617"><ele>745.4</ele><time>2026-04-06T13:51:18.05Z</time></trkpt><trkpt lat="45.7114217" lon="8.3468033"><ele>744.8</ele><time>2026-04-06T13:51:19.05Z</time></trkpt><trkpt lat="45.711475" lon="8.3469317"><ele>744.1999999999999</ele><time>2026-04-06T13:51:20.049Z</time></trkpt><trkpt lat="45.7115117" lon="8.3470633"><ele>743.5999999999999</ele><time>2026-04-06T13:51:21.05Z</time></trkpt><trkpt lat="45.7115267" lon="8.3472"><ele>743.0</ele><time>2026-04-06T13:51:22.05Z</time></trkpt><trkpt lat="45.7115317" lon="8.3473333"><ele>743.0</ele><time>2026-04-06T13:51:23.049Z</time></trkpt><trkpt lat="45.7115367" lon="8.347475"><ele>743.0</ele><time>2026-04-06T13:51:24.05Z</time></trkpt><trkpt lat="45.7115517" lon="8.347605"><ele>743.0</ele><time>2026-04-06T13:51:25.05Z</time></trkpt><trkpt lat="45.7115683" lon="8.3477333"><ele>743.0</ele><time>2026-04-06T13:51:26.05Z</time></trkpt><trkpt lat="45.7115567" lon="8.3478683"><ele>743.0</ele><time>2026-04-06T13:51:27.049Z</time></trkpt><trkpt lat="45.7115567" lon="8.3480067"><ele>741.8</ele><time>2026-04-06T13:51:28.05Z</time></trkpt><trkpt lat="45.7115483" lon="8.348145"><ele>740.5999999999999</ele><time>2026-04-06T13:51:29.05Z</time></trkpt><trkpt lat="45.71154" lon="8.348275"><ele>739.4000000000001</ele><time>2026-04-06T13:51:30.05Z</time></trkpt><trkpt lat="45.7115283" lon="8.3483983"><ele>738.2</ele><time>2026-04-06T13:51:31.05Z</time></trkpt><trkpt lat="45.7115233" lon="8.3485283"><ele>737.0</ele><time>2026-04-06T13:51:32.05Z</time></trkpt><trkpt lat="45.7115267" lon="8.34865"><ele>737.0</ele><time>2026-04-06T13:51:33.05Z</time></trkpt><trkpt lat="45.71155" lon="8.348765"><ele>737.0</ele><time>2026-04-06T13:51:34.05Z</time></trkpt><trkpt lat="45.711585" lon="8.3488817"><ele>737.0</ele><time>2026-04-06T13:51:35.05Z</time></trkpt><trkpt lat="45.7116283" lon="8.34901"><ele>737.0</ele><time>2026-04-06T13:51:36.05Z</time></trkpt><trkpt lat="45.7116733" lon="8.3491583"><ele>737.0</ele><time>2026-04-06T13:51:37.049Z</time></trkpt><trkpt lat="45.711725" lon="8.3493017"><ele>736.0</ele><time>2026-04-06T13:51:38.049Z</time></trkpt><trkpt lat="45.7117817" lon="8.3494317"><ele>735.0</ele><time>2026-04-06T13:51:39.05Z</time></trkpt><trkpt lat="45.7118317" lon="8.3495467"><ele>734.0</ele><time>2026-04-06T13:51:40.049Z</time></trkpt><trkpt lat="45.7118767" lon="8.3496817"><ele>733.0</ele><time>2026-04-06T13:51:41.05Z</time></trkpt><trkpt lat="45.71191" lon="8.3498367"><ele>732.0</ele><time>2026-04-06T13:51:42.05Z</time></trkpt><trkpt lat="45.711945" lon="8.3500167"><ele>732.25</ele><time>2026-04-06T13:51:43.05Z</time></trkpt><trkpt lat="45.711985" lon="8.3501767"><ele>732.5</ele><time>2026-04-06T13:51:44.05Z</time></trkpt><trkpt lat="45.7120233" lon="8.3503283"><ele>732.75</ele><time>2026-04-06T13:51:45.05Z</time></trkpt><trkpt lat="45.7120467" lon="8.3504833"><ele>733.0</ele><time>2026-04-06T13:51:46.049Z</time></trkpt><trkpt lat="45.7120567" lon="8.3506517"><ele>733.0</ele><time>2026-04-06T13:51:47.049Z</time></trkpt><trkpt lat="45.7120533" lon="8.3508217"><ele>733.0</ele><time>2026-04-06T13:51:48.05Z</time></trkpt><trkpt lat="45.712055" lon="8.3509917"><ele>733.0</ele><time>2026-04-06T13:51:49.05Z</time></trkpt><trkpt lat="45.7120767" lon="8.3511533"><ele>733.0</ele><time>2026-04-06T13:51:50.05Z</time></trkpt><trkpt lat="45.7121017" lon="8.3512983"><ele>734.2</ele><time>2026-04-06T13:51:51.05Z</time></trkpt><trkpt lat="45.71216" lon="8.351415"><ele>735.4</ele><time>2026-04-06T13:51:52.05Z</time></trkpt><trkpt lat="45.712235" lon="8.3515067"><ele>736.6</ele><time>2026-04-06T13:51:53.05Z</time></trkpt><trkpt lat="45.712315" lon="8.3515683"><ele>737.8000000000001</ele><time>2026-04-06T13:51:54.05Z</time></trkpt><trkpt lat="45.7123933" lon="8.35162"><ele>739.0</ele><time>2026-04-06T13:51:55.05Z</time></trkpt><trkpt lat="45.7124633" lon="8.351755"><ele>739.0</ele><time>2026-04-06T13:51:57.05Z</time></trkpt><trkpt lat="45.7124617" lon="8.351855"><ele>739.0</ele><time>2026-04-06T13:51:58.049Z</time></trkpt><trkpt lat="45.712445" lon="8.3519683"><ele>739.0</ele><time>2026-04-06T13:51:59.05Z</time></trkpt><trkpt lat="45.7124233" lon="8.35213"><ele>739.0</ele><time>2026-04-06T13:52:00.05Z</time></trkpt><trkpt lat="45.7124267" lon="8.3522767"><ele>739.0</ele><time>2026-04-06T13:52:01.05Z</time></trkpt><trkpt lat="45.7124483" lon="8.3524067"><ele>738.1666666666667</ele><time>2026-04-06T13:52:02.05Z</time></trkpt><trkpt lat="45.712475" lon="8.3525167"><ele>737.3333333333334</ele><time>2026-04-06T13:52:03.05Z</time></trkpt><trkpt lat="45.7125517" lon="8.3525617"><ele>736.5</ele><time>2026-04-06T13:52:04.05Z</time></trkpt><trkpt lat="45.7126367" lon="8.3525867"><ele>735.6666666666666</ele><time>2026-04-06T13:52:05.05Z</time></trkpt><trkpt lat="45.7127067" lon="8.352635"><ele>734.8333333333333</ele><time>2026-04-06T13:52:06.05Z</time></trkpt><trkpt lat="45.7127717" lon="8.3526983"><ele>734.0</ele><time>2026-04-06T13:52:07.05Z</time></trkpt><trkpt lat="45.7128317" lon="8.3527867"><ele>734.0</ele><time>2026-04-06T13:52:08.05Z</time></trkpt><trkpt lat="45.7128783" lon="8.35288"><ele>734.0</ele><time>2026-04-06T13:52:09.05Z</time></trkpt><trkpt lat="45.7128883" lon="8.3530067"><ele>734.0</ele><time>2026-04-06T13:52:10.05Z</time></trkpt><trkpt lat="45.7128917" lon="8.3531517"><ele>734.0</ele><time>2026-04-06T13:52:11.05Z</time></trkpt><trkpt lat="45.7128917" lon="8.3532883"><ele>734.0</ele><time>2026-04-06T13:52:12.05Z</time></trkpt><trkpt lat="45.7128633" lon="8.3534117"><ele>734.0</ele><time>2026-04-06T13:52:13.049Z</time></trkpt><trkpt lat="45.7128133" lon="8.3535217"><ele>734.0</ele><time>2026-04-06T13:52:14.05Z</time></trkpt><trkpt lat="45.712755" lon="8.3536333"><ele>734.0</ele><time>2026-04-06T13:52:15.05Z</time></trkpt><trkpt lat="45.7125967" lon="8.35395"><ele>740.0</ele><time>2026-04-06T13:52:18.05Z</time></trkpt><trkpt lat="45.7125383" lon="8.35404"><ele>746.0</ele><time>2026-04-06T13:52:19.05Z</time></trkpt><trkpt lat="45.71247" lon="8.3541333"><ele>752.0</ele><time>2026-04-06T13:52:20.05Z</time></trkpt><trkpt lat="45.712445" lon="8.3542467"><ele>758.0</ele><time>2026-04-06T13:52:21.05Z</time></trkpt><trkpt lat="45.7124317" lon="8.3543933"><ele>764.0</ele><time>2026-04-06T13:52:22.05Z</time></trkpt><trkpt lat="45.7124167" lon="8.3545467"><ele>764.0</ele><time>2026-04-06T13:52:23.05Z</time></trkpt><trkpt lat="45.7124217" lon="8.354695"><ele>764.0</ele><time>2026-04-06T13:52:24.05Z</time></trkpt><trkpt lat="45.7124217" lon="8.3548383"><ele>764.0</ele><time>2026-04-06T13:52:25.05Z</time></trkpt><trkpt lat="45.7124267" lon="8.3549833"><ele>764.0</ele><time>2026-04-06T13:52:26.05Z</time></trkpt><trkpt lat="45.7124133" lon="8.35512"><ele>764.0</ele><time>2026-04-06T13:52:27.049Z</time></trkpt><trkpt lat="45.7124083" lon="8.35524"><ele>764.0</ele><time>2026-04-06T13:52:28.049Z</time></trkpt><trkpt lat="45.712425" lon="8.35535"><ele>764.0</ele><time>2026-04-06T13:52:29.049Z</time></trkpt><trkpt lat="45.7124533" lon="8.3554483"><ele>764.0</ele><time>2026-04-06T13:52:30.05Z</time></trkpt><trkpt lat="45.7125267" lon="8.3554883"><ele>764.0</ele><time>2026-04-06T13:52:31.05Z</time></trkpt><trkpt lat="45.7125883" lon="8.355535"><ele>764.0</ele><time>2026-04-06T13:52:32.05Z</time></trkpt><trkpt lat="45.7126717" lon="8.3555583"><ele>764.0</ele><time>2026-04-06T13:52:33.05Z</time></trkpt><trkpt lat="45.7127533" lon="8.3556"><ele>760.1666666666666</ele><time>2026-04-06T13:52:34.05Z</time></trkpt><trkpt lat="45.7128683" lon="8.3556167"><ele>756.3333333333333</ele><time>2026-04-06T13:52:35.049Z</time></trkpt><trkpt lat="45.7129533" lon="8.3556433"><ele>752.5</ele><time>2026-04-06T13:52:36.049Z</time></trkpt><trkpt lat="45.7130383" lon="8.35565"><ele>748.6666666666666</ele><time>2026-04-06T13:52:37.05Z</time></trkpt><trkpt lat="45.713125" lon="8.35565"><ele>744.8333333333334</ele><time>2026-04-06T13:52:38.05Z</time></trkpt><trkpt lat="45.7131983" lon="8.355665"><ele>741.0</ele><time>2026-04-06T13:52:39.05Z</time></trkpt><trkpt lat="45.7132683" lon="8.3556933"><ele>741.0</ele><time>2026-04-06T13:52:40.05Z</time></trkpt><trkpt lat="45.7133317" lon="8.3557233"><ele>741.0</ele><time>2026-04-06T13:52:41.049Z</time></trkpt><trkpt lat="45.7134033" lon="8.3557367"><ele>741.0</ele><time>2026-04-06T13:52:42.05Z</time></trkpt><trkpt lat="45.7134867" lon="8.3557217"><ele>741.0</ele><time>2026-04-06T13:52:43.05Z</time></trkpt><trkpt lat="45.7135767" lon="8.35571"><ele>741.0</ele><time>2026-04-06T13:52:44.05Z</time></trkpt><trkpt lat="45.71368" lon="8.355705"><ele>741.0</ele><time>2026-04-06T13:52:45.05Z</time></trkpt><trkpt lat="45.7137917" lon="8.3557117"><ele>741.4</ele><time>2026-04-06T13:52:46.05Z</time></trkpt><trkpt lat="45.713905" lon="8.3557283"><ele>741.8</ele><time>2026-04-06T13:52:47.05Z</time></trkpt><trkpt lat="45.714015" lon="8.355755"><ele>742.1999999999999</ele><time>2026-04-06T13:52:48.05Z</time></trkpt><trkpt lat="45.7141267" lon="8.3557933"><ele>742.5999999999999</ele><time>2026-04-06T13:52:49.05Z</time></trkpt><trkpt lat="45.7142217" lon="8.355825"><ele>743.0</ele><time>2026-04-06T13:52:50.05Z</time></trkpt><trkpt lat="45.7143233" lon="8.3558317"><ele>744.0</ele><time>2026-04-06T13:52:51.05Z</time></trkpt><trkpt lat="45.7144383" lon="8.35586"><ele>745.0</ele><time>2026-04-06T13:52:52.05Z</time></trkpt><trkpt lat="45.7145367" lon="8.35588"><ele>746.0</ele><time>2026-04-06T13:52:53.05Z</time></trkpt><trkpt lat="45.714635" lon="8.355915"><ele>747.0</ele><time>2026-04-06T13:52:54.05Z</time></trkpt><trkpt lat="45.7147333" lon="8.3559617"><ele>748.0</ele><time>2026-04-06T13:52:55.05Z</time></trkpt><trkpt lat="45.7148233" lon="8.3560333"><ele>748.0</ele><time>2026-04-06T13:52:56.05Z</time></trkpt><trkpt lat="45.7149133" lon="8.356105"><ele>748.0</ele><time>2026-04-06T13:52:57.05Z</time></trkpt><trkpt lat="45.71499" lon="8.35619"><ele>748.0</ele><time>2026-04-06T13:52:58.05Z</time></trkpt><trkpt lat="45.7150533" lon="8.3562917"><ele>748.0</ele><time>2026-04-06T13:52:59.049Z</time></trkpt><trkpt lat="45.715085" lon="8.3564133"><ele>748.0</ele><time>2026-04-06T13:53:00.05Z</time></trkpt><trkpt lat="45.7151067" lon="8.3565317"><ele>747.1666666666667</ele><time>2026-04-06T13:53:01.05Z</time></trkpt><trkpt lat="45.7151167" lon="8.3566267"><ele>746.3333333333334</ele><time>2026-04-06T13:53:02.05Z</time></trkpt><trkpt lat="45.7151383" lon="8.3567183"><ele>745.5</ele><time>2026-04-06T13:53:04.049Z</time></trkpt><trkpt lat="45.7152" lon="8.3566683"><ele>744.6666666666666</ele><time>2026-04-06T13:53:06.049Z</time></trkpt><trkpt lat="45.7152133" lon="8.3568167"><ele>743.8333333333333</ele><time>2026-04-06T13:53:12.05Z</time></trkpt><trkpt lat="45.7152233" lon="8.3569333"><ele>743.0</ele><time>2026-04-06T13:53:13.05Z</time></trkpt><trkpt lat="45.715265" lon="8.3570783"><ele>747.75</ele><time>2026-04-06T13:53:14.05Z</time></trkpt><trkpt lat="45.7153417" lon="8.3572233"><ele>752.5</ele><time>2026-04-06T13:53:15.05Z</time></trkpt><trkpt lat="45.71544" lon="8.35735"><ele>757.25</ele><time>2026-04-06T13:53:16.05Z</time></trkpt><trkpt lat="45.71555" lon="8.3574583"><ele>762.0</ele><time>2026-04-06T13:53:17.05Z</time></trkpt><trkpt lat="45.715655" lon="8.3575583"><ele>762.0</ele><time>2026-04-06T13:53:18.049Z</time></trkpt><trkpt lat="45.7157317" lon="8.3576483"><ele>762.0</ele><time>2026-04-06T13:53:19.05Z</time></trkpt><trkpt lat="45.7158017" lon="8.3577383"><ele>762.0</ele><time>2026-04-06T13:53:20.05Z</time></trkpt><trkpt lat="45.7158483" lon="8.3578183"><ele>762.0</ele><time>2026-04-06T13:53:21.049Z</time></trkpt><trkpt lat="45.7159533" lon="8.3578583"><ele>762.0</ele><time>2026-04-06T13:53:23.05Z</time></trkpt><trkpt lat="45.7160167" lon="8.3578317"><ele>762.0</ele><time>2026-04-06T13:53:24.05Z</time></trkpt><trkpt lat="45.7160833" lon="8.3578317"><ele>761.2</ele><time>2026-04-06T13:53:25.049Z</time></trkpt><trkpt lat="45.716175" lon="8.357935"><ele>760.4000000000001</ele><time>2026-04-06T13:53:27.05Z</time></trkpt><trkpt lat="45.7162167" lon="8.3580467"><ele>759.5999999999999</ele><time>2026-04-06T13:53:28.05Z</time></trkpt><trkpt lat="45.7162467" lon="8.358175"><ele>758.8</ele><time>2026-04-06T13:53:29.05Z</time></trkpt><trkpt lat="45.7162733" lon="8.3582983"><ele>758.0</ele><time>2026-04-06T13:53:30.05Z</time></trkpt><trkpt lat="45.7162983" lon="8.3584"><ele>758.0</ele><time>2026-04-06T13:53:31.05Z</time></trkpt><trkpt lat="45.71631" lon="8.3585067"><ele>758.0</ele><time>2026-04-06T13:53:32.05Z</time></trkpt><trkpt lat="45.7163917" lon="8.3586117"><ele>758.0</ele><time>2026-04-06T13:53:34.05Z</time></trkpt><trkpt lat="45.7165133" lon="8.3586433"><ele>758.0</ele><time>2026-04-06T13:53:36.05Z</time></trkpt><trkpt lat="45.7165933" lon="8.35865"><ele>758.0</ele><time>2026-04-06T13:53:37.05Z</time></trkpt><trkpt lat="45.7166883" lon="8.3586467"><ele>758.0</ele><time>2026-04-06T13:53:38.05Z</time></trkpt><trkpt lat="45.7167867" lon="8.3586317"><ele>758.0</ele><time>2026-04-06T13:53:39.05Z</time></trkpt><trkpt lat="45.7168867" lon="8.3585983"><ele>758.0</ele><time>2026-04-06T13:53:40.05Z</time></trkpt><trkpt lat="45.71699" lon="8.35857"><ele>758.0</ele><time>2026-04-06T13:53:41.049Z</time></trkpt><trkpt lat="45.7170733" lon="8.3585583"><ele>758.0</ele><time>2026-04-06T13:53:42.05Z</time></trkpt><trkpt lat="45.717155" lon="8.3585433"><ele>758.5</ele><time>2026-04-06T13:53:43.05Z</time></trkpt><trkpt lat="45.71724" lon="8.35853"><ele>759.0</ele><time>2026-04-06T13:53:44.05Z</time></trkpt><trkpt lat="45.7173033" lon="8.358675"><ele>759.5</ele><time>2026-04-06T13:53:46.05Z</time></trkpt><trkpt lat="45.717315" lon="8.3587933"><ele>760.0</ele><time>2026-04-06T13:53:47.05Z</time></trkpt><trkpt lat="45.717215" lon="8.3592083"><ele>762.0</ele><time>2026-04-06T13:53:50.05Z</time></trkpt><trkpt lat="45.7158017" lon="8.3577383"><ele>762.0</ele><time>2026-04-06T13:53:20.05Z</time></trkpt><trkpt lat="45.7158483" lon="8.3578183"><ele>762.0</ele><time>2026-04-06T13:53:21.049Z</time></trkpt><trkpt lat="45.7159533" lon="8.3578583"><ele>762.0</ele><time>2026-04-06T13:53:23.05Z</time></trkpt><trkpt lat="45.7160167" lon="8.3578317"><ele>762.0</ele><time>2026-04-06T13:53:24.05Z</time></trkpt><trkpt lat="45.7160833" lon="8.3578317"><ele>762.0</ele><time>2026-04-06T13:53:25.049Z</time></trkpt><trkpt lat="45.716175" lon="8.357935"><ele>762.0</ele><time>2026-04-06T13:53:27.05Z</time></trkpt><trkpt lat="45.7162167" lon="8.3580467"><ele>761.3333333333334</ele><time>2026-04-06T13:53:28.05Z</time></trkpt><trkpt lat="45.7162467" lon="8.358175"><ele>760.6666666666666</ele><time>2026-04-06T13:53:29.05Z</time></trkpt><trkpt lat="45.7162733" lon="8.3582983"><ele>760.0</ele><time>2026-04-06T13:53:30.05Z</time></trkpt><trkpt lat="45.7162983" lon="8.3584"><ele>759.3333333333333</ele><time>2026-04-06T13:53:31.05Z</time></trkpt><trkpt lat="45.71631" lon="8.3585067"><ele>758.6666666666666</ele><time>2026-04-06T13:53:32.05Z</time></trkpt><trkpt lat="45.7163917" lon="8.3586117"><ele>758.0</ele><time>2026-04-06T13:53:34.05Z</time></trkpt><trkpt lat="45.7165133" lon="8.3586433"><ele>758.0</ele><time>2026-04-06T13:53:36.05Z</time></trkpt><trkpt lat="45.7165933" lon="8.35865"><ele>758.0</ele><time>2026-04-06T13:53:37.05Z</time></trkpt><trkpt lat="45.7166883" lon="8.3586467"><ele>758.0</ele><time>2026-04-06T13:53:38.05Z</time></trkpt><trkpt lat="45.7167867" lon="8.3586317"><ele>758.0</ele><time>2026-04-06T13:53:39.05Z</time></trkpt><trkpt lat="45.7168867" lon="8.3585983"><ele>758.0</ele><time>2026-04-06T13:53:40.05Z</time></trkpt><trkpt lat="45.71699" lon="8.35857"><ele>763.0</ele><time>2026-04-06T13:53:41.049Z</time></trkpt><trkpt lat="45.7170733" lon="8.3585583"><ele>768.0</ele><time>2026-04-06T13:53:42.05Z</time></trkpt><trkpt lat="45.717155" lon="8.3585433"><ele>773.0</ele><time>2026-04-06T13:53:43.05Z</time></trkpt><trkpt lat="45.71724" lon="8.35853"><ele>778.0</ele><time>2026-04-06T13:53:44.05Z</time></trkpt><trkpt lat="45.7173033" lon="8.358675"><ele>783.0</ele><time>2026-04-06T13:53:46.05Z</time></trkpt><trkpt lat="45.717315" lon="8.3587933"><ele>775.3333333333334</ele><time>2026-04-06T13:53:47.05Z</time></trkpt><trkpt lat="45.717215" lon="8.3592083"><ele>767.6666666666667</ele><time>2026-04-06T13:53:50.05Z</time></trkpt><trkpt lat="45.717195" lon="8.359355"><ele>760.0</ele><time>2026-04-06T13:53:51.05Z</time></trkpt><trkpt lat="45.71726" lon="8.3595067"><ele>760.0</ele><time>2026-04-06T13:53:53.05Z</time></trkpt><trkpt lat="45.71732" lon="8.359585"><ele>760.0</ele><time>2026-04-06T13:53:54.05Z</time></trkpt><trkpt lat="45.7173917" lon="8.3596767"><ele>760.0</ele><time>2026-04-06T13:53:55.05Z</time></trkpt><trkpt lat="45.7174817" lon="8.3597917"><ele>760.0</ele><time>2026-04-06T13:53:56.05Z</time></trkpt><trkpt lat="45.7175533" lon="8.3599017"><ele>760.0</ele><time>2026-04-06T13:53:57.05Z</time></trkpt><trkpt lat="45.7175883" lon="8.359995"><ele>757.2</ele><time>2026-04-06T13:53:58.05Z</time></trkpt><trkpt lat="45.7176133" lon="8.3600833"><ele>754.4</ele><time>2026-04-06T13:53:59.05Z</time></trkpt><trkpt lat="45.7176133" lon="8.3601817"><ele>751.5999999999999</ele><time>2026-04-06T13:54:00.049Z</time></trkpt><trkpt lat="45.7175433" lon="8.3603467"><ele>748.8</ele><time>2026-04-06T13:54:02.05Z</time></trkpt><trkpt lat="45.7174533" lon="8.3604083"><ele>746.0</ele><time>2026-04-06T13:54:03.05Z</time></trkpt><trkpt lat="45.7173167" lon="8.3604717"><ele>746.0</ele><time>2026-04-06T13:54:04.05Z</time></trkpt><trkpt lat="45.7171817" lon="8.3605167"><ele>746.0</ele><time>2026-04-06T13:54:05.05Z</time></trkpt><trkpt lat="45.7170617" lon="8.360555"><ele>746.0</ele><time>2026-04-06T13:54:06.05Z</time></trkpt><trkpt lat="45.7169767" lon="8.3605967"><ele>746.0</ele><time>2026-04-06T13:54:07.049Z</time></trkpt><trkpt lat="45.71693" lon="8.3606583"><ele>746.0</ele><time>2026-04-06T13:54:08.05Z</time></trkpt><trkpt lat="45.716945" lon="8.3607667"><ele>747.5</ele><time>2026-04-06T13:54:09.05Z</time></trkpt><trkpt lat="45.717" lon="8.3608767"><ele>749.0</ele><time>2026-04-06T13:54:10.05Z</time></trkpt><trkpt lat="45.7170767" lon="8.361"><ele>750.5</ele><time>2026-04-06T13:54:11.049Z</time></trkpt><trkpt lat="45.7171817" lon="8.36113"><ele>752.0</ele><time>2026-04-06T13:54:12.05Z</time></trkpt><trkpt lat="45.717295" lon="8.3612567"><ele>747.75</ele><time>2026-04-06T13:54:13.05Z</time></trkpt><trkpt lat="45.7174067" lon="8.3613717"><ele>743.5</ele><time>2026-04-06T13:54:14.05Z</time></trkpt><trkpt lat="45.7174833" lon="8.3615"><ele>739.25</ele><time>2026-04-06T13:54:15.05Z</time></trkpt><trkpt lat="45.7175367" lon="8.361635"><ele>735.0</ele><time>2026-04-06T13:54:16.05Z</time></trkpt><trkpt lat="45.7175767" lon="8.3617983"><ele>735.0</ele><time>2026-04-06T13:54:17.05Z</time></trkpt><trkpt lat="45.7176117" lon="8.3619633"><ele>735.0</ele><time>2026-04-06T13:54:18.049Z</time></trkpt><trkpt lat="45.717655" lon="8.3620967"><ele>735.0</ele><time>2026-04-06T13:54:19.049Z</time></trkpt><trkpt lat="45.7176983" lon="8.3621917"><ele>735.0</ele><time>2026-04-06T13:54:20.049Z</time></trkpt><trkpt lat="45.7177533" lon="8.3622633"><ele>735.0</ele><time>2026-04-06T13:54:21.048Z</time></trkpt><trkpt lat="45.7178317" lon="8.3622833"><ele>734.4</ele><time>2026-04-06T13:54:22.049Z</time></trkpt><trkpt lat="45.7179267" lon="8.362275"><ele>733.8</ele><time>2026-04-06T13:54:23.049Z</time></trkpt><trkpt lat="45.7180317" lon="8.3622717"><ele>733.2</ele><time>2026-04-06T13:54:24.049Z</time></trkpt><trkpt lat="45.7181383" lon="8.362255"><ele>732.6</ele><time>2026-04-06T13:54:25.049Z</time></trkpt><trkpt lat="45.718245" lon="8.3622233"><ele>732.0</ele><time>2026-04-06T13:54:26.049Z</time></trkpt><trkpt lat="45.7183617" lon="8.3621567"><ele>739.75</ele><time>2026-04-06T13:54:27.049Z</time></trkpt><trkpt lat="45.7184833" lon="8.36209"><ele>747.5</ele><time>2026-04-06T13:54:28.049Z</time></trkpt><trkpt lat="45.718595" lon="8.3620317"><ele>755.25</ele><time>2026-04-06T13:54:29.048Z</time></trkpt><trkpt lat="45.7187017" lon="8.3619867"><ele>763.0</ele><time>2026-04-06T13:54:30.048Z</time></trkpt><trkpt lat="45.718795" lon="8.361995"><ele>761.0</ele><time>2026-04-06T13:54:31.049Z</time></trkpt><trkpt lat="45.7188683" lon="8.36203"><ele>759.0</ele><time>2026-04-06T13:54:32.049Z</time></trkpt><trkpt lat="45.718935" lon="8.3620967"><ele>757.0</ele><time>2026-04-06T13:54:33.049Z</time></trkpt><trkpt lat="45.7189933" lon="8.3622817"><ele>755.0</ele><time>2026-04-06T13:54:34.048Z</time></trkpt><trkpt lat="45.71906" lon="8.362505"><ele>755.0</ele><time>2026-04-06T13:54:35.049Z</time></trkpt><trkpt lat="45.7191267" lon="8.3626883"><ele>755.0</ele><time>2026-04-06T13:54:36.049Z</time></trkpt><trkpt lat="45.719185" lon="8.3628333"><ele>755.0</ele><time>2026-04-06T13:54:37.049Z</time></trkpt><trkpt lat="45.71922" lon="8.3629567"><ele>755.0</ele><time>2026-04-06T13:54:38.049Z</time></trkpt><trkpt lat="45.7192633" lon="8.3630233"><ele>755.0</ele><time>2026-04-06T13:54:39.048Z</time></trkpt><trkpt lat="45.71933" lon="8.3630683"><ele>756.0</ele><time>2026-04-06T13:54:40.049Z</time></trkpt><trkpt lat="45.7194083" lon="8.36308"><ele>757.0</ele><time>2026-04-06T13:54:41.049Z</time></trkpt><trkpt lat="45.7194933" lon="8.3631167"><ele>758.0</ele><time>2026-04-06T13:54:42.049Z</time></trkpt><trkpt lat="45.7195883" lon="8.3631833"><ele>759.0</ele><time>2026-04-06T13:54:43.049Z</time></trkpt><trkpt lat="45.7196717" lon="8.3632733"><ele>760.0</ele><time>2026-04-06T13:54:44.049Z</time></trkpt><trkpt lat="45.719725" lon="8.3633617"><ele>760.0</ele><time>2026-04-06T13:54:45.049Z</time></trkpt><trkpt lat="45.7197567" lon="8.3634533"><ele>760.0</ele><time>2026-04-06T13:54:46.049Z</time></trkpt><trkpt lat="45.71976" lon="8.3635717"><ele>760.0</ele><time>2026-04-06T13:54:47.048Z</time></trkpt><trkpt lat="45.719755" lon="8.3637"><ele>760.0</ele><time>2026-04-06T13:54:48.049Z</time></trkpt><trkpt lat="45.7197483" lon="8.3638517"><ele>760.0</ele><time>2026-04-06T13:54:49.049Z</time></trkpt><trkpt lat="45.7197267" lon="8.363995"><ele>755.8</ele><time>2026-04-06T13:54:50.049Z</time></trkpt><trkpt lat="45.71969" lon="8.3641283"><ele>751.6</ele><time>2026-04-06T13:54:51.049Z</time></trkpt><trkpt lat="45.719765" lon="8.3643183"><ele>747.4000000000001</ele><time>2026-04-06T13:54:54.049Z</time></trkpt><trkpt lat="45.7198633" lon="8.36434"><ele>743.2</ele><time>2026-04-06T13:54:55.048Z</time></trkpt><trkpt lat="45.7199567" lon="8.3643283"><ele>739.0</ele><time>2026-04-06T13:54:56.048Z</time></trkpt><trkpt lat="45.7200367" lon="8.3643133"><ele>739.0</ele><time>2026-04-06T13:54:57.049Z</time></trkpt><trkpt lat="45.72011" lon="8.364265"><ele>739.0</ele><time>2026-04-06T13:54:58.049Z</time></trkpt><trkpt lat="45.7201667" lon="8.36417"><ele>739.0</ele><time>2026-04-06T13:54:59.049Z</time></trkpt><trkpt lat="45.7202267" lon="8.3640817"><ele>739.0</ele><time>2026-04-06T13:55:00.049Z</time></trkpt><trkpt lat="45.7202917" lon="8.3639867"><ele>739.0</ele><time>2026-04-06T13:55:01.049Z</time></trkpt><trkpt lat="45.7203633" lon="8.3639217"><ele>739.0</ele><time>2026-04-06T13:55:02.049Z</time></trkpt><trkpt lat="45.7204383" lon="8.36387"><ele>736.6</ele><time>2026-04-06T13:55:03.049Z</time></trkpt><trkpt lat="45.7205217" lon="8.363855"><ele>734.2</ele><time>2026-04-06T13:55:04.049Z</time></trkpt><trkpt lat="45.7205883" lon="8.3639883"><ele>731.8000000000001</ele><time>2026-04-06T13:55:05.049Z</time></trkpt><trkpt lat="45.720635" lon="8.36407"><ele>729.4000000000001</ele><time>2026-04-06T13:55:06.049Z</time></trkpt><trkpt lat="45.7207667" lon="8.3640533"><ele>727.0</ele><time>2026-04-06T13:55:08.048Z</time></trkpt><trkpt lat="45.72092" lon="8.3639817"><ele>731.3333333333334</ele><time>2026-04-06T13:55:10.049Z</time></trkpt><trkpt lat="45.7211267" lon="8.3637533"><ele>735.6666666666666</ele><time>2026-04-06T13:55:13.049Z</time></trkpt><trkpt lat="45.7211933" lon="8.363645"><ele>740.0</ele><time>2026-04-06T13:55:14.049Z</time></trkpt><trkpt lat="45.7211867" lon="8.3634917"><ele>740.0</ele><time>2026-04-06T13:55:15.049Z</time></trkpt><trkpt lat="45.721185" lon="8.3633367"><ele>740.0</ele><time>2026-04-06T13:55:16.049Z</time></trkpt><trkpt lat="45.7211917" lon="8.3631967"><ele>740.0</ele><time>2026-04-06T13:55:17.049Z</time></trkpt><trkpt lat="45.7212067" lon="8.3630783"><ele>740.0</ele><time>2026-04-06T13:55:18.049Z</time></trkpt><trkpt lat="45.7213683" lon="8.362805"><ele>740.0</ele><time>2026-04-06T13:55:22.048Z</time></trkpt><trkpt lat="45.721485" lon="8.362895"><ele>740.0</ele><time>2026-04-06T13:55:24.049Z</time></trkpt><trkpt lat="45.7215867" lon="8.3629867"><ele>740.0</ele><time>2026-04-06T13:55:25.049Z</time></trkpt><trkpt lat="45.7217283" lon="8.36324"><ele>740.0</ele><time>2026-04-06T13:55:26.048Z</time></trkpt><trkpt lat="45.7217883" lon="8.3633833"><ele>740.0</ele><time>2026-04-06T13:55:27.049Z</time></trkpt><trkpt lat="45.721855" lon="8.3634867"><ele>740.0</ele><time>2026-04-06T13:55:28.049Z</time></trkpt><trkpt lat="45.7219617" lon="8.3635383"><ele>740.0</ele><time>2026-04-06T13:55:30.049Z</time></trkpt><trkpt lat="45.722035" lon="8.36356"><ele>740.0</ele><time>2026-04-06T13:55:31.049Z</time></trkpt><trkpt lat="45.7221267" lon="8.36353"><ele>743.5</ele><time>2026-04-06T13:55:32.048Z</time></trkpt><trkpt lat="45.7222217" lon="8.3635283"><ele>747.0</ele><time>2026-04-06T13:55:33.049Z</time></trkpt><trkpt lat="45.7223217" lon="8.3636183"><ele>750.5</ele><time>2026-04-06T13:55:35.049Z</time></trkpt><trkpt lat="45.7224183" lon="8.3637017"><ele>754.0</ele><time>2026-04-06T13:55:37.049Z</time></trkpt><trkpt lat="45.7225467" lon="8.36367"><ele>754.0</ele><time>2026-04-06T13:55:39.049Z</time></trkpt><trkpt lat="45.7226133" lon="8.3636383"><ele>754.0</ele><time>2026-04-06T13:55:40.048Z</time></trkpt><trkpt lat="45.7226783" lon="8.3636183"><ele>754.0</ele><time>2026-04-06T13:55:41.049Z</time></trkpt><trkpt lat="45.7227783" lon="8.36363"><ele>754.0</ele><time>2026-04-06T13:55:43.049Z</time></trkpt><trkpt lat="45.722825" lon="8.3637433"><ele>754.0</ele><time>2026-04-06T13:55:44.048Z</time></trkpt><trkpt lat="45.722875" lon="8.3638767"><ele>754.0</ele><time>2026-04-06T13:55:45.049Z</time></trkpt><trkpt lat="45.72292" lon="8.3640267"><ele>752.4000000000001</ele><time>2026-04-06T13:55:46.049Z</time></trkpt><trkpt lat="45.7229533" lon="8.3641783"><ele>750.8</ele><time>2026-04-06T13:55:47.049Z</time></trkpt><trkpt lat="45.7229817" lon="8.3643183"><ele>749.2</ele><time>2026-04-06T13:55:48.049Z</time></trkpt><trkpt lat="45.7230233" lon="8.364445"><ele>747.5999999999999</ele><time>2026-04-06T13:55:49.048Z</time></trkpt><trkpt lat="45.7230783" lon="8.364575"><ele>746.0</ele><time>2026-04-06T13:55:50.048Z</time></trkpt><trkpt lat="45.72317" lon="8.3646683"><ele>742.8333333333333</ele><time>2026-04-06T13:55:51.049Z</time></trkpt><trkpt lat="45.72324" lon="8.36476"><ele>739.6666666666666</ele><time>2026-04-06T13:55:52.049Z</time></trkpt><trkpt lat="45.723295" lon="8.3648517"><ele>736.5</ele><time>2026-04-06T13:55:53.049Z</time></trkpt><trkpt lat="45.723305" lon="8.36498"><ele>733.3333333333334</ele><time>2026-04-06T13:55:54.049Z</time></trkpt><trkpt lat="45.7232933" lon="8.3651117"><ele>730.1666666666667</ele><time>2026-04-06T13:55:55.048Z</time></trkpt><trkpt lat="45.723295" lon="8.3652283"><ele>727.0</ele><time>2026-04-06T13:55:56.049Z</time></trkpt><trkpt lat="45.723325" lon="8.365335"><ele>727.0</ele><time>2026-04-06T13:55:57.049Z</time></trkpt><trkpt lat="45.7233667" lon="8.3654483"><ele>727.0</ele><time>2026-04-06T13:55:58.049Z</time></trkpt><trkpt lat="45.7234267" lon="8.3655767"><ele>727.0</ele><time>2026-04-06T13:55:59.049Z</time></trkpt><trkpt lat="45.7234733" lon="8.3657233"><ele>727.0</ele><time>2026-04-06T13:56:00.049Z</time></trkpt><trkpt lat="45.7235017" lon="8.3658683"><ele>727.0</ele><time>2026-04-06T13:56:01.049Z</time></trkpt><trkpt lat="45.72351" lon="8.3660233"><ele>726.0</ele><time>2026-04-06T13:56:02.049Z</time></trkpt><trkpt lat="45.723495" lon="8.3661617"><ele>725.0</ele><time>2026-04-06T13:56:03.049Z</time></trkpt><trkpt lat="45.72349" lon="8.3663183"><ele>724.0</ele><time>2026-04-06T13:56:04.049Z</time></trkpt><trkpt lat="45.7235083" lon="8.3664617"><ele>723.0</ele><time>2026-04-06T13:56:05.048Z</time></trkpt><trkpt lat="45.723545" lon="8.3665917"><ele>722.0</ele><time>2026-04-06T13:56:06.049Z</time></trkpt><trkpt lat="45.723595" lon="8.3667317"><ele>722.0</ele><time>2026-04-06T13:56:07.049Z</time></trkpt><trkpt lat="45.7236317" lon="8.366845"><ele>722.0</ele><time>2026-04-06T13:56:08.049Z</time></trkpt><trkpt lat="45.7236583" lon="8.3669633"><ele>722.0</ele><time>2026-04-06T13:56:09.049Z</time></trkpt><trkpt lat="45.7236767" lon="8.3670633"><ele>722.0</ele><time>2026-04-06T13:56:10.049Z</time></trkpt><trkpt lat="45.72372" lon="8.3671383"><ele>722.0</ele><time>2026-04-06T13:56:11.049Z</time></trkpt><trkpt lat="45.7238217" lon="8.3671967"><ele>722.0</ele><time>2026-04-06T13:56:13.049Z</time></trkpt><trkpt lat="45.7239583" lon="8.367245"><ele>715.0</ele><time>2026-04-06T13:56:16.048Z</time></trkpt><trkpt lat="45.7240467" lon="8.3674767"><ele>708.0</ele><time>2026-04-06T13:56:19.049Z</time></trkpt><trkpt lat="45.724085" lon="8.3675517"><ele>701.0</ele><time>2026-04-06T13:56:20.049Z</time></trkpt><trkpt lat="45.7241683" lon="8.367585"><ele>694.0</ele><time>2026-04-06T13:56:22.048Z</time></trkpt><trkpt lat="45.7242933" lon="8.3675333"><ele>694.0</ele><time>2026-04-06T13:56:24.049Z</time></trkpt><trkpt lat="45.7243617" lon="8.3675067"><ele>694.0</ele><time>2026-04-06T13:56:25.049Z</time></trkpt><trkpt lat="45.7244367" lon="8.3675017"><ele>694.0</ele><time>2026-04-06T13:56:26.048Z</time></trkpt><trkpt lat="45.724515" lon="8.3675233"><ele>694.0</ele><time>2026-04-06T13:56:27.048Z</time></trkpt><trkpt lat="45.724595" lon="8.36757"><ele>694.0</ele><time>2026-04-06T13:56:28.048Z</time></trkpt><trkpt lat="45.7246767" lon="8.3676867"><ele>694.0</ele><time>2026-04-06T13:56:29.048Z</time></trkpt><trkpt lat="45.7247467" lon="8.3677683"><ele>693.0</ele><time>2026-04-06T13:56:30.048Z</time></trkpt><trkpt lat="45.7248" lon="8.3678583"><ele>692.0</ele><time>2026-04-06T13:56:31.049Z</time></trkpt><trkpt lat="45.7248383" lon="8.3679483"><ele>691.0</ele><time>2026-04-06T13:56:32.048Z</time></trkpt><trkpt lat="45.7248533" lon="8.3680467"><ele>690.0</ele><time>2026-04-06T13:56:33.049Z</time></trkpt><trkpt lat="45.724855" lon="8.3681433"><ele>689.0</ele><time>2026-04-06T13:56:34.049Z</time></trkpt><trkpt lat="45.7248583" lon="8.3682433"><ele>688.0</ele><time>2026-04-06T13:56:35.049Z</time></trkpt><trkpt lat="45.7248917" lon="8.3683383"><ele>687.0</ele><time>2026-04-06T13:56:36.049Z</time></trkpt><trkpt lat="45.7249267" lon="8.3684517"><ele>687.0</ele><time>2026-04-06T13:56:37.049Z</time></trkpt><trkpt lat="45.724955" lon="8.3685833"><ele>687.0</ele><time>2026-04-06T13:56:38.049Z</time></trkpt><trkpt lat="45.7249667" lon="8.3687233"><ele>687.0</ele><time>2026-04-06T13:56:39.049Z</time></trkpt><trkpt lat="45.724965" lon="8.368855"><ele>687.0</ele><time>2026-04-06T13:56:40.049Z</time></trkpt><trkpt lat="45.72497" lon="8.3689767"><ele>687.0</ele><time>2026-04-06T13:56:41.049Z</time></trkpt><trkpt lat="45.7249933" lon="8.3690967"><ele>682.8</ele><time>2026-04-06T13:56:42.049Z</time></trkpt><trkpt lat="45.7250317" lon="8.3692083"><ele>678.6</ele><time>2026-04-06T13:56:43.049Z</time></trkpt><trkpt lat="45.7250983" lon="8.36933"><ele>674.4</ele><time>2026-04-06T13:56:44.049Z</time></trkpt><trkpt lat="45.72516" lon="8.3694567"><ele>670.1999999999999</ele><time>2026-04-06T13:56:45.049Z</time></trkpt><trkpt lat="45.72519" lon="8.369605"><ele>666.0</ele><time>2026-04-06T13:56:46.049Z</time></trkpt><trkpt lat="45.725185" lon="8.3697633"><ele>661.8</ele><time>2026-04-06T13:56:47.049Z</time></trkpt><trkpt lat="45.725165" lon="8.3699283"><ele>657.5999999999999</ele><time>2026-04-06T13:56:48.048Z</time></trkpt><trkpt lat="45.72515" lon="8.3701"><ele>653.4</ele><time>2026-04-06T13:56:49.048Z</time></trkpt><trkpt lat="45.7251317" lon="8.3702583"><ele>649.2</ele><time>2026-04-06T13:56:50.049Z</time></trkpt><trkpt lat="45.725115" lon="8.370395"><ele>645.0</ele><time>2026-04-06T13:56:51.049Z</time></trkpt><trkpt lat="45.725105" lon="8.3705167"><ele>642.8</ele><time>2026-04-06T13:56:52.049Z</time></trkpt><trkpt lat="45.7251883" lon="8.3706317"><ele>640.6</ele><time>2026-04-06T13:56:54.048Z</time></trkpt><trkpt lat="45.7252583" lon="8.3706317"><ele>638.4</ele><time>2026-04-06T13:56:55.049Z</time></trkpt><trkpt lat="45.72534" lon="8.3705917"><ele>636.2</ele><time>2026-04-06T13:56:56.048Z</time></trkpt><trkpt lat="45.7254333" lon="8.3705367"><ele>634.0</ele><time>2026-04-06T13:56:57.049Z</time></trkpt><trkpt lat="45.725515" lon="8.3704867"><ele>638.0</ele><time>2026-04-06T13:56:58.048Z</time></trkpt><trkpt lat="45.7256017" lon="8.37046"><ele>642.0</ele><time>2026-04-06T13:56:59.049Z</time></trkpt><trkpt lat="45.72569" lon="8.3704183"><ele>646.0</ele><time>2026-04-06T13:57:00.049Z</time></trkpt><trkpt lat="45.725765" lon="8.3703683"><ele>650.0</ele><time>2026-04-06T13:57:01.049Z</time></trkpt><trkpt lat="45.72583" lon="8.3702967"><ele>654.0</ele><time>2026-04-06T13:57:02.049Z</time></trkpt><trkpt lat="45.7259" lon="8.3701967"><ele>658.0</ele><time>2026-04-06T13:57:03.049Z</time></trkpt><trkpt lat="45.72597" lon="8.3700917"><ele>658.0</ele><time>2026-04-06T13:57:04.049Z</time></trkpt><trkpt lat="45.726025" lon="8.3700017"><ele>658.0</ele><time>2026-04-06T13:57:05.049Z</time></trkpt><trkpt lat="45.7260867" lon="8.3699167"><ele>658.0</ele><time>2026-04-06T13:57:06.049Z</time></trkpt><trkpt lat="45.7261483" lon="8.3698633"><ele>658.0</ele><time>2026-04-06T13:57:07.049Z</time></trkpt><trkpt lat="45.72623" lon="8.369845"><ele>658.0</ele><time>2026-04-06T13:57:09.049Z</time></trkpt><trkpt lat="45.7262183" lon="8.3699383"><ele>658.0</ele><time>2026-04-06T13:57:12.049Z</time></trkpt><trkpt lat="45.72618" lon="8.37012"><ele>657.1666666666667</ele><time>2026-04-06T13:57:41.049Z</time></trkpt><trkpt lat="45.7261883" lon="8.3702117"><ele>656.3333333333334</ele><time>2026-04-06T13:58:30.048Z</time></trkpt><trkpt lat="45.7261883" lon="8.3703567"><ele>655.5</ele><time>2026-04-06T13:58:32.048Z</time></trkpt><trkpt lat="45.726195" lon="8.3704617"><ele>654.6666666666666</ele><time>2026-04-06T13:58:33.048Z</time></trkpt><trkpt lat="45.7262083" lon="8.3705883"><ele>653.8333333333333</ele><time>2026-04-06T13:58:34.048Z</time></trkpt><trkpt lat="45.72622" lon="8.3707267"><ele>653.0</ele><time>2026-04-06T13:58:35.048Z</time></trkpt><trkpt lat="45.72623" lon="8.3708683"><ele>653.0</ele><time>2026-04-06T13:58:36.048Z</time></trkpt><trkpt lat="45.7262317" lon="8.370995"><ele>653.0</ele><time>2026-04-06T13:58:37.047Z</time></trkpt><trkpt lat="45.726225" lon="8.3711183"><ele>653.0</ele><time>2026-04-06T13:58:38.048Z</time></trkpt><trkpt lat="45.72621" lon="8.3712217"><ele>653.0</ele><time>2026-04-06T13:58:39.048Z</time></trkpt><trkpt lat="45.7262017" lon="8.3713483"><ele>653.0</ele><time>2026-04-06T13:58:41.048Z</time></trkpt><trkpt lat="45.72614" lon="8.3712417"><ele>653.0</ele><time>2026-04-06T13:58:48.048Z</time></trkpt><trkpt lat="45.72614" lon="8.3710567"><ele>653.0</ele><time>2026-04-06T13:58:50.048Z</time></trkpt><trkpt lat="45.7261333" lon="8.37087"><ele>653.0</ele><time>2026-04-06T13:58:52.048Z</time></trkpt><trkpt lat="45.7261267" lon="8.3707783"><ele>653.0</ele><time>2026-04-06T13:58:53.048Z</time></trkpt><trkpt lat="45.7259733" lon="8.37058"><ele>653.0</ele><time>2026-04-06T13:58:57.048Z</time></trkpt><trkpt lat="45.7258633" lon="8.3706367"><ele>648.25</ele><time>2026-04-06T13:58:59.048Z</time></trkpt><trkpt lat="45.72573" lon="8.3708133"><ele>643.5</ele><time>2026-04-06T13:59:01.048Z</time></trkpt><trkpt lat="45.7256783" lon="8.3708733"><ele>638.75</ele><time>2026-04-06T13:59:02.048Z</time></trkpt><trkpt lat="45.7256417" lon="8.371075"><ele>634.0</ele><time>2026-04-06T13:59:03.048Z</time></trkpt><trkpt lat="45.7256283" lon="8.3713067"><ele>629.75</ele><time>2026-04-06T13:59:04.047Z</time></trkpt><trkpt lat="45.7256117" lon="8.3715017"><ele>625.5</ele><time>2026-04-06T13:59:05.048Z</time></trkpt><trkpt lat="45.7255767" lon="8.3717067"><ele>621.25</ele><time>2026-04-06T13:59:06.048Z</time></trkpt><trkpt lat="45.7255483" lon="8.3719033"><ele>617.0</ele><time>2026-04-06T13:59:07.047Z</time></trkpt><trkpt lat="45.725525" lon="8.37207"><ele>613.4</ele><time>2026-04-06T13:59:08.047Z</time></trkpt><trkpt lat="45.72552" lon="8.3722233"><ele>609.8000000000001</ele><time>2026-04-06T13:59:09.048Z</time></trkpt><trkpt lat="45.72554" lon="8.3723783"><ele>606.2</ele><time>2026-04-06T13:59:10.048Z</time></trkpt><trkpt lat="45.725535" lon="8.3725183"><ele>602.6</ele><time>2026-04-06T13:59:11.048Z</time></trkpt><trkpt lat="45.7255533" lon="8.3726583"><ele>599.0</ele><time>2026-04-06T13:59:12.047Z</time></trkpt><trkpt lat="45.72556" lon="8.372755"><ele>599.0</ele><time>2026-04-06T13:59:13.048Z</time></trkpt><trkpt lat="45.7255767" lon="8.372895"><ele>599.0</ele><time>2026-04-06T13:59:15.048Z</time></trkpt><trkpt lat="45.7255183" lon="8.3729533"><ele>599.0</ele><time>2026-04-06T13:59:17.048Z</time></trkpt><trkpt lat="45.7253967" lon="8.372905"><ele>599.0</ele><time>2026-04-06T13:59:19.048Z</time></trkpt><trkpt lat="45.72528" lon="8.37276"><ele>598.6666666666666</ele><time>2026-04-06T13:59:21.047Z</time></trkpt><trkpt lat="45.7252233" lon="8.3727017"><ele>598.3333333333333</ele><time>2026-04-06T13:59:22.047Z</time></trkpt><trkpt lat="45.725175" lon="8.3726317"><ele>598.0</ele><time>2026-04-06T13:59:23.047Z</time></trkpt><trkpt lat="45.7251133" lon="8.372585"><ele>597.6666666666666</ele><time>2026-04-06T13:59:25.048Z</time></trkpt><trkpt lat="45.7250433" lon="8.37264"><ele>597.3333333333334</ele><time>2026-04-06T13:59:27.048Z</time></trkpt><trkpt lat="45.7250817" lon="8.3727767"><ele>597.0</ele><time>2026-04-06T13:59:29.048Z</time></trkpt><trkpt lat="45.725115" lon="8.3728667"><ele>597.0</ele><time>2026-04-06T13:59:30.048Z</time></trkpt><trkpt lat="45.725165" lon="8.3729633"><ele>597.0</ele><time>2026-04-06T13:59:31.048Z</time></trkpt><trkpt lat="45.7252167" lon="8.37308"><ele>597.0</ele><time>2026-04-06T13:59:32.048Z</time></trkpt><trkpt lat="45.7252767" lon="8.3732367"><ele>597.0</ele><time>2026-04-06T13:59:33.048Z</time></trkpt><trkpt lat="45.7253483" lon="8.3733767"><ele>597.0</ele><time>2026-04-06T13:59:34.048Z</time></trkpt><trkpt lat="45.7254267" lon="8.373505"><ele>595.1666666666666</ele><time>2026-04-06T13:59:35.048Z</time></trkpt><trkpt lat="45.7254983" lon="8.3736117"><ele>593.3333333333334</ele><time>2026-04-06T13:59:36.048Z</time></trkpt><trkpt lat="45.7255567" lon="8.3736967"><ele>591.5</ele><time>2026-04-06T13:59:37.048Z</time></trkpt><trkpt lat="45.7256033" lon="8.373785"><ele>589.6666666666667</ele><time>2026-04-06T13:59:38.047Z</time></trkpt><trkpt lat="45.72562" lon="8.3739033"><ele>587.8333333333334</ele><time>2026-04-06T13:59:39.048Z</time></trkpt><trkpt lat="45.7256183" lon="8.3740233"><ele>586.0</ele><time>2026-04-06T13:59:40.048Z</time></trkpt><trkpt lat="45.72562" lon="8.3741617"><ele>583.4</ele><time>2026-04-06T13:59:41.048Z</time></trkpt><trkpt lat="45.7256333" lon="8.3742883"><ele>580.8</ele><time>2026-04-06T13:59:42.048Z</time></trkpt><trkpt lat="45.725665" lon="8.3744217"><ele>578.1999999999999</ele><time>2026-04-06T13:59:43.047Z</time></trkpt><trkpt lat="45.7257217" lon="8.3745467"><ele>575.6</ele><time>2026-04-06T13:59:44.047Z</time></trkpt><trkpt lat="45.7257883" lon="8.3746833"><ele>573.0</ele><time>2026-04-06T13:59:45.048Z</time></trkpt><trkpt lat="45.7258533" lon="8.3748133"><ele>572.6</ele><time>2026-04-06T13:59:46.048Z</time></trkpt><trkpt lat="45.7259033" lon="8.37493"><ele>572.1999999999999</ele><time>2026-04-06T13:59:47.048Z</time></trkpt><trkpt lat="45.725955" lon="8.3750533"><ele>571.8</ele><time>2026-04-06T13:59:48.048Z</time></trkpt><trkpt lat="45.7259867" lon="8.3751817"><ele>571.4</ele><time>2026-04-06T13:59:49.048Z</time></trkpt><trkpt lat="45.7260083" lon="8.3753183"><ele>571.0</ele><time>2026-04-06T13:59:50.048Z</time></trkpt><trkpt lat="45.7260117" lon="8.3754767"><ele>569.75</ele><time>2026-04-06T13:59:51.048Z</time></trkpt><trkpt lat="45.7260033" lon="8.3756483"><ele>568.5</ele><time>2026-04-06T13:59:52.048Z</time></trkpt><trkpt lat="45.7259917" lon="8.3758417"><ele>567.25</ele><time>2026-04-06T13:59:53.047Z</time></trkpt><trkpt lat="45.7259767" lon="8.3760433"><ele>566.0</ele><time>2026-04-06T13:59:54.048Z</time></trkpt><trkpt lat="45.7259683" lon="8.3762233"><ele>564.75</ele><time>2026-04-06T13:59:55.048Z</time></trkpt><trkpt lat="45.725985" lon="8.376405"><ele>563.5</ele><time>2026-04-06T13:59:56.048Z</time></trkpt><trkpt lat="45.7260133" lon="8.376585"><ele>562.25</ele><time>2026-04-06T13:59:57.048Z</time></trkpt><trkpt lat="45.7260467" lon="8.3767633"><ele>561.0</ele><time>2026-04-06T13:59:58.048Z</time></trkpt><trkpt lat="45.7260767" lon="8.3769483"><ele>557.8</ele><time>2026-04-06T13:59:59.048Z</time></trkpt><trkpt lat="45.7261" lon="8.3771217"><ele>554.6</ele><time>2026-04-06T14:00:00.048Z</time></trkpt><trkpt lat="45.726125" lon="8.3772833"><ele>551.4</ele><time>2026-04-06T14:00:01.047Z</time></trkpt><trkpt lat="45.7261333" lon="8.3774183"><ele>548.2</ele><time>2026-04-06T14:00:02.048Z</time></trkpt><trkpt lat="45.7261233" lon="8.3775667"><ele>545.0</ele><time>2026-04-06T14:00:03.048Z</time></trkpt><trkpt lat="45.7260983" lon="8.377695"><ele>545.0</ele><time>2026-04-06T14:00:04.048Z</time></trkpt><trkpt lat="45.72609" lon="8.3778383"><ele>545.0</ele><time>2026-04-06T14:00:05.048Z</time></trkpt><trkpt lat="45.7261167" lon="8.377995"><ele>545.0</ele><time>2026-04-06T14:00:06.048Z</time></trkpt><trkpt lat="45.7261667" lon="8.3781383"><ele>545.0</ele><time>2026-04-06T14:00:07.048Z</time></trkpt><trkpt lat="45.7262183" lon="8.3782717"><ele>545.0</ele><time>2026-04-06T14:00:08.048Z</time></trkpt><trkpt lat="45.7262483" lon="8.37841"><ele>545.8</ele><time>2026-04-06T14:00:09.048Z</time></trkpt><trkpt lat="45.7262633" lon="8.378555"><ele>546.6</ele><time>2026-04-06T14:00:10.048Z</time></trkpt><trkpt lat="45.726275" lon="8.378715"><ele>547.4</ele><time>2026-04-06T14:00:11.047Z</time></trkpt><trkpt lat="45.7262817" lon="8.3788667"><ele>548.2</ele><time>2026-04-06T14:00:12.047Z</time></trkpt><trkpt lat="45.7262983" lon="8.3790067"><ele>549.0</ele><time>2026-04-06T14:00:13.047Z</time></trkpt><trkpt lat="45.72631" lon="8.3791033"><ele>549.3333333333334</ele><time>2026-04-06T14:00:14.048Z</time></trkpt><trkpt lat="45.7263183" lon="8.3791983"><ele>549.6666666666666</ele><time>2026-04-06T14:00:15.047Z</time></trkpt><trkpt lat="45.7263017" lon="8.3792883"><ele>550.0</ele><time>2026-04-06T14:00:16.048Z</time></trkpt><trkpt lat="45.726225" lon="8.3793233"><ele>550.3333333333333</ele><time>2026-04-06T14:00:18.047Z</time></trkpt><trkpt lat="45.7261017" lon="8.37931"><ele>550.6666666666666</ele><time>2026-04-06T14:00:20.047Z</time></trkpt><trkpt lat="45.726035" lon="8.37932"><ele>551.0</ele><time>2026-04-06T14:00:21.048Z</time></trkpt><trkpt lat="45.7259717" lon="8.3793667"><ele>552.5</ele><time>2026-04-06T14:00:22.048Z</time></trkpt><trkpt lat="45.72592" lon="8.3794467"><ele>554.0</ele><time>2026-04-06T14:00:23.048Z</time></trkpt><trkpt lat="45.725865" lon="8.3795367"><ele>555.5</ele><time>2026-04-06T14:00:24.047Z</time></trkpt><trkpt lat="45.7258083" lon="8.3796283"><ele>557.0</ele><time>2026-04-06T14:00:25.048Z</time></trkpt><trkpt lat="45.7257467" lon="8.3796983"><ele>558.5</ele><time>2026-04-06T14:00:26.048Z</time></trkpt><trkpt lat="45.7256717" lon="8.37976"><ele>560.0</ele><time>2026-04-06T14:00:27.048Z</time></trkpt><trkpt lat="45.7256083" lon="8.3798233"><ele>560.0</ele><time>2026-04-06T14:00:28.048Z</time></trkpt><trkpt lat="45.725565" lon="8.3798933"><ele>560.0</ele><time>2026-04-06T14:00:29.048Z</time></trkpt><trkpt lat="45.7254917" lon="8.3799367"><ele>560.0</ele><time>2026-04-06T14:00:31.048Z</time></trkpt><trkpt lat="45.7254567" lon="8.3798267"><ele>560.0</ele><time>2026-04-06T14:00:33.048Z</time></trkpt><trkpt lat="45.7255267" lon="8.3796633"><ele>560.0</ele><time>2026-04-06T14:00:35.048Z</time></trkpt><trkpt lat="45.7256083" lon="8.3795533"><ele>560.0</ele><time>2026-04-06T14:00:36.048Z</time></trkpt><trkpt lat="45.72567" lon="8.3794283"><ele>560.0</ele><time>2026-04-06T14:00:37.048Z</time></trkpt><trkpt lat="45.7257117" lon="8.37928"><ele>560.0</ele><time>2026-04-06T14:00:38.048Z</time></trkpt><trkpt lat="45.7257317" lon="8.379115"><ele>560.0</ele><time>2026-04-06T14:00:39.048Z</time></trkpt><trkpt lat="45.7257467" lon="8.3789533"><ele>560.0</ele><time>2026-04-06T14:00:40.048Z</time></trkpt><trkpt lat="45.7257683" lon="8.3787967"><ele>559.5</ele><time>2026-04-06T14:00:41.048Z</time></trkpt><trkpt lat="45.725795" lon="8.3786433"><ele>559.0</ele><time>2026-04-06T14:00:42.048Z</time></trkpt><trkpt lat="45.725825" lon="8.37852"><ele>558.5</ele><time>2026-04-06T14:00:43.048Z</time></trkpt><trkpt lat="45.7258433" lon="8.3784067"><ele>558.0</ele><time>2026-04-06T14:00:44.047Z</time></trkpt><trkpt lat="45.7258517" lon="8.3782983"><ele>557.5</ele><time>2026-04-06T14:00:45.047Z</time></trkpt><trkpt lat="45.7258417" lon="8.3781967"><ele>557.0</ele><time>2026-04-06T14:00:46.048Z</time></trkpt><trkpt lat="45.7258017" lon="8.3781033"><ele>557.5</ele><time>2026-04-06T14:00:47.047Z</time></trkpt><trkpt lat="45.7257533" lon="8.3780117"><ele>558.0</ele><time>2026-04-06T14:00:48.047Z</time></trkpt><trkpt lat="45.7257067" lon="8.377925"><ele>558.5</ele><time>2026-04-06T14:00:49.048Z</time></trkpt><trkpt lat="45.7256533" lon="8.3777933"><ele>559.0</ele><time>2026-04-06T14:00:51.048Z</time></trkpt><trkpt lat="45.7255867" lon="8.3777533"><ele>559.5</ele><time>2026-04-06T14:00:53.048Z</time></trkpt><trkpt lat="45.7255183" lon="8.3778367"><ele>560.0</ele><time>2026-04-06T14:00:55.048Z</time></trkpt><trkpt lat="45.7255067" lon="8.3779367"><ele>559.4</ele><time>2026-04-06T14:00:56.048Z</time></trkpt><trkpt lat="45.7254983" lon="8.3780683"><ele>558.8</ele><time>2026-04-06T14:00:57.047Z</time></trkpt><trkpt lat="45.725515" lon="8.3781933"><ele>558.2</ele><time>2026-04-06T14:00:58.048Z</time></trkpt><trkpt lat="45.7255367" lon="8.378345"><ele>557.6</ele><time>2026-04-06T14:00:59.048Z</time></trkpt><trkpt lat="45.7255583" lon="8.37849"><ele>557.0</ele><time>2026-04-06T14:01:00.048Z</time></trkpt><trkpt lat="45.725555" lon="8.3786217"><ele>557.0</ele><time>2026-04-06T14:01:01.048Z</time></trkpt><trkpt lat="45.7255267" lon="8.378745"><ele>557.0</ele><time>2026-04-06T14:01:02.047Z</time></trkpt><trkpt lat="45.72547" lon="8.3788533"><ele>557.0</ele><time>2026-04-06T14:01:03.048Z</time></trkpt><trkpt lat="45.7254133" lon="8.3789533"><ele>557.0</ele><time>2026-04-06T14:01:04.048Z</time></trkpt><trkpt lat="45.7253417" lon="8.3790417"><ele>557.0</ele><time>2026-04-06T14:01:05.047Z</time></trkpt><trkpt lat="45.7252633" lon="8.379095"><ele>551.2</ele><time>2026-04-06T14:01:06.048Z</time></trkpt><trkpt lat="45.7251883" lon="8.3791433"><ele>545.4000000000001</ele><time>2026-04-06T14:01:07.048Z</time></trkpt><trkpt lat="45.7251183" lon="8.3791933"><ele>539.5999999999999</ele><time>2026-04-06T14:01:08.048Z</time></trkpt><trkpt lat="45.72502" lon="8.3793183"><ele>533.8</ele><time>2026-04-06T14:01:10.047Z</time></trkpt><trkpt lat="45.7250133" lon="8.37941"><ele>528.0</ele><time>2026-04-06T14:01:11.048Z</time></trkpt><trkpt lat="45.7250117" lon="8.3795933"><ele>528.8</ele><time>2026-04-06T14:01:13.048Z</time></trkpt><trkpt lat="45.725015" lon="8.3797633"><ele>529.5999999999999</ele><time>2026-04-06T14:01:15.048Z</time></trkpt><trkpt lat="45.72498" lon="8.379935"><ele>530.4000000000001</ele><time>2026-04-06T14:01:17.048Z</time></trkpt><trkpt lat="45.724925" lon="8.3800817"><ele>531.2</ele><time>2026-04-06T14:01:19.048Z</time></trkpt><trkpt lat="45.7248767" lon="8.38014"><ele>532.0</ele><time>2026-04-06T14:01:20.047Z</time></trkpt><trkpt lat="45.7247983" lon="8.380175"><ele>532.0</ele><time>2026-04-06T14:01:21.048Z</time></trkpt><trkpt lat="45.7247217" lon="8.3802167"><ele>532.0</ele><time>2026-04-06T14:01:22.047Z</time></trkpt><trkpt lat="45.7246633" lon="8.3802717"><ele>532.0</ele><time>2026-04-06T14:01:23.048Z</time></trkpt><trkpt lat="45.724585" lon="8.380395"><ele>532.0</ele><time>2026-04-06T14:01:25.048Z</time></trkpt><trkpt lat="45.7245367" lon="8.3805467"><ele>532.0</ele><time>2026-04-06T14:01:27.048Z</time></trkpt><trkpt lat="45.72456" lon="8.3806967"><ele>531.0</ele><time>2026-04-06T14:01:29.048Z</time></trkpt><trkpt lat="45.7245983" lon="8.3807967"><ele>530.0</ele><time>2026-04-06T14:01:30.048Z</time></trkpt><trkpt lat="45.72465" lon="8.380905"><ele>529.0</ele><time>2026-04-06T14:01:31.047Z</time></trkpt><trkpt lat="45.7246917" lon="8.381025"><ele>528.0</ele><time>2026-04-06T14:01:32.047Z</time></trkpt><trkpt lat="45.724725" lon="8.381145"><ele>527.0</ele><time>2026-04-06T14:01:33.048Z</time></trkpt><trkpt lat="45.7247133" lon="8.381255"><ele>526.0</ele><time>2026-04-06T14:01:34.047Z</time></trkpt><trkpt lat="45.7246783" lon="8.381345"><ele>522.0</ele><time>2026-04-06T14:01:35.048Z</time></trkpt><trkpt lat="45.7246217" lon="8.3813967"><ele>518.0</ele><time>2026-04-06T14:01:36.048Z</time></trkpt><trkpt lat="45.724545" lon="8.38144"><ele>514.0</ele><time>2026-04-06T14:01:37.048Z</time></trkpt><trkpt lat="45.7244517" lon="8.38147"><ele>510.0</ele><time>2026-04-06T14:01:38.047Z</time></trkpt><trkpt lat="45.72436" lon="8.3814833"><ele>506.0</ele><time>2026-04-06T14:01:39.048Z</time></trkpt><trkpt lat="45.7241917" lon="8.3815367"><ele>504.99999999999994</ele><time>2026-04-06T14:01:41.048Z</time></trkpt><trkpt lat="45.7241117" lon="8.381565"><ele>504.0</ele><time>2026-04-06T14:01:42.048Z</time></trkpt><trkpt lat="45.72403" lon="8.381595"><ele>503.0</ele><time>2026-04-06T14:01:43.047Z</time></trkpt><trkpt lat="45.7239483" lon="8.3816283"><ele>502.0</ele><time>2026-04-06T14:01:44.048Z</time></trkpt><trkpt lat="45.7238767" lon="8.3816767"><ele>500.99999999999994</ele><time>2026-04-06T14:01:45.048Z</time></trkpt><trkpt lat="45.7238" lon="8.38176"><ele>500.0</ele><time>2026-04-06T14:01:46.048Z</time></trkpt><trkpt lat="45.7236783" lon="8.3819117"><ele>499.99999999999994</ele><time>2026-04-06T14:01:48.048Z</time></trkpt><trkpt lat="45.7236483" lon="8.3820183"><ele>500.0</ele><time>2026-04-06T14:01:49.048Z</time></trkpt><trkpt lat="45.7236483" lon="8.382135"><ele>500.0</ele><time>2026-04-06T14:01:50.048Z</time></trkpt><trkpt lat="45.7236667" lon="8.3822383"><ele>500.0</ele><time>2026-04-06T14:01:51.048Z</time></trkpt><trkpt lat="45.7237233" lon="8.3823383"><ele>499.99999999999994</ele><time>2026-04-06T14:01:52.048Z</time></trkpt><trkpt lat="45.7237867" lon="8.3824233"><ele>500.0</ele><time>2026-04-06T14:01:53.048Z</time></trkpt><trkpt lat="45.7238867" lon="8.382495"><ele>498.0</ele><time>2026-04-06T14:01:55.047Z</time></trkpt><trkpt lat="45.7238117" lon="8.3825683"><ele>496.0</ele><time>2026-04-06T14:01:59.047Z</time></trkpt><trkpt lat="45.723705" lon="8.382485"><ele>494.0</ele><time>2026-04-06T14:02:01.048Z</time></trkpt><trkpt lat="45.7236483" lon="8.3823883"><ele>492.0</ele><time>2026-04-06T14:02:02.048Z</time></trkpt><trkpt lat="45.7235867" lon="8.3822883"><ele>490.0</ele><time>2026-04-06T14:02:03.048Z</time></trkpt><trkpt lat="45.7235333" lon="8.3821833"><ele>487.6666666666667</ele><time>2026-04-06T14:02:04.047Z</time></trkpt><trkpt lat="45.7234917" lon="8.3820867"><ele>485.33333333333337</ele><time>2026-04-06T14:02:05.048Z</time></trkpt><trkpt lat="45.7234533" lon="8.3819717"><ele>483.0</ele><time>2026-04-06T14:02:06.048Z</time></trkpt><trkpt lat="45.72348" lon="8.381835"><ele>480.66666666666663</ele><time>2026-04-06T14:02:07.048Z</time></trkpt><trkpt lat="45.7234983" lon="8.3817267"><ele>478.3333333333333</ele><time>2026-04-06T14:02:08.048Z</time></trkpt><trkpt lat="45.7235117" lon="8.3815933"><ele>476.0</ele><time>2026-04-06T14:02:09.048Z</time></trkpt><trkpt lat="45.7235517" lon="8.3814767"><ele>479.16666666666663</ele><time>2026-04-06T14:02:10.048Z</time></trkpt><trkpt lat="45.7236033" lon="8.3813717"><ele>482.3333333333333</ele><time>2026-04-06T14:02:11.047Z</time></trkpt><trkpt lat="45.7236717" lon="8.3813"><ele>485.5</ele><time>2026-04-06T14:02:12.048Z</time></trkpt><trkpt lat="45.723735" lon="8.381245"><ele>488.66666666666663</ele><time>2026-04-06T14:02:13.048Z</time></trkpt><trkpt lat="45.7238117" lon="8.3811867"><ele>491.8333333333333</ele><time>2026-04-06T14:02:14.048Z</time></trkpt><trkpt lat="45.7238833" lon="8.38113"><ele>495.0</ele><time>2026-04-06T14:02:15.048Z</time></trkpt><trkpt lat="45.7239467" lon="8.3811017"><ele>495.0</ele><time>2026-04-06T14:02:16.048Z</time></trkpt><trkpt lat="45.72403" lon="8.381065"><ele>495.0</ele><time>2026-04-06T14:02:18.048Z</time></trkpt><trkpt lat="45.723995" lon="8.3809883"><ele>495.0</ele><time>2026-04-06T14:02:21.048Z</time></trkpt><trkpt lat="45.723875" lon="8.3810317"><ele>495.0</ele><time>2026-04-06T14:02:23.048Z</time></trkpt><trkpt lat="45.7238117" lon="8.3810667"><ele>495.0</ele><time>2026-04-06T14:02:24.047Z</time></trkpt><trkpt lat="45.7237267" lon="8.3810933"><ele>495.0</ele><time>2026-04-06T14:02:25.048Z</time></trkpt><trkpt lat="45.7236583" lon="8.3811233"><ele>495.0</ele><time>2026-04-06T14:02:26.048Z</time></trkpt><trkpt lat="45.7235933" lon="8.3811383"><ele>495.0</ele><time>2026-04-06T14:02:27.047Z</time></trkpt><trkpt lat="45.7235183" lon="8.3811617"><ele>495.0</ele><time>2026-04-06T14:02:28.048Z</time></trkpt><trkpt lat="45.7234583" lon="8.381205"><ele>495.0</ele><time>2026-04-06T14:02:29.048Z</time></trkpt><trkpt lat="45.7234167" lon="8.3812767"><ele>495.0</ele><time>2026-04-06T14:02:30.048Z</time></trkpt><trkpt lat="45.7233583" lon="8.3813483"><ele>495.0</ele><time>2026-04-06T14:02:31.047Z</time></trkpt><trkpt lat="45.7232583" lon="8.3814083"><ele>491.2</ele><time>2026-04-06T14:02:33.047Z</time></trkpt><trkpt lat="45.723165" lon="8.381495"><ele>487.4</ele><time>2026-04-06T14:02:35.048Z</time></trkpt><trkpt lat="45.72312" lon="8.3816433"><ele>483.6</ele><time>2026-04-06T14:02:37.047Z</time></trkpt><trkpt lat="45.723055" lon="8.381765"><ele>479.8</ele><time>2026-04-06T14:02:39.047Z</time></trkpt><trkpt lat="45.7230083" lon="8.3818317"><ele>476.0</ele><time>2026-04-06T14:02:40.047Z</time></trkpt><trkpt lat="45.722975" lon="8.3819883"><ele>476.0</ele><time>2026-04-06T14:02:42.047Z</time></trkpt><trkpt lat="45.7230333" lon="8.38216"><ele>476.0</ele><time>2026-04-06T14:02:44.047Z</time></trkpt><trkpt lat="45.7230967" lon="8.382235"><ele>476.0</ele><time>2026-04-06T14:02:45.047Z</time></trkpt><trkpt lat="45.7231817" lon="8.3822967"><ele>476.0</ele><time>2026-04-06T14:02:46.047Z</time></trkpt><trkpt lat="45.7232517" lon="8.38236"><ele>476.0</ele><time>2026-04-06T14:02:47.046Z</time></trkpt><trkpt lat="45.7233033" lon="8.3824417"><ele>475.16666666666663</ele><time>2026-04-06T14:02:48.047Z</time></trkpt><trkpt lat="45.7233467" lon="8.3825167"><ele>474.3333333333333</ele><time>2026-04-06T14:02:49.047Z</time></trkpt><trkpt lat="45.7233733" lon="8.382625"><ele>473.5</ele><time>2026-04-06T14:02:50.047Z</time></trkpt><trkpt lat="45.72339" lon="8.3827467"><ele>472.66666666666663</ele><time>2026-04-06T14:02:51.047Z</time></trkpt><trkpt lat="45.7233967" lon="8.382875"><ele>471.8333333333333</ele><time>2026-04-06T14:02:52.047Z</time></trkpt><trkpt lat="45.7234117" lon="8.3829883"><ele>471.0</ele><time>2026-04-06T14:02:53.047Z</time></trkpt><trkpt lat="45.7234383" lon="8.38309"><ele>469.3333333333333</ele><time>2026-04-06T14:02:54.047Z</time></trkpt><trkpt lat="45.72348" lon="8.3832133"><ele>467.66666666666663</ele><time>2026-04-06T14:02:56.047Z</time></trkpt><trkpt lat="45.72349" lon="8.3833183"><ele>466.0</ele><time>2026-04-06T14:02:59.047Z</time></trkpt><trkpt lat="45.72342" lon="8.3833633"><ele>464.3333333333333</ele><time>2026-04-06T14:03:02.047Z</time></trkpt><trkpt lat="45.7233183" lon="8.383315"><ele>462.66666666666663</ele><time>2026-04-06T14:03:04.047Z</time></trkpt><trkpt lat="45.723265" lon="8.383245"><ele>461.0</ele><time>2026-04-06T14:03:05.047Z</time></trkpt><trkpt lat="45.7232117" lon="8.383165"><ele>460.99999999999994</ele><time>2026-04-06T14:03:06.046Z</time></trkpt><trkpt lat="45.7231467" lon="8.38309"><ele>461.0</ele><time>2026-04-06T14:03:07.047Z</time></trkpt><trkpt lat="45.7230817" lon="8.383015"><ele>461.0</ele><time>2026-04-06T14:03:08.047Z</time></trkpt><trkpt lat="45.72303" lon="8.3829517"><ele>461.0</ele><time>2026-04-06T14:03:09.047Z</time></trkpt><trkpt lat="45.722965" lon="8.3828783"><ele>460.99999999999994</ele><time>2026-04-06T14:03:11.047Z</time></trkpt><trkpt lat="45.722895" lon="8.3828217"><ele>461.0</ele><time>2026-04-06T14:03:13.047Z</time></trkpt><trkpt lat="45.722835" lon="8.38278"><ele>460.0</ele><time>2026-04-06T14:03:15.047Z</time></trkpt><trkpt lat="45.7227633" lon="8.3828017"><ele>459.0</ele><time>2026-04-06T14:03:17.047Z</time></trkpt><trkpt lat="45.7226367" lon="8.382855"><ele>458.0</ele><time>2026-04-06T14:03:19.047Z</time></trkpt><trkpt lat="45.7225567" lon="8.3828933"><ele>457.0</ele><time>2026-04-06T14:03:20.047Z</time></trkpt><trkpt lat="45.7224767" lon="8.3829417"><ele>456.0</ele><time>2026-04-06T14:03:21.047Z</time></trkpt><trkpt lat="45.7224" lon="8.3829867"><ele>457.0</ele><time>2026-04-06T14:03:22.047Z</time></trkpt><trkpt lat="45.722325" lon="8.383055"><ele>458.0</ele><time>2026-04-06T14:03:23.047Z</time></trkpt><trkpt lat="45.7222633" lon="8.3831417"><ele>459.0</ele><time>2026-04-06T14:03:24.047Z</time></trkpt><trkpt lat="45.7222117" lon="8.3832333"><ele>460.0</ele><time>2026-04-06T14:03:25.047Z</time></trkpt><trkpt lat="45.7221617" lon="8.383335"><ele>461.0</ele><time>2026-04-06T14:03:26.047Z</time></trkpt><trkpt lat="45.722115" lon="8.383425"><ele>462.0</ele><time>2026-04-06T14:03:27.047Z</time></trkpt><trkpt lat="45.7220667" lon="8.3835033"><ele>462.0</ele><time>2026-04-06T14:03:28.047Z</time></trkpt><trkpt lat="45.722015" lon="8.38356"><ele>462.0</ele><time>2026-04-06T14:03:29.047Z</time></trkpt><trkpt lat="45.721945" lon="8.3836017"><ele>462.0</ele><time>2026-04-06T14:03:30.047Z</time></trkpt><trkpt lat="45.7218833" lon="8.38364"><ele>462.0</ele><time>2026-04-06T14:03:31.047Z</time></trkpt><trkpt lat="45.7218267" lon="8.3836917"><ele>462.0</ele><time>2026-04-06T14:03:32.047Z</time></trkpt><trkpt lat="45.7217917" lon="8.3837667"><ele>462.0</ele><time>2026-04-06T14:03:33.047Z</time></trkpt><trkpt lat="45.72176" lon="8.383865"><ele>462.0</ele><time>2026-04-06T14:03:34.047Z</time></trkpt><trkpt lat="45.7217283" lon="8.3839683"><ele>462.0</ele><time>2026-04-06T14:03:35.046Z</time></trkpt><trkpt lat="45.7216933" lon="8.384085"><ele>462.0</ele><time>2026-04-06T14:03:36.047Z</time></trkpt><trkpt lat="45.7216467" lon="8.3841883"><ele>462.0</ele><time>2026-04-06T14:03:37.047Z</time></trkpt><trkpt lat="45.7215883" lon="8.3842667"><ele>462.0</ele><time>2026-04-06T14:03:38.047Z</time></trkpt><trkpt lat="45.7215317" lon="8.384325"><ele>462.0</ele><time>2026-04-06T14:03:39.047Z</time></trkpt><trkpt lat="45.7214867" lon="8.3843917"><ele>462.0</ele><time>2026-04-06T14:03:40.047Z</time></trkpt><trkpt lat="45.7214467" lon="8.38447"><ele>462.0</ele><time>2026-04-06T14:03:41.047Z</time></trkpt><trkpt lat="45.7214283" lon="8.3845683"><ele>462.0</ele><time>2026-04-06T14:03:42.047Z</time></trkpt><trkpt lat="45.7214367" lon="8.3846967"><ele>462.0</ele><time>2026-04-06T14:03:43.047Z</time></trkpt><trkpt lat="45.721465" lon="8.3848217"><ele>462.0</ele><time>2026-04-06T14:03:44.047Z</time></trkpt><trkpt lat="45.7214983" lon="8.3849333"><ele>462.0</ele><time>2026-04-06T14:03:45.047Z</time></trkpt><trkpt lat="45.721555" lon="8.38505"><ele>462.0</ele><time>2026-04-06T14:03:46.046Z</time></trkpt><trkpt lat="45.7216133" lon="8.3851667"><ele>461.40000000000003</ele><time>2026-04-06T14:03:47.047Z</time></trkpt><trkpt lat="45.7216633" lon="8.3852783"><ele>460.80000000000007</ele><time>2026-04-06T14:03:48.047Z</time></trkpt><trkpt lat="45.72171" lon="8.3853983"><ele>460.2</ele><time>2026-04-06T14:03:49.047Z</time></trkpt><trkpt lat="45.7217617" lon="8.38551"><ele>459.6</ele><time>2026-04-06T14:03:50.047Z</time></trkpt><trkpt lat="45.7218133" lon="8.3856233"><ele>459.0</ele><time>2026-04-06T14:03:51.047Z</time></trkpt><trkpt lat="45.7218617" lon="8.3857367"><ele>462.28571428571433</ele><time>2026-04-06T14:03:52.047Z</time></trkpt><trkpt lat="45.7219033" lon="8.38585"><ele>465.57142857142856</ele><time>2026-04-06T14:03:53.047Z</time></trkpt><trkpt lat="45.7219467" lon="8.3859467"><ele>468.8571428571429</ele><time>2026-04-06T14:03:54.047Z</time></trkpt><trkpt lat="45.721985" lon="8.3860333"><ele>472.14285714285717</ele><time>2026-04-06T14:03:55.047Z</time></trkpt><trkpt lat="45.7220117" lon="8.3861283"><ele>475.42857142857144</ele><time>2026-04-06T14:03:56.047Z</time></trkpt><trkpt lat="45.7220267" lon="8.3862183"><ele>478.7142857142857</ele><time>2026-04-06T14:03:57.047Z</time></trkpt><trkpt lat="45.7220167" lon="8.3863133"><ele>482.0</ele><time>2026-04-06T14:03:58.047Z</time></trkpt><trkpt lat="45.7219883" lon="8.3864133"><ele>482.0</ele><time>2026-04-06T14:03:59.047Z</time></trkpt><trkpt lat="45.7219867" lon="8.3865133"><ele>482.00000000000006</ele><time>2026-04-06T14:04:00.046Z</time></trkpt><trkpt lat="45.721985" lon="8.38668"><ele>482.00000000000006</ele><time>2026-04-06T14:04:02.047Z</time></trkpt><trkpt lat="45.7219317" lon="8.38686"><ele>482.0</ele><time>2026-04-06T14:04:04.047Z</time></trkpt><trkpt lat="45.721885" lon="8.3869517"><ele>482.0</ele><time>2026-04-06T14:04:05.047Z</time></trkpt><trkpt lat="45.7218433" lon="8.3870417"><ele>477.99999999999994</ele><time>2026-04-06T14:04:06.047Z</time></trkpt><trkpt lat="45.7218033" lon="8.38714"><ele>474.0</ele><time>2026-04-06T14:04:07.047Z</time></trkpt><trkpt lat="45.7217667" lon="8.3872417"><ele>470.0</ele><time>2026-04-06T14:04:08.047Z</time></trkpt><trkpt lat="45.7217617" lon="8.3873517"><ele>466.0</ele><time>2026-04-06T14:04:09.047Z</time></trkpt><trkpt lat="45.72177" lon="8.3874517"><ele>461.99999999999994</ele><time>2026-04-06T14:04:10.046Z</time></trkpt><trkpt lat="45.7217783" lon="8.3876233"><ele>458.0</ele><time>2026-04-06T14:04:12.047Z</time></trkpt><trkpt lat="45.7217433" lon="8.3877017"><ele>457.99999999999994</ele><time>2026-04-06T14:04:13.047Z</time></trkpt><trkpt lat="45.7216617" lon="8.387765"><ele>458.0</ele><time>2026-04-06T14:04:14.047Z</time></trkpt><trkpt lat="45.7215867" lon="8.3878417"><ele>458.0</ele><time>2026-04-06T14:04:15.047Z</time></trkpt><trkpt lat="45.72153" lon="8.3879267"><ele>458.0</ele><time>2026-04-06T14:04:16.047Z</time></trkpt><trkpt lat="45.7214983" lon="8.3880383"><ele>457.99999999999994</ele><time>2026-04-06T14:04:17.047Z</time></trkpt><trkpt lat="45.7214633" lon="8.3881467"><ele>458.0</ele><time>2026-04-06T14:04:18.047Z</time></trkpt><trkpt lat="45.7214383" lon="8.3882717"><ele>458.16666666666663</ele><time>2026-04-06T14:04:19.047Z</time></trkpt><trkpt lat="45.7214417" lon="8.3884017"><ele>458.3333333333333</ele><time>2026-04-06T14:04:20.047Z</time></trkpt><trkpt lat="45.72146" lon="8.3885267"><ele>458.5</ele><time>2026-04-06T14:04:21.047Z</time></trkpt><trkpt lat="45.7214817" lon="8.3886433"><ele>458.66666666666663</ele><time>2026-04-06T14:04:22.047Z</time></trkpt><trkpt lat="45.7214967" lon="8.388755"><ele>458.8333333333333</ele><time>2026-04-06T14:04:23.046Z</time></trkpt><trkpt lat="45.721525" lon="8.3888583"><ele>459.0</ele><time>2026-04-06T14:04:24.047Z</time></trkpt><trkpt lat="45.7215667" lon="8.388935"><ele>459.0</ele><time>2026-04-06T14:04:25.047Z</time></trkpt><trkpt lat="45.72167" lon="8.38902"><ele>459.0</ele><time>2026-04-06T14:04:27.047Z</time></trkpt><trkpt lat="45.721915" lon="8.389"><ele>459.0</ele><time>2026-04-06T14:04:31.047Z</time></trkpt><trkpt lat="45.7219783" lon="8.3891"><ele>459.0</ele><time>2026-04-06T14:04:33.046Z</time></trkpt><trkpt lat="45.72202" lon="8.3892"><ele>459.0</ele><time>2026-04-06T14:04:35.046Z</time></trkpt><trkpt lat="45.7220167" lon="8.3893367"><ele>459.0</ele><time>2026-04-06T14:04:37.047Z</time></trkpt><trkpt lat="45.7219733" lon="8.38943"><ele>459.0</ele><time>2026-04-06T14:04:38.046Z</time></trkpt><trkpt lat="45.7219067" lon="8.38954"><ele>459.0</ele><time>2026-04-06T14:04:39.046Z</time></trkpt><trkpt lat="45.721875" lon="8.3896467"><ele>459.0</ele><time>2026-04-06T14:04:40.047Z</time></trkpt><trkpt lat="45.7218533" lon="8.3897533"><ele>458.6</ele><time>2026-04-06T14:04:41.047Z</time></trkpt><trkpt lat="45.7218867" lon="8.3899117"><ele>458.2</ele><time>2026-04-06T14:04:43.046Z</time></trkpt><trkpt lat="45.7219267" lon="8.3899833"><ele>457.80000000000007</ele><time>2026-04-06T14:04:44.047Z</time></trkpt><trkpt lat="45.72196" lon="8.3900633"><ele>457.40000000000003</ele><time>2026-04-06T14:04:45.047Z</time></trkpt><trkpt lat="45.721985" lon="8.39022"><ele>457.0</ele><time>2026-04-06T14:04:47.047Z</time></trkpt><trkpt lat="45.7220233" lon="8.3903517"><ele>459.6666666666667</ele><time>2026-04-06T14:04:49.047Z</time></trkpt><trkpt lat="45.7220933" lon="8.39048"><ele>462.33333333333337</ele><time>2026-04-06T14:04:51.047Z</time></trkpt><trkpt lat="45.72214" lon="8.3905433"><ele>465.0</ele><time>2026-04-06T14:04:52.047Z</time></trkpt><trkpt lat="45.7221967" lon="8.3906083"><ele>467.66666666666663</ele><time>2026-04-06T14:04:53.047Z</time></trkpt><trkpt lat="45.7222567" lon="8.390675"><ele>470.3333333333333</ele><time>2026-04-06T14:04:54.047Z</time></trkpt><trkpt lat="45.7223183" lon="8.3907617"><ele>473.0</ele><time>2026-04-06T14:04:55.047Z</time></trkpt><trkpt lat="45.7223983" lon="8.39085"><ele>473.0</ele><time>2026-04-06T14:04:56.047Z</time></trkpt><trkpt lat="45.7224883" lon="8.3909417"><ele>472.99999999999994</ele><time>2026-04-06T14:04:57.047Z</time></trkpt><trkpt lat="45.7225717" lon="8.3910233"><ele>472.99999999999994</ele><time>2026-04-06T14:04:58.047Z</time></trkpt><trkpt lat="45.722655" lon="8.391075"><ele>473.0</ele><time>2026-04-06T14:04:59.047Z</time></trkpt><trkpt lat="45.7227417" lon="8.3911067"><ele>473.0</ele><time>2026-04-06T14:05:00.047Z</time></trkpt><trkpt lat="45.7228217" lon="8.3911217"><ele>474.59999999999997</ele><time>2026-04-06T14:05:01.047Z</time></trkpt><trkpt lat="45.7229383" lon="8.3910517"><ele>476.19999999999993</ele><time>2026-04-06T14:05:03.047Z</time></trkpt><trkpt lat="45.722985" lon="8.3909617"><ele>477.8</ele><time>2026-04-06T14:05:05.047Z</time></trkpt><trkpt lat="45.7230483" lon="8.39085"><ele>479.4</ele><time>2026-04-06T14:05:07.046Z</time></trkpt><trkpt lat="45.7231117" lon="8.3907417"><ele>481.0</ele><time>2026-04-06T14:05:09.047Z</time></trkpt><trkpt lat="45.72324" lon="8.3906683"><ele>481.00000000000006</ele><time>2026-04-06T14:05:11.047Z</time></trkpt><trkpt lat="45.723325" lon="8.3906167"><ele>481.0</ele><time>2026-04-06T14:05:12.047Z</time></trkpt><trkpt lat="45.72341" lon="8.3905517"><ele>481.0</ele><time>2026-04-06T14:05:13.047Z</time></trkpt><trkpt lat="45.723495" lon="8.390505"><ele>481.0</ele><time>2026-04-06T14:05:14.047Z</time></trkpt><trkpt lat="45.72358" lon="8.3904817"><ele>481.00000000000006</ele><time>2026-04-06T14:05:15.047Z</time></trkpt><trkpt lat="45.723655" lon="8.3904767"><ele>481.0</ele><time>2026-04-06T14:05:16.047Z</time></trkpt><trkpt lat="45.7237283" lon="8.3904767"><ele>483.8</ele><time>2026-04-06T14:05:17.047Z</time></trkpt><trkpt lat="45.7238233" lon="8.390505"><ele>486.6</ele><time>2026-04-06T14:05:18.047Z</time></trkpt><trkpt lat="45.7239133" lon="8.3905517"><ele>489.4</ele><time>2026-04-06T14:05:19.046Z</time></trkpt><trkpt lat="45.7239883" lon="8.390615"><ele>492.2</ele><time>2026-04-06T14:05:20.046Z</time></trkpt><trkpt lat="45.7240433" lon="8.3906917"><ele>495.0</ele><time>2026-04-06T14:05:21.047Z</time></trkpt><trkpt lat="45.7240867" lon="8.3908217"><ele>495.0</ele><time>2026-04-06T14:05:23.047Z</time></trkpt><trkpt lat="45.7240183" lon="8.3908833"><ele>495.0</ele><time>2026-04-06T14:05:24.047Z</time></trkpt><trkpt lat="45.7239233" lon="8.3909517"><ele>495.0</ele><time>2026-04-06T14:05:25.047Z</time></trkpt><trkpt lat="45.723835" lon="8.3910183"><ele>495.0</ele><time>2026-04-06T14:05:26.046Z</time></trkpt><trkpt lat="45.7237567" lon="8.3910933"><ele>495.0</ele><time>2026-04-06T14:05:27.047Z</time></trkpt><trkpt lat="45.723685" lon="8.3911983"><ele>495.0</ele><time>2026-04-06T14:05:28.047Z</time></trkpt><trkpt lat="45.7236217" lon="8.3913117"><ele>495.0</ele><time>2026-04-06T14:05:29.047Z</time></trkpt><trkpt lat="45.7235733" lon="8.3914283"><ele>495.0</ele><time>2026-04-06T14:05:30.047Z</time></trkpt><trkpt lat="45.723575" lon="8.3915383"><ele>495.0</ele><time>2026-04-06T14:05:31.046Z</time></trkpt><trkpt lat="45.7236033" lon="8.39165"><ele>495.0</ele><time>2026-04-06T14:05:32.047Z</time></trkpt><trkpt lat="45.7236433" lon="8.3917517"><ele>495.0</ele><time>2026-04-06T14:05:33.047Z</time></trkpt><trkpt lat="45.7237283" lon="8.3918267"><ele>494.6666666666667</ele><time>2026-04-06T14:05:34.047Z</time></trkpt><trkpt lat="45.7238167" lon="8.3918983"><ele>494.33333333333337</ele><time>2026-04-06T14:05:35.047Z</time></trkpt><trkpt lat="45.7239017" lon="8.391955"><ele>494.0</ele><time>2026-04-06T14:05:36.047Z</time></trkpt><trkpt lat="45.7239767" lon="8.392005"><ele>493.6666666666667</ele><time>2026-04-06T14:05:37.047Z</time></trkpt><trkpt lat="45.7240333" lon="8.3920717"><ele>493.33333333333337</ele><time>2026-04-06T14:05:38.047Z</time></trkpt><trkpt lat="45.724075" lon="8.392145"><ele>493.0</ele><time>2026-04-06T14:05:39.047Z</time></trkpt><trkpt lat="45.7240967" lon="8.392255"><ele>493.0</ele><time>2026-04-06T14:05:40.047Z</time></trkpt><trkpt lat="45.7241017" lon="8.392395"><ele>492.99999999999994</ele><time>2026-04-06T14:05:41.047Z</time></trkpt><trkpt lat="45.7241133" lon="8.3925167"><ele>492.99999999999994</ele><time>2026-04-06T14:05:42.047Z</time></trkpt><trkpt lat="45.7241383" lon="8.3926233"><ele>493.0</ele><time>2026-04-06T14:05:43.047Z</time></trkpt><trkpt lat="45.7242133" lon="8.3927433"><ele>493.0</ele><time>2026-04-06T14:05:45.047Z</time></trkpt><trkpt lat="45.7243217" lon="8.392805"><ele>497.2</ele><time>2026-04-06T14:05:47.047Z</time></trkpt><trkpt lat="45.724415" lon="8.3928683"><ele>501.4</ele><time>2026-04-06T14:05:49.047Z</time></trkpt><trkpt lat="45.724495" lon="8.392935"><ele>505.59999999999997</ele><time>2026-04-06T14:05:51.046Z</time></trkpt><trkpt lat="45.724605" lon="8.39297"><ele>509.79999999999995</ele><time>2026-04-06T14:05:53.047Z</time></trkpt><trkpt lat="45.724675" lon="8.3929683"><ele>514.0</ele><time>2026-04-06T14:05:54.046Z</time></trkpt><trkpt lat="45.7247517" lon="8.3929667"><ele>514.0</ele><time>2026-04-06T14:05:55.047Z</time></trkpt><trkpt lat="45.7248283" lon="8.3929633"><ele>514.0</ele><time>2026-04-06T14:05:56.047Z</time></trkpt><trkpt lat="45.7249033" lon="8.3929883"><ele>514.0</ele><time>2026-04-06T14:05:57.047Z</time></trkpt><trkpt lat="45.72496" lon="8.3930517"><ele>514.0</ele><time>2026-04-06T14:05:58.047Z</time></trkpt><trkpt lat="45.7249967" lon="8.3932467"><ele>514.0</ele><time>2026-04-06T14:06:00.047Z</time></trkpt><trkpt lat="45.7250183" lon="8.3933767"><ele>516.0</ele><time>2026-04-06T14:06:01.047Z</time></trkpt><trkpt lat="45.72506" lon="8.3935117"><ele>518.0</ele><time>2026-04-06T14:06:02.046Z</time></trkpt><trkpt lat="45.7251083" lon="8.3936333"><ele>520.0</ele><time>2026-04-06T14:06:03.046Z</time></trkpt><trkpt lat="45.7251733" lon="8.393725"><ele>522.0</ele><time>2026-04-06T14:06:04.047Z</time></trkpt><trkpt lat="45.7252483" lon="8.3937867"><ele>524.0</ele><time>2026-04-06T14:06:05.047Z</time></trkpt><trkpt lat="45.7253167" lon="8.3938333"><ele>523.0</ele><time>2026-04-06T14:06:06.046Z</time></trkpt><trkpt lat="45.7253917" lon="8.393875"><ele>522.0</ele><time>2026-04-06T14:06:07.046Z</time></trkpt><trkpt lat="45.72547" lon="8.39396"><ele>521.0</ele><time>2026-04-06T14:06:09.047Z</time></trkpt><trkpt lat="45.725445" lon="8.39407"><ele>520.0</ele><time>2026-04-06T14:06:11.047Z</time></trkpt><trkpt lat="45.7254033" lon="8.39414"><ele>519.0</ele><time>2026-04-06T14:06:12.046Z</time></trkpt><trkpt lat="45.72533" lon="8.394205"><ele>518.0</ele><time>2026-04-06T14:06:13.047Z</time></trkpt><trkpt lat="45.72523" lon="8.3942267"><ele>514.75</ele><time>2026-04-06T14:06:14.047Z</time></trkpt><trkpt lat="45.7251233" lon="8.3942283"><ele>511.5</ele><time>2026-04-06T14:06:15.047Z</time></trkpt><trkpt lat="45.7250017" lon="8.3942117"><ele>508.25</ele><time>2026-04-06T14:06:16.047Z</time></trkpt><trkpt lat="45.72488" lon="8.39417"><ele>505.0</ele><time>2026-04-06T14:06:17.047Z</time></trkpt><trkpt lat="45.724775" lon="8.3941133"><ele>505.00000000000006</ele><time>2026-04-06T14:06:18.047Z</time></trkpt><trkpt lat="45.724685" lon="8.3940533"><ele>505.0</ele><time>2026-04-06T14:06:19.047Z</time></trkpt><trkpt lat="45.7246167" lon="8.3939783"><ele>505.0</ele><time>2026-04-06T14:06:20.047Z</time></trkpt><trkpt lat="45.7245633" lon="8.3939233"><ele>505.0</ele><time>2026-04-06T14:06:21.047Z</time></trkpt><trkpt lat="45.724495" lon="8.3939017"><ele>505.00000000000006</ele><time>2026-04-06T14:06:22.046Z</time></trkpt><trkpt lat="45.724425" lon="8.3939217"><ele>505.0</ele><time>2026-04-06T14:06:23.047Z</time></trkpt><trkpt lat="45.7243717" lon="8.3939717"><ele>505.00000000000006</ele><time>2026-04-06T14:06:24.046Z</time></trkpt><trkpt lat="45.72433" lon="8.39405"><ele>505.0</ele><time>2026-04-06T14:06:25.047Z</time></trkpt><trkpt lat="45.7243267" lon="8.3941567"><ele>505.0</ele><time>2026-04-06T14:06:26.047Z</time></trkpt><trkpt lat="45.7243517" lon="8.3942667"><ele>505.0</ele><time>2026-04-06T14:06:27.046Z</time></trkpt><trkpt lat="45.7243933" lon="8.394385"><ele>505.00000000000006</ele><time>2026-04-06T14:06:28.047Z</time></trkpt><trkpt lat="45.7244567" lon="8.3945117"><ele>505.0</ele><time>2026-04-06T14:06:29.047Z</time></trkpt><trkpt lat="45.7245383" lon="8.3946617"><ele>506.5</ele><time>2026-04-06T14:06:30.047Z</time></trkpt><trkpt lat="45.72462" lon="8.3948383"><ele>508.0</ele><time>2026-04-06T14:06:31.046Z</time></trkpt><trkpt lat="45.72469" lon="8.395005"><ele>509.5</ele><time>2026-04-06T14:06:32.046Z</time></trkpt><trkpt lat="45.724765" lon="8.3951183"><ele>511.0</ele><time>2026-04-06T14:06:33.047Z</time></trkpt><trkpt lat="45.7248483" lon="8.3952033"><ele>511.0</ele><time>2026-04-06T14:06:34.047Z</time></trkpt><trkpt lat="45.7249417" lon="8.3952533"><ele>511.0</ele><time>2026-04-06T14:06:35.047Z</time></trkpt><trkpt lat="45.72505" lon="8.3953067"><ele>511.0</ele><time>2026-04-06T14:06:36.047Z</time></trkpt><trkpt lat="45.7251633" lon="8.3953533"><ele>511.0</ele><time>2026-04-06T14:06:37.047Z</time></trkpt><trkpt lat="45.7252533" lon="8.3953967"><ele>511.0</ele><time>2026-04-06T14:06:38.047Z</time></trkpt><trkpt lat="45.7253333" lon="8.3954633"><ele>512.6</ele><time>2026-04-06T14:06:39.047Z</time></trkpt><trkpt lat="45.7254" lon="8.3955583"><ele>514.2</ele><time>2026-04-06T14:06:40.047Z</time></trkpt><trkpt lat="45.7254567" lon="8.39565"><ele>515.8</ele><time>2026-04-06T14:06:41.047Z</time></trkpt><trkpt lat="45.7254983" lon="8.3957417"><ele>517.4</ele><time>2026-04-06T14:06:42.047Z</time></trkpt><trkpt lat="45.7254967" lon="8.3958467"><ele>519.0</ele><time>2026-04-06T14:06:43.047Z</time></trkpt><trkpt lat="45.7254017" lon="8.396"><ele>519.0</ele><time>2026-04-06T14:06:45.047Z</time></trkpt><trkpt lat="45.7253067" lon="8.396055"><ele>519.0</ele><time>2026-04-06T14:06:46.047Z</time></trkpt><trkpt lat="45.7251" lon="8.396165"><ele>519.0</ele><time>2026-04-06T14:06:48.047Z</time></trkpt><trkpt lat="45.7249767" lon="8.3962467"><ele>519.0</ele><time>2026-04-06T14:06:49.047Z</time></trkpt><trkpt lat="45.7248617" lon="8.396315"><ele>519.0</ele><time>2026-04-06T14:06:50.047Z</time></trkpt><trkpt lat="45.7247433" lon="8.396365"><ele>519.0</ele><time>2026-04-06T14:06:51.047Z</time></trkpt><trkpt lat="45.7246417" lon="8.3964333"><ele>519.0</ele><time>2026-04-06T14:06:52.047Z</time></trkpt><trkpt lat="45.724555" lon="8.39649"><ele>519.0</ele><time>2026-04-06T14:06:53.047Z</time></trkpt><trkpt lat="45.7245133" lon="8.396575"><ele>519.0</ele><time>2026-04-06T14:06:54.047Z</time></trkpt><trkpt lat="45.7245217" lon="8.39669"><ele>519.0</ele><time>2026-04-06T14:06:55.046Z</time></trkpt><trkpt lat="45.7245483" lon="8.3968317"><ele>519.0</ele><time>2026-04-06T14:06:56.047Z</time></trkpt><trkpt lat="45.724575" lon="8.396975"><ele>519.0</ele><time>2026-04-06T14:06:57.047Z</time></trkpt><trkpt lat="45.72459" lon="8.39711"><ele>516.0</ele><time>2026-04-06T14:06:58.047Z</time></trkpt><trkpt lat="45.7245083" lon="8.39736"><ele>513.0</ele><time>2026-04-06T14:07:01.047Z</time></trkpt><trkpt lat="45.724205" lon="8.3973167"><ele>511.5</ele><time>2026-04-06T14:07:05.046Z</time></trkpt><trkpt lat="45.7241067" lon="8.3972417"><ele>510.0</ele><time>2026-04-06T14:07:06.046Z</time></trkpt><trkpt lat="45.7239683" lon="8.3972017"><ele>508.5</ele><time>2026-04-06T14:07:07.047Z</time></trkpt><trkpt lat="45.72384" lon="8.397195"><ele>507.0</ele><time>2026-04-06T14:07:08.047Z</time></trkpt><trkpt lat="45.7237017" lon="8.3972167"><ele>507.0</ele><time>2026-04-06T14:07:09.047Z</time></trkpt><trkpt lat="45.7235733" lon="8.3972467"><ele>507.0</ele><time>2026-04-06T14:07:10.047Z</time></trkpt><trkpt lat="45.7234467" lon="8.3972633"><ele>507.0</ele><time>2026-04-06T14:07:11.047Z</time></trkpt><trkpt lat="45.7233217" lon="8.3972967"><ele>507.0</ele><time>2026-04-06T14:07:12.047Z</time></trkpt><trkpt lat="45.7232033" lon="8.397315"><ele>505.8</ele><time>2026-04-06T14:07:13.047Z</time></trkpt><trkpt lat="45.723085" lon="8.3973633"><ele>504.6</ele><time>2026-04-06T14:07:14.047Z</time></trkpt><trkpt lat="45.72299" lon="8.39743"><ele>503.40000000000003</ele><time>2026-04-06T14:07:15.047Z</time></trkpt><trkpt lat="45.7229083" lon="8.3974983"><ele>502.20000000000005</ele><time>2026-04-06T14:07:16.047Z</time></trkpt><trkpt lat="45.7228333" lon="8.3975367"><ele>501.0</ele><time>2026-04-06T14:07:17.047Z</time></trkpt><trkpt lat="45.7227517" lon="8.3975517"><ele>501.4</ele><time>2026-04-06T14:07:18.046Z</time></trkpt><trkpt lat="45.7226633" lon="8.397555"><ele>501.8</ele><time>2026-04-06T14:07:19.046Z</time></trkpt><trkpt lat="45.7225767" lon="8.3975467"><ele>502.19999999999993</ele><time>2026-04-06T14:07:20.047Z</time></trkpt><trkpt lat="45.7224883" lon="8.3975533"><ele>502.59999999999997</ele><time>2026-04-06T14:07:21.047Z</time></trkpt><trkpt lat="45.722405" lon="8.3975967"><ele>503.0</ele><time>2026-04-06T14:07:22.046Z</time></trkpt><trkpt lat="45.7223283" lon="8.397685"><ele>503.0</ele><time>2026-04-06T14:07:23.047Z</time></trkpt><trkpt lat="45.7222783" lon="8.3978233"><ele>503.0</ele><time>2026-04-06T14:07:24.047Z</time></trkpt><trkpt lat="45.72223" lon="8.3979783"><ele>503.0</ele><time>2026-04-06T14:07:25.046Z</time></trkpt><trkpt lat="45.7221917" lon="8.3981317"><ele>503.0</ele><time>2026-04-06T14:07:26.047Z</time></trkpt><trkpt lat="45.72216" lon="8.3982983"><ele>499.5</ele><time>2026-04-06T14:07:27.047Z</time></trkpt><trkpt lat="45.7221667" lon="8.3984517"><ele>496.0</ele><time>2026-04-06T14:07:28.047Z</time></trkpt><trkpt lat="45.7221917" lon="8.39858"><ele>492.5</ele><time>2026-04-06T14:07:29.047Z</time></trkpt><trkpt lat="45.7222067" lon="8.3986983"><ele>489.0</ele><time>2026-04-06T14:07:30.047Z</time></trkpt><trkpt lat="45.7219717" lon="8.3990117"><ele>487.0</ele><time>2026-04-06T14:07:34.047Z</time></trkpt><trkpt lat="45.7218917" lon="8.399065"><ele>485.0</ele><time>2026-04-06T14:07:35.047Z</time></trkpt><trkpt lat="45.721775" lon="8.39911"><ele>483.0</ele><time>2026-04-06T14:07:36.047Z</time></trkpt><trkpt lat="45.7216733" lon="8.3991717"><ele>481.0</ele><time>2026-04-06T14:07:37.047Z</time></trkpt><trkpt lat="45.72161" lon="8.3992317"><ele>479.0</ele><time>2026-04-06T14:07:38.047Z</time></trkpt><trkpt lat="45.72157" lon="8.3993817"><ele>479.0</ele><time>2026-04-06T14:07:40.046Z</time></trkpt><trkpt lat="45.72159" lon="8.3994783"><ele>479.0</ele><time>2026-04-06T14:07:41.046Z</time></trkpt><trkpt lat="45.7216483" lon="8.3995717"><ele>479.0</ele><time>2026-04-06T14:07:42.046Z</time></trkpt><trkpt lat="45.721795" lon="8.3998217"><ele>479.0</ele><time>2026-04-06T14:07:44.046Z</time></trkpt><trkpt lat="45.721875" lon="8.3999567"><ele>477.0</ele><time>2026-04-06T14:07:45.046Z</time></trkpt><trkpt lat="45.721945" lon="8.4001083"><ele>475.0</ele><time>2026-04-06T14:07:46.046Z</time></trkpt><trkpt lat="45.7219967" lon="8.4002733"><ele>473.0</ele><time>2026-04-06T14:07:47.045Z</time></trkpt><trkpt lat="45.7220467" lon="8.40044"><ele>471.0</ele><time>2026-04-06T14:07:48.046Z</time></trkpt><trkpt lat="45.7220883" lon="8.4005867"><ele>471.0</ele><time>2026-04-06T14:07:49.046Z</time></trkpt><trkpt lat="45.7221167" lon="8.4007233"><ele>471.0</ele><time>2026-04-06T14:07:50.046Z</time></trkpt><trkpt lat="45.7221283" lon="8.4008717"><ele>471.0</ele><time>2026-04-06T14:07:51.046Z</time></trkpt><trkpt lat="45.7221167" lon="8.40104"><ele>471.0</ele><time>2026-04-06T14:07:52.046Z</time></trkpt><trkpt lat="45.722095" lon="8.4012183"><ele>471.0</ele><time>2026-04-06T14:07:53.045Z</time></trkpt><trkpt lat="45.72206" lon="8.401425"><ele>473.5</ele><time>2026-04-06T14:07:54.046Z</time></trkpt><trkpt lat="45.7220333" lon="8.40165"><ele>476.0</ele><time>2026-04-06T14:07:55.046Z</time></trkpt><trkpt lat="45.7220183" lon="8.4020733"><ele>476.25</ele><time>2026-04-06T14:07:57.046Z</time></trkpt><trkpt lat="45.7220317" lon="8.402285"><ele>476.5</ele><time>2026-04-06T14:07:58.046Z</time></trkpt><trkpt lat="45.72204" lon="8.402505"><ele>476.75</ele><time>2026-04-06T14:07:59.046Z</time></trkpt><trkpt lat="45.7220367" lon="8.4027"><ele>477.0</ele><time>2026-04-06T14:08:00.045Z</time></trkpt><trkpt lat="45.72203" lon="8.4028667"><ele>478.0</ele><time>2026-04-06T14:08:01.046Z</time></trkpt><trkpt lat="45.7220267" lon="8.403025"><ele>479.00000000000006</ele><time>2026-04-06T14:08:02.045Z</time></trkpt><trkpt lat="45.72203" lon="8.403185"><ele>480.00000000000006</ele><time>2026-04-06T14:08:03.046Z</time></trkpt><trkpt lat="45.72203" lon="8.403335"><ele>481.0</ele><time>2026-04-06T14:08:04.046Z</time></trkpt><trkpt lat="45.7220283" lon="8.4034867"><ele>482.0</ele><time>2026-04-06T14:08:05.045Z</time></trkpt><trkpt lat="45.7220383" lon="8.4036483"><ele>482.0</ele><time>2026-04-06T14:08:06.046Z</time></trkpt><trkpt lat="45.7220517" lon="8.403825"><ele>482.00000000000006</ele><time>2026-04-06T14:08:07.046Z</time></trkpt><trkpt lat="45.7220733" lon="8.403985"><ele>482.00000000000006</ele><time>2026-04-06T14:08:08.045Z</time></trkpt><trkpt lat="45.7220917" lon="8.4041183"><ele>482.0</ele><time>2026-04-06T14:08:09.046Z</time></trkpt><trkpt lat="45.72211" lon="8.4042283"><ele>482.0</ele><time>2026-04-06T14:08:10.046Z</time></trkpt><trkpt lat="45.722135" lon="8.4043117"><ele>481.8</ele><time>2026-04-06T14:08:11.046Z</time></trkpt><trkpt lat="45.722175" lon="8.4043933"><ele>481.6</ele><time>2026-04-06T14:08:12.045Z</time></trkpt><trkpt lat="45.7222467" lon="8.4044667"><ele>481.40000000000003</ele><time>2026-04-06T14:08:13.046Z</time></trkpt><trkpt lat="45.7223367" lon="8.4045283"><ele>481.20000000000005</ele><time>2026-04-06T14:08:14.046Z</time></trkpt><trkpt lat="45.7224233" lon="8.404595"><ele>481.0</ele><time>2026-04-06T14:08:15.046Z</time></trkpt><trkpt lat="45.7225117" lon="8.4046783"><ele>480.0</ele><time>2026-04-06T14:08:16.046Z</time></trkpt><trkpt lat="45.722595" lon="8.4047833"><ele>479.0</ele><time>2026-04-06T14:08:17.046Z</time></trkpt><trkpt lat="45.7226733" lon="8.4048933"><ele>478.0</ele><time>2026-04-06T14:08:18.046Z</time></trkpt><trkpt lat="45.7227583" lon="8.40498"><ele>477.0</ele><time>2026-04-06T14:08:19.046Z</time></trkpt><trkpt lat="45.7228417" lon="8.4050567"><ele>476.0</ele><time>2026-04-06T14:08:20.046Z</time></trkpt><trkpt lat="45.7229233" lon="8.40511"><ele>474.3333333333333</ele><time>2026-04-06T14:08:21.046Z</time></trkpt><trkpt lat="45.723" lon="8.4051583"><ele>472.66666666666663</ele><time>2026-04-06T14:08:22.045Z</time></trkpt><trkpt lat="45.72307" lon="8.4052183"><ele>471.0</ele><time>2026-04-06T14:08:23.045Z</time></trkpt><trkpt lat="45.7231267" lon="8.4052883"><ele>469.33333333333337</ele><time>2026-04-06T14:08:24.046Z</time></trkpt><trkpt lat="45.7231717" lon="8.4053617"><ele>467.6666666666667</ele><time>2026-04-06T14:08:25.046Z</time></trkpt><trkpt lat="45.7232133" lon="8.40544"><ele>466.0</ele><time>2026-04-06T14:08:26.046Z</time></trkpt><trkpt lat="45.723265" lon="8.4055833"><ele>466.0</ele><time>2026-04-06T14:08:28.045Z</time></trkpt><trkpt lat="45.7233117" lon="8.405755"><ele>466.0</ele><time>2026-04-06T14:08:30.045Z</time></trkpt><trkpt lat="45.7233467" lon="8.405845"><ele>466.0</ele><time>2026-04-06T14:08:31.046Z</time></trkpt><trkpt lat="45.7233833" lon="8.40595"><ele>466.0</ele><time>2026-04-06T14:08:32.045Z</time></trkpt><trkpt lat="45.72342" lon="8.406075"><ele>466.0</ele><time>2026-04-06T14:08:33.046Z</time></trkpt><trkpt lat="45.7234517" lon="8.406205"><ele>466.50000000000006</ele><time>2026-04-06T14:08:34.045Z</time></trkpt><trkpt lat="45.7234783" lon="8.4063417"><ele>467.0</ele><time>2026-04-06T14:08:35.046Z</time></trkpt><trkpt lat="45.7234833" lon="8.40647"><ele>467.5</ele><time>2026-04-06T14:08:36.046Z</time></trkpt><trkpt lat="45.7234633" lon="8.406585"><ele>468.0</ele><time>2026-04-06T14:08:37.045Z</time></trkpt><trkpt lat="45.7234217" lon="8.4067"><ele>468.50000000000006</ele><time>2026-04-06T14:08:38.046Z</time></trkpt><trkpt lat="45.7233983" lon="8.4068067"><ele>469.0</ele><time>2026-04-06T14:08:39.046Z</time></trkpt><trkpt lat="45.7233933" lon="8.4069267"><ele>469.00000000000006</ele><time>2026-04-06T14:08:40.046Z</time></trkpt><trkpt lat="45.72342" lon="8.4070517"><ele>469.0</ele><time>2026-04-06T14:08:41.046Z</time></trkpt><trkpt lat="45.7234367" lon="8.40716"><ele>469.0</ele><time>2026-04-06T14:08:42.046Z</time></trkpt><trkpt lat="45.7234267" lon="8.4072517"><ele>469.0</ele><time>2026-04-06T14:08:43.045Z</time></trkpt><trkpt lat="45.7233967" lon="8.4073467"><ele>469.00000000000006</ele><time>2026-04-06T14:08:44.046Z</time></trkpt><trkpt lat="45.7233667" lon="8.4074517"><ele>469.0</ele><time>2026-04-06T14:08:45.046Z</time></trkpt><trkpt lat="45.7233467" lon="8.407585"><ele>468.5</ele><time>2026-04-06T14:08:46.046Z</time></trkpt><trkpt lat="45.7233467" lon="8.4077317"><ele>468.0</ele><time>2026-04-06T14:08:47.045Z</time></trkpt><trkpt lat="45.7233633" lon="8.4079167"><ele>467.5</ele><time>2026-04-06T14:08:48.046Z</time></trkpt><trkpt lat="45.7233733" lon="8.408105"><ele>467.0</ele><time>2026-04-06T14:08:49.045Z</time></trkpt><trkpt lat="45.723375" lon="8.4082867"><ele>466.0</ele><time>2026-04-06T14:08:50.045Z</time></trkpt><trkpt lat="45.72336" lon="8.4084717"><ele>465.0</ele><time>2026-04-06T14:08:51.046Z</time></trkpt><trkpt lat="45.7233383" lon="8.4086533"><ele>464.0</ele><time>2026-04-06T14:08:52.046Z</time></trkpt><trkpt lat="45.7233283" lon="8.408825"><ele>463.0</ele><time>2026-04-06T14:08:53.045Z</time></trkpt><trkpt lat="45.7233467" lon="8.4089817"><ele>462.4</ele><time>2026-04-06T14:08:54.046Z</time></trkpt><trkpt lat="45.72338" lon="8.4091417"><ele>461.79999999999995</ele><time>2026-04-06T14:08:55.046Z</time></trkpt><trkpt lat="45.7234117" lon="8.40929"><ele>461.2</ele><time>2026-04-06T14:08:56.046Z</time></trkpt><trkpt lat="45.7234367" lon="8.4094167"><ele>460.6</ele><time>2026-04-06T14:08:57.046Z</time></trkpt><trkpt lat="45.7234283" lon="8.4095417"><ele>460.0</ele><time>2026-04-06T14:08:58.045Z</time></trkpt><trkpt lat="45.7234167" lon="8.40966"><ele>459.0</ele><time>2026-04-06T14:08:59.046Z</time></trkpt><trkpt lat="45.7234083" lon="8.4097817"><ele>458.0</ele><time>2026-04-06T14:09:00.046Z</time></trkpt><trkpt lat="45.7233833" lon="8.4099083"><ele>457.0</ele><time>2026-04-06T14:09:01.046Z</time></trkpt><trkpt lat="45.7233533" lon="8.4100533"><ele>456.0</ele><time>2026-04-06T14:09:02.046Z</time></trkpt><trkpt lat="45.7233267" lon="8.4101867"><ele>455.0</ele><time>2026-04-06T14:09:03.046Z</time></trkpt><trkpt lat="45.7233167" lon="8.410325"><ele>455.0</ele><time>2026-04-06T14:09:04.045Z</time></trkpt><trkpt lat="45.7233217" lon="8.4104633"><ele>455.0</ele><time>2026-04-06T14:09:05.046Z</time></trkpt><trkpt lat="45.7233617" lon="8.41059"><ele>455.0</ele><time>2026-04-06T14:09:06.045Z</time></trkpt><trkpt lat="45.7234167" lon="8.4107"><ele>455.0</ele><time>2026-04-06T14:09:07.046Z</time></trkpt><trkpt lat="45.7234667" lon="8.410815"><ele>455.0</ele><time>2026-04-06T14:09:08.046Z</time></trkpt><trkpt lat="45.7235083" lon="8.410925"><ele>454.8</ele><time>2026-04-06T14:09:09.045Z</time></trkpt><trkpt lat="45.7235367" lon="8.4110317"><ele>454.6</ele><time>2026-04-06T14:09:10.046Z</time></trkpt><trkpt lat="45.7235583" lon="8.411145"><ele>454.4</ele><time>2026-04-06T14:09:11.046Z</time></trkpt><trkpt lat="45.7235567" lon="8.4112833"><ele>454.2</ele><time>2026-04-06T14:09:12.045Z</time></trkpt><trkpt lat="45.7235333" lon="8.411455"><ele>454.0</ele><time>2026-04-06T14:09:13.046Z</time></trkpt><trkpt lat="45.72352" lon="8.4116217"><ele>453.4</ele><time>2026-04-06T14:09:14.045Z</time></trkpt><trkpt lat="45.7235033" lon="8.411765"><ele>452.79999999999995</ele><time>2026-04-06T14:09:15.046Z</time></trkpt><trkpt lat="45.72351" lon="8.4119133"><ele>452.20000000000005</ele><time>2026-04-06T14:09:16.046Z</time></trkpt><trkpt lat="45.72355" lon="8.412045"><ele>451.6</ele><time>2026-04-06T14:09:17.046Z</time></trkpt><trkpt lat="45.7236183" lon="8.4121817"><ele>451.0</ele><time>2026-04-06T14:09:18.046Z</time></trkpt><trkpt lat="45.723715" lon="8.4123167"><ele>450.0</ele><time>2026-04-06T14:09:19.046Z</time></trkpt><trkpt lat="45.723815" lon="8.4124483"><ele>449.0</ele><time>2026-04-06T14:09:20.045Z</time></trkpt><trkpt lat="45.7239167" lon="8.4125533"><ele>448.0</ele><time>2026-04-06T14:09:21.046Z</time></trkpt><trkpt lat="45.7240067" lon="8.412655"><ele>447.0</ele><time>2026-04-06T14:09:22.046Z</time></trkpt><trkpt lat="45.72434" lon="8.4129033"><ele>444.0</ele><time>2026-04-06T14:09:25.046Z</time></trkpt><trkpt lat="45.72443" lon="8.4129917"><ele>441.00000000000006</ele><time>2026-04-06T14:09:26.046Z</time></trkpt><trkpt lat="45.72452" lon="8.4130817"><ele>438.00000000000006</ele><time>2026-04-06T14:09:27.045Z</time></trkpt><trkpt lat="45.7246067" lon="8.41319"><ele>435.0</ele><time>2026-04-06T14:09:28.046Z</time></trkpt><trkpt lat="45.724665" lon="8.4133183"><ele>432.0</ele><time>2026-04-06T14:09:29.046Z</time></trkpt><trkpt lat="45.7246967" lon="8.4134467"><ele>432.0</ele><time>2026-04-06T14:09:30.046Z</time></trkpt><trkpt lat="45.7247067" lon="8.4135567"><ele>432.0</ele><time>2026-04-06T14:09:31.046Z</time></trkpt><trkpt lat="45.7246967" lon="8.41368"><ele>432.0</ele><time>2026-04-06T14:09:32.046Z</time></trkpt><trkpt lat="45.7246383" lon="8.41386"><ele>432.0</ele><time>2026-04-06T14:09:33.046Z</time></trkpt><trkpt lat="45.72457" lon="8.4140467"><ele>432.5</ele><time>2026-04-06T14:09:34.046Z</time></trkpt><trkpt lat="45.7245133" lon="8.4142317"><ele>433.0</ele><time>2026-04-06T14:09:35.046Z</time></trkpt><trkpt lat="45.72446" lon="8.4144233"><ele>433.5</ele><time>2026-04-06T14:09:36.046Z</time></trkpt><trkpt lat="45.7244017" lon="8.4146"><ele>434.0</ele><time>2026-04-06T14:09:37.046Z</time></trkpt><trkpt lat="45.7243333" lon="8.41476"><ele>434.0</ele><time>2026-04-06T14:09:38.045Z</time></trkpt><trkpt lat="45.72425" lon="8.4149183"><ele>434.0</ele><time>2026-04-06T14:09:39.045Z</time></trkpt><trkpt lat="45.7241467" lon="8.4150733"><ele>434.0</ele><time>2026-04-06T14:09:40.046Z</time></trkpt><trkpt lat="45.7240483" lon="8.41523"><ele>434.0</ele><time>2026-04-06T14:09:41.046Z</time></trkpt><trkpt lat="45.72382" lon="8.415535"><ele>434.75</ele><time>2026-04-06T14:09:43.046Z</time></trkpt><trkpt lat="45.7237167" lon="8.4157017"><ele>435.5</ele><time>2026-04-06T14:09:44.046Z</time></trkpt><trkpt lat="45.7235917" lon="8.4158317"><ele>436.25</ele><time>2026-04-06T14:09:45.046Z</time></trkpt><trkpt lat="45.7234933" lon="8.4159617"><ele>437.0</ele><time>2026-04-06T14:09:46.046Z</time></trkpt><trkpt lat="45.7234083" lon="8.4161083"><ele>437.0</ele><time>2026-04-06T14:09:47.046Z</time></trkpt><trkpt lat="45.723325" lon="8.4162617"><ele>437.0</ele><time>2026-04-06T14:09:48.046Z</time></trkpt><trkpt lat="45.723245" lon="8.41641"><ele>437.0</ele><time>2026-04-06T14:09:49.046Z</time></trkpt><trkpt lat="45.7231567" lon="8.4165117"><ele>437.0</ele><time>2026-04-06T14:09:50.046Z</time></trkpt><trkpt lat="45.723075" lon="8.4166117"><ele>430.25</ele><time>2026-04-06T14:09:51.046Z</time></trkpt><trkpt lat="45.7229883" lon="8.4167367"><ele>423.5</ele><time>2026-04-06T14:09:52.046Z</time></trkpt><trkpt lat="45.7229133" lon="8.416895"><ele>416.75</ele><time>2026-04-06T14:09:53.046Z</time></trkpt><trkpt lat="45.7228517" lon="8.4170783"><ele>410.0</ele><time>2026-04-06T14:09:54.046Z</time></trkpt><trkpt lat="45.7228217" lon="8.4172717"><ele>409.5</ele><time>2026-04-06T14:09:55.046Z</time></trkpt><trkpt lat="45.7227683" lon="8.4174583"><ele>409.0</ele><time>2026-04-06T14:09:56.046Z</time></trkpt><trkpt lat="45.72272" lon="8.4176267"><ele>408.5</ele><time>2026-04-06T14:09:57.046Z</time></trkpt><trkpt lat="45.7226667" lon="8.4177717"><ele>408.0</ele><time>2026-04-06T14:09:58.045Z</time></trkpt><trkpt lat="45.7226167" lon="8.4178867"><ele>408.0</ele><time>2026-04-06T14:09:59.046Z</time></trkpt><trkpt lat="45.7225583" lon="8.417985"><ele>408.0</ele><time>2026-04-06T14:10:00.045Z</time></trkpt><trkpt lat="45.7224933" lon="8.4180483"><ele>408.0</ele><time>2026-04-06T14:10:01.046Z</time></trkpt><trkpt lat="45.7224033" lon="8.4180717"><ele>408.0</ele><time>2026-04-06T14:10:02.046Z</time></trkpt><trkpt lat="45.7222967" lon="8.4180683"><ele>408.0</ele><time>2026-04-06T14:10:03.046Z</time></trkpt><trkpt lat="45.7221633" lon="8.418065"><ele>404.25</ele><time>2026-04-06T14:10:04.046Z</time></trkpt><trkpt lat="45.722025" lon="8.41808"><ele>400.5</ele><time>2026-04-06T14:10:05.046Z</time></trkpt><trkpt lat="45.7218667" lon="8.4180933"><ele>396.75</ele><time>2026-04-06T14:10:06.046Z</time></trkpt><trkpt lat="45.7217167" lon="8.4181117"><ele>393.0</ele><time>2026-04-06T14:10:07.046Z</time></trkpt><trkpt lat="45.7215833" lon="8.4181333"><ele>392.59999999999997</ele><time>2026-04-06T14:10:08.046Z</time></trkpt><trkpt lat="45.7214683" lon="8.4181533"><ele>392.2</ele><time>2026-04-06T14:10:09.046Z</time></trkpt><trkpt lat="45.721365" lon="8.4181583"><ele>391.8</ele><time>2026-04-06T14:10:10.045Z</time></trkpt><trkpt lat="45.7212717" lon="8.41817"><ele>391.4</ele><time>2026-04-06T14:10:11.046Z</time></trkpt><trkpt lat="45.7211933" lon="8.4182"><ele>391.0</ele><time>2026-04-06T14:10:12.046Z</time></trkpt><trkpt lat="45.7211283" lon="8.4182417"><ele>391.0</ele><time>2026-04-06T14:10:13.046Z</time></trkpt><trkpt lat="45.7210817" lon="8.418335"><ele>391.0</ele><time>2026-04-06T14:10:14.046Z</time></trkpt><trkpt lat="45.7210733" lon="8.4184817"><ele>391.0</ele><time>2026-04-06T14:10:15.046Z</time></trkpt><trkpt lat="45.7210833" lon="8.4186467"><ele>391.0</ele><time>2026-04-06T14:10:16.046Z</time></trkpt><trkpt lat="45.721095" lon="8.41882"><ele>391.0</ele><time>2026-04-06T14:10:17.046Z</time></trkpt><trkpt lat="45.7210967" lon="8.4190033"><ele>389.25</ele><time>2026-04-06T14:10:18.046Z</time></trkpt><trkpt lat="45.72109" lon="8.4191867"><ele>387.5</ele><time>2026-04-06T14:10:19.045Z</time></trkpt><trkpt lat="45.7210967" lon="8.4193683"><ele>385.75</ele><time>2026-04-06T14:10:20.046Z</time></trkpt><trkpt lat="45.721095" lon="8.4195233"><ele>384.0</ele><time>2026-04-06T14:10:21.046Z</time></trkpt><trkpt lat="45.7211033" lon="8.4196733"><ele>381.5</ele><time>2026-04-06T14:10:22.046Z</time></trkpt><trkpt lat="45.7211317" lon="8.4198183"><ele>379.0</ele><time>2026-04-06T14:10:23.046Z</time></trkpt><trkpt lat="45.721195" lon="8.419965"><ele>376.5</ele><time>2026-04-06T14:10:24.046Z</time></trkpt><trkpt lat="45.7212783" lon="8.4201033"><ele>374.0</ele><time>2026-04-06T14:10:25.045Z</time></trkpt><trkpt lat="45.72137" lon="8.4202533"><ele>374.0</ele><time>2026-04-06T14:10:26.045Z</time></trkpt><trkpt lat="45.721455" lon="8.4203967"><ele>374.0</ele><time>2026-04-06T14:10:27.046Z</time></trkpt><trkpt lat="45.7215317" lon="8.4205333"><ele>374.0</ele><time>2026-04-06T14:10:28.046Z</time></trkpt><trkpt lat="45.7216067" lon="8.4206583"><ele>374.0</ele><time>2026-04-06T14:10:29.046Z</time></trkpt><trkpt lat="45.721685" lon="8.42077"><ele>373.79999999999995</ele><time>2026-04-06T14:10:30.045Z</time></trkpt><trkpt lat="45.7217783" lon="8.4208533"><ele>373.59999999999997</ele><time>2026-04-06T14:10:31.046Z</time></trkpt><trkpt lat="45.721865" lon="8.4208867"><ele>373.4</ele><time>2026-04-06T14:10:32.046Z</time></trkpt><trkpt lat="45.7219567" lon="8.4208967"><ele>373.2</ele><time>2026-04-06T14:10:33.046Z</time></trkpt><trkpt lat="45.7220433" lon="8.4208967"><ele>373.0</ele><time>2026-04-06T14:10:34.046Z</time></trkpt><trkpt lat="45.722135" lon="8.4208533"><ele>375.16666666666663</ele><time>2026-04-06T14:10:35.045Z</time></trkpt><trkpt lat="45.7222" lon="8.4208017"><ele>377.3333333333333</ele><time>2026-04-06T14:10:36.046Z</time></trkpt><trkpt lat="45.7222683" lon="8.4207567"><ele>379.5</ele><time>2026-04-06T14:10:37.046Z</time></trkpt><trkpt lat="45.7223633" lon="8.4207417"><ele>381.66666666666663</ele><time>2026-04-06T14:10:39.046Z</time></trkpt><trkpt lat="45.722435" lon="8.4208033"><ele>383.8333333333333</ele><time>2026-04-06T14:10:41.046Z</time></trkpt><trkpt lat="45.72244" lon="8.4209667"><ele>386.0</ele><time>2026-04-06T14:10:43.045Z</time></trkpt><trkpt lat="45.722395" lon="8.421105"><ele>386.0</ele><time>2026-04-06T14:10:44.046Z</time></trkpt><trkpt lat="45.72233" lon="8.4212683"><ele>386.0</ele><time>2026-04-06T14:10:45.046Z</time></trkpt><trkpt lat="45.72221" lon="8.4214733"><ele>386.0</ele><time>2026-04-06T14:10:46.046Z</time></trkpt><trkpt lat="45.7220867" lon="8.4216667"><ele>385.3333333333333</ele><time>2026-04-06T14:10:47.046Z</time></trkpt><trkpt lat="45.7219683" lon="8.4218133"><ele>384.66666666666663</ele><time>2026-04-06T14:10:48.045Z</time></trkpt><trkpt lat="45.7218433" lon="8.4219367"><ele>384.0</ele><time>2026-04-06T14:10:49.046Z</time></trkpt><trkpt lat="45.7217067" lon="8.4220467"><ele>390.0</ele><time>2026-04-06T14:10:50.046Z</time></trkpt><trkpt lat="45.7215983" lon="8.4221783"><ele>396.0</ele><time>2026-04-06T14:10:51.046Z</time></trkpt><trkpt lat="45.7214983" lon="8.4223433"><ele>402.0</ele><time>2026-04-06T14:10:52.046Z</time></trkpt><trkpt lat="45.7213967" lon="8.4225333"><ele>402.0</ele><time>2026-04-06T14:10:53.046Z</time></trkpt><trkpt lat="45.7212867" lon="8.42272"><ele>402.0</ele><time>2026-04-06T14:10:54.046Z</time></trkpt><trkpt lat="45.721175" lon="8.4228667"><ele>402.0</ele><time>2026-04-06T14:10:55.046Z</time></trkpt><trkpt lat="45.721075" lon="8.422975"><ele>402.0</ele><time>2026-04-06T14:10:56.046Z</time></trkpt><trkpt lat="45.7209783" lon="8.42304"><ele>403.1666666666667</ele><time>2026-04-06T14:10:57.045Z</time></trkpt><trkpt lat="45.7208817" lon="8.423075"><ele>404.33333333333337</ele><time>2026-04-06T14:10:58.046Z</time></trkpt><trkpt lat="45.7207983" lon="8.423115"><ele>405.5</ele><time>2026-04-06T14:10:59.046Z</time></trkpt><trkpt lat="45.72073" lon="8.42316"><ele>406.6666666666667</ele><time>2026-04-06T14:11:00.046Z</time></trkpt><trkpt lat="45.72066" lon="8.423205"><ele>407.83333333333337</ele><time>2026-04-06T14:11:01.046Z</time></trkpt><trkpt lat="45.7205983" lon="8.4232417"><ele>409.0</ele><time>2026-04-06T14:11:02.045Z</time></trkpt><trkpt lat="45.720525" lon="8.4233567"><ele>409.0</ele><time>2026-04-06T14:11:04.045Z</time></trkpt><trkpt lat="45.7205533" lon="8.4235317"><ele>409.0</ele><time>2026-04-06T14:11:06.046Z</time></trkpt><trkpt lat="45.720595" lon="8.4236217"><ele>409.0</ele><time>2026-04-06T14:11:07.045Z</time></trkpt><trkpt lat="45.7206883" lon="8.4237417"><ele>409.0</ele><time>2026-04-06T14:11:11.046Z</time></trkpt><trkpt lat="45.7208033" lon="8.4236933"><ele>409.0</ele><time>2026-04-06T14:11:13.046Z</time></trkpt><trkpt lat="45.72088" lon="8.42366"><ele>409.0</ele><time>2026-04-06T14:11:14.046Z</time></trkpt><trkpt lat="45.7209783" lon="8.4236317"><ele>409.0</ele><time>2026-04-06T14:11:15.046Z</time></trkpt><trkpt lat="45.7210833" lon="8.4236033"><ele>409.0</ele><time>2026-04-06T14:11:16.046Z</time></trkpt><trkpt lat="45.721205" lon="8.4235833"><ele>409.0</ele><time>2026-04-06T14:11:17.045Z</time></trkpt><trkpt lat="45.7213283" lon="8.4235617"><ele>409.75</ele><time>2026-04-06T14:11:18.046Z</time></trkpt><trkpt lat="45.721455" lon="8.4235417"><ele>410.5</ele><time>2026-04-06T14:11:19.046Z</time></trkpt><trkpt lat="45.7215817" lon="8.4235"><ele>411.25</ele><time>2026-04-06T14:11:20.046Z</time></trkpt><trkpt lat="45.7217033" lon="8.4234533"><ele>412.0</ele><time>2026-04-06T14:11:21.046Z</time></trkpt><trkpt lat="45.7218267" lon="8.4234067"><ele>411.20000000000005</ele><time>2026-04-06T14:11:22.045Z</time></trkpt><trkpt lat="45.7219317" lon="8.4233517"><ele>410.4</ele><time>2026-04-06T14:11:23.046Z</time></trkpt><trkpt lat="45.72202" lon="8.423305"><ele>409.6</ele><time>2026-04-06T14:11:24.046Z</time></trkpt><trkpt lat="45.722105" lon="8.4232717"><ele>408.79999999999995</ele><time>2026-04-06T14:11:25.046Z</time></trkpt><trkpt lat="45.722165" lon="8.4232367"><ele>408.0</ele><time>2026-04-06T14:11:26.046Z</time></trkpt><trkpt lat="45.7222733" lon="8.4231883"><ele>408.0</ele><time>2026-04-06T14:11:28.046Z</time></trkpt><trkpt lat="45.72238" lon="8.4231267"><ele>408.0</ele><time>2026-04-06T14:11:30.046Z</time></trkpt><trkpt lat="45.72244" lon="8.42308"><ele>408.0</ele><time>2026-04-06T14:11:31.046Z</time></trkpt><trkpt lat="45.7225633" lon="8.4230117"><ele>408.0</ele><time>2026-04-06T14:11:33.046Z</time></trkpt><trkpt lat="45.7226283" lon="8.4229867"><ele>408.0</ele><time>2026-04-06T14:11:34.046Z</time></trkpt><trkpt lat="45.7226917" lon="8.4229517"><ele>408.3333333333333</ele><time>2026-04-06T14:11:35.046Z</time></trkpt><trkpt lat="45.7227583" lon="8.422915"><ele>408.66666666666663</ele><time>2026-04-06T14:11:36.046Z</time></trkpt><trkpt lat="45.722825" lon="8.4228767"><ele>409.0</ele><time>2026-04-06T14:11:37.046Z</time></trkpt><trkpt lat="45.7228983" lon="8.4228467"><ele>409.3333333333333</ele><time>2026-04-06T14:11:38.046Z</time></trkpt><trkpt lat="45.7229733" lon="8.4228183"><ele>409.66666666666663</ele><time>2026-04-06T14:11:39.046Z</time></trkpt><trkpt lat="45.7230583" lon="8.4227983"><ele>410.0</ele><time>2026-04-06T14:11:40.046Z</time></trkpt><trkpt lat="45.7231583" lon="8.422795"><ele>410.0</ele><time>2026-04-06T14:11:41.046Z</time></trkpt><trkpt lat="45.7232783" lon="8.4228167"><ele>410.0</ele><time>2026-04-06T14:11:42.045Z</time></trkpt><trkpt lat="45.7234" lon="8.42284"><ele>410.0</ele><time>2026-04-06T14:11:43.046Z</time></trkpt><trkpt lat="45.7235167" lon="8.42287"><ele>410.0</ele><time>2026-04-06T14:11:44.045Z</time></trkpt><trkpt lat="45.7236217" lon="8.4229133"><ele>409.6</ele><time>2026-04-06T14:11:45.046Z</time></trkpt><trkpt lat="45.72373" lon="8.4229617"><ele>409.2</ele><time>2026-04-06T14:11:46.046Z</time></trkpt><trkpt lat="45.7238417" lon="8.422985"><ele>408.79999999999995</ele><time>2026-04-06T14:11:47.046Z</time></trkpt><trkpt lat="45.7239433" lon="8.4229967"><ele>408.4</ele><time>2026-04-06T14:11:48.046Z</time></trkpt><trkpt lat="45.7240517" lon="8.422995"><ele>408.0</ele><time>2026-04-06T14:11:49.045Z</time></trkpt><trkpt lat="45.7241383" lon="8.4229983"><ele>406.57142857142856</ele><time>2026-04-06T14:11:50.045Z</time></trkpt><trkpt lat="45.72422" lon="8.4230067"><ele>405.14285714285717</ele><time>2026-04-06T14:11:51.046Z</time></trkpt><trkpt lat="45.7242817" lon="8.4230267"><ele>403.71428571428567</ele><time>2026-04-06T14:11:52.046Z</time></trkpt><trkpt lat="45.7243567" lon="8.4230667"><ele>402.2857142857143</ele><time>2026-04-06T14:11:54.046Z</time></trkpt><trkpt lat="45.7244233" lon="8.4231017"><ele>400.85714285714283</ele><time>2026-04-06T14:11:56.046Z</time></trkpt><trkpt lat="45.7244817" lon="8.4231683"><ele>399.4285714285714</ele><time>2026-04-06T14:11:58.045Z</time></trkpt><trkpt lat="45.7245133" lon="8.42325"><ele>398.0</ele><time>2026-04-06T14:11:59.046Z</time></trkpt><trkpt lat="45.724545" lon="8.423355"><ele>397.66666666666663</ele><time>2026-04-06T14:12:00.046Z</time></trkpt><trkpt lat="45.7245767" lon="8.4234683"><ele>397.3333333333333</ele><time>2026-04-06T14:12:01.046Z</time></trkpt><trkpt lat="45.72461" lon="8.423575"><ele>397.0</ele><time>2026-04-06T14:12:02.046Z</time></trkpt><trkpt lat="45.72464" lon="8.4236783"><ele>396.66666666666663</ele><time>2026-04-06T14:12:03.046Z</time></trkpt><trkpt lat="45.7246717" lon="8.4237767"><ele>396.3333333333333</ele><time>2026-04-06T14:12:04.046Z</time></trkpt><trkpt lat="45.724695" lon="8.4238617"><ele>396.0</ele><time>2026-04-06T14:12:05.046Z</time></trkpt><trkpt lat="45.7247383" lon="8.4239867"><ele>395.8</ele><time>2026-04-06T14:12:07.045Z</time></trkpt><trkpt lat="45.7247067" lon="8.4240867"><ele>395.6</ele><time>2026-04-06T14:12:10.046Z</time></trkpt><trkpt lat="45.7245867" lon="8.4241533"><ele>395.4</ele><time>2026-04-06T14:12:12.046Z</time></trkpt><trkpt lat="45.7244967" lon="8.4242"><ele>395.2</ele><time>2026-04-06T14:12:13.046Z</time></trkpt><trkpt lat="45.724405" lon="8.4242483"><ele>395.0</ele><time>2026-04-06T14:12:14.046Z</time></trkpt><trkpt lat="45.724305" lon="8.4242917"><ele>395.0</ele><time>2026-04-06T14:12:15.046Z</time></trkpt><trkpt lat="45.7241967" lon="8.42435"><ele>395.0</ele><time>2026-04-06T14:12:16.046Z</time></trkpt><trkpt lat="45.7240833" lon="8.4243967"><ele>395.0</ele><time>2026-04-06T14:12:17.046Z</time></trkpt><trkpt lat="45.723975" lon="8.4244583"><ele>395.0</ele><time>2026-04-06T14:12:18.044Z</time></trkpt><trkpt lat="45.7238767" lon="8.4245117"><ele>394.99999999999994</ele><time>2026-04-06T14:12:19.045Z</time></trkpt><trkpt lat="45.723795" lon="8.4245567"><ele>395.0</ele><time>2026-04-06T14:12:20.045Z</time></trkpt><trkpt lat="45.7237267" lon="8.4246"><ele>395.0</ele><time>2026-04-06T14:12:21.045Z</time></trkpt><trkpt lat="45.7236667" lon="8.4246317"><ele>395.0</ele><time>2026-04-06T14:12:22.044Z</time></trkpt><trkpt lat="45.72357" lon="8.424695"><ele>394.99999999999994</ele><time>2026-04-06T14:12:24.045Z</time></trkpt><trkpt lat="45.7234833" lon="8.4246483"><ele>395.0</ele><time>2026-04-06T14:12:27.045Z</time></trkpt><trkpt lat="45.7234333" lon="8.4244817"><ele>394.4</ele><time>2026-04-06T14:12:29.045Z</time></trkpt><trkpt lat="45.72341" lon="8.4243817"><ele>393.8</ele><time>2026-04-06T14:12:30.045Z</time></trkpt><trkpt lat="45.72338" lon="8.4242917"><ele>393.20000000000005</ele><time>2026-04-06T14:12:31.044Z</time></trkpt><trkpt lat="45.7233333" lon="8.42415"><ele>392.6</ele><time>2026-04-06T14:12:33.045Z</time></trkpt><trkpt lat="45.7232917" lon="8.4239933"><ele>392.0</ele><time>2026-04-06T14:12:35.045Z</time></trkpt><trkpt lat="45.72325" lon="8.423845"><ele>392.99999999999994</ele><time>2026-04-06T14:12:37.045Z</time></trkpt><trkpt lat="45.72328" lon="8.4237383"><ele>394.0</ele><time>2026-04-06T14:12:39.045Z</time></trkpt><trkpt lat="45.723385" lon="8.4236867"><ele>395.0</ele><time>2026-04-06T14:12:41.044Z</time></trkpt><trkpt lat="45.7234567" lon="8.4236367"><ele>396.0</ele><time>2026-04-06T14:12:43.045Z</time></trkpt><trkpt lat="45.7235367" lon="8.4236233"><ele>396.99999999999994</ele><time>2026-04-06T14:12:45.045Z</time></trkpt><trkpt lat="45.7236" lon="8.4236617"><ele>398.0</ele><time>2026-04-06T14:12:47.045Z</time></trkpt><trkpt lat="45.7236517" lon="8.4237483"><ele>398.0</ele><time>2026-04-06T14:12:49.044Z</time></trkpt><trkpt lat="45.7236633" lon="8.4238383"><ele>395.0</ele><time>2026-04-06T14:12:51.045Z</time></trkpt><trkpt lat="45.7236317" lon="8.423935"><ele>395.0</ele><time>2026-04-06T14:12:54.045Z</time></trkpt></trkseg></trk></gpx>